<?xml version="1.0" encoding="UTF-8" standalone="no" ?>
<gpx xmlns="http://www.topografix.com/GPX/1/1" xmlns:xsi="http://www.w3.org/2001/XMLSchema-instance" xsi:schemaLocation="http://www.topografix.com/GPX/1/1 http://www.topografix.com/GPX/1/1/gpx.xsd" version="1.1" creator="VisuGPX - https://www.visugpx.com">
  <metadata>
    <name>Rando au départ de Saint Rémy les chevreuses</name>
    <desc><![CDATA[Saint Rémy Les Cheuvreuses]]></desc>
  </metadata>
  <trk>
    <name><![CDATA[17-JAN-15 17:08:51]]></name>
    <trkseg>
      <trkpt lat="48.70328" lon="2.07072">
        <ele>43.4</ele>
        <time>2015-01-17T08:18:22Z</time>
      </trkpt>
      <trkpt lat="48.70327" lon="2.07072">
        <ele>46.76</ele>
        <time>2015-01-17T08:18:25Z</time>
      </trkpt>
      <trkpt lat="48.70327" lon="2.07071">
        <ele>50.61</ele>
        <time>2015-01-17T08:18:29Z</time>
      </trkpt>
      <trkpt lat="48.70327" lon="2.07073">
        <ele>54.45</ele>
        <time>2015-01-17T08:18:33Z</time>
      </trkpt>
      <trkpt lat="48.70327" lon="2.07073">
        <ele>57.34</ele>
        <time>2015-01-17T08:18:37Z</time>
      </trkpt>
      <trkpt lat="48.70327" lon="2.07073">
        <ele>59.74</ele>
        <time>2015-01-17T08:18:40Z</time>
      </trkpt>
      <trkpt lat="48.70326" lon="2.07073">
        <ele>63.1</ele>
        <time>2015-01-17T08:18:44Z</time>
      </trkpt>
      <trkpt lat="48.70326" lon="2.07073">
        <ele>62.62</ele>
        <time>2015-01-17T08:18:45Z</time>
      </trkpt>
      <trkpt lat="48.70325" lon="2.07073">
        <ele>65.51</ele>
        <time>2015-01-17T08:18:54Z</time>
      </trkpt>
      <trkpt lat="48.70325" lon="2.07069">
        <ele>67.43</ele>
        <time>2015-01-17T08:18:58Z</time>
      </trkpt>
      <trkpt lat="48.70327" lon="2.07067">
        <ele>69.83</ele>
        <time>2015-01-17T08:19:10Z</time>
      </trkpt>
      <trkpt lat="48.70325" lon="2.07068">
        <ele>72.24</ele>
        <time>2015-01-17T08:19:24Z</time>
      </trkpt>
      <trkpt lat="48.70323" lon="2.07068">
        <ele>75.12</ele>
        <time>2015-01-17T08:19:39Z</time>
      </trkpt>
      <trkpt lat="48.70324" lon="2.07068">
        <ele>77.04</ele>
        <time>2015-01-17T08:19:57Z</time>
      </trkpt>
      <trkpt lat="48.70323" lon="2.07069">
        <ele>77.52</ele>
        <time>2015-01-17T08:20:11Z</time>
      </trkpt>
      <trkpt lat="48.70323" lon="2.07069">
        <ele>77.52</ele>
        <time>2015-01-17T08:20:23Z</time>
      </trkpt>
      <trkpt lat="48.70324" lon="2.07069">
        <ele>77.52</ele>
        <time>2015-01-17T08:20:39Z</time>
      </trkpt>
      <trkpt lat="48.70324" lon="2.07069">
        <ele>77.52</ele>
        <time>2015-01-17T08:20:56Z</time>
      </trkpt>
      <trkpt lat="48.70324" lon="2.07069">
        <ele>77.52</ele>
        <time>2015-01-17T08:20:57Z</time>
      </trkpt>
      <trkpt lat="48.70324" lon="2.0707">
        <ele>77.52</ele>
        <time>2015-01-17T08:21:08Z</time>
      </trkpt>
      <trkpt lat="48.70324" lon="2.0707">
        <ele>77.52</ele>
        <time>2015-01-17T08:21:27Z</time>
      </trkpt>
      <trkpt lat="48.70324" lon="2.0707">
        <ele>77.52</ele>
        <time>2015-01-17T08:21:37Z</time>
      </trkpt>
      <trkpt lat="48.70324" lon="2.0707">
        <ele>77.52</ele>
        <time>2015-01-17T08:21:47Z</time>
      </trkpt>
      <trkpt lat="48.70323" lon="2.07071">
        <ele>77.52</ele>
        <time>2015-01-17T08:21:57Z</time>
      </trkpt>
      <trkpt lat="48.70324" lon="2.07074">
        <ele>78</ele>
        <time>2015-01-17T08:22:07Z</time>
      </trkpt>
      <trkpt lat="48.70323" lon="2.07073">
        <ele>78</ele>
        <time>2015-01-17T08:22:10Z</time>
      </trkpt>
      <trkpt lat="48.7032" lon="2.07073">
        <ele>78</ele>
        <time>2015-01-17T08:22:15Z</time>
      </trkpt>
      <trkpt lat="48.70315" lon="2.07074">
        <ele>78</ele>
        <time>2015-01-17T08:22:20Z</time>
      </trkpt>
      <trkpt lat="48.70312" lon="2.07069">
        <ele>78</ele>
        <time>2015-01-17T08:22:26Z</time>
      </trkpt>
      <trkpt lat="48.70311" lon="2.07066">
        <ele>78</ele>
        <time>2015-01-17T08:22:28Z</time>
      </trkpt>
      <trkpt lat="48.70308" lon="2.07064">
        <ele>78</ele>
        <time>2015-01-17T08:22:30Z</time>
      </trkpt>
      <trkpt lat="48.70303" lon="2.07051">
        <ele>78</ele>
        <time>2015-01-17T08:22:40Z</time>
      </trkpt>
      <trkpt lat="48.70302" lon="2.07047">
        <ele>78</ele>
        <time>2015-01-17T08:22:42Z</time>
      </trkpt>
      <trkpt lat="48.70301" lon="2.07041">
        <ele>77.52</ele>
        <time>2015-01-17T08:22:48Z</time>
      </trkpt>
      <trkpt lat="48.703" lon="2.07036">
        <ele>77.52</ele>
        <time>2015-01-17T08:22:52Z</time>
      </trkpt>
      <trkpt lat="48.703" lon="2.07029">
        <ele>77.52</ele>
        <time>2015-01-17T08:22:56Z</time>
      </trkpt>
      <trkpt lat="48.70299" lon="2.07026">
        <ele>77.52</ele>
        <time>2015-01-17T08:22:59Z</time>
      </trkpt>
      <trkpt lat="48.70299" lon="2.07024">
        <ele>77.52</ele>
        <time>2015-01-17T08:23:01Z</time>
      </trkpt>
      <trkpt lat="48.70298" lon="2.07014">
        <ele>77.04</ele>
        <time>2015-01-17T08:23:07Z</time>
      </trkpt>
      <trkpt lat="48.70298" lon="2.07004">
        <ele>77.04</ele>
        <time>2015-01-17T08:23:14Z</time>
      </trkpt>
      <trkpt lat="48.70294" lon="2.06996">
        <ele>77.04</ele>
        <time>2015-01-17T08:23:19Z</time>
      </trkpt>
      <trkpt lat="48.70288" lon="2.06984">
        <ele>77.52</ele>
        <time>2015-01-17T08:23:28Z</time>
      </trkpt>
      <trkpt lat="48.70284" lon="2.06978">
        <ele>77.52</ele>
        <time>2015-01-17T08:23:33Z</time>
      </trkpt>
      <trkpt lat="48.70279" lon="2.06975">
        <ele>78</ele>
        <time>2015-01-17T08:23:37Z</time>
      </trkpt>
      <trkpt lat="48.70275" lon="2.06969">
        <ele>78.48</ele>
        <time>2015-01-17T08:23:42Z</time>
      </trkpt>
      <trkpt lat="48.70274" lon="2.06965">
        <ele>78.48</ele>
        <time>2015-01-17T08:23:44Z</time>
      </trkpt>
      <trkpt lat="48.70269" lon="2.0696">
        <ele>78.48</ele>
        <time>2015-01-17T08:23:49Z</time>
      </trkpt>
      <trkpt lat="48.70265" lon="2.06961">
        <ele>78.48</ele>
        <time>2015-01-17T08:23:52Z</time>
      </trkpt>
      <trkpt lat="48.70261" lon="2.06956">
        <ele>78.97</ele>
        <time>2015-01-17T08:23:59Z</time>
      </trkpt>
      <trkpt lat="48.70259" lon="2.06956">
        <ele>78.97</ele>
        <time>2015-01-17T08:24:02Z</time>
      </trkpt>
      <trkpt lat="48.7026" lon="2.06951">
        <ele>78.97</ele>
        <time>2015-01-17T08:24:05Z</time>
      </trkpt>
      <trkpt lat="48.7026" lon="2.06927">
        <ele>78.48</ele>
        <time>2015-01-17T08:24:18Z</time>
      </trkpt>
      <trkpt lat="48.70256" lon="2.06906">
        <ele>78.97</ele>
        <time>2015-01-17T08:24:29Z</time>
      </trkpt>
      <trkpt lat="48.70256" lon="2.06897">
        <ele>78.97</ele>
        <time>2015-01-17T08:24:34Z</time>
      </trkpt>
      <trkpt lat="48.70254" lon="2.06875">
        <ele>78.97</ele>
        <time>2015-01-17T08:24:46Z</time>
      </trkpt>
      <trkpt lat="48.70253" lon="2.0686">
        <ele>78.97</ele>
        <time>2015-01-17T08:24:55Z</time>
      </trkpt>
      <trkpt lat="48.70253" lon="2.06857">
        <ele>78.97</ele>
        <time>2015-01-17T08:24:57Z</time>
      </trkpt>
      <trkpt lat="48.70251" lon="2.06844">
        <ele>79.45</ele>
        <time>2015-01-17T08:25:06Z</time>
      </trkpt>
      <trkpt lat="48.70251" lon="2.06837">
        <ele>79.45</ele>
        <time>2015-01-17T08:25:10Z</time>
      </trkpt>
      <trkpt lat="48.7025" lon="2.06822">
        <ele>79.45</ele>
        <time>2015-01-17T08:25:21Z</time>
      </trkpt>
      <trkpt lat="48.70249" lon="2.0682">
        <ele>79.93</ele>
        <time>2015-01-17T08:25:23Z</time>
      </trkpt>
      <trkpt lat="48.70248" lon="2.06814">
        <ele>79.93</ele>
        <time>2015-01-17T08:25:27Z</time>
      </trkpt>
      <trkpt lat="48.70247" lon="2.06807">
        <ele>79.93</ele>
        <time>2015-01-17T08:25:32Z</time>
      </trkpt>
      <trkpt lat="48.70247" lon="2.06801">
        <ele>79.93</ele>
        <time>2015-01-17T08:25:36Z</time>
      </trkpt>
      <trkpt lat="48.70246" lon="2.06798">
        <ele>79.93</ele>
        <time>2015-01-17T08:25:38Z</time>
      </trkpt>
      <trkpt lat="48.70244" lon="2.0679">
        <ele>80.41</ele>
        <time>2015-01-17T08:25:44Z</time>
      </trkpt>
      <trkpt lat="48.70242" lon="2.06788">
        <ele>80.41</ele>
        <time>2015-01-17T08:25:46Z</time>
      </trkpt>
      <trkpt lat="48.70241" lon="2.06786">
        <ele>79.93</ele>
        <time>2015-01-17T08:25:48Z</time>
      </trkpt>
      <trkpt lat="48.70241" lon="2.0677">
        <ele>80.41</ele>
        <time>2015-01-17T08:25:57Z</time>
      </trkpt>
      <trkpt lat="48.70241" lon="2.06769">
        <ele>80.41</ele>
        <time>2015-01-17T08:25:58Z</time>
      </trkpt>
      <trkpt lat="48.7024" lon="2.06761">
        <ele>80.41</ele>
        <time>2015-01-17T08:26:02Z</time>
      </trkpt>
      <trkpt lat="48.70239" lon="2.06748">
        <ele>80.89</ele>
        <time>2015-01-17T08:26:08Z</time>
      </trkpt>
      <trkpt lat="48.70239" lon="2.06741">
        <ele>80.89</ele>
        <time>2015-01-17T08:26:11Z</time>
      </trkpt>
      <trkpt lat="48.70237" lon="2.06738">
        <ele>80.89</ele>
        <time>2015-01-17T08:26:13Z</time>
      </trkpt>
      <trkpt lat="48.70233" lon="2.06718">
        <ele>81.37</ele>
        <time>2015-01-17T08:26:24Z</time>
      </trkpt>
      <trkpt lat="48.7023" lon="2.06709">
        <ele>81.37</ele>
        <time>2015-01-17T08:26:32Z</time>
      </trkpt>
      <trkpt lat="48.70227" lon="2.06694">
        <ele>81.85</ele>
        <time>2015-01-17T08:26:44Z</time>
      </trkpt>
      <trkpt lat="48.70225" lon="2.0669">
        <ele>81.85</ele>
        <time>2015-01-17T08:26:47Z</time>
      </trkpt>
      <trkpt lat="48.70223" lon="2.06684">
        <ele>81.85</ele>
        <time>2015-01-17T08:26:51Z</time>
      </trkpt>
      <trkpt lat="48.70221" lon="2.06671">
        <ele>82.33</ele>
        <time>2015-01-17T08:26:58Z</time>
      </trkpt>
      <trkpt lat="48.70217" lon="2.06658">
        <ele>82.33</ele>
        <time>2015-01-17T08:27:08Z</time>
      </trkpt>
      <trkpt lat="48.70215" lon="2.06648">
        <ele>82.81</ele>
        <time>2015-01-17T08:27:15Z</time>
      </trkpt>
      <trkpt lat="48.70214" lon="2.06637">
        <ele>82.81</ele>
        <time>2015-01-17T08:27:21Z</time>
      </trkpt>
      <trkpt lat="48.70213" lon="2.06625">
        <ele>83.29</ele>
        <time>2015-01-17T08:27:28Z</time>
      </trkpt>
      <trkpt lat="48.70211" lon="2.06605">
        <ele>83.77</ele>
        <time>2015-01-17T08:27:38Z</time>
      </trkpt>
      <trkpt lat="48.7021" lon="2.06603">
        <ele>83.77</ele>
        <time>2015-01-17T08:27:39Z</time>
      </trkpt>
      <trkpt lat="48.70209" lon="2.06598">
        <ele>83.77</ele>
        <time>2015-01-17T08:27:42Z</time>
      </trkpt>
      <trkpt lat="48.70201" lon="2.06573">
        <ele>84.25</ele>
        <time>2015-01-17T08:27:53Z</time>
      </trkpt>
      <trkpt lat="48.70197" lon="2.06561">
        <ele>84.25</ele>
        <time>2015-01-17T08:28:00Z</time>
      </trkpt>
      <trkpt lat="48.70194" lon="2.06545">
        <ele>84.73</ele>
        <time>2015-01-17T08:28:11Z</time>
      </trkpt>
      <trkpt lat="48.70191" lon="2.06538">
        <ele>84.73</ele>
        <time>2015-01-17T08:28:17Z</time>
      </trkpt>
      <trkpt lat="48.70188" lon="2.06532">
        <ele>85.21</ele>
        <time>2015-01-17T08:28:24Z</time>
      </trkpt>
      <trkpt lat="48.70183" lon="2.0652">
        <ele>85.69</ele>
        <time>2015-01-17T08:28:34Z</time>
      </trkpt>
      <trkpt lat="48.70181" lon="2.06517">
        <ele>85.69</ele>
        <time>2015-01-17T08:28:36Z</time>
      </trkpt>
      <trkpt lat="48.7018" lon="2.06511">
        <ele>85.69</ele>
        <time>2015-01-17T08:28:40Z</time>
      </trkpt>
      <trkpt lat="48.70176" lon="2.06502">
        <ele>86.18</ele>
        <time>2015-01-17T08:28:47Z</time>
      </trkpt>
      <trkpt lat="48.70175" lon="2.065">
        <ele>85.69</ele>
        <time>2015-01-17T08:28:49Z</time>
      </trkpt>
      <trkpt lat="48.70169" lon="2.06479">
        <ele>86.66</ele>
        <time>2015-01-17T08:29:02Z</time>
      </trkpt>
      <trkpt lat="48.70166" lon="2.06471">
        <ele>86.66</ele>
        <time>2015-01-17T08:29:08Z</time>
      </trkpt>
      <trkpt lat="48.70164" lon="2.06466">
        <ele>87.14</ele>
        <time>2015-01-17T08:29:13Z</time>
      </trkpt>
      <trkpt lat="48.70163" lon="2.06457">
        <ele>87.14</ele>
        <time>2015-01-17T08:29:17Z</time>
      </trkpt>
      <trkpt lat="48.70162" lon="2.06452">
        <ele>87.14</ele>
        <time>2015-01-17T08:29:20Z</time>
      </trkpt>
      <trkpt lat="48.70158" lon="2.06443">
        <ele>87.14</ele>
        <time>2015-01-17T08:29:26Z</time>
      </trkpt>
      <trkpt lat="48.70158" lon="2.06433">
        <ele>87.62</ele>
        <time>2015-01-17T08:29:35Z</time>
      </trkpt>
      <trkpt lat="48.70156" lon="2.06425">
        <ele>87.62</ele>
        <time>2015-01-17T08:29:41Z</time>
      </trkpt>
      <trkpt lat="48.70151" lon="2.06413">
        <ele>88.58</ele>
        <time>2015-01-17T08:29:51Z</time>
      </trkpt>
      <trkpt lat="48.70147" lon="2.06407">
        <ele>88.58</ele>
        <time>2015-01-17T08:29:57Z</time>
      </trkpt>
      <trkpt lat="48.70145" lon="2.06401">
        <ele>89.06</ele>
        <time>2015-01-17T08:30:01Z</time>
      </trkpt>
      <trkpt lat="48.70144" lon="2.06399">
        <ele>89.06</ele>
        <time>2015-01-17T08:30:03Z</time>
      </trkpt>
      <trkpt lat="48.70142" lon="2.06395">
        <ele>89.06</ele>
        <time>2015-01-17T08:30:06Z</time>
      </trkpt>
      <trkpt lat="48.70138" lon="2.06387">
        <ele>89.54</ele>
        <time>2015-01-17T08:30:11Z</time>
      </trkpt>
      <trkpt lat="48.70137" lon="2.06386">
        <ele>89.06</ele>
        <time>2015-01-17T08:30:12Z</time>
      </trkpt>
      <trkpt lat="48.70133" lon="2.06379">
        <ele>89.54</ele>
        <time>2015-01-17T08:30:17Z</time>
      </trkpt>
      <trkpt lat="48.70131" lon="2.06374">
        <ele>89.54</ele>
        <time>2015-01-17T08:30:20Z</time>
      </trkpt>
      <trkpt lat="48.70129" lon="2.06369">
        <ele>89.54</ele>
        <time>2015-01-17T08:30:23Z</time>
      </trkpt>
      <trkpt lat="48.70126" lon="2.06366">
        <ele>90.02</ele>
        <time>2015-01-17T08:30:26Z</time>
      </trkpt>
      <trkpt lat="48.70125" lon="2.06358">
        <ele>90.02</ele>
        <time>2015-01-17T08:30:29Z</time>
      </trkpt>
      <trkpt lat="48.70116" lon="2.06346">
        <ele>90.5</ele>
        <time>2015-01-17T08:30:38Z</time>
      </trkpt>
      <trkpt lat="48.70106" lon="2.06326">
        <ele>90.98</ele>
        <time>2015-01-17T08:30:48Z</time>
      </trkpt>
      <trkpt lat="48.70097" lon="2.06311">
        <ele>90.98</ele>
        <time>2015-01-17T08:30:58Z</time>
      </trkpt>
      <trkpt lat="48.70086" lon="2.06297">
        <ele>91.46</ele>
        <time>2015-01-17T08:31:09Z</time>
      </trkpt>
      <trkpt lat="48.70084" lon="2.06293">
        <ele>91.46</ele>
        <time>2015-01-17T08:31:12Z</time>
      </trkpt>
      <trkpt lat="48.7008" lon="2.06288">
        <ele>91.46</ele>
        <time>2015-01-17T08:31:16Z</time>
      </trkpt>
      <trkpt lat="48.70073" lon="2.06282">
        <ele>91.94</ele>
        <time>2015-01-17T08:31:25Z</time>
      </trkpt>
      <trkpt lat="48.70068" lon="2.06273">
        <ele>92.42</ele>
        <time>2015-01-17T08:31:32Z</time>
      </trkpt>
      <trkpt lat="48.7006" lon="2.0626">
        <ele>92.9</ele>
        <time>2015-01-17T08:31:41Z</time>
      </trkpt>
      <trkpt lat="48.70057" lon="2.06255">
        <ele>92.9</ele>
        <time>2015-01-17T08:31:45Z</time>
      </trkpt>
      <trkpt lat="48.70056" lon="2.06251">
        <ele>92.9</ele>
        <time>2015-01-17T08:31:47Z</time>
      </trkpt>
      <trkpt lat="48.70053" lon="2.06244">
        <ele>92.9</ele>
        <time>2015-01-17T08:31:52Z</time>
      </trkpt>
      <trkpt lat="48.70043" lon="2.06236">
        <ele>93.39</ele>
        <time>2015-01-17T08:32:01Z</time>
      </trkpt>
      <trkpt lat="48.70037" lon="2.06226">
        <ele>93.39</ele>
        <time>2015-01-17T08:32:10Z</time>
      </trkpt>
      <trkpt lat="48.70035" lon="2.06224">
        <ele>93.87</ele>
        <time>2015-01-17T08:32:12Z</time>
      </trkpt>
      <trkpt lat="48.70032" lon="2.06222">
        <ele>93.87</ele>
        <time>2015-01-17T08:32:16Z</time>
      </trkpt>
      <trkpt lat="48.70021" lon="2.06211">
        <ele>94.35</ele>
        <time>2015-01-17T08:32:27Z</time>
      </trkpt>
      <trkpt lat="48.7002" lon="2.0621">
        <ele>94.35</ele>
        <time>2015-01-17T08:32:28Z</time>
      </trkpt>
      <trkpt lat="48.7001" lon="2.06191">
        <ele>94.83</ele>
        <time>2015-01-17T08:32:42Z</time>
      </trkpt>
      <trkpt lat="48.70006" lon="2.06185">
        <ele>95.31</ele>
        <time>2015-01-17T08:32:47Z</time>
      </trkpt>
      <trkpt lat="48.70003" lon="2.06181">
        <ele>95.31</ele>
        <time>2015-01-17T08:32:50Z</time>
      </trkpt>
      <trkpt lat="48.70001" lon="2.06179">
        <ele>95.31</ele>
        <time>2015-01-17T08:32:52Z</time>
      </trkpt>
      <trkpt lat="48.69995" lon="2.06168">
        <ele>95.31</ele>
        <time>2015-01-17T08:32:59Z</time>
      </trkpt>
      <trkpt lat="48.6999" lon="2.06163">
        <ele>95.79</ele>
        <time>2015-01-17T08:33:05Z</time>
      </trkpt>
      <trkpt lat="48.6998" lon="2.06147">
        <ele>96.27</ele>
        <time>2015-01-17T08:33:16Z</time>
      </trkpt>
      <trkpt lat="48.6998" lon="2.06146">
        <ele>96.27</ele>
        <time>2015-01-17T08:33:17Z</time>
      </trkpt>
      <trkpt lat="48.69978" lon="2.06141">
        <ele>96.27</ele>
        <time>2015-01-17T08:33:20Z</time>
      </trkpt>
      <trkpt lat="48.69975" lon="2.06138">
        <ele>96.75</ele>
        <time>2015-01-17T08:33:23Z</time>
      </trkpt>
      <trkpt lat="48.69961" lon="2.06132">
        <ele>97.23</ele>
        <time>2015-01-17T08:33:36Z</time>
      </trkpt>
      <trkpt lat="48.69953" lon="2.06125">
        <ele>97.23</ele>
        <time>2015-01-17T08:33:45Z</time>
      </trkpt>
      <trkpt lat="48.6995" lon="2.06122">
        <ele>97.71</ele>
        <time>2015-01-17T08:33:49Z</time>
      </trkpt>
      <trkpt lat="48.69945" lon="2.06115">
        <ele>97.71</ele>
        <time>2015-01-17T08:33:55Z</time>
      </trkpt>
      <trkpt lat="48.69937" lon="2.06102">
        <ele>98.19</ele>
        <time>2015-01-17T08:34:05Z</time>
      </trkpt>
      <trkpt lat="48.69934" lon="2.06099">
        <ele>98.19</ele>
        <time>2015-01-17T08:34:08Z</time>
      </trkpt>
      <trkpt lat="48.69927" lon="2.06095">
        <ele>98.67</ele>
        <time>2015-01-17T08:34:17Z</time>
      </trkpt>
      <trkpt lat="48.69915" lon="2.06084">
        <ele>99.15</ele>
        <time>2015-01-17T08:34:27Z</time>
      </trkpt>
      <trkpt lat="48.69912" lon="2.06082">
        <ele>99.15</ele>
        <time>2015-01-17T08:34:30Z</time>
      </trkpt>
      <trkpt lat="48.69903" lon="2.06076">
        <ele>99.63</ele>
        <time>2015-01-17T08:34:37Z</time>
      </trkpt>
      <trkpt lat="48.69899" lon="2.06072">
        <ele>99.63</ele>
        <time>2015-01-17T08:34:41Z</time>
      </trkpt>
      <trkpt lat="48.69898" lon="2.0607">
        <ele>99.63</ele>
        <time>2015-01-17T08:34:43Z</time>
      </trkpt>
      <trkpt lat="48.69895" lon="2.06068">
        <ele>99.63</ele>
        <time>2015-01-17T08:34:45Z</time>
      </trkpt>
      <trkpt lat="48.6989" lon="2.06065">
        <ele>100.11</ele>
        <time>2015-01-17T08:34:49Z</time>
      </trkpt>
      <trkpt lat="48.69888" lon="2.0606">
        <ele>100.11</ele>
        <time>2015-01-17T08:34:52Z</time>
      </trkpt>
      <trkpt lat="48.69884" lon="2.06058">
        <ele>100.11</ele>
        <time>2015-01-17T08:34:55Z</time>
      </trkpt>
      <trkpt lat="48.69875" lon="2.06051">
        <ele>100.6</ele>
        <time>2015-01-17T08:35:06Z</time>
      </trkpt>
      <trkpt lat="48.69874" lon="2.06051">
        <ele>100.6</ele>
        <time>2015-01-17T08:35:07Z</time>
      </trkpt>
      <trkpt lat="48.6987" lon="2.06047">
        <ele>100.6</ele>
        <time>2015-01-17T08:35:11Z</time>
      </trkpt>
      <trkpt lat="48.69867" lon="2.06045">
        <ele>101.08</ele>
        <time>2015-01-17T08:35:13Z</time>
      </trkpt>
      <trkpt lat="48.69863" lon="2.06044">
        <ele>101.08</ele>
        <time>2015-01-17T08:35:16Z</time>
      </trkpt>
      <trkpt lat="48.69854" lon="2.06039">
        <ele>101.08</ele>
        <time>2015-01-17T08:35:24Z</time>
      </trkpt>
      <trkpt lat="48.69847" lon="2.06032">
        <ele>101.56</ele>
        <time>2015-01-17T08:35:30Z</time>
      </trkpt>
      <trkpt lat="48.69834" lon="2.06026">
        <ele>102.04</ele>
        <time>2015-01-17T08:35:40Z</time>
      </trkpt>
      <trkpt lat="48.69832" lon="2.06023">
        <ele>102.04</ele>
        <time>2015-01-17T08:35:42Z</time>
      </trkpt>
      <trkpt lat="48.6983" lon="2.0602">
        <ele>102.04</ele>
        <time>2015-01-17T08:35:44Z</time>
      </trkpt>
      <trkpt lat="48.69815" lon="2.06012">
        <ele>103</ele>
        <time>2015-01-17T08:35:58Z</time>
      </trkpt>
      <trkpt lat="48.69811" lon="2.06009">
        <ele>103</ele>
        <time>2015-01-17T08:36:02Z</time>
      </trkpt>
      <trkpt lat="48.69806" lon="2.06007">
        <ele>103</ele>
        <time>2015-01-17T08:36:06Z</time>
      </trkpt>
      <trkpt lat="48.69798" lon="2.06003">
        <ele>103.48</ele>
        <time>2015-01-17T08:36:13Z</time>
      </trkpt>
      <trkpt lat="48.69795" lon="2.05998">
        <ele>103.48</ele>
        <time>2015-01-17T08:36:17Z</time>
      </trkpt>
      <trkpt lat="48.69785" lon="2.05993">
        <ele>103.96</ele>
        <time>2015-01-17T08:36:25Z</time>
      </trkpt>
      <trkpt lat="48.69775" lon="2.05988">
        <ele>103.96</ele>
        <time>2015-01-17T08:36:32Z</time>
      </trkpt>
      <trkpt lat="48.69762" lon="2.05982">
        <ele>104.44</ele>
        <time>2015-01-17T08:36:44Z</time>
      </trkpt>
      <trkpt lat="48.69758" lon="2.0598">
        <ele>104.92</ele>
        <time>2015-01-17T08:36:52Z</time>
      </trkpt>
      <trkpt lat="48.69752" lon="2.0598">
        <ele>104.92</ele>
        <time>2015-01-17T08:37:00Z</time>
      </trkpt>
      <trkpt lat="48.69742" lon="2.05977">
        <ele>105.4</ele>
        <time>2015-01-17T08:37:10Z</time>
      </trkpt>
      <trkpt lat="48.69738" lon="2.05978">
        <ele>105.4</ele>
        <time>2015-01-17T08:37:14Z</time>
      </trkpt>
      <trkpt lat="48.6973" lon="2.05975">
        <ele>105.88</ele>
        <time>2015-01-17T08:37:20Z</time>
      </trkpt>
      <trkpt lat="48.69726" lon="2.05973">
        <ele>105.88</ele>
        <time>2015-01-17T08:37:23Z</time>
      </trkpt>
      <trkpt lat="48.6972" lon="2.05971">
        <ele>106.36</ele>
        <time>2015-01-17T08:37:27Z</time>
      </trkpt>
      <trkpt lat="48.69707" lon="2.05961">
        <ele>106.36</ele>
        <time>2015-01-17T08:37:36Z</time>
      </trkpt>
      <trkpt lat="48.69695" lon="2.05954">
        <ele>106.84</ele>
        <time>2015-01-17T08:37:45Z</time>
      </trkpt>
      <trkpt lat="48.6969" lon="2.05952">
        <ele>107.32</ele>
        <time>2015-01-17T08:37:49Z</time>
      </trkpt>
      <trkpt lat="48.69686" lon="2.05949">
        <ele>107.32</ele>
        <time>2015-01-17T08:37:52Z</time>
      </trkpt>
      <trkpt lat="48.69675" lon="2.05949">
        <ele>107.32</ele>
        <time>2015-01-17T08:38:01Z</time>
      </trkpt>
      <trkpt lat="48.69672" lon="2.05949">
        <ele>107.81</ele>
        <time>2015-01-17T08:38:04Z</time>
      </trkpt>
      <trkpt lat="48.69668" lon="2.05949">
        <ele>107.81</ele>
        <time>2015-01-17T08:38:07Z</time>
      </trkpt>
      <trkpt lat="48.69659" lon="2.05944">
        <ele>108.29</ele>
        <time>2015-01-17T08:38:15Z</time>
      </trkpt>
      <trkpt lat="48.69659" lon="2.05944">
        <ele>108.29</ele>
        <time>2015-01-17T08:38:16Z</time>
      </trkpt>
      <trkpt lat="48.69646" lon="2.05941">
        <ele>108.77</ele>
        <time>2015-01-17T08:38:27Z</time>
      </trkpt>
      <trkpt lat="48.69641" lon="2.05939">
        <ele>108.77</ele>
        <time>2015-01-17T08:38:31Z</time>
      </trkpt>
      <trkpt lat="48.69635" lon="2.05933">
        <ele>108.77</ele>
        <time>2015-01-17T08:38:37Z</time>
      </trkpt>
      <trkpt lat="48.69632" lon="2.0593">
        <ele>108.77</ele>
        <time>2015-01-17T08:38:40Z</time>
      </trkpt>
      <trkpt lat="48.69628" lon="2.05928">
        <ele>109.25</ele>
        <time>2015-01-17T08:38:43Z</time>
      </trkpt>
      <trkpt lat="48.69624" lon="2.05927">
        <ele>109.25</ele>
        <time>2015-01-17T08:38:46Z</time>
      </trkpt>
      <trkpt lat="48.69622" lon="2.05928">
        <ele>109.25</ele>
        <time>2015-01-17T08:38:48Z</time>
      </trkpt>
      <trkpt lat="48.69612" lon="2.05924">
        <ele>109.73</ele>
        <time>2015-01-17T08:38:56Z</time>
      </trkpt>
      <trkpt lat="48.69606" lon="2.05924">
        <ele>109.73</ele>
        <time>2015-01-17T08:39:00Z</time>
      </trkpt>
      <trkpt lat="48.69597" lon="2.05921">
        <ele>110.21</ele>
        <time>2015-01-17T08:39:09Z</time>
      </trkpt>
      <trkpt lat="48.69591" lon="2.0592">
        <ele>110.21</ele>
        <time>2015-01-17T08:39:13Z</time>
      </trkpt>
      <trkpt lat="48.69582" lon="2.05918">
        <ele>110.69</ele>
        <time>2015-01-17T08:39:21Z</time>
      </trkpt>
      <trkpt lat="48.6958" lon="2.05918">
        <ele>110.69</ele>
        <time>2015-01-17T08:39:23Z</time>
      </trkpt>
      <trkpt lat="48.69574" lon="2.0592">
        <ele>110.69</ele>
        <time>2015-01-17T08:39:29Z</time>
      </trkpt>
      <trkpt lat="48.6957" lon="2.05918">
        <ele>110.69</ele>
        <time>2015-01-17T08:39:32Z</time>
      </trkpt>
      <trkpt lat="48.69557" lon="2.0592">
        <ele>111.17</ele>
        <time>2015-01-17T08:39:43Z</time>
      </trkpt>
      <trkpt lat="48.6955" lon="2.05918">
        <ele>111.17</ele>
        <time>2015-01-17T08:39:49Z</time>
      </trkpt>
      <trkpt lat="48.69538" lon="2.05922">
        <ele>111.65</ele>
        <time>2015-01-17T08:39:59Z</time>
      </trkpt>
      <trkpt lat="48.69537" lon="2.05922">
        <ele>112.13</ele>
        <time>2015-01-17T08:40:01Z</time>
      </trkpt>
      <trkpt lat="48.69521" lon="2.05928">
        <ele>112.13</ele>
        <time>2015-01-17T08:40:13Z</time>
      </trkpt>
      <trkpt lat="48.69517" lon="2.05929">
        <ele>112.61</ele>
        <time>2015-01-17T08:40:17Z</time>
      </trkpt>
      <trkpt lat="48.69514" lon="2.05928">
        <ele>112.61</ele>
        <time>2015-01-17T08:40:19Z</time>
      </trkpt>
      <trkpt lat="48.69512" lon="2.05929">
        <ele>112.61</ele>
        <time>2015-01-17T08:40:22Z</time>
      </trkpt>
      <trkpt lat="48.69506" lon="2.05931">
        <ele>112.61</ele>
        <time>2015-01-17T08:40:27Z</time>
      </trkpt>
      <trkpt lat="48.69501" lon="2.0593">
        <ele>112.61</ele>
        <time>2015-01-17T08:40:30Z</time>
      </trkpt>
      <trkpt lat="48.69496" lon="2.05931">
        <ele>112.61</ele>
        <time>2015-01-17T08:40:37Z</time>
      </trkpt>
      <trkpt lat="48.69492" lon="2.05931">
        <ele>113.09</ele>
        <time>2015-01-17T08:40:40Z</time>
      </trkpt>
      <trkpt lat="48.69489" lon="2.05933">
        <ele>113.09</ele>
        <time>2015-01-17T08:40:43Z</time>
      </trkpt>
      <trkpt lat="48.69484" lon="2.05937">
        <ele>113.09</ele>
        <time>2015-01-17T08:40:47Z</time>
      </trkpt>
      <trkpt lat="48.69482" lon="2.05938">
        <ele>113.09</ele>
        <time>2015-01-17T08:40:49Z</time>
      </trkpt>
      <trkpt lat="48.69478" lon="2.05936">
        <ele>113.57</ele>
        <time>2015-01-17T08:40:54Z</time>
      </trkpt>
      <trkpt lat="48.6947" lon="2.0594">
        <ele>113.57</ele>
        <time>2015-01-17T08:41:01Z</time>
      </trkpt>
      <trkpt lat="48.69467" lon="2.05939">
        <ele>114.05</ele>
        <time>2015-01-17T08:41:04Z</time>
      </trkpt>
      <trkpt lat="48.69463" lon="2.0594">
        <ele>114.05</ele>
        <time>2015-01-17T08:41:09Z</time>
      </trkpt>
      <trkpt lat="48.69451" lon="2.0594">
        <ele>114.05</ele>
        <time>2015-01-17T08:41:19Z</time>
      </trkpt>
      <trkpt lat="48.69439" lon="2.05948">
        <ele>114.53</ele>
        <time>2015-01-17T08:41:30Z</time>
      </trkpt>
      <trkpt lat="48.69435" lon="2.05952">
        <ele>115.01</ele>
        <time>2015-01-17T08:41:36Z</time>
      </trkpt>
      <trkpt lat="48.69431" lon="2.0595">
        <ele>115.01</ele>
        <time>2015-01-17T08:41:39Z</time>
      </trkpt>
      <trkpt lat="48.69426" lon="2.05952">
        <ele>115.01</ele>
        <time>2015-01-17T08:41:42Z</time>
      </trkpt>
      <trkpt lat="48.69421" lon="2.05954">
        <ele>115.5</ele>
        <time>2015-01-17T08:41:46Z</time>
      </trkpt>
      <trkpt lat="48.69413" lon="2.05958">
        <ele>115.5</ele>
        <time>2015-01-17T08:41:53Z</time>
      </trkpt>
      <trkpt lat="48.69409" lon="2.05962">
        <ele>115.5</ele>
        <time>2015-01-17T08:41:57Z</time>
      </trkpt>
      <trkpt lat="48.69403" lon="2.05967">
        <ele>115.98</ele>
        <time>2015-01-17T08:42:04Z</time>
      </trkpt>
      <trkpt lat="48.69401" lon="2.0597">
        <ele>115.98</ele>
        <time>2015-01-17T08:42:07Z</time>
      </trkpt>
      <trkpt lat="48.69395" lon="2.05973">
        <ele>115.98</ele>
        <time>2015-01-17T08:42:12Z</time>
      </trkpt>
      <trkpt lat="48.69388" lon="2.05978">
        <ele>116.46</ele>
        <time>2015-01-17T08:42:17Z</time>
      </trkpt>
      <trkpt lat="48.69383" lon="2.05982">
        <ele>116.46</ele>
        <time>2015-01-17T08:42:22Z</time>
      </trkpt>
      <trkpt lat="48.69381" lon="2.05986">
        <ele>116.94</ele>
        <time>2015-01-17T08:42:25Z</time>
      </trkpt>
      <trkpt lat="48.69377" lon="2.0599">
        <ele>116.94</ele>
        <time>2015-01-17T08:42:28Z</time>
      </trkpt>
      <trkpt lat="48.6937" lon="2.05988">
        <ele>116.94</ele>
        <time>2015-01-17T08:42:32Z</time>
      </trkpt>
      <trkpt lat="48.69365" lon="2.05994">
        <ele>116.94</ele>
        <time>2015-01-17T08:42:36Z</time>
      </trkpt>
      <trkpt lat="48.69361" lon="2.05995">
        <ele>117.42</ele>
        <time>2015-01-17T08:42:39Z</time>
      </trkpt>
      <trkpt lat="48.69357" lon="2.05998">
        <ele>117.42</ele>
        <time>2015-01-17T08:42:42Z</time>
      </trkpt>
      <trkpt lat="48.69347" lon="2.05999">
        <ele>117.9</ele>
        <time>2015-01-17T08:42:52Z</time>
      </trkpt>
      <trkpt lat="48.69343" lon="2.06002">
        <ele>117.9</ele>
        <time>2015-01-17T08:42:55Z</time>
      </trkpt>
      <trkpt lat="48.69334" lon="2.06007">
        <ele>118.38</ele>
        <time>2015-01-17T08:43:05Z</time>
      </trkpt>
      <trkpt lat="48.69331" lon="2.06009">
        <ele>118.38</ele>
        <time>2015-01-17T08:43:07Z</time>
      </trkpt>
      <trkpt lat="48.69326" lon="2.06011">
        <ele>118.38</ele>
        <time>2015-01-17T08:43:11Z</time>
      </trkpt>
      <trkpt lat="48.69319" lon="2.06017">
        <ele>118.86</ele>
        <time>2015-01-17T08:43:16Z</time>
      </trkpt>
      <trkpt lat="48.69315" lon="2.0602">
        <ele>118.86</ele>
        <time>2015-01-17T08:43:20Z</time>
      </trkpt>
      <trkpt lat="48.69311" lon="2.06023">
        <ele>118.86</ele>
        <time>2015-01-17T08:43:24Z</time>
      </trkpt>
      <trkpt lat="48.69308" lon="2.06026">
        <ele>119.34</ele>
        <time>2015-01-17T08:43:27Z</time>
      </trkpt>
      <trkpt lat="48.69304" lon="2.06026">
        <ele>119.34</ele>
        <time>2015-01-17T08:43:32Z</time>
      </trkpt>
      <trkpt lat="48.69298" lon="2.06031">
        <ele>119.34</ele>
        <time>2015-01-17T08:43:36Z</time>
      </trkpt>
      <trkpt lat="48.69296" lon="2.06034">
        <ele>119.82</ele>
        <time>2015-01-17T08:43:39Z</time>
      </trkpt>
      <trkpt lat="48.69294" lon="2.06036">
        <ele>119.82</ele>
        <time>2015-01-17T08:43:41Z</time>
      </trkpt>
      <trkpt lat="48.69283" lon="2.06043">
        <ele>120.3</ele>
        <time>2015-01-17T08:43:51Z</time>
      </trkpt>
      <trkpt lat="48.69275" lon="2.06045">
        <ele>120.3</ele>
        <time>2015-01-17T08:43:57Z</time>
      </trkpt>
      <trkpt lat="48.69264" lon="2.06051">
        <ele>120.78</ele>
        <time>2015-01-17T08:44:08Z</time>
      </trkpt>
      <trkpt lat="48.69263" lon="2.06055">
        <ele>121.26</ele>
        <time>2015-01-17T08:44:11Z</time>
      </trkpt>
      <trkpt lat="48.69259" lon="2.06058">
        <ele>120.78</ele>
        <time>2015-01-17T08:44:16Z</time>
      </trkpt>
      <trkpt lat="48.69252" lon="2.06064">
        <ele>121.26</ele>
        <time>2015-01-17T08:44:25Z</time>
      </trkpt>
      <trkpt lat="48.69248" lon="2.06065">
        <ele>121.74</ele>
        <time>2015-01-17T08:44:28Z</time>
      </trkpt>
      <trkpt lat="48.69245" lon="2.06065">
        <ele>121.74</ele>
        <time>2015-01-17T08:44:30Z</time>
      </trkpt>
      <trkpt lat="48.69242" lon="2.06066">
        <ele>121.74</ele>
        <time>2015-01-17T08:44:32Z</time>
      </trkpt>
      <trkpt lat="48.69239" lon="2.06069">
        <ele>121.74</ele>
        <time>2015-01-17T08:44:34Z</time>
      </trkpt>
      <trkpt lat="48.69234" lon="2.06078">
        <ele>121.74</ele>
        <time>2015-01-17T08:44:40Z</time>
      </trkpt>
      <trkpt lat="48.69222" lon="2.06077">
        <ele>122.71</ele>
        <time>2015-01-17T08:44:50Z</time>
      </trkpt>
      <trkpt lat="48.69212" lon="2.06078">
        <ele>122.71</ele>
        <time>2015-01-17T08:44:58Z</time>
      </trkpt>
      <trkpt lat="48.69206" lon="2.06082">
        <ele>123.19</ele>
        <time>2015-01-17T08:45:02Z</time>
      </trkpt>
      <trkpt lat="48.69204" lon="2.06084">
        <ele>123.19</ele>
        <time>2015-01-17T08:45:04Z</time>
      </trkpt>
      <trkpt lat="48.69192" lon="2.06084">
        <ele>123.67</ele>
        <time>2015-01-17T08:45:13Z</time>
      </trkpt>
      <trkpt lat="48.6919" lon="2.06083">
        <ele>123.67</ele>
        <time>2015-01-17T08:45:15Z</time>
      </trkpt>
      <trkpt lat="48.69187" lon="2.06085">
        <ele>123.67</ele>
        <time>2015-01-17T08:45:18Z</time>
      </trkpt>
      <trkpt lat="48.69178" lon="2.06089">
        <ele>124.15</ele>
        <time>2015-01-17T08:45:28Z</time>
      </trkpt>
      <trkpt lat="48.69177" lon="2.06089">
        <ele>124.15</ele>
        <time>2015-01-17T08:45:29Z</time>
      </trkpt>
      <trkpt lat="48.69171" lon="2.06094">
        <ele>124.63</ele>
        <time>2015-01-17T08:45:38Z</time>
      </trkpt>
      <trkpt lat="48.69171" lon="2.06096">
        <ele>124.63</ele>
        <time>2015-01-17T08:45:39Z</time>
      </trkpt>
      <trkpt lat="48.69164" lon="2.06101">
        <ele>124.63</ele>
        <time>2015-01-17T08:45:43Z</time>
      </trkpt>
      <trkpt lat="48.69153" lon="2.061">
        <ele>125.11</ele>
        <time>2015-01-17T08:45:53Z</time>
      </trkpt>
      <trkpt lat="48.69144" lon="2.06101">
        <ele>125.59</ele>
        <time>2015-01-17T08:46:00Z</time>
      </trkpt>
      <trkpt lat="48.6914" lon="2.06105">
        <ele>125.59</ele>
        <time>2015-01-17T08:46:03Z</time>
      </trkpt>
      <trkpt lat="48.69137" lon="2.06107">
        <ele>125.59</ele>
        <time>2015-01-17T08:46:07Z</time>
      </trkpt>
      <trkpt lat="48.69134" lon="2.06109">
        <ele>126.07</ele>
        <time>2015-01-17T08:46:09Z</time>
      </trkpt>
      <trkpt lat="48.6913" lon="2.06113">
        <ele>126.07</ele>
        <time>2015-01-17T08:46:12Z</time>
      </trkpt>
      <trkpt lat="48.69123" lon="2.06113">
        <ele>126.07</ele>
        <time>2015-01-17T08:46:16Z</time>
      </trkpt>
      <trkpt lat="48.69119" lon="2.06114">
        <ele>126.55</ele>
        <time>2015-01-17T08:46:19Z</time>
      </trkpt>
      <trkpt lat="48.69112" lon="2.06113">
        <ele>126.55</ele>
        <time>2015-01-17T08:46:27Z</time>
      </trkpt>
      <trkpt lat="48.69111" lon="2.06113">
        <ele>126.55</ele>
        <time>2015-01-17T08:46:30Z</time>
      </trkpt>
      <trkpt lat="48.691" lon="2.06117">
        <ele>127.51</ele>
        <time>2015-01-17T08:46:42Z</time>
      </trkpt>
      <trkpt lat="48.69095" lon="2.06119">
        <ele>127.51</ele>
        <time>2015-01-17T08:46:46Z</time>
      </trkpt>
      <trkpt lat="48.69087" lon="2.06128">
        <ele>127.51</ele>
        <time>2015-01-17T08:46:54Z</time>
      </trkpt>
      <trkpt lat="48.69084" lon="2.06126">
        <ele>127.99</ele>
        <time>2015-01-17T08:46:58Z</time>
      </trkpt>
      <trkpt lat="48.69076" lon="2.06126">
        <ele>127.99</ele>
        <time>2015-01-17T08:47:02Z</time>
      </trkpt>
      <trkpt lat="48.69064" lon="2.06126">
        <ele>128.47</ele>
        <time>2015-01-17T08:47:10Z</time>
      </trkpt>
      <trkpt lat="48.69052" lon="2.06122">
        <ele>128.47</ele>
        <time>2015-01-17T08:47:20Z</time>
      </trkpt>
      <trkpt lat="48.69048" lon="2.06124">
        <ele>128.95</ele>
        <time>2015-01-17T08:47:24Z</time>
      </trkpt>
      <trkpt lat="48.69044" lon="2.06123">
        <ele>128.95</ele>
        <time>2015-01-17T08:47:27Z</time>
      </trkpt>
      <trkpt lat="48.69039" lon="2.0612">
        <ele>129.43</ele>
        <time>2015-01-17T08:47:32Z</time>
      </trkpt>
      <trkpt lat="48.69036" lon="2.0612">
        <ele>129.43</ele>
        <time>2015-01-17T08:47:34Z</time>
      </trkpt>
      <trkpt lat="48.69027" lon="2.06122">
        <ele>129.92</ele>
        <time>2015-01-17T08:47:42Z</time>
      </trkpt>
      <trkpt lat="48.69015" lon="2.06124">
        <ele>129.92</ele>
        <time>2015-01-17T08:47:53Z</time>
      </trkpt>
      <trkpt lat="48.6901" lon="2.06125">
        <ele>130.4</ele>
        <time>2015-01-17T08:47:58Z</time>
      </trkpt>
      <trkpt lat="48.69004" lon="2.06125">
        <ele>130.4</ele>
        <time>2015-01-17T08:48:01Z</time>
      </trkpt>
      <trkpt lat="48.68998" lon="2.06126">
        <ele>130.88</ele>
        <time>2015-01-17T08:48:07Z</time>
      </trkpt>
      <trkpt lat="48.68988" lon="2.06125">
        <ele>131.36</ele>
        <time>2015-01-17T08:48:17Z</time>
      </trkpt>
      <trkpt lat="48.68986" lon="2.06126">
        <ele>131.36</ele>
        <time>2015-01-17T08:48:19Z</time>
      </trkpt>
      <trkpt lat="48.68978" lon="2.06129">
        <ele>131.84</ele>
        <time>2015-01-17T08:48:24Z</time>
      </trkpt>
      <trkpt lat="48.68973" lon="2.06129">
        <ele>131.84</ele>
        <time>2015-01-17T08:48:28Z</time>
      </trkpt>
      <trkpt lat="48.68968" lon="2.06129">
        <ele>132.32</ele>
        <time>2015-01-17T08:48:32Z</time>
      </trkpt>
      <trkpt lat="48.6896" lon="2.0613">
        <ele>132.32</ele>
        <time>2015-01-17T08:48:38Z</time>
      </trkpt>
      <trkpt lat="48.68956" lon="2.06131">
        <ele>132.32</ele>
        <time>2015-01-17T08:48:42Z</time>
      </trkpt>
      <trkpt lat="48.68951" lon="2.06131">
        <ele>132.8</ele>
        <time>2015-01-17T08:48:46Z</time>
      </trkpt>
      <trkpt lat="48.68942" lon="2.06126">
        <ele>133.28</ele>
        <time>2015-01-17T08:48:54Z</time>
      </trkpt>
      <trkpt lat="48.68939" lon="2.06127">
        <ele>133.28</ele>
        <time>2015-01-17T08:48:57Z</time>
      </trkpt>
      <trkpt lat="48.68931" lon="2.06127">
        <ele>133.28</ele>
        <time>2015-01-17T08:49:05Z</time>
      </trkpt>
      <trkpt lat="48.68926" lon="2.06124">
        <ele>133.76</ele>
        <time>2015-01-17T08:49:10Z</time>
      </trkpt>
      <trkpt lat="48.68921" lon="2.06127">
        <ele>133.76</ele>
        <time>2015-01-17T08:49:14Z</time>
      </trkpt>
      <trkpt lat="48.68914" lon="2.0613">
        <ele>133.76</ele>
        <time>2015-01-17T08:49:19Z</time>
      </trkpt>
      <trkpt lat="48.68911" lon="2.0613">
        <ele>133.76</ele>
        <time>2015-01-17T08:49:22Z</time>
      </trkpt>
      <trkpt lat="48.68908" lon="2.06129">
        <ele>133.76</ele>
        <time>2015-01-17T08:49:24Z</time>
      </trkpt>
      <trkpt lat="48.68905" lon="2.0613">
        <ele>134.24</ele>
        <time>2015-01-17T08:49:26Z</time>
      </trkpt>
      <trkpt lat="48.68902" lon="2.06132">
        <ele>134.24</ele>
        <time>2015-01-17T08:49:29Z</time>
      </trkpt>
      <trkpt lat="48.68898" lon="2.06132">
        <ele>134.24</ele>
        <time>2015-01-17T08:49:32Z</time>
      </trkpt>
      <trkpt lat="48.68887" lon="2.06116">
        <ele>134.72</ele>
        <time>2015-01-17T08:49:43Z</time>
      </trkpt>
      <trkpt lat="48.68884" lon="2.06115">
        <ele>134.72</ele>
        <time>2015-01-17T08:49:46Z</time>
      </trkpt>
      <trkpt lat="48.68875" lon="2.06115">
        <ele>134.72</ele>
        <time>2015-01-17T08:49:53Z</time>
      </trkpt>
      <trkpt lat="48.68873" lon="2.06116">
        <ele>134.72</ele>
        <time>2015-01-17T08:49:55Z</time>
      </trkpt>
      <trkpt lat="48.6887" lon="2.06116">
        <ele>134.72</ele>
        <time>2015-01-17T08:49:57Z</time>
      </trkpt>
      <trkpt lat="48.6886" lon="2.06115">
        <ele>135.2</ele>
        <time>2015-01-17T08:50:07Z</time>
      </trkpt>
      <trkpt lat="48.6885" lon="2.0612">
        <ele>135.68</ele>
        <time>2015-01-17T08:50:17Z</time>
      </trkpt>
      <trkpt lat="48.68846" lon="2.06121">
        <ele>135.68</ele>
        <time>2015-01-17T08:50:21Z</time>
      </trkpt>
      <trkpt lat="48.68844" lon="2.06123">
        <ele>135.2</ele>
        <time>2015-01-17T08:50:23Z</time>
      </trkpt>
      <trkpt lat="48.68834" lon="2.06126">
        <ele>135.68</ele>
        <time>2015-01-17T08:50:34Z</time>
      </trkpt>
      <trkpt lat="48.68827" lon="2.06129">
        <ele>135.68</ele>
        <time>2015-01-17T08:50:39Z</time>
      </trkpt>
      <trkpt lat="48.68824" lon="2.0613">
        <ele>136.16</ele>
        <time>2015-01-17T08:50:42Z</time>
      </trkpt>
      <trkpt lat="48.6881" lon="2.06135">
        <ele>136.64</ele>
        <time>2015-01-17T08:50:54Z</time>
      </trkpt>
      <trkpt lat="48.68803" lon="2.06135">
        <ele>136.64</ele>
        <time>2015-01-17T08:51:00Z</time>
      </trkpt>
      <trkpt lat="48.68792" lon="2.0614">
        <ele>136.64</ele>
        <time>2015-01-17T08:51:10Z</time>
      </trkpt>
      <trkpt lat="48.68781" lon="2.06144">
        <ele>137.13</ele>
        <time>2015-01-17T08:51:21Z</time>
      </trkpt>
      <trkpt lat="48.68775" lon="2.06146">
        <ele>137.13</ele>
        <time>2015-01-17T08:51:28Z</time>
      </trkpt>
      <trkpt lat="48.68764" lon="2.06152">
        <ele>137.61</ele>
        <time>2015-01-17T08:51:36Z</time>
      </trkpt>
      <trkpt lat="48.68746" lon="2.06157">
        <ele>138.09</ele>
        <time>2015-01-17T08:51:49Z</time>
      </trkpt>
      <trkpt lat="48.68742" lon="2.06161">
        <ele>138.09</ele>
        <time>2015-01-17T08:51:54Z</time>
      </trkpt>
      <trkpt lat="48.68727" lon="2.06163">
        <ele>138.57</ele>
        <time>2015-01-17T08:52:07Z</time>
      </trkpt>
      <trkpt lat="48.68724" lon="2.06165">
        <ele>138.57</ele>
        <time>2015-01-17T08:52:10Z</time>
      </trkpt>
      <trkpt lat="48.68721" lon="2.06166">
        <ele>138.57</ele>
        <time>2015-01-17T08:52:13Z</time>
      </trkpt>
      <trkpt lat="48.68719" lon="2.06169">
        <ele>138.57</ele>
        <time>2015-01-17T08:52:15Z</time>
      </trkpt>
      <trkpt lat="48.68716" lon="2.0617">
        <ele>139.05</ele>
        <time>2015-01-17T08:52:18Z</time>
      </trkpt>
      <trkpt lat="48.68713" lon="2.06171">
        <ele>139.05</ele>
        <time>2015-01-17T08:52:21Z</time>
      </trkpt>
      <trkpt lat="48.68705" lon="2.06174">
        <ele>139.53</ele>
        <time>2015-01-17T08:52:27Z</time>
      </trkpt>
      <trkpt lat="48.68701" lon="2.06174">
        <ele>139.53</ele>
        <time>2015-01-17T08:52:30Z</time>
      </trkpt>
      <trkpt lat="48.68698" lon="2.06174">
        <ele>139.53</ele>
        <time>2015-01-17T08:52:33Z</time>
      </trkpt>
      <trkpt lat="48.68678" lon="2.06179">
        <ele>140.01</ele>
        <time>2015-01-17T08:52:47Z</time>
      </trkpt>
      <trkpt lat="48.68669" lon="2.06182">
        <ele>140.49</ele>
        <time>2015-01-17T08:52:54Z</time>
      </trkpt>
      <trkpt lat="48.68667" lon="2.06183">
        <ele>140.49</ele>
        <time>2015-01-17T08:52:56Z</time>
      </trkpt>
      <trkpt lat="48.68664" lon="2.06183">
        <ele>140.97</ele>
        <time>2015-01-17T08:52:58Z</time>
      </trkpt>
      <trkpt lat="48.68653" lon="2.06183">
        <ele>140.97</ele>
        <time>2015-01-17T08:53:09Z</time>
      </trkpt>
      <trkpt lat="48.68644" lon="2.06184">
        <ele>141.45</ele>
        <time>2015-01-17T08:53:18Z</time>
      </trkpt>
      <trkpt lat="48.68638" lon="2.06188">
        <ele>141.45</ele>
        <time>2015-01-17T08:53:29Z</time>
      </trkpt>
      <trkpt lat="48.68631" lon="2.06195">
        <ele>141.93</ele>
        <time>2015-01-17T08:53:40Z</time>
      </trkpt>
      <trkpt lat="48.68631" lon="2.06196">
        <ele>141.93</ele>
        <time>2015-01-17T08:53:52Z</time>
      </trkpt>
      <trkpt lat="48.68628" lon="2.06201">
        <ele>141.93</ele>
        <time>2015-01-17T08:54:04Z</time>
      </trkpt>
      <trkpt lat="48.68618" lon="2.06207">
        <ele>141.93</ele>
        <time>2015-01-17T08:54:14Z</time>
      </trkpt>
      <trkpt lat="48.68613" lon="2.06209">
        <ele>142.41</ele>
        <time>2015-01-17T08:54:18Z</time>
      </trkpt>
      <trkpt lat="48.68605" lon="2.06211">
        <ele>142.41</ele>
        <time>2015-01-17T08:54:28Z</time>
      </trkpt>
      <trkpt lat="48.68601" lon="2.06212">
        <ele>142.41</ele>
        <time>2015-01-17T08:54:35Z</time>
      </trkpt>
      <trkpt lat="48.686" lon="2.0622">
        <ele>142.41</ele>
        <time>2015-01-17T08:54:45Z</time>
      </trkpt>
      <trkpt lat="48.68592" lon="2.06229">
        <ele>142.41</ele>
        <time>2015-01-17T08:54:57Z</time>
      </trkpt>
      <trkpt lat="48.68585" lon="2.06237">
        <ele>142.89</ele>
        <time>2015-01-17T08:55:07Z</time>
      </trkpt>
      <trkpt lat="48.68584" lon="2.06247">
        <ele>144.82</ele>
        <time>2015-01-17T08:55:17Z</time>
      </trkpt>
      <trkpt lat="48.68583" lon="2.06254">
        <ele>145.78</ele>
        <time>2015-01-17T08:55:27Z</time>
      </trkpt>
      <trkpt lat="48.68581" lon="2.06261">
        <ele>146.26</ele>
        <time>2015-01-17T08:55:41Z</time>
      </trkpt>
      <trkpt lat="48.68582" lon="2.06262">
        <ele>148.18</ele>
        <time>2015-01-17T08:55:50Z</time>
      </trkpt>
      <trkpt lat="48.68579" lon="2.06269">
        <ele>148.18</ele>
        <time>2015-01-17T08:56:02Z</time>
      </trkpt>
      <trkpt lat="48.68579" lon="2.06273">
        <ele>147.7</ele>
        <time>2015-01-17T08:56:14Z</time>
      </trkpt>
      <trkpt lat="48.68579" lon="2.06279">
        <ele>147.22</ele>
        <time>2015-01-17T08:56:29Z</time>
      </trkpt>
      <trkpt lat="48.68573" lon="2.0629">
        <ele>145.3</ele>
        <time>2015-01-17T08:56:39Z</time>
      </trkpt>
      <trkpt lat="48.6857" lon="2.06298">
        <ele>143.85</ele>
        <time>2015-01-17T08:56:48Z</time>
      </trkpt>
      <trkpt lat="48.68564" lon="2.06306">
        <ele>141.93</ele>
        <time>2015-01-17T08:56:59Z</time>
      </trkpt>
      <trkpt lat="48.68555" lon="2.06315">
        <ele>140.49</ele>
        <time>2015-01-17T08:57:10Z</time>
      </trkpt>
      <trkpt lat="48.68554" lon="2.06315">
        <ele>140.01</ele>
        <time>2015-01-17T08:57:11Z</time>
      </trkpt>
      <trkpt lat="48.68551" lon="2.06316">
        <ele>140.49</ele>
        <time>2015-01-17T08:57:14Z</time>
      </trkpt>
      <trkpt lat="48.68546" lon="2.0632">
        <ele>139.53</ele>
        <time>2015-01-17T08:57:26Z</time>
      </trkpt>
      <trkpt lat="48.68543" lon="2.06322">
        <ele>139.53</ele>
        <time>2015-01-17T08:57:34Z</time>
      </trkpt>
      <trkpt lat="48.68541" lon="2.06318">
        <ele>139.53</ele>
        <time>2015-01-17T08:57:45Z</time>
      </trkpt>
      <trkpt lat="48.68536" lon="2.06319">
        <ele>137.61</ele>
        <time>2015-01-17T08:57:55Z</time>
      </trkpt>
      <trkpt lat="48.68536" lon="2.06319">
        <ele>137.61</ele>
        <time>2015-01-17T08:57:56Z</time>
      </trkpt>
      <trkpt lat="48.68534" lon="2.0632">
        <ele>137.13</ele>
        <time>2015-01-17T08:57:58Z</time>
      </trkpt>
      <trkpt lat="48.6853" lon="2.06317">
        <ele>137.13</ele>
        <time>2015-01-17T08:58:03Z</time>
      </trkpt>
      <trkpt lat="48.68521" lon="2.06313">
        <ele>136.64</ele>
        <time>2015-01-17T08:58:09Z</time>
      </trkpt>
      <trkpt lat="48.68512" lon="2.06308">
        <ele>136.16</ele>
        <time>2015-01-17T08:58:18Z</time>
      </trkpt>
      <trkpt lat="48.68505" lon="2.06303">
        <ele>136.64</ele>
        <time>2015-01-17T08:58:24Z</time>
      </trkpt>
      <trkpt lat="48.68499" lon="2.06297">
        <ele>137.13</ele>
        <time>2015-01-17T08:58:31Z</time>
      </trkpt>
      <trkpt lat="48.68496" lon="2.0629">
        <ele>136.64</ele>
        <time>2015-01-17T08:58:45Z</time>
      </trkpt>
      <trkpt lat="48.68488" lon="2.06285">
        <ele>135.68</ele>
        <time>2015-01-17T08:58:56Z</time>
      </trkpt>
      <trkpt lat="48.68485" lon="2.06284">
        <ele>135.2</ele>
        <time>2015-01-17T08:58:59Z</time>
      </trkpt>
      <trkpt lat="48.6848" lon="2.06282">
        <ele>134.24</ele>
        <time>2015-01-17T08:59:05Z</time>
      </trkpt>
      <trkpt lat="48.68469" lon="2.0628">
        <ele>132.32</ele>
        <time>2015-01-17T08:59:16Z</time>
      </trkpt>
      <trkpt lat="48.68467" lon="2.06278">
        <ele>132.32</ele>
        <time>2015-01-17T08:59:18Z</time>
      </trkpt>
      <trkpt lat="48.68457" lon="2.06273">
        <ele>130.88</ele>
        <time>2015-01-17T08:59:26Z</time>
      </trkpt>
      <trkpt lat="48.68452" lon="2.06269">
        <ele>130.4</ele>
        <time>2015-01-17T08:59:30Z</time>
      </trkpt>
      <trkpt lat="48.68451" lon="2.06267">
        <ele>129.92</ele>
        <time>2015-01-17T08:59:32Z</time>
      </trkpt>
      <trkpt lat="48.68443" lon="2.06258">
        <ele>128.95</ele>
        <time>2015-01-17T08:59:42Z</time>
      </trkpt>
      <trkpt lat="48.68432" lon="2.06247">
        <ele>127.51</ele>
        <time>2015-01-17T08:59:51Z</time>
      </trkpt>
      <trkpt lat="48.68428" lon="2.06244">
        <ele>127.03</ele>
        <time>2015-01-17T08:59:54Z</time>
      </trkpt>
      <trkpt lat="48.68421" lon="2.0624">
        <ele>126.55</ele>
        <time>2015-01-17T09:00:00Z</time>
      </trkpt>
      <trkpt lat="48.68416" lon="2.06238">
        <ele>126.07</ele>
        <time>2015-01-17T09:00:03Z</time>
      </trkpt>
      <trkpt lat="48.68402" lon="2.06238">
        <ele>125.59</ele>
        <time>2015-01-17T09:00:14Z</time>
      </trkpt>
      <trkpt lat="48.68391" lon="2.0624">
        <ele>125.59</ele>
        <time>2015-01-17T09:00:23Z</time>
      </trkpt>
      <trkpt lat="48.68388" lon="2.0624">
        <ele>125.59</ele>
        <time>2015-01-17T09:00:26Z</time>
      </trkpt>
      <trkpt lat="48.68385" lon="2.06242">
        <ele>126.07</ele>
        <time>2015-01-17T09:00:28Z</time>
      </trkpt>
      <trkpt lat="48.68379" lon="2.06242">
        <ele>126.07</ele>
        <time>2015-01-17T09:00:32Z</time>
      </trkpt>
      <trkpt lat="48.68375" lon="2.06243">
        <ele>126.07</ele>
        <time>2015-01-17T09:00:35Z</time>
      </trkpt>
      <trkpt lat="48.68361" lon="2.06256">
        <ele>126.55</ele>
        <time>2015-01-17T09:00:48Z</time>
      </trkpt>
      <trkpt lat="48.68356" lon="2.06259">
        <ele>126.55</ele>
        <time>2015-01-17T09:00:52Z</time>
      </trkpt>
      <trkpt lat="48.68345" lon="2.06265">
        <ele>127.03</ele>
        <time>2015-01-17T09:01:06Z</time>
      </trkpt>
      <trkpt lat="48.68344" lon="2.06267">
        <ele>126.55</ele>
        <time>2015-01-17T09:01:17Z</time>
      </trkpt>
      <trkpt lat="48.6834" lon="2.06271">
        <ele>127.03</ele>
        <time>2015-01-17T09:01:22Z</time>
      </trkpt>
      <trkpt lat="48.68336" lon="2.06276">
        <ele>127.03</ele>
        <time>2015-01-17T09:01:28Z</time>
      </trkpt>
      <trkpt lat="48.68336" lon="2.06279">
        <ele>127.03</ele>
        <time>2015-01-17T09:01:30Z</time>
      </trkpt>
      <trkpt lat="48.68334" lon="2.06283">
        <ele>127.03</ele>
        <time>2015-01-17T09:01:33Z</time>
      </trkpt>
      <trkpt lat="48.68333" lon="2.06286">
        <ele>127.51</ele>
        <time>2015-01-17T09:01:35Z</time>
      </trkpt>
      <trkpt lat="48.68331" lon="2.06294">
        <ele>127.51</ele>
        <time>2015-01-17T09:01:41Z</time>
      </trkpt>
      <trkpt lat="48.68332" lon="2.06305">
        <ele>127.51</ele>
        <time>2015-01-17T09:01:47Z</time>
      </trkpt>
      <trkpt lat="48.68332" lon="2.06313">
        <ele>127.51</ele>
        <time>2015-01-17T09:01:51Z</time>
      </trkpt>
      <trkpt lat="48.68333" lon="2.06318">
        <ele>127.51</ele>
        <time>2015-01-17T09:01:53Z</time>
      </trkpt>
      <trkpt lat="48.68337" lon="2.06334">
        <ele>127.51</ele>
        <time>2015-01-17T09:02:02Z</time>
      </trkpt>
      <trkpt lat="48.6834" lon="2.06357">
        <ele>127.51</ele>
        <time>2015-01-17T09:02:14Z</time>
      </trkpt>
      <trkpt lat="48.68341" lon="2.06364">
        <ele>127.51</ele>
        <time>2015-01-17T09:02:18Z</time>
      </trkpt>
      <trkpt lat="48.68337" lon="2.06385">
        <ele>127.99</ele>
        <time>2015-01-17T09:02:30Z</time>
      </trkpt>
      <trkpt lat="48.68334" lon="2.0639">
        <ele>127.99</ele>
        <time>2015-01-17T09:02:34Z</time>
      </trkpt>
      <trkpt lat="48.68329" lon="2.06399">
        <ele>128.47</ele>
        <time>2015-01-17T09:02:42Z</time>
      </trkpt>
      <trkpt lat="48.68325" lon="2.06407">
        <ele>128.95</ele>
        <time>2015-01-17T09:02:49Z</time>
      </trkpt>
      <trkpt lat="48.6832" lon="2.06415">
        <ele>129.43</ele>
        <time>2015-01-17T09:02:56Z</time>
      </trkpt>
      <trkpt lat="48.68311" lon="2.06427">
        <ele>130.88</ele>
        <time>2015-01-17T09:03:07Z</time>
      </trkpt>
      <trkpt lat="48.68301" lon="2.06439">
        <ele>132.32</ele>
        <time>2015-01-17T09:03:19Z</time>
      </trkpt>
      <trkpt lat="48.683" lon="2.06441">
        <ele>132.32</ele>
        <time>2015-01-17T09:03:21Z</time>
      </trkpt>
      <trkpt lat="48.68299" lon="2.06443">
        <ele>132.8</ele>
        <time>2015-01-17T09:03:23Z</time>
      </trkpt>
      <trkpt lat="48.68294" lon="2.0645">
        <ele>133.76</ele>
        <time>2015-01-17T09:03:29Z</time>
      </trkpt>
      <trkpt lat="48.68292" lon="2.06454">
        <ele>133.76</ele>
        <time>2015-01-17T09:03:32Z</time>
      </trkpt>
      <trkpt lat="48.68284" lon="2.06465">
        <ele>135.2</ele>
        <time>2015-01-17T09:03:41Z</time>
      </trkpt>
      <trkpt lat="48.68276" lon="2.06474">
        <ele>136.16</ele>
        <time>2015-01-17T09:03:50Z</time>
      </trkpt>
      <trkpt lat="48.68272" lon="2.06481">
        <ele>137.13</ele>
        <time>2015-01-17T09:03:57Z</time>
      </trkpt>
      <trkpt lat="48.68267" lon="2.06492">
        <ele>137.61</ele>
        <time>2015-01-17T09:04:06Z</time>
      </trkpt>
      <trkpt lat="48.6826" lon="2.06504">
        <ele>138.09</ele>
        <time>2015-01-17T09:04:15Z</time>
      </trkpt>
      <trkpt lat="48.68255" lon="2.06512">
        <ele>137.61</ele>
        <time>2015-01-17T09:04:22Z</time>
      </trkpt>
      <trkpt lat="48.6825" lon="2.06518">
        <ele>137.13</ele>
        <time>2015-01-17T09:04:26Z</time>
      </trkpt>
      <trkpt lat="48.68245" lon="2.06525">
        <ele>136.64</ele>
        <time>2015-01-17T09:04:31Z</time>
      </trkpt>
      <trkpt lat="48.68238" lon="2.06537">
        <ele>136.16</ele>
        <time>2015-01-17T09:04:40Z</time>
      </trkpt>
      <trkpt lat="48.68231" lon="2.06545">
        <ele>136.16</ele>
        <time>2015-01-17T09:04:47Z</time>
      </trkpt>
      <trkpt lat="48.68229" lon="2.06548">
        <ele>135.68</ele>
        <time>2015-01-17T09:04:50Z</time>
      </trkpt>
      <trkpt lat="48.68227" lon="2.06551">
        <ele>135.2</ele>
        <time>2015-01-17T09:04:53Z</time>
      </trkpt>
      <trkpt lat="48.68225" lon="2.0656">
        <ele>134.24</ele>
        <time>2015-01-17T09:04:58Z</time>
      </trkpt>
      <trkpt lat="48.68225" lon="2.06565">
        <ele>134.24</ele>
        <time>2015-01-17T09:05:00Z</time>
      </trkpt>
      <trkpt lat="48.68226" lon="2.06578">
        <ele>132.8</ele>
        <time>2015-01-17T09:05:08Z</time>
      </trkpt>
      <trkpt lat="48.68226" lon="2.06592">
        <ele>132.32</ele>
        <time>2015-01-17T09:05:15Z</time>
      </trkpt>
      <trkpt lat="48.68226" lon="2.06602">
        <ele>131.36</ele>
        <time>2015-01-17T09:05:21Z</time>
      </trkpt>
      <trkpt lat="48.68227" lon="2.06606">
        <ele>131.36</ele>
        <time>2015-01-17T09:05:23Z</time>
      </trkpt>
      <trkpt lat="48.68231" lon="2.0662">
        <ele>130.4</ele>
        <time>2015-01-17T09:05:32Z</time>
      </trkpt>
      <trkpt lat="48.68239" lon="2.06638">
        <ele>129.43</ele>
        <time>2015-01-17T09:05:43Z</time>
      </trkpt>
      <trkpt lat="48.68242" lon="2.06658">
        <ele>127.99</ele>
        <time>2015-01-17T09:05:55Z</time>
      </trkpt>
      <trkpt lat="48.68242" lon="2.0666">
        <ele>127.99</ele>
        <time>2015-01-17T09:05:56Z</time>
      </trkpt>
      <trkpt lat="48.68242" lon="2.06666">
        <ele>127.99</ele>
        <time>2015-01-17T09:05:59Z</time>
      </trkpt>
      <trkpt lat="48.68241" lon="2.06669">
        <ele>127.51</ele>
        <time>2015-01-17T09:06:00Z</time>
      </trkpt>
      <trkpt lat="48.68242" lon="2.0667">
        <ele>127.51</ele>
        <time>2015-01-17T09:06:01Z</time>
      </trkpt>
      <trkpt lat="48.68243" lon="2.06672">
        <ele>127.51</ele>
        <time>2015-01-17T09:06:02Z</time>
      </trkpt>
      <trkpt lat="48.68243" lon="2.06674">
        <ele>127.51</ele>
        <time>2015-01-17T09:06:04Z</time>
      </trkpt>
      <trkpt lat="48.68243" lon="2.06676">
        <ele>127.51</ele>
        <time>2015-01-17T09:06:05Z</time>
      </trkpt>
      <trkpt lat="48.68243" lon="2.06678">
        <ele>127.51</ele>
        <time>2015-01-17T09:06:06Z</time>
      </trkpt>
      <trkpt lat="48.68244" lon="2.0668">
        <ele>127.03</ele>
        <time>2015-01-17T09:06:07Z</time>
      </trkpt>
      <trkpt lat="48.68244" lon="2.06682">
        <ele>127.03</ele>
        <time>2015-01-17T09:06:08Z</time>
      </trkpt>
      <trkpt lat="48.68244" lon="2.06683">
        <ele>127.03</ele>
        <time>2015-01-17T09:06:09Z</time>
      </trkpt>
      <trkpt lat="48.68245" lon="2.06685">
        <ele>127.03</ele>
        <time>2015-01-17T09:06:10Z</time>
      </trkpt>
      <trkpt lat="48.68247" lon="2.06693">
        <ele>126.55</ele>
        <time>2015-01-17T09:06:16Z</time>
      </trkpt>
      <trkpt lat="48.68248" lon="2.06698">
        <ele>126.55</ele>
        <time>2015-01-17T09:06:19Z</time>
      </trkpt>
      <trkpt lat="48.68248" lon="2.067">
        <ele>126.07</ele>
        <time>2015-01-17T09:06:20Z</time>
      </trkpt>
      <trkpt lat="48.68248" lon="2.06702">
        <ele>126.07</ele>
        <time>2015-01-17T09:06:21Z</time>
      </trkpt>
      <trkpt lat="48.68248" lon="2.06704">
        <ele>126.07</ele>
        <time>2015-01-17T09:06:22Z</time>
      </trkpt>
      <trkpt lat="48.68249" lon="2.06706">
        <ele>126.07</ele>
        <time>2015-01-17T09:06:23Z</time>
      </trkpt>
      <trkpt lat="48.68249" lon="2.06708">
        <ele>126.07</ele>
        <time>2015-01-17T09:06:24Z</time>
      </trkpt>
      <trkpt lat="48.68253" lon="2.06723">
        <ele>125.59</ele>
        <time>2015-01-17T09:06:34Z</time>
      </trkpt>
      <trkpt lat="48.68255" lon="2.0673">
        <ele>125.11</ele>
        <time>2015-01-17T09:06:38Z</time>
      </trkpt>
      <trkpt lat="48.68257" lon="2.06739">
        <ele>124.63</ele>
        <time>2015-01-17T09:06:43Z</time>
      </trkpt>
      <trkpt lat="48.68258" lon="2.06741">
        <ele>124.63</ele>
        <time>2015-01-17T09:06:44Z</time>
      </trkpt>
      <trkpt lat="48.68259" lon="2.06742">
        <ele>124.63</ele>
        <time>2015-01-17T09:06:45Z</time>
      </trkpt>
      <trkpt lat="48.6826" lon="2.06743">
        <ele>124.63</ele>
        <time>2015-01-17T09:06:46Z</time>
      </trkpt>
      <trkpt lat="48.68262" lon="2.06746">
        <ele>124.63</ele>
        <time>2015-01-17T09:06:48Z</time>
      </trkpt>
      <trkpt lat="48.68264" lon="2.0675">
        <ele>124.63</ele>
        <time>2015-01-17T09:06:51Z</time>
      </trkpt>
      <trkpt lat="48.6827" lon="2.06763">
        <ele>124.15</ele>
        <time>2015-01-17T09:07:01Z</time>
      </trkpt>
      <trkpt lat="48.68277" lon="2.06771">
        <ele>124.15</ele>
        <time>2015-01-17T09:07:08Z</time>
      </trkpt>
      <trkpt lat="48.68279" lon="2.06776">
        <ele>124.15</ele>
        <time>2015-01-17T09:07:11Z</time>
      </trkpt>
      <trkpt lat="48.6828" lon="2.06777">
        <ele>124.15</ele>
        <time>2015-01-17T09:07:12Z</time>
      </trkpt>
      <trkpt lat="48.68281" lon="2.06778">
        <ele>124.15</ele>
        <time>2015-01-17T09:07:13Z</time>
      </trkpt>
      <trkpt lat="48.68282" lon="2.06779">
        <ele>124.15</ele>
        <time>2015-01-17T09:07:14Z</time>
      </trkpt>
      <trkpt lat="48.68294" lon="2.06786">
        <ele>123.67</ele>
        <time>2015-01-17T09:07:25Z</time>
      </trkpt>
      <trkpt lat="48.68301" lon="2.06796">
        <ele>124.63</ele>
        <time>2015-01-17T09:07:38Z</time>
      </trkpt>
      <trkpt lat="48.68297" lon="2.068">
        <ele>125.11</ele>
        <time>2015-01-17T09:07:44Z</time>
      </trkpt>
      <trkpt lat="48.68295" lon="2.06803">
        <ele>125.11</ele>
        <time>2015-01-17T09:07:47Z</time>
      </trkpt>
      <trkpt lat="48.68295" lon="2.06805">
        <ele>125.11</ele>
        <time>2015-01-17T09:07:49Z</time>
      </trkpt>
      <trkpt lat="48.68294" lon="2.06806">
        <ele>125.11</ele>
        <time>2015-01-17T09:07:50Z</time>
      </trkpt>
      <trkpt lat="48.68293" lon="2.06807">
        <ele>125.11</ele>
        <time>2015-01-17T09:07:51Z</time>
      </trkpt>
      <trkpt lat="48.68292" lon="2.06808">
        <ele>125.11</ele>
        <time>2015-01-17T09:07:52Z</time>
      </trkpt>
      <trkpt lat="48.68291" lon="2.06811">
        <ele>125.11</ele>
        <time>2015-01-17T09:07:55Z</time>
      </trkpt>
      <trkpt lat="48.6829" lon="2.06813">
        <ele>125.11</ele>
        <time>2015-01-17T09:07:57Z</time>
      </trkpt>
      <trkpt lat="48.68288" lon="2.06815">
        <ele>125.11</ele>
        <time>2015-01-17T09:08:00Z</time>
      </trkpt>
      <trkpt lat="48.68286" lon="2.06818">
        <ele>125.11</ele>
        <time>2015-01-17T09:08:02Z</time>
      </trkpt>
      <trkpt lat="48.68279" lon="2.06827">
        <ele>125.11</ele>
        <time>2015-01-17T09:08:11Z</time>
      </trkpt>
      <trkpt lat="48.68275" lon="2.06832">
        <ele>125.11</ele>
        <time>2015-01-17T09:08:15Z</time>
      </trkpt>
      <trkpt lat="48.68274" lon="2.06833">
        <ele>125.11</ele>
        <time>2015-01-17T09:08:16Z</time>
      </trkpt>
      <trkpt lat="48.68267" lon="2.06836">
        <ele>125.11</ele>
        <time>2015-01-17T09:08:23Z</time>
      </trkpt>
      <trkpt lat="48.6826" lon="2.06842">
        <ele>125.11</ele>
        <time>2015-01-17T09:08:30Z</time>
      </trkpt>
      <trkpt lat="48.68259" lon="2.06842">
        <ele>125.11</ele>
        <time>2015-01-17T09:08:31Z</time>
      </trkpt>
      <trkpt lat="48.68249" lon="2.06846">
        <ele>125.11</ele>
        <time>2015-01-17T09:08:42Z</time>
      </trkpt>
      <trkpt lat="48.68242" lon="2.06846">
        <ele>125.59</ele>
        <time>2015-01-17T09:08:52Z</time>
      </trkpt>
      <trkpt lat="48.68232" lon="2.0685">
        <ele>125.59</ele>
        <time>2015-01-17T09:09:02Z</time>
      </trkpt>
      <trkpt lat="48.68221" lon="2.06854">
        <ele>126.07</ele>
        <time>2015-01-17T09:09:13Z</time>
      </trkpt>
      <trkpt lat="48.68215" lon="2.06861">
        <ele>126.55</ele>
        <time>2015-01-17T09:09:21Z</time>
      </trkpt>
      <trkpt lat="48.68209" lon="2.06866">
        <ele>127.03</ele>
        <time>2015-01-17T09:09:26Z</time>
      </trkpt>
      <trkpt lat="48.68208" lon="2.06867">
        <ele>127.03</ele>
        <time>2015-01-17T09:09:27Z</time>
      </trkpt>
      <trkpt lat="48.68206" lon="2.06868">
        <ele>127.03</ele>
        <time>2015-01-17T09:09:28Z</time>
      </trkpt>
      <trkpt lat="48.682" lon="2.06873">
        <ele>127.03</ele>
        <time>2015-01-17T09:09:34Z</time>
      </trkpt>
      <trkpt lat="48.68199" lon="2.06873">
        <ele>127.51</ele>
        <time>2015-01-17T09:09:35Z</time>
      </trkpt>
      <trkpt lat="48.68193" lon="2.06879">
        <ele>127.99</ele>
        <time>2015-01-17T09:09:45Z</time>
      </trkpt>
      <trkpt lat="48.68187" lon="2.06883">
        <ele>128.47</ele>
        <time>2015-01-17T09:09:56Z</time>
      </trkpt>
      <trkpt lat="48.68183" lon="2.06884">
        <ele>128.95</ele>
        <time>2015-01-17T09:10:00Z</time>
      </trkpt>
      <trkpt lat="48.68172" lon="2.06891">
        <ele>130.4</ele>
        <time>2015-01-17T09:10:10Z</time>
      </trkpt>
      <trkpt lat="48.68165" lon="2.06899">
        <ele>131.36</ele>
        <time>2015-01-17T09:10:17Z</time>
      </trkpt>
      <trkpt lat="48.68163" lon="2.06902">
        <ele>131.84</ele>
        <time>2015-01-17T09:10:20Z</time>
      </trkpt>
      <trkpt lat="48.68155" lon="2.06911">
        <ele>132.8</ele>
        <time>2015-01-17T09:10:30Z</time>
      </trkpt>
      <trkpt lat="48.68147" lon="2.06924">
        <ele>134.24</ele>
        <time>2015-01-17T09:10:40Z</time>
      </trkpt>
      <trkpt lat="48.6814" lon="2.06939">
        <ele>135.2</ele>
        <time>2015-01-17T09:10:50Z</time>
      </trkpt>
      <trkpt lat="48.68134" lon="2.06947">
        <ele>136.64</ele>
        <time>2015-01-17T09:11:00Z</time>
      </trkpt>
      <trkpt lat="48.68129" lon="2.0696">
        <ele>138.09</ele>
        <time>2015-01-17T09:11:11Z</time>
      </trkpt>
      <trkpt lat="48.68127" lon="2.06968">
        <ele>139.53</ele>
        <time>2015-01-17T09:11:21Z</time>
      </trkpt>
      <trkpt lat="48.68125" lon="2.06981">
        <ele>140.97</ele>
        <time>2015-01-17T09:11:31Z</time>
      </trkpt>
      <trkpt lat="48.68119" lon="2.06992">
        <ele>142.89</ele>
        <time>2015-01-17T09:11:42Z</time>
      </trkpt>
      <trkpt lat="48.68109" lon="2.07004">
        <ele>144.34</ele>
        <time>2015-01-17T09:11:52Z</time>
      </trkpt>
      <trkpt lat="48.68102" lon="2.07015">
        <ele>146.74</ele>
        <time>2015-01-17T09:12:04Z</time>
      </trkpt>
      <trkpt lat="48.681" lon="2.07017">
        <ele>147.22</ele>
        <time>2015-01-17T09:12:07Z</time>
      </trkpt>
      <trkpt lat="48.68094" lon="2.07025">
        <ele>148.66</ele>
        <time>2015-01-17T09:12:17Z</time>
      </trkpt>
      <trkpt lat="48.68086" lon="2.0704">
        <ele>151.54</ele>
        <time>2015-01-17T09:12:31Z</time>
      </trkpt>
      <trkpt lat="48.68083" lon="2.07053">
        <ele>153.47</ele>
        <time>2015-01-17T09:12:44Z</time>
      </trkpt>
      <trkpt lat="48.68079" lon="2.07061">
        <ele>156.35</ele>
        <time>2015-01-17T09:12:55Z</time>
      </trkpt>
      <trkpt lat="48.68075" lon="2.07074">
        <ele>159.24</ele>
        <time>2015-01-17T09:13:08Z</time>
      </trkpt>
      <trkpt lat="48.68073" lon="2.07084">
        <ele>161.64</ele>
        <time>2015-01-17T09:13:19Z</time>
      </trkpt>
      <trkpt lat="48.68069" lon="2.07095">
        <ele>163.08</ele>
        <time>2015-01-17T09:13:30Z</time>
      </trkpt>
      <trkpt lat="48.68067" lon="2.07104">
        <ele>164.52</ele>
        <time>2015-01-17T09:13:40Z</time>
      </trkpt>
      <trkpt lat="48.68063" lon="2.0712">
        <ele>166.45</ele>
        <time>2015-01-17T09:13:52Z</time>
      </trkpt>
      <trkpt lat="48.6806" lon="2.07129">
        <ele>168.37</ele>
        <time>2015-01-17T09:14:04Z</time>
      </trkpt>
      <trkpt lat="48.68053" lon="2.07139">
        <ele>170.77</ele>
        <time>2015-01-17T09:14:16Z</time>
      </trkpt>
      <trkpt lat="48.68051" lon="2.07142">
        <ele>171.25</ele>
        <time>2015-01-17T09:14:21Z</time>
      </trkpt>
      <trkpt lat="48.68046" lon="2.07143">
        <ele>172.69</ele>
        <time>2015-01-17T09:14:31Z</time>
      </trkpt>
      <trkpt lat="48.6804" lon="2.07146">
        <ele>174.62</ele>
        <time>2015-01-17T09:14:42Z</time>
      </trkpt>
      <trkpt lat="48.68033" lon="2.07155">
        <ele>176.06</ele>
        <time>2015-01-17T09:14:53Z</time>
      </trkpt>
      <trkpt lat="48.68026" lon="2.07162">
        <ele>176.54</ele>
        <time>2015-01-17T09:15:04Z</time>
      </trkpt>
      <trkpt lat="48.68024" lon="2.07163">
        <ele>176.54</ele>
        <time>2015-01-17T09:15:06Z</time>
      </trkpt>
      <trkpt lat="48.68019" lon="2.07166">
        <ele>176.54</ele>
        <time>2015-01-17T09:15:13Z</time>
      </trkpt>
      <trkpt lat="48.68018" lon="2.07165">
        <ele>176.54</ele>
        <time>2015-01-17T09:15:26Z</time>
      </trkpt>
      <trkpt lat="48.68012" lon="2.07168">
        <ele>176.54</ele>
        <time>2015-01-17T09:15:34Z</time>
      </trkpt>
      <trkpt lat="48.68005" lon="2.07171">
        <ele>177.02</ele>
        <time>2015-01-17T09:15:44Z</time>
      </trkpt>
      <trkpt lat="48.68003" lon="2.07172">
        <ele>177.02</ele>
        <time>2015-01-17T09:15:58Z</time>
      </trkpt>
      <trkpt lat="48.68004" lon="2.07172">
        <ele>176.54</ele>
        <time>2015-01-17T09:15:59Z</time>
      </trkpt>
      <trkpt lat="48.68007" lon="2.07173">
        <ele>177.5</ele>
        <time>2015-01-17T09:16:08Z</time>
      </trkpt>
      <trkpt lat="48.68008" lon="2.07173">
        <ele>177.02</ele>
        <time>2015-01-17T09:16:27Z</time>
      </trkpt>
      <trkpt lat="48.68008" lon="2.07173">
        <ele>177.02</ele>
        <time>2015-01-17T09:16:51Z</time>
      </trkpt>
      <trkpt lat="48.68008" lon="2.07173">
        <ele>176.54</ele>
        <time>2015-01-17T09:17:09Z</time>
      </trkpt>
      <trkpt lat="48.68007" lon="2.07173">
        <ele>175.58</ele>
        <time>2015-01-17T09:17:22Z</time>
      </trkpt>
      <trkpt lat="48.68007" lon="2.07173">
        <ele>175.58</ele>
        <time>2015-01-17T09:17:47Z</time>
      </trkpt>
      <trkpt lat="48.68007" lon="2.07175">
        <ele>175.1</ele>
        <time>2015-01-17T09:18:09Z</time>
      </trkpt>
      <trkpt lat="48.68005" lon="2.07175">
        <ele>176.06</ele>
        <time>2015-01-17T09:18:24Z</time>
      </trkpt>
      <trkpt lat="48.68005" lon="2.07174">
        <ele>175.58</ele>
        <time>2015-01-17T09:18:40Z</time>
      </trkpt>
      <trkpt lat="48.68005" lon="2.07173">
        <ele>175.58</ele>
        <time>2015-01-17T09:18:58Z</time>
      </trkpt>
      <trkpt lat="48.68005" lon="2.07173">
        <ele>175.1</ele>
        <time>2015-01-17T09:19:19Z</time>
      </trkpt>
      <trkpt lat="48.68004" lon="2.07173">
        <ele>175.1</ele>
        <time>2015-01-17T09:19:39Z</time>
      </trkpt>
      <trkpt lat="48.68003" lon="2.07173">
        <ele>175.1</ele>
        <time>2015-01-17T09:20:04Z</time>
      </trkpt>
      <trkpt lat="48.68002" lon="2.07173">
        <ele>174.62</ele>
        <time>2015-01-17T09:20:19Z</time>
      </trkpt>
      <trkpt lat="48.68001" lon="2.07173">
        <ele>174.62</ele>
        <time>2015-01-17T09:20:41Z</time>
      </trkpt>
      <trkpt lat="48.68001" lon="2.07173">
        <ele>174.62</ele>
        <time>2015-01-17T09:21:00Z</time>
      </trkpt>
      <trkpt lat="48.68001" lon="2.07173">
        <ele>174.62</ele>
        <time>2015-01-17T09:21:14Z</time>
      </trkpt>
      <trkpt lat="48.68001" lon="2.07174">
        <ele>174.14</ele>
        <time>2015-01-17T09:21:35Z</time>
      </trkpt>
      <trkpt lat="48.68001" lon="2.07174">
        <ele>174.14</ele>
        <time>2015-01-17T09:21:52Z</time>
      </trkpt>
      <trkpt lat="48.68001" lon="2.07174">
        <ele>174.14</ele>
        <time>2015-01-17T09:22:07Z</time>
      </trkpt>
      <trkpt lat="48.68001" lon="2.07173">
        <ele>173.66</ele>
        <time>2015-01-17T09:22:28Z</time>
      </trkpt>
      <trkpt lat="48.68001" lon="2.07172">
        <ele>173.66</ele>
        <time>2015-01-17T09:22:49Z</time>
      </trkpt>
      <trkpt lat="48.68001" lon="2.07172">
        <ele>173.66</ele>
        <time>2015-01-17T09:23:09Z</time>
      </trkpt>
      <trkpt lat="48.68001" lon="2.07172">
        <ele>173.66</ele>
        <time>2015-01-17T09:23:28Z</time>
      </trkpt>
      <trkpt lat="48.68001" lon="2.07173">
        <ele>173.66</ele>
        <time>2015-01-17T09:23:46Z</time>
      </trkpt>
      <trkpt lat="48.68" lon="2.07173">
        <ele>173.17</ele>
        <time>2015-01-17T09:24:04Z</time>
      </trkpt>
      <trkpt lat="48.68" lon="2.07175">
        <ele>173.17</ele>
        <time>2015-01-17T09:24:26Z</time>
      </trkpt>
      <trkpt lat="48.68" lon="2.07174">
        <ele>173.17</ele>
        <time>2015-01-17T09:24:45Z</time>
      </trkpt>
      <trkpt lat="48.68" lon="2.07174">
        <ele>172.69</ele>
        <time>2015-01-17T09:25:07Z</time>
      </trkpt>
      <trkpt lat="48.68" lon="2.07174">
        <ele>172.69</ele>
        <time>2015-01-17T09:25:26Z</time>
      </trkpt>
      <trkpt lat="48.68" lon="2.07174">
        <ele>172.69</ele>
        <time>2015-01-17T09:25:44Z</time>
      </trkpt>
      <trkpt lat="48.68001" lon="2.07174">
        <ele>172.69</ele>
        <time>2015-01-17T09:26:04Z</time>
      </trkpt>
      <trkpt lat="48.68001" lon="2.07175">
        <ele>172.21</ele>
        <time>2015-01-17T09:26:25Z</time>
      </trkpt>
      <trkpt lat="48.68001" lon="2.07175">
        <ele>172.21</ele>
        <time>2015-01-17T09:26:41Z</time>
      </trkpt>
      <trkpt lat="48.68001" lon="2.07175">
        <ele>172.21</ele>
        <time>2015-01-17T09:27:02Z</time>
      </trkpt>
      <trkpt lat="48.68002" lon="2.07175">
        <ele>171.73</ele>
        <time>2015-01-17T09:27:23Z</time>
      </trkpt>
      <trkpt lat="48.68003" lon="2.07175">
        <ele>171.73</ele>
        <time>2015-01-17T09:27:47Z</time>
      </trkpt>
      <trkpt lat="48.68003" lon="2.07176">
        <ele>171.73</ele>
        <time>2015-01-17T09:28:10Z</time>
      </trkpt>
      <trkpt lat="48.68003" lon="2.07177">
        <ele>171.73</ele>
        <time>2015-01-17T09:28:27Z</time>
      </trkpt>
      <trkpt lat="48.68004" lon="2.07176">
        <ele>171.25</ele>
        <time>2015-01-17T09:28:53Z</time>
      </trkpt>
      <trkpt lat="48.68004" lon="2.07177">
        <ele>171.25</ele>
        <time>2015-01-17T09:29:06Z</time>
      </trkpt>
      <trkpt lat="48.67999" lon="2.07178">
        <ele>171.25</ele>
        <time>2015-01-17T09:29:16Z</time>
      </trkpt>
      <trkpt lat="48.67989" lon="2.07181">
        <ele>171.73</ele>
        <time>2015-01-17T09:29:29Z</time>
      </trkpt>
      <trkpt lat="48.67978" lon="2.07188">
        <ele>171.73</ele>
        <time>2015-01-17T09:29:44Z</time>
      </trkpt>
      <trkpt lat="48.67965" lon="2.07193">
        <ele>171.73</ele>
        <time>2015-01-17T09:29:59Z</time>
      </trkpt>
      <trkpt lat="48.67957" lon="2.07196">
        <ele>172.21</ele>
        <time>2015-01-17T09:30:06Z</time>
      </trkpt>
      <trkpt lat="48.67942" lon="2.07192">
        <ele>172.21</ele>
        <time>2015-01-17T09:30:19Z</time>
      </trkpt>
      <trkpt lat="48.67928" lon="2.07189">
        <ele>172.69</ele>
        <time>2015-01-17T09:30:29Z</time>
      </trkpt>
      <trkpt lat="48.67916" lon="2.07186">
        <ele>172.69</ele>
        <time>2015-01-17T09:30:37Z</time>
      </trkpt>
      <trkpt lat="48.67915" lon="2.07185">
        <ele>172.69</ele>
        <time>2015-01-17T09:30:38Z</time>
      </trkpt>
      <trkpt lat="48.67913" lon="2.07184">
        <ele>172.69</ele>
        <time>2015-01-17T09:30:39Z</time>
      </trkpt>
      <trkpt lat="48.67911" lon="2.07183">
        <ele>172.69</ele>
        <time>2015-01-17T09:30:40Z</time>
      </trkpt>
      <trkpt lat="48.6791" lon="2.07182">
        <ele>172.69</ele>
        <time>2015-01-17T09:30:41Z</time>
      </trkpt>
      <trkpt lat="48.67909" lon="2.07181">
        <ele>172.69</ele>
        <time>2015-01-17T09:30:42Z</time>
      </trkpt>
      <trkpt lat="48.67907" lon="2.07181">
        <ele>172.69</ele>
        <time>2015-01-17T09:30:43Z</time>
      </trkpt>
      <trkpt lat="48.67897" lon="2.07178">
        <ele>172.69</ele>
        <time>2015-01-17T09:30:52Z</time>
      </trkpt>
      <trkpt lat="48.67896" lon="2.07177">
        <ele>172.69</ele>
        <time>2015-01-17T09:30:53Z</time>
      </trkpt>
      <trkpt lat="48.67889" lon="2.07175">
        <ele>173.17</ele>
        <time>2015-01-17T09:31:04Z</time>
      </trkpt>
      <trkpt lat="48.67887" lon="2.07176">
        <ele>173.17</ele>
        <time>2015-01-17T09:31:05Z</time>
      </trkpt>
      <trkpt lat="48.67877" lon="2.07185">
        <ele>173.66</ele>
        <time>2015-01-17T09:31:18Z</time>
      </trkpt>
      <trkpt lat="48.67872" lon="2.07189">
        <ele>173.66</ele>
        <time>2015-01-17T09:31:24Z</time>
      </trkpt>
      <trkpt lat="48.67857" lon="2.07203">
        <ele>174.62</ele>
        <time>2015-01-17T09:31:37Z</time>
      </trkpt>
      <trkpt lat="48.67852" lon="2.07211">
        <ele>174.62</ele>
        <time>2015-01-17T09:31:44Z</time>
      </trkpt>
      <trkpt lat="48.6785" lon="2.07213">
        <ele>174.62</ele>
        <time>2015-01-17T09:31:45Z</time>
      </trkpt>
      <trkpt lat="48.67848" lon="2.07215">
        <ele>174.62</ele>
        <time>2015-01-17T09:31:46Z</time>
      </trkpt>
      <trkpt lat="48.67845" lon="2.07219">
        <ele>175.1</ele>
        <time>2015-01-17T09:31:48Z</time>
      </trkpt>
      <trkpt lat="48.67844" lon="2.07221">
        <ele>174.62</ele>
        <time>2015-01-17T09:31:49Z</time>
      </trkpt>
      <trkpt lat="48.67843" lon="2.07222">
        <ele>174.62</ele>
        <time>2015-01-17T09:31:50Z</time>
      </trkpt>
      <trkpt lat="48.6784" lon="2.07227">
        <ele>174.62</ele>
        <time>2015-01-17T09:31:53Z</time>
      </trkpt>
      <trkpt lat="48.67839" lon="2.07234">
        <ele>175.1</ele>
        <time>2015-01-17T09:31:57Z</time>
      </trkpt>
      <trkpt lat="48.67834" lon="2.07248">
        <ele>175.1</ele>
        <time>2015-01-17T09:32:06Z</time>
      </trkpt>
      <trkpt lat="48.67832" lon="2.07255">
        <ele>175.1</ele>
        <time>2015-01-17T09:32:10Z</time>
      </trkpt>
      <trkpt lat="48.67831" lon="2.07256">
        <ele>175.1</ele>
        <time>2015-01-17T09:32:11Z</time>
      </trkpt>
      <trkpt lat="48.67829" lon="2.0726">
        <ele>175.1</ele>
        <time>2015-01-17T09:32:14Z</time>
      </trkpt>
      <trkpt lat="48.67829" lon="2.07262">
        <ele>175.1</ele>
        <time>2015-01-17T09:32:15Z</time>
      </trkpt>
      <trkpt lat="48.67829" lon="2.07264">
        <ele>175.58</ele>
        <time>2015-01-17T09:32:16Z</time>
      </trkpt>
      <trkpt lat="48.67828" lon="2.07266">
        <ele>175.1</ele>
        <time>2015-01-17T09:32:17Z</time>
      </trkpt>
      <trkpt lat="48.67821" lon="2.07285">
        <ele>175.58</ele>
        <time>2015-01-17T09:32:30Z</time>
      </trkpt>
      <trkpt lat="48.6782" lon="2.07287">
        <ele>176.06</ele>
        <time>2015-01-17T09:32:31Z</time>
      </trkpt>
      <trkpt lat="48.6782" lon="2.07295">
        <ele>176.06</ele>
        <time>2015-01-17T09:32:37Z</time>
      </trkpt>
      <trkpt lat="48.67818" lon="2.07299">
        <ele>176.06</ele>
        <time>2015-01-17T09:32:40Z</time>
      </trkpt>
      <trkpt lat="48.67818" lon="2.07304">
        <ele>176.06</ele>
        <time>2015-01-17T09:32:46Z</time>
      </trkpt>
      <trkpt lat="48.67818" lon="2.07305">
        <ele>176.06</ele>
        <time>2015-01-17T09:32:47Z</time>
      </trkpt>
      <trkpt lat="48.67815" lon="2.07311">
        <ele>176.06</ele>
        <time>2015-01-17T09:32:51Z</time>
      </trkpt>
      <trkpt lat="48.67815" lon="2.07315">
        <ele>176.06</ele>
        <time>2015-01-17T09:32:53Z</time>
      </trkpt>
      <trkpt lat="48.67815" lon="2.07317">
        <ele>176.06</ele>
        <time>2015-01-17T09:32:54Z</time>
      </trkpt>
      <trkpt lat="48.67816" lon="2.07319">
        <ele>176.06</ele>
        <time>2015-01-17T09:32:55Z</time>
      </trkpt>
      <trkpt lat="48.6782" lon="2.07323">
        <ele>176.06</ele>
        <time>2015-01-17T09:32:58Z</time>
      </trkpt>
      <trkpt lat="48.67822" lon="2.07324">
        <ele>176.06</ele>
        <time>2015-01-17T09:32:59Z</time>
      </trkpt>
      <trkpt lat="48.67832" lon="2.07329">
        <ele>175.58</ele>
        <time>2015-01-17T09:33:08Z</time>
      </trkpt>
      <trkpt lat="48.67834" lon="2.0733">
        <ele>175.58</ele>
        <time>2015-01-17T09:33:09Z</time>
      </trkpt>
      <trkpt lat="48.67835" lon="2.07331">
        <ele>175.58</ele>
        <time>2015-01-17T09:33:10Z</time>
      </trkpt>
      <trkpt lat="48.67836" lon="2.07332">
        <ele>175.58</ele>
        <time>2015-01-17T09:33:11Z</time>
      </trkpt>
      <trkpt lat="48.67837" lon="2.07332">
        <ele>175.58</ele>
        <time>2015-01-17T09:33:12Z</time>
      </trkpt>
      <trkpt lat="48.67838" lon="2.07333">
        <ele>175.58</ele>
        <time>2015-01-17T09:33:13Z</time>
      </trkpt>
      <trkpt lat="48.67849" lon="2.07339">
        <ele>175.58</ele>
        <time>2015-01-17T09:33:26Z</time>
      </trkpt>
      <trkpt lat="48.67849" lon="2.0734">
        <ele>175.58</ele>
        <time>2015-01-17T09:33:28Z</time>
      </trkpt>
      <trkpt lat="48.67853" lon="2.07342">
        <ele>175.58</ele>
        <time>2015-01-17T09:33:31Z</time>
      </trkpt>
      <trkpt lat="48.67854" lon="2.07342">
        <ele>175.58</ele>
        <time>2015-01-17T09:33:32Z</time>
      </trkpt>
      <trkpt lat="48.67856" lon="2.07343">
        <ele>175.1</ele>
        <time>2015-01-17T09:33:33Z</time>
      </trkpt>
      <trkpt lat="48.67857" lon="2.07344">
        <ele>175.58</ele>
        <time>2015-01-17T09:33:34Z</time>
      </trkpt>
      <trkpt lat="48.67858" lon="2.07344">
        <ele>175.58</ele>
        <time>2015-01-17T09:33:35Z</time>
      </trkpt>
      <trkpt lat="48.67866" lon="2.07351">
        <ele>175.1</ele>
        <time>2015-01-17T09:33:43Z</time>
      </trkpt>
      <trkpt lat="48.67868" lon="2.07352">
        <ele>175.1</ele>
        <time>2015-01-17T09:33:44Z</time>
      </trkpt>
      <trkpt lat="48.67869" lon="2.07353">
        <ele>175.1</ele>
        <time>2015-01-17T09:33:45Z</time>
      </trkpt>
      <trkpt lat="48.6787" lon="2.07353">
        <ele>175.1</ele>
        <time>2015-01-17T09:33:46Z</time>
      </trkpt>
      <trkpt lat="48.67871" lon="2.07354">
        <ele>175.1</ele>
        <time>2015-01-17T09:33:47Z</time>
      </trkpt>
      <trkpt lat="48.67884" lon="2.07363">
        <ele>175.1</ele>
        <time>2015-01-17T09:33:58Z</time>
      </trkpt>
      <trkpt lat="48.67888" lon="2.07366">
        <ele>175.1</ele>
        <time>2015-01-17T09:34:02Z</time>
      </trkpt>
      <trkpt lat="48.67889" lon="2.07367">
        <ele>174.62</ele>
        <time>2015-01-17T09:34:03Z</time>
      </trkpt>
      <trkpt lat="48.6789" lon="2.07368">
        <ele>174.62</ele>
        <time>2015-01-17T09:34:04Z</time>
      </trkpt>
      <trkpt lat="48.67903" lon="2.07377">
        <ele>174.62</ele>
        <time>2015-01-17T09:34:16Z</time>
      </trkpt>
      <trkpt lat="48.67912" lon="2.07383">
        <ele>174.14</ele>
        <time>2015-01-17T09:34:23Z</time>
      </trkpt>
      <trkpt lat="48.67927" lon="2.07392">
        <ele>174.14</ele>
        <time>2015-01-17T09:34:36Z</time>
      </trkpt>
      <trkpt lat="48.67941" lon="2.07404">
        <ele>173.66</ele>
        <time>2015-01-17T09:34:49Z</time>
      </trkpt>
      <trkpt lat="48.67955" lon="2.07413">
        <ele>173.17</ele>
        <time>2015-01-17T09:35:02Z</time>
      </trkpt>
      <trkpt lat="48.67961" lon="2.07417">
        <ele>173.17</ele>
        <time>2015-01-17T09:35:07Z</time>
      </trkpt>
      <trkpt lat="48.67973" lon="2.07426">
        <ele>172.69</ele>
        <time>2015-01-17T09:35:18Z</time>
      </trkpt>
      <trkpt lat="48.67988" lon="2.07438">
        <ele>172.21</ele>
        <time>2015-01-17T09:35:32Z</time>
      </trkpt>
      <trkpt lat="48.67994" lon="2.07441">
        <ele>172.21</ele>
        <time>2015-01-17T09:35:37Z</time>
      </trkpt>
      <trkpt lat="48.67997" lon="2.07444">
        <ele>172.21</ele>
        <time>2015-01-17T09:35:40Z</time>
      </trkpt>
      <trkpt lat="48.68012" lon="2.07455">
        <ele>171.73</ele>
        <time>2015-01-17T09:35:53Z</time>
      </trkpt>
      <trkpt lat="48.68025" lon="2.07464">
        <ele>171.25</ele>
        <time>2015-01-17T09:36:04Z</time>
      </trkpt>
      <trkpt lat="48.68034" lon="2.07471">
        <ele>170.77</ele>
        <time>2015-01-17T09:36:12Z</time>
      </trkpt>
      <trkpt lat="48.68036" lon="2.07472">
        <ele>170.77</ele>
        <time>2015-01-17T09:36:13Z</time>
      </trkpt>
      <trkpt lat="48.68038" lon="2.07473">
        <ele>170.77</ele>
        <time>2015-01-17T09:36:15Z</time>
      </trkpt>
      <trkpt lat="48.68042" lon="2.07475">
        <ele>170.29</ele>
        <time>2015-01-17T09:36:19Z</time>
      </trkpt>
      <trkpt lat="48.68044" lon="2.07476">
        <ele>170.29</ele>
        <time>2015-01-17T09:36:20Z</time>
      </trkpt>
      <trkpt lat="48.68057" lon="2.07486">
        <ele>170.29</ele>
        <time>2015-01-17T09:36:31Z</time>
      </trkpt>
      <trkpt lat="48.68058" lon="2.07487">
        <ele>169.81</ele>
        <time>2015-01-17T09:36:32Z</time>
      </trkpt>
      <trkpt lat="48.68059" lon="2.07488">
        <ele>169.81</ele>
        <time>2015-01-17T09:36:33Z</time>
      </trkpt>
      <trkpt lat="48.6806" lon="2.07489">
        <ele>169.81</ele>
        <time>2015-01-17T09:36:34Z</time>
      </trkpt>
      <trkpt lat="48.68061" lon="2.0749">
        <ele>169.81</ele>
        <time>2015-01-17T09:36:35Z</time>
      </trkpt>
      <trkpt lat="48.68069" lon="2.07496">
        <ele>169.81</ele>
        <time>2015-01-17T09:36:42Z</time>
      </trkpt>
      <trkpt lat="48.6807" lon="2.07496">
        <ele>169.81</ele>
        <time>2015-01-17T09:36:43Z</time>
      </trkpt>
      <trkpt lat="48.68071" lon="2.07497">
        <ele>169.81</ele>
        <time>2015-01-17T09:36:44Z</time>
      </trkpt>
      <trkpt lat="48.68085" lon="2.07507">
        <ele>168.85</ele>
        <time>2015-01-17T09:36:56Z</time>
      </trkpt>
      <trkpt lat="48.68093" lon="2.07513">
        <ele>168.85</ele>
        <time>2015-01-17T09:37:03Z</time>
      </trkpt>
      <trkpt lat="48.68094" lon="2.07515">
        <ele>168.37</ele>
        <time>2015-01-17T09:37:04Z</time>
      </trkpt>
      <trkpt lat="48.68108" lon="2.07525">
        <ele>167.89</ele>
        <time>2015-01-17T09:37:17Z</time>
      </trkpt>
      <trkpt lat="48.68113" lon="2.07528">
        <ele>167.41</ele>
        <time>2015-01-17T09:37:22Z</time>
      </trkpt>
      <trkpt lat="48.68117" lon="2.0753">
        <ele>167.41</ele>
        <time>2015-01-17T09:37:25Z</time>
      </trkpt>
      <trkpt lat="48.68118" lon="2.07532">
        <ele>166.93</ele>
        <time>2015-01-17T09:37:27Z</time>
      </trkpt>
      <trkpt lat="48.68119" lon="2.07533">
        <ele>166.93</ele>
        <time>2015-01-17T09:37:28Z</time>
      </trkpt>
      <trkpt lat="48.68121" lon="2.07535">
        <ele>166.93</ele>
        <time>2015-01-17T09:37:30Z</time>
      </trkpt>
      <trkpt lat="48.68122" lon="2.07536">
        <ele>166.93</ele>
        <time>2015-01-17T09:37:31Z</time>
      </trkpt>
      <trkpt lat="48.68122" lon="2.07538">
        <ele>166.93</ele>
        <time>2015-01-17T09:37:32Z</time>
      </trkpt>
      <trkpt lat="48.68132" lon="2.07553">
        <ele>167.89</ele>
        <time>2015-01-17T09:37:44Z</time>
      </trkpt>
      <trkpt lat="48.68135" lon="2.07555">
        <ele>167.41</ele>
        <time>2015-01-17T09:37:49Z</time>
      </trkpt>
      <trkpt lat="48.68135" lon="2.07558">
        <ele>167.41</ele>
        <time>2015-01-17T09:37:51Z</time>
      </trkpt>
      <trkpt lat="48.68135" lon="2.0756">
        <ele>167.41</ele>
        <time>2015-01-17T09:37:52Z</time>
      </trkpt>
      <trkpt lat="48.68135" lon="2.07561">
        <ele>167.41</ele>
        <time>2015-01-17T09:37:53Z</time>
      </trkpt>
      <trkpt lat="48.68135" lon="2.07563">
        <ele>167.41</ele>
        <time>2015-01-17T09:37:54Z</time>
      </trkpt>
      <trkpt lat="48.68135" lon="2.07565">
        <ele>167.41</ele>
        <time>2015-01-17T09:37:55Z</time>
      </trkpt>
      <trkpt lat="48.68141" lon="2.07585">
        <ele>167.41</ele>
        <time>2015-01-17T09:38:07Z</time>
      </trkpt>
      <trkpt lat="48.68149" lon="2.07607">
        <ele>167.41</ele>
        <time>2015-01-17T09:38:22Z</time>
      </trkpt>
      <trkpt lat="48.68158" lon="2.07633">
        <ele>166.93</ele>
        <time>2015-01-17T09:38:39Z</time>
      </trkpt>
      <trkpt lat="48.68167" lon="2.07656">
        <ele>166.93</ele>
        <time>2015-01-17T09:38:52Z</time>
      </trkpt>
      <trkpt lat="48.68174" lon="2.07675">
        <ele>166.45</ele>
        <time>2015-01-17T09:39:05Z</time>
      </trkpt>
      <trkpt lat="48.68181" lon="2.07697">
        <ele>166.45</ele>
        <time>2015-01-17T09:39:20Z</time>
      </trkpt>
      <trkpt lat="48.6819" lon="2.07719">
        <ele>166.45</ele>
        <time>2015-01-17T09:39:36Z</time>
      </trkpt>
      <trkpt lat="48.68198" lon="2.0774">
        <ele>166.45</ele>
        <time>2015-01-17T09:39:50Z</time>
      </trkpt>
      <trkpt lat="48.68203" lon="2.07756">
        <ele>166.45</ele>
        <time>2015-01-17T09:40:04Z</time>
      </trkpt>
      <trkpt lat="48.68204" lon="2.07758">
        <ele>166.45</ele>
        <time>2015-01-17T09:40:06Z</time>
      </trkpt>
      <trkpt lat="48.68212" lon="2.07771">
        <ele>166.45</ele>
        <time>2015-01-17T09:40:18Z</time>
      </trkpt>
      <trkpt lat="48.68218" lon="2.07782">
        <ele>166.45</ele>
        <time>2015-01-17T09:40:29Z</time>
      </trkpt>
      <trkpt lat="48.6822" lon="2.07784">
        <ele>166.45</ele>
        <time>2015-01-17T09:40:31Z</time>
      </trkpt>
      <trkpt lat="48.68221" lon="2.07786">
        <ele>166.45</ele>
        <time>2015-01-17T09:40:33Z</time>
      </trkpt>
      <trkpt lat="48.68223" lon="2.0779">
        <ele>166.45</ele>
        <time>2015-01-17T09:40:37Z</time>
      </trkpt>
      <trkpt lat="48.68229" lon="2.07802">
        <ele>166.45</ele>
        <time>2015-01-17T09:40:53Z</time>
      </trkpt>
      <trkpt lat="48.68233" lon="2.07804">
        <ele>166.93</ele>
        <time>2015-01-17T09:40:58Z</time>
      </trkpt>
      <trkpt lat="48.68241" lon="2.07821">
        <ele>167.41</ele>
        <time>2015-01-17T09:41:10Z</time>
      </trkpt>
      <trkpt lat="48.68248" lon="2.07841">
        <ele>167.89</ele>
        <time>2015-01-17T09:41:23Z</time>
      </trkpt>
      <trkpt lat="48.68249" lon="2.07846">
        <ele>167.89</ele>
        <time>2015-01-17T09:41:26Z</time>
      </trkpt>
      <trkpt lat="48.6825" lon="2.07849">
        <ele>168.37</ele>
        <time>2015-01-17T09:41:28Z</time>
      </trkpt>
      <trkpt lat="48.68251" lon="2.07859">
        <ele>168.37</ele>
        <time>2015-01-17T09:41:34Z</time>
      </trkpt>
      <trkpt lat="48.68252" lon="2.07868">
        <ele>168.37</ele>
        <time>2015-01-17T09:41:40Z</time>
      </trkpt>
      <trkpt lat="48.68256" lon="2.07892">
        <ele>168.85</ele>
        <time>2015-01-17T09:41:55Z</time>
      </trkpt>
      <trkpt lat="48.68256" lon="2.07895">
        <ele>169.33</ele>
        <time>2015-01-17T09:41:57Z</time>
      </trkpt>
      <trkpt lat="48.68256" lon="2.0791">
        <ele>169.33</ele>
        <time>2015-01-17T09:42:08Z</time>
      </trkpt>
      <trkpt lat="48.68256" lon="2.07925">
        <ele>169.81</ele>
        <time>2015-01-17T09:42:20Z</time>
      </trkpt>
      <trkpt lat="48.68257" lon="2.07936">
        <ele>169.81</ele>
        <time>2015-01-17T09:42:28Z</time>
      </trkpt>
      <trkpt lat="48.68259" lon="2.07952">
        <ele>170.29</ele>
        <time>2015-01-17T09:42:40Z</time>
      </trkpt>
      <trkpt lat="48.68261" lon="2.07962">
        <ele>170.77</ele>
        <time>2015-01-17T09:42:47Z</time>
      </trkpt>
      <trkpt lat="48.68263" lon="2.07966">
        <ele>170.29</ele>
        <time>2015-01-17T09:42:50Z</time>
      </trkpt>
      <trkpt lat="48.68266" lon="2.07985">
        <ele>172.21</ele>
        <time>2015-01-17T09:43:02Z</time>
      </trkpt>
      <trkpt lat="48.68265" lon="2.07998">
        <ele>171.25</ele>
        <time>2015-01-17T09:43:12Z</time>
      </trkpt>
      <trkpt lat="48.68269" lon="2.08019">
        <ele>172.21</ele>
        <time>2015-01-17T09:43:26Z</time>
      </trkpt>
      <trkpt lat="48.68269" lon="2.0802">
        <ele>172.21</ele>
        <time>2015-01-17T09:43:27Z</time>
      </trkpt>
      <trkpt lat="48.68271" lon="2.08038">
        <ele>172.69</ele>
        <time>2015-01-17T09:43:38Z</time>
      </trkpt>
      <trkpt lat="48.68274" lon="2.08048">
        <ele>172.69</ele>
        <time>2015-01-17T09:43:45Z</time>
      </trkpt>
      <trkpt lat="48.68276" lon="2.08055">
        <ele>173.17</ele>
        <time>2015-01-17T09:43:49Z</time>
      </trkpt>
      <trkpt lat="48.68279" lon="2.08066">
        <ele>173.66</ele>
        <time>2015-01-17T09:43:56Z</time>
      </trkpt>
      <trkpt lat="48.68281" lon="2.08078">
        <ele>173.66</ele>
        <time>2015-01-17T09:44:04Z</time>
      </trkpt>
      <trkpt lat="48.68281" lon="2.08086">
        <ele>174.14</ele>
        <time>2015-01-17T09:44:08Z</time>
      </trkpt>
      <trkpt lat="48.68285" lon="2.08098">
        <ele>174.62</ele>
        <time>2015-01-17T09:44:21Z</time>
      </trkpt>
      <trkpt lat="48.68287" lon="2.08103">
        <ele>174.62</ele>
        <time>2015-01-17T09:44:25Z</time>
      </trkpt>
      <trkpt lat="48.68293" lon="2.08127">
        <ele>175.1</ele>
        <time>2015-01-17T09:44:38Z</time>
      </trkpt>
      <trkpt lat="48.68296" lon="2.08135">
        <ele>175.58</ele>
        <time>2015-01-17T09:44:43Z</time>
      </trkpt>
      <trkpt lat="48.68302" lon="2.08154">
        <ele>176.54</ele>
        <time>2015-01-17T09:44:55Z</time>
      </trkpt>
      <trkpt lat="48.68306" lon="2.08161">
        <ele>176.54</ele>
        <time>2015-01-17T09:44:59Z</time>
      </trkpt>
      <trkpt lat="48.68317" lon="2.08179">
        <ele>177.02</ele>
        <time>2015-01-17T09:45:11Z</time>
      </trkpt>
      <trkpt lat="48.68326" lon="2.08194">
        <ele>177.98</ele>
        <time>2015-01-17T09:45:22Z</time>
      </trkpt>
      <trkpt lat="48.68335" lon="2.08211">
        <ele>178.46</ele>
        <time>2015-01-17T09:45:36Z</time>
      </trkpt>
      <trkpt lat="48.68339" lon="2.08219">
        <ele>178.94</ele>
        <time>2015-01-17T09:45:42Z</time>
      </trkpt>
      <trkpt lat="48.68341" lon="2.08222">
        <ele>178.94</ele>
        <time>2015-01-17T09:45:44Z</time>
      </trkpt>
      <trkpt lat="48.68344" lon="2.08225">
        <ele>178.94</ele>
        <time>2015-01-17T09:45:47Z</time>
      </trkpt>
      <trkpt lat="48.68353" lon="2.08239">
        <ele>179.42</ele>
        <time>2015-01-17T09:46:00Z</time>
      </trkpt>
      <trkpt lat="48.6836" lon="2.08246">
        <ele>179.9</ele>
        <time>2015-01-17T09:46:11Z</time>
      </trkpt>
      <trkpt lat="48.68369" lon="2.08258">
        <ele>180.38</ele>
        <time>2015-01-17T09:46:22Z</time>
      </trkpt>
      <trkpt lat="48.68379" lon="2.08274">
        <ele>180.38</ele>
        <time>2015-01-17T09:46:33Z</time>
      </trkpt>
      <trkpt lat="48.68383" lon="2.08283">
        <ele>180.38</ele>
        <time>2015-01-17T09:46:39Z</time>
      </trkpt>
      <trkpt lat="48.68391" lon="2.08301">
        <ele>180.87</ele>
        <time>2015-01-17T09:46:53Z</time>
      </trkpt>
      <trkpt lat="48.68403" lon="2.08318">
        <ele>180.87</ele>
        <time>2015-01-17T09:47:04Z</time>
      </trkpt>
      <trkpt lat="48.68415" lon="2.0833">
        <ele>181.35</ele>
        <time>2015-01-17T09:47:16Z</time>
      </trkpt>
      <trkpt lat="48.68417" lon="2.0833">
        <ele>181.35</ele>
        <time>2015-01-17T09:47:18Z</time>
      </trkpt>
      <trkpt lat="48.68431" lon="2.08337">
        <ele>181.83</ele>
        <time>2015-01-17T09:47:31Z</time>
      </trkpt>
      <trkpt lat="48.68444" lon="2.08342">
        <ele>181.83</ele>
        <time>2015-01-17T09:47:43Z</time>
      </trkpt>
      <trkpt lat="48.68446" lon="2.08342">
        <ele>181.83</ele>
        <time>2015-01-17T09:47:44Z</time>
      </trkpt>
      <trkpt lat="48.6845" lon="2.08345">
        <ele>181.35</ele>
        <time>2015-01-17T09:47:48Z</time>
      </trkpt>
      <trkpt lat="48.68466" lon="2.08356">
        <ele>181.83</ele>
        <time>2015-01-17T09:48:04Z</time>
      </trkpt>
      <trkpt lat="48.68481" lon="2.08362">
        <ele>181.83</ele>
        <time>2015-01-17T09:48:18Z</time>
      </trkpt>
      <trkpt lat="48.68496" lon="2.08368">
        <ele>182.31</ele>
        <time>2015-01-17T09:48:31Z</time>
      </trkpt>
      <trkpt lat="48.68497" lon="2.08368">
        <ele>182.31</ele>
        <time>2015-01-17T09:48:32Z</time>
      </trkpt>
      <trkpt lat="48.68515" lon="2.08375">
        <ele>181.83</ele>
        <time>2015-01-17T09:48:48Z</time>
      </trkpt>
      <trkpt lat="48.68516" lon="2.08375">
        <ele>181.83</ele>
        <time>2015-01-17T09:48:49Z</time>
      </trkpt>
      <trkpt lat="48.68519" lon="2.08375">
        <ele>181.83</ele>
        <time>2015-01-17T09:48:52Z</time>
      </trkpt>
      <trkpt lat="48.68524" lon="2.08376">
        <ele>182.31</ele>
        <time>2015-01-17T09:48:56Z</time>
      </trkpt>
      <trkpt lat="48.6853" lon="2.08379">
        <ele>182.31</ele>
        <time>2015-01-17T09:49:02Z</time>
      </trkpt>
      <trkpt lat="48.68537" lon="2.08382">
        <ele>181.83</ele>
        <time>2015-01-17T09:49:08Z</time>
      </trkpt>
      <trkpt lat="48.68551" lon="2.08384">
        <ele>181.83</ele>
        <time>2015-01-17T09:49:21Z</time>
      </trkpt>
      <trkpt lat="48.68566" lon="2.08388">
        <ele>181.83</ele>
        <time>2015-01-17T09:49:35Z</time>
      </trkpt>
      <trkpt lat="48.68581" lon="2.08391">
        <ele>181.35</ele>
        <time>2015-01-17T09:49:47Z</time>
      </trkpt>
      <trkpt lat="48.68597" lon="2.08395">
        <ele>181.35</ele>
        <time>2015-01-17T09:50:01Z</time>
      </trkpt>
      <trkpt lat="48.68601" lon="2.08397">
        <ele>180.87</ele>
        <time>2015-01-17T09:50:05Z</time>
      </trkpt>
      <trkpt lat="48.68607" lon="2.08398">
        <ele>180.87</ele>
        <time>2015-01-17T09:50:10Z</time>
      </trkpt>
      <trkpt lat="48.6861" lon="2.084">
        <ele>180.87</ele>
        <time>2015-01-17T09:50:13Z</time>
      </trkpt>
      <trkpt lat="48.68627" lon="2.08404">
        <ele>180.38</ele>
        <time>2015-01-17T09:50:28Z</time>
      </trkpt>
      <trkpt lat="48.68638" lon="2.08407">
        <ele>180.38</ele>
        <time>2015-01-17T09:50:38Z</time>
      </trkpt>
      <trkpt lat="48.68656" lon="2.08413">
        <ele>180.38</ele>
        <time>2015-01-17T09:50:55Z</time>
      </trkpt>
      <trkpt lat="48.68662" lon="2.08413">
        <ele>179.9</ele>
        <time>2015-01-17T09:51:00Z</time>
      </trkpt>
      <trkpt lat="48.68678" lon="2.08418">
        <ele>179.42</ele>
        <time>2015-01-17T09:51:15Z</time>
      </trkpt>
      <trkpt lat="48.68691" lon="2.08421">
        <ele>179.42</ele>
        <time>2015-01-17T09:51:27Z</time>
      </trkpt>
      <trkpt lat="48.68692" lon="2.08422">
        <ele>179.9</ele>
        <time>2015-01-17T09:51:28Z</time>
      </trkpt>
      <trkpt lat="48.6871" lon="2.08428">
        <ele>179.42</ele>
        <time>2015-01-17T09:51:44Z</time>
      </trkpt>
      <trkpt lat="48.68716" lon="2.08431">
        <ele>179.42</ele>
        <time>2015-01-17T09:51:49Z</time>
      </trkpt>
      <trkpt lat="48.68736" lon="2.08437">
        <ele>178.94</ele>
        <time>2015-01-17T09:52:08Z</time>
      </trkpt>
      <trkpt lat="48.68749" lon="2.08442">
        <ele>178.94</ele>
        <time>2015-01-17T09:52:20Z</time>
      </trkpt>
      <trkpt lat="48.68763" lon="2.08446">
        <ele>178.94</ele>
        <time>2015-01-17T09:52:32Z</time>
      </trkpt>
      <trkpt lat="48.68772" lon="2.08447">
        <ele>178.46</ele>
        <time>2015-01-17T09:52:39Z</time>
      </trkpt>
      <trkpt lat="48.68788" lon="2.08449">
        <ele>178.46</ele>
        <time>2015-01-17T09:52:53Z</time>
      </trkpt>
      <trkpt lat="48.68806" lon="2.08447">
        <ele>177.98</ele>
        <time>2015-01-17T09:53:09Z</time>
      </trkpt>
      <trkpt lat="48.68822" lon="2.08441">
        <ele>177.5</ele>
        <time>2015-01-17T09:53:24Z</time>
      </trkpt>
      <trkpt lat="48.68825" lon="2.08441">
        <ele>177.02</ele>
        <time>2015-01-17T09:53:27Z</time>
      </trkpt>
      <trkpt lat="48.68828" lon="2.0844">
        <ele>177.02</ele>
        <time>2015-01-17T09:53:30Z</time>
      </trkpt>
      <trkpt lat="48.68839" lon="2.08431">
        <ele>177.02</ele>
        <time>2015-01-17T09:53:41Z</time>
      </trkpt>
      <trkpt lat="48.68842" lon="2.08429">
        <ele>176.54</ele>
        <time>2015-01-17T09:53:44Z</time>
      </trkpt>
      <trkpt lat="48.68845" lon="2.08427">
        <ele>176.54</ele>
        <time>2015-01-17T09:53:47Z</time>
      </trkpt>
      <trkpt lat="48.68855" lon="2.08417">
        <ele>176.54</ele>
        <time>2015-01-17T09:53:58Z</time>
      </trkpt>
      <trkpt lat="48.68866" lon="2.08414">
        <ele>176.06</ele>
        <time>2015-01-17T09:54:07Z</time>
      </trkpt>
      <trkpt lat="48.68871" lon="2.08413">
        <ele>176.06</ele>
        <time>2015-01-17T09:54:11Z</time>
      </trkpt>
      <trkpt lat="48.68882" lon="2.08409">
        <ele>176.06</ele>
        <time>2015-01-17T09:54:23Z</time>
      </trkpt>
      <trkpt lat="48.689" lon="2.08408">
        <ele>175.58</ele>
        <time>2015-01-17T09:54:38Z</time>
      </trkpt>
      <trkpt lat="48.6891" lon="2.08411">
        <ele>175.58</ele>
        <time>2015-01-17T09:54:47Z</time>
      </trkpt>
      <trkpt lat="48.6892" lon="2.08417">
        <ele>175.1</ele>
        <time>2015-01-17T09:55:02Z</time>
      </trkpt>
      <trkpt lat="48.68927" lon="2.08424">
        <ele>175.1</ele>
        <time>2015-01-17T09:55:13Z</time>
      </trkpt>
      <trkpt lat="48.68932" lon="2.08429">
        <ele>174.62</ele>
        <time>2015-01-17T09:55:21Z</time>
      </trkpt>
      <trkpt lat="48.6894" lon="2.08437">
        <ele>174.62</ele>
        <time>2015-01-17T09:55:31Z</time>
      </trkpt>
      <trkpt lat="48.68944" lon="2.08441">
        <ele>174.14</ele>
        <time>2015-01-17T09:55:35Z</time>
      </trkpt>
      <trkpt lat="48.6895" lon="2.08447">
        <ele>174.62</ele>
        <time>2015-01-17T09:55:42Z</time>
      </trkpt>
      <trkpt lat="48.68958" lon="2.08456">
        <ele>174.14</ele>
        <time>2015-01-17T09:55:51Z</time>
      </trkpt>
      <trkpt lat="48.68961" lon="2.08458">
        <ele>174.14</ele>
        <time>2015-01-17T09:55:53Z</time>
      </trkpt>
      <trkpt lat="48.68967" lon="2.08463">
        <ele>173.66</ele>
        <time>2015-01-17T09:56:00Z</time>
      </trkpt>
      <trkpt lat="48.68969" lon="2.08466">
        <ele>174.14</ele>
        <time>2015-01-17T09:56:03Z</time>
      </trkpt>
      <trkpt lat="48.68975" lon="2.08471">
        <ele>173.66</ele>
        <time>2015-01-17T09:56:09Z</time>
      </trkpt>
      <trkpt lat="48.68989" lon="2.08483">
        <ele>173.66</ele>
        <time>2015-01-17T09:56:24Z</time>
      </trkpt>
      <trkpt lat="48.69001" lon="2.08495">
        <ele>173.17</ele>
        <time>2015-01-17T09:56:38Z</time>
      </trkpt>
      <trkpt lat="48.69008" lon="2.085">
        <ele>173.17</ele>
        <time>2015-01-17T09:56:45Z</time>
      </trkpt>
      <trkpt lat="48.69021" lon="2.08513">
        <ele>172.69</ele>
        <time>2015-01-17T09:56:58Z</time>
      </trkpt>
      <trkpt lat="48.69022" lon="2.08516">
        <ele>172.69</ele>
        <time>2015-01-17T09:57:00Z</time>
      </trkpt>
      <trkpt lat="48.69026" lon="2.0852">
        <ele>172.21</ele>
        <time>2015-01-17T09:57:05Z</time>
      </trkpt>
      <trkpt lat="48.69037" lon="2.08531">
        <ele>172.21</ele>
        <time>2015-01-17T09:57:19Z</time>
      </trkpt>
      <trkpt lat="48.69051" lon="2.08544">
        <ele>171.73</ele>
        <time>2015-01-17T09:57:33Z</time>
      </trkpt>
      <trkpt lat="48.6906" lon="2.08551">
        <ele>171.25</ele>
        <time>2015-01-17T09:57:42Z</time>
      </trkpt>
      <trkpt lat="48.69068" lon="2.08562">
        <ele>171.25</ele>
        <time>2015-01-17T09:57:56Z</time>
      </trkpt>
      <trkpt lat="48.69068" lon="2.08562">
        <ele>171.25</ele>
        <time>2015-01-17T09:58:03Z</time>
      </trkpt>
      <trkpt lat="48.69075" lon="2.08567">
        <ele>171.25</ele>
        <time>2015-01-17T09:58:11Z</time>
      </trkpt>
      <trkpt lat="48.69085" lon="2.08577">
        <ele>170.77</ele>
        <time>2015-01-17T09:58:23Z</time>
      </trkpt>
      <trkpt lat="48.691" lon="2.08592">
        <ele>170.77</ele>
        <time>2015-01-17T09:58:37Z</time>
      </trkpt>
      <trkpt lat="48.69109" lon="2.086">
        <ele>170.29</ele>
        <time>2015-01-17T09:58:45Z</time>
      </trkpt>
      <trkpt lat="48.69123" lon="2.08615">
        <ele>169.81</ele>
        <time>2015-01-17T09:58:59Z</time>
      </trkpt>
      <trkpt lat="48.69139" lon="2.08629">
        <ele>169.33</ele>
        <time>2015-01-17T09:59:14Z</time>
      </trkpt>
      <trkpt lat="48.69146" lon="2.08634">
        <ele>168.85</ele>
        <time>2015-01-17T09:59:20Z</time>
      </trkpt>
      <trkpt lat="48.69157" lon="2.08644">
        <ele>168.85</ele>
        <time>2015-01-17T09:59:33Z</time>
      </trkpt>
      <trkpt lat="48.69171" lon="2.0866">
        <ele>168.85</ele>
        <time>2015-01-17T09:59:47Z</time>
      </trkpt>
      <trkpt lat="48.69177" lon="2.08669">
        <ele>168.37</ele>
        <time>2015-01-17T09:59:54Z</time>
      </trkpt>
      <trkpt lat="48.69179" lon="2.0867">
        <ele>168.85</ele>
        <time>2015-01-17T09:59:56Z</time>
      </trkpt>
      <trkpt lat="48.69191" lon="2.08677">
        <ele>168.37</ele>
        <time>2015-01-17T10:00:07Z</time>
      </trkpt>
      <trkpt lat="48.69204" lon="2.08689">
        <ele>167.89</ele>
        <time>2015-01-17T10:00:19Z</time>
      </trkpt>
      <trkpt lat="48.69216" lon="2.08701">
        <ele>167.89</ele>
        <time>2015-01-17T10:00:30Z</time>
      </trkpt>
      <trkpt lat="48.6923" lon="2.08714">
        <ele>167.41</ele>
        <time>2015-01-17T10:00:43Z</time>
      </trkpt>
      <trkpt lat="48.69242" lon="2.08726">
        <ele>166.93</ele>
        <time>2015-01-17T10:00:55Z</time>
      </trkpt>
      <trkpt lat="48.69256" lon="2.08741">
        <ele>166.93</ele>
        <time>2015-01-17T10:01:08Z</time>
      </trkpt>
      <trkpt lat="48.6927" lon="2.08753">
        <ele>166.45</ele>
        <time>2015-01-17T10:01:21Z</time>
      </trkpt>
      <trkpt lat="48.69284" lon="2.08765">
        <ele>166.45</ele>
        <time>2015-01-17T10:01:34Z</time>
      </trkpt>
      <trkpt lat="48.69286" lon="2.08767">
        <ele>165.96</ele>
        <time>2015-01-17T10:01:36Z</time>
      </trkpt>
      <trkpt lat="48.69299" lon="2.08782">
        <ele>165.96</ele>
        <time>2015-01-17T10:01:50Z</time>
      </trkpt>
      <trkpt lat="48.69312" lon="2.08795">
        <ele>165.96</ele>
        <time>2015-01-17T10:02:02Z</time>
      </trkpt>
      <trkpt lat="48.69316" lon="2.08821">
        <ele>165.48</ele>
        <time>2015-01-17T10:02:17Z</time>
      </trkpt>
      <trkpt lat="48.69316" lon="2.08841">
        <ele>165.48</ele>
        <time>2015-01-17T10:02:30Z</time>
      </trkpt>
      <trkpt lat="48.69316" lon="2.08846">
        <ele>165.48</ele>
        <time>2015-01-17T10:02:33Z</time>
      </trkpt>
      <trkpt lat="48.69317" lon="2.08854">
        <ele>165.48</ele>
        <time>2015-01-17T10:02:37Z</time>
      </trkpt>
      <trkpt lat="48.69317" lon="2.08857">
        <ele>165.48</ele>
        <time>2015-01-17T10:02:39Z</time>
      </trkpt>
      <trkpt lat="48.69314" lon="2.08866">
        <ele>165.48</ele>
        <time>2015-01-17T10:02:46Z</time>
      </trkpt>
      <trkpt lat="48.69315" lon="2.0888">
        <ele>165.48</ele>
        <time>2015-01-17T10:02:52Z</time>
      </trkpt>
      <trkpt lat="48.69315" lon="2.0889">
        <ele>165.48</ele>
        <time>2015-01-17T10:02:57Z</time>
      </trkpt>
      <trkpt lat="48.69316" lon="2.08896">
        <ele>165.48</ele>
        <time>2015-01-17T10:03:00Z</time>
      </trkpt>
      <trkpt lat="48.69314" lon="2.08918">
        <ele>165.48</ele>
        <time>2015-01-17T10:03:12Z</time>
      </trkpt>
      <trkpt lat="48.69313" lon="2.08942">
        <ele>165.48</ele>
        <time>2015-01-17T10:03:25Z</time>
      </trkpt>
      <trkpt lat="48.69313" lon="2.08946">
        <ele>165.48</ele>
        <time>2015-01-17T10:03:27Z</time>
      </trkpt>
      <trkpt lat="48.69311" lon="2.0896">
        <ele>165.48</ele>
        <time>2015-01-17T10:03:35Z</time>
      </trkpt>
      <trkpt lat="48.69311" lon="2.08967">
        <ele>165.48</ele>
        <time>2015-01-17T10:03:39Z</time>
      </trkpt>
      <trkpt lat="48.69309" lon="2.08989">
        <ele>165.48</ele>
        <time>2015-01-17T10:03:51Z</time>
      </trkpt>
      <trkpt lat="48.69307" lon="2.08999">
        <ele>165.48</ele>
        <time>2015-01-17T10:03:57Z</time>
      </trkpt>
      <trkpt lat="48.69303" lon="2.09018">
        <ele>165.96</ele>
        <time>2015-01-17T10:04:08Z</time>
      </trkpt>
      <trkpt lat="48.69301" lon="2.09031">
        <ele>165.48</ele>
        <time>2015-01-17T10:04:15Z</time>
      </trkpt>
      <trkpt lat="48.69299" lon="2.09039">
        <ele>165.96</ele>
        <time>2015-01-17T10:04:20Z</time>
      </trkpt>
      <trkpt lat="48.69297" lon="2.09053">
        <ele>165.96</ele>
        <time>2015-01-17T10:04:29Z</time>
      </trkpt>
      <trkpt lat="48.69295" lon="2.09062">
        <ele>165.96</ele>
        <time>2015-01-17T10:04:34Z</time>
      </trkpt>
      <trkpt lat="48.69294" lon="2.09074">
        <ele>165.96</ele>
        <time>2015-01-17T10:04:41Z</time>
      </trkpt>
      <trkpt lat="48.69292" lon="2.09095">
        <ele>165.96</ele>
        <time>2015-01-17T10:04:53Z</time>
      </trkpt>
      <trkpt lat="48.69288" lon="2.09118">
        <ele>165.96</ele>
        <time>2015-01-17T10:05:08Z</time>
      </trkpt>
      <trkpt lat="48.69288" lon="2.09121">
        <ele>165.96</ele>
        <time>2015-01-17T10:05:10Z</time>
      </trkpt>
      <trkpt lat="48.69287" lon="2.0914">
        <ele>165.96</ele>
        <time>2015-01-17T10:05:20Z</time>
      </trkpt>
      <trkpt lat="48.69284" lon="2.09163">
        <ele>165.96</ele>
        <time>2015-01-17T10:05:33Z</time>
      </trkpt>
      <trkpt lat="48.69284" lon="2.09165">
        <ele>166.45</ele>
        <time>2015-01-17T10:05:34Z</time>
      </trkpt>
      <trkpt lat="48.69283" lon="2.09175">
        <ele>166.45</ele>
        <time>2015-01-17T10:05:40Z</time>
      </trkpt>
      <trkpt lat="48.69283" lon="2.09182">
        <ele>166.45</ele>
        <time>2015-01-17T10:05:44Z</time>
      </trkpt>
      <trkpt lat="48.69282" lon="2.09185">
        <ele>166.45</ele>
        <time>2015-01-17T10:05:46Z</time>
      </trkpt>
      <trkpt lat="48.69279" lon="2.09198">
        <ele>166.45</ele>
        <time>2015-01-17T10:05:54Z</time>
      </trkpt>
      <trkpt lat="48.69273" lon="2.0922">
        <ele>166.45</ele>
        <time>2015-01-17T10:06:07Z</time>
      </trkpt>
      <trkpt lat="48.69272" lon="2.09224">
        <ele>166.45</ele>
        <time>2015-01-17T10:06:10Z</time>
      </trkpt>
      <trkpt lat="48.6927" lon="2.09231">
        <ele>166.45</ele>
        <time>2015-01-17T10:06:14Z</time>
      </trkpt>
      <trkpt lat="48.69268" lon="2.09235">
        <ele>166.45</ele>
        <time>2015-01-17T10:06:17Z</time>
      </trkpt>
      <trkpt lat="48.69264" lon="2.09256">
        <ele>166.45</ele>
        <time>2015-01-17T10:06:29Z</time>
      </trkpt>
      <trkpt lat="48.69263" lon="2.09259">
        <ele>166.45</ele>
        <time>2015-01-17T10:06:31Z</time>
      </trkpt>
      <trkpt lat="48.69261" lon="2.09265">
        <ele>166.45</ele>
        <time>2015-01-17T10:06:35Z</time>
      </trkpt>
      <trkpt lat="48.69258" lon="2.09274">
        <ele>166.45</ele>
        <time>2015-01-17T10:06:41Z</time>
      </trkpt>
      <trkpt lat="48.69255" lon="2.09282">
        <ele>166.93</ele>
        <time>2015-01-17T10:06:47Z</time>
      </trkpt>
      <trkpt lat="48.69248" lon="2.09299">
        <ele>166.45</ele>
        <time>2015-01-17T10:06:59Z</time>
      </trkpt>
      <trkpt lat="48.69247" lon="2.09301">
        <ele>166.45</ele>
        <time>2015-01-17T10:07:00Z</time>
      </trkpt>
      <trkpt lat="48.69242" lon="2.09313">
        <ele>166.45</ele>
        <time>2015-01-17T10:07:07Z</time>
      </trkpt>
      <trkpt lat="48.69234" lon="2.09331">
        <ele>166.93</ele>
        <time>2015-01-17T10:07:20Z</time>
      </trkpt>
      <trkpt lat="48.69233" lon="2.09334">
        <ele>166.93</ele>
        <time>2015-01-17T10:07:22Z</time>
      </trkpt>
      <trkpt lat="48.69226" lon="2.09352">
        <ele>166.93</ele>
        <time>2015-01-17T10:07:34Z</time>
      </trkpt>
      <trkpt lat="48.69223" lon="2.09361">
        <ele>166.93</ele>
        <time>2015-01-17T10:07:40Z</time>
      </trkpt>
      <trkpt lat="48.69219" lon="2.09367">
        <ele>166.93</ele>
        <time>2015-01-17T10:07:45Z</time>
      </trkpt>
      <trkpt lat="48.69217" lon="2.09371">
        <ele>166.93</ele>
        <time>2015-01-17T10:07:48Z</time>
      </trkpt>
      <trkpt lat="48.69214" lon="2.09378">
        <ele>166.93</ele>
        <time>2015-01-17T10:07:53Z</time>
      </trkpt>
      <trkpt lat="48.6921" lon="2.09388">
        <ele>167.41</ele>
        <time>2015-01-17T10:08:00Z</time>
      </trkpt>
      <trkpt lat="48.69207" lon="2.09394">
        <ele>167.41</ele>
        <time>2015-01-17T10:08:04Z</time>
      </trkpt>
      <trkpt lat="48.69206" lon="2.09396">
        <ele>166.93</ele>
        <time>2015-01-17T10:08:06Z</time>
      </trkpt>
      <trkpt lat="48.69196" lon="2.09413">
        <ele>167.89</ele>
        <time>2015-01-17T10:08:19Z</time>
      </trkpt>
      <trkpt lat="48.69192" lon="2.09421">
        <ele>167.89</ele>
        <time>2015-01-17T10:08:25Z</time>
      </trkpt>
      <trkpt lat="48.69188" lon="2.09428">
        <ele>167.89</ele>
        <time>2015-01-17T10:08:31Z</time>
      </trkpt>
      <trkpt lat="48.69179" lon="2.09445">
        <ele>167.89</ele>
        <time>2015-01-17T10:08:43Z</time>
      </trkpt>
      <trkpt lat="48.69171" lon="2.0946">
        <ele>167.89</ele>
        <time>2015-01-17T10:08:54Z</time>
      </trkpt>
      <trkpt lat="48.69166" lon="2.09469">
        <ele>167.89</ele>
        <time>2015-01-17T10:09:01Z</time>
      </trkpt>
      <trkpt lat="48.69157" lon="2.09486">
        <ele>167.89</ele>
        <time>2015-01-17T10:09:14Z</time>
      </trkpt>
      <trkpt lat="48.69146" lon="2.09505">
        <ele>167.89</ele>
        <time>2015-01-17T10:09:28Z</time>
      </trkpt>
      <trkpt lat="48.69138" lon="2.09517">
        <ele>167.41</ele>
        <time>2015-01-17T10:09:37Z</time>
      </trkpt>
      <trkpt lat="48.69134" lon="2.09523">
        <ele>167.89</ele>
        <time>2015-01-17T10:09:42Z</time>
      </trkpt>
      <trkpt lat="48.69132" lon="2.09527">
        <ele>167.41</ele>
        <time>2015-01-17T10:09:45Z</time>
      </trkpt>
      <trkpt lat="48.69129" lon="2.09532">
        <ele>167.41</ele>
        <time>2015-01-17T10:09:49Z</time>
      </trkpt>
      <trkpt lat="48.69128" lon="2.09535">
        <ele>167.41</ele>
        <time>2015-01-17T10:09:51Z</time>
      </trkpt>
      <trkpt lat="48.69124" lon="2.09543">
        <ele>167.41</ele>
        <time>2015-01-17T10:09:56Z</time>
      </trkpt>
      <trkpt lat="48.69119" lon="2.09551">
        <ele>166.93</ele>
        <time>2015-01-17T10:10:03Z</time>
      </trkpt>
      <trkpt lat="48.69117" lon="2.09552">
        <ele>166.93</ele>
        <time>2015-01-17T10:10:05Z</time>
      </trkpt>
      <trkpt lat="48.69106" lon="2.0957">
        <ele>165.96</ele>
        <time>2015-01-17T10:10:20Z</time>
      </trkpt>
      <trkpt lat="48.69105" lon="2.09571">
        <ele>166.45</ele>
        <time>2015-01-17T10:10:21Z</time>
      </trkpt>
      <trkpt lat="48.69101" lon="2.09576">
        <ele>165.96</ele>
        <time>2015-01-17T10:10:25Z</time>
      </trkpt>
      <trkpt lat="48.69091" lon="2.09591">
        <ele>165</ele>
        <time>2015-01-17T10:10:38Z</time>
      </trkpt>
      <trkpt lat="48.69085" lon="2.09601">
        <ele>165</ele>
        <time>2015-01-17T10:10:46Z</time>
      </trkpt>
      <trkpt lat="48.6908" lon="2.09606">
        <ele>164.52</ele>
        <time>2015-01-17T10:10:51Z</time>
      </trkpt>
      <trkpt lat="48.69071" lon="2.09623">
        <ele>163.56</ele>
        <time>2015-01-17T10:11:03Z</time>
      </trkpt>
      <trkpt lat="48.69067" lon="2.0963">
        <ele>163.56</ele>
        <time>2015-01-17T10:11:08Z</time>
      </trkpt>
      <trkpt lat="48.69062" lon="2.09634">
        <ele>163.56</ele>
        <time>2015-01-17T10:11:13Z</time>
      </trkpt>
      <trkpt lat="48.69057" lon="2.09643">
        <ele>163.08</ele>
        <time>2015-01-17T10:11:19Z</time>
      </trkpt>
      <trkpt lat="48.69047" lon="2.09656">
        <ele>162.6</ele>
        <time>2015-01-17T10:11:31Z</time>
      </trkpt>
      <trkpt lat="48.69037" lon="2.09673">
        <ele>161.64</ele>
        <time>2015-01-17T10:11:43Z</time>
      </trkpt>
      <trkpt lat="48.69031" lon="2.09681">
        <ele>161.16</ele>
        <time>2015-01-17T10:11:50Z</time>
      </trkpt>
      <trkpt lat="48.6902" lon="2.09696">
        <ele>160.68</ele>
        <time>2015-01-17T10:12:02Z</time>
      </trkpt>
      <trkpt lat="48.69016" lon="2.09703">
        <ele>160.68</ele>
        <time>2015-01-17T10:12:08Z</time>
      </trkpt>
      <trkpt lat="48.69004" lon="2.09719">
        <ele>160.68</ele>
        <time>2015-01-17T10:12:21Z</time>
      </trkpt>
      <trkpt lat="48.69002" lon="2.09722">
        <ele>160.68</ele>
        <time>2015-01-17T10:12:24Z</time>
      </trkpt>
      <trkpt lat="48.68997" lon="2.09728">
        <ele>160.2</ele>
        <time>2015-01-17T10:12:36Z</time>
      </trkpt>
      <trkpt lat="48.68989" lon="2.09741">
        <ele>160.2</ele>
        <time>2015-01-17T10:12:46Z</time>
      </trkpt>
      <trkpt lat="48.68989" lon="2.09745">
        <ele>160.2</ele>
        <time>2015-01-17T10:12:49Z</time>
      </trkpt>
      <trkpt lat="48.68985" lon="2.09757">
        <ele>159.72</ele>
        <time>2015-01-17T10:13:01Z</time>
      </trkpt>
      <trkpt lat="48.68985" lon="2.09757">
        <ele>160.2</ele>
        <time>2015-01-17T10:13:18Z</time>
      </trkpt>
      <trkpt lat="48.68985" lon="2.09758">
        <ele>159.72</ele>
        <time>2015-01-17T10:13:42Z</time>
      </trkpt>
      <trkpt lat="48.68985" lon="2.09757">
        <ele>159.72</ele>
        <time>2015-01-17T10:13:57Z</time>
      </trkpt>
      <trkpt lat="48.68985" lon="2.09756">
        <ele>159.72</ele>
        <time>2015-01-17T10:14:18Z</time>
      </trkpt>
      <trkpt lat="48.68985" lon="2.09756">
        <ele>159.72</ele>
        <time>2015-01-17T10:14:33Z</time>
      </trkpt>
      <trkpt lat="48.68985" lon="2.09756">
        <ele>159.72</ele>
        <time>2015-01-17T10:14:54Z</time>
      </trkpt>
      <trkpt lat="48.68985" lon="2.09756">
        <ele>159.72</ele>
        <time>2015-01-17T10:15:08Z</time>
      </trkpt>
      <trkpt lat="48.68984" lon="2.09756">
        <ele>159.72</ele>
        <time>2015-01-17T10:15:26Z</time>
      </trkpt>
      <trkpt lat="48.68984" lon="2.09757">
        <ele>159.72</ele>
        <time>2015-01-17T10:15:46Z</time>
      </trkpt>
      <trkpt lat="48.68984" lon="2.09757">
        <ele>159.24</ele>
        <time>2015-01-17T10:16:04Z</time>
      </trkpt>
      <trkpt lat="48.68984" lon="2.09757">
        <ele>159.72</ele>
        <time>2015-01-17T10:16:26Z</time>
      </trkpt>
      <trkpt lat="48.68984" lon="2.09758">
        <ele>159.24</ele>
        <time>2015-01-17T10:16:47Z</time>
      </trkpt>
      <trkpt lat="48.68984" lon="2.09758">
        <ele>159.24</ele>
        <time>2015-01-17T10:17:04Z</time>
      </trkpt>
      <trkpt lat="48.68986" lon="2.09762">
        <ele>159.24</ele>
        <time>2015-01-17T10:17:22Z</time>
      </trkpt>
      <trkpt lat="48.68991" lon="2.09768">
        <ele>157.79</ele>
        <time>2015-01-17T10:17:34Z</time>
      </trkpt>
      <trkpt lat="48.68994" lon="2.09772">
        <ele>156.83</ele>
        <time>2015-01-17T10:17:45Z</time>
      </trkpt>
      <trkpt lat="48.68999" lon="2.09782">
        <ele>154.91</ele>
        <time>2015-01-17T10:18:00Z</time>
      </trkpt>
      <trkpt lat="48.69002" lon="2.0979">
        <ele>152.03</ele>
        <time>2015-01-17T10:18:11Z</time>
      </trkpt>
      <trkpt lat="48.69004" lon="2.09801">
        <ele>149.62</ele>
        <time>2015-01-17T10:18:26Z</time>
      </trkpt>
      <trkpt lat="48.69009" lon="2.09815">
        <ele>147.22</ele>
        <time>2015-01-17T10:18:39Z</time>
      </trkpt>
      <trkpt lat="48.69011" lon="2.09824">
        <ele>145.78</ele>
        <time>2015-01-17T10:18:54Z</time>
      </trkpt>
      <trkpt lat="48.69012" lon="2.09837">
        <ele>143.85</ele>
        <time>2015-01-17T10:19:08Z</time>
      </trkpt>
      <trkpt lat="48.69013" lon="2.09845">
        <ele>141.93</ele>
        <time>2015-01-17T10:19:20Z</time>
      </trkpt>
      <trkpt lat="48.69014" lon="2.09852">
        <ele>140.49</ele>
        <time>2015-01-17T10:19:33Z</time>
      </trkpt>
      <trkpt lat="48.69016" lon="2.09866">
        <ele>138.57</ele>
        <time>2015-01-17T10:19:46Z</time>
      </trkpt>
      <trkpt lat="48.69018" lon="2.09879">
        <ele>137.61</ele>
        <time>2015-01-17T10:19:56Z</time>
      </trkpt>
      <trkpt lat="48.6902" lon="2.09895">
        <ele>136.64</ele>
        <time>2015-01-17T10:20:08Z</time>
      </trkpt>
      <trkpt lat="48.6902" lon="2.09906">
        <ele>136.16</ele>
        <time>2015-01-17T10:20:19Z</time>
      </trkpt>
      <trkpt lat="48.69022" lon="2.09924">
        <ele>135.68</ele>
        <time>2015-01-17T10:20:32Z</time>
      </trkpt>
      <trkpt lat="48.69028" lon="2.0994">
        <ele>134.72</ele>
        <time>2015-01-17T10:20:44Z</time>
      </trkpt>
      <trkpt lat="48.69039" lon="2.09962">
        <ele>132.32</ele>
        <time>2015-01-17T10:20:58Z</time>
      </trkpt>
      <trkpt lat="48.69042" lon="2.09973">
        <ele>130.4</ele>
        <time>2015-01-17T10:21:07Z</time>
      </trkpt>
      <trkpt lat="48.69044" lon="2.09986">
        <ele>128.47</ele>
        <time>2015-01-17T10:21:20Z</time>
      </trkpt>
      <trkpt lat="48.69045" lon="2.09999">
        <ele>126.55</ele>
        <time>2015-01-17T10:21:31Z</time>
      </trkpt>
      <trkpt lat="48.69047" lon="2.1001">
        <ele>125.59</ele>
        <time>2015-01-17T10:21:41Z</time>
      </trkpt>
      <trkpt lat="48.69049" lon="2.10018">
        <ele>125.11</ele>
        <time>2015-01-17T10:21:47Z</time>
      </trkpt>
      <trkpt lat="48.69056" lon="2.10034">
        <ele>125.59</ele>
        <time>2015-01-17T10:22:00Z</time>
      </trkpt>
      <trkpt lat="48.69057" lon="2.10036">
        <ele>125.59</ele>
        <time>2015-01-17T10:22:04Z</time>
      </trkpt>
      <trkpt lat="48.69067" lon="2.10043">
        <ele>124.63</ele>
        <time>2015-01-17T10:22:14Z</time>
      </trkpt>
      <trkpt lat="48.69076" lon="2.10045">
        <ele>124.15</ele>
        <time>2015-01-17T10:22:19Z</time>
      </trkpt>
      <trkpt lat="48.69085" lon="2.10047">
        <ele>123.19</ele>
        <time>2015-01-17T10:22:26Z</time>
      </trkpt>
      <trkpt lat="48.69096" lon="2.1005">
        <ele>121.74</ele>
        <time>2015-01-17T10:22:38Z</time>
      </trkpt>
      <trkpt lat="48.69105" lon="2.10054">
        <ele>120.3</ele>
        <time>2015-01-17T10:22:48Z</time>
      </trkpt>
      <trkpt lat="48.69111" lon="2.10055">
        <ele>119.82</ele>
        <time>2015-01-17T10:22:54Z</time>
      </trkpt>
      <trkpt lat="48.69116" lon="2.10059">
        <ele>119.34</ele>
        <time>2015-01-17T10:23:01Z</time>
      </trkpt>
      <trkpt lat="48.69127" lon="2.10073">
        <ele>118.38</ele>
        <time>2015-01-17T10:23:15Z</time>
      </trkpt>
      <trkpt lat="48.69135" lon="2.10086">
        <ele>117.9</ele>
        <time>2015-01-17T10:23:28Z</time>
      </trkpt>
      <trkpt lat="48.69141" lon="2.10105">
        <ele>115.98</ele>
        <time>2015-01-17T10:23:41Z</time>
      </trkpt>
      <trkpt lat="48.69148" lon="2.10117">
        <ele>115.01</ele>
        <time>2015-01-17T10:23:52Z</time>
      </trkpt>
      <trkpt lat="48.69158" lon="2.10143">
        <ele>115.01</ele>
        <time>2015-01-17T10:24:05Z</time>
      </trkpt>
      <trkpt lat="48.6916" lon="2.10162">
        <ele>114.53</ele>
        <time>2015-01-17T10:24:17Z</time>
      </trkpt>
      <trkpt lat="48.69164" lon="2.10172">
        <ele>114.53</ele>
        <time>2015-01-17T10:24:27Z</time>
      </trkpt>
      <trkpt lat="48.69173" lon="2.10186">
        <ele>113.57</ele>
        <time>2015-01-17T10:24:38Z</time>
      </trkpt>
      <trkpt lat="48.69182" lon="2.10204">
        <ele>112.13</ele>
        <time>2015-01-17T10:24:52Z</time>
      </trkpt>
      <trkpt lat="48.69186" lon="2.10214">
        <ele>111.65</ele>
        <time>2015-01-17T10:25:00Z</time>
      </trkpt>
      <trkpt lat="48.69186" lon="2.10217">
        <ele>111.65</ele>
        <time>2015-01-17T10:25:02Z</time>
      </trkpt>
      <trkpt lat="48.69188" lon="2.10224">
        <ele>111.65</ele>
        <time>2015-01-17T10:25:07Z</time>
      </trkpt>
      <trkpt lat="48.69192" lon="2.10241">
        <ele>110.21</ele>
        <time>2015-01-17T10:25:15Z</time>
      </trkpt>
      <trkpt lat="48.69195" lon="2.1025">
        <ele>109.25</ele>
        <time>2015-01-17T10:25:30Z</time>
      </trkpt>
      <trkpt lat="48.69196" lon="2.10261">
        <ele>110.21</ele>
        <time>2015-01-17T10:25:40Z</time>
      </trkpt>
      <trkpt lat="48.69196" lon="2.10265">
        <ele>110.21</ele>
        <time>2015-01-17T10:25:44Z</time>
      </trkpt>
      <trkpt lat="48.69203" lon="2.10274">
        <ele>110.21</ele>
        <time>2015-01-17T10:25:55Z</time>
      </trkpt>
      <trkpt lat="48.69207" lon="2.10279">
        <ele>110.21</ele>
        <time>2015-01-17T10:26:05Z</time>
      </trkpt>
      <trkpt lat="48.69214" lon="2.10283">
        <ele>109.73</ele>
        <time>2015-01-17T10:26:16Z</time>
      </trkpt>
      <trkpt lat="48.69224" lon="2.10293">
        <ele>108.77</ele>
        <time>2015-01-17T10:26:28Z</time>
      </trkpt>
      <trkpt lat="48.69229" lon="2.10297">
        <ele>108.77</ele>
        <time>2015-01-17T10:26:34Z</time>
      </trkpt>
      <trkpt lat="48.69231" lon="2.10299">
        <ele>108.77</ele>
        <time>2015-01-17T10:26:37Z</time>
      </trkpt>
      <trkpt lat="48.6924" lon="2.10314">
        <ele>109.25</ele>
        <time>2015-01-17T10:26:49Z</time>
      </trkpt>
      <trkpt lat="48.69249" lon="2.10322">
        <ele>109.25</ele>
        <time>2015-01-17T10:27:00Z</time>
      </trkpt>
      <trkpt lat="48.69258" lon="2.10336">
        <ele>109.73</ele>
        <time>2015-01-17T10:27:12Z</time>
      </trkpt>
      <trkpt lat="48.69267" lon="2.10343">
        <ele>109.73</ele>
        <time>2015-01-17T10:27:22Z</time>
      </trkpt>
      <trkpt lat="48.69274" lon="2.10347">
        <ele>109.25</ele>
        <time>2015-01-17T10:27:34Z</time>
      </trkpt>
      <trkpt lat="48.69279" lon="2.10353">
        <ele>109.73</ele>
        <time>2015-01-17T10:27:46Z</time>
      </trkpt>
      <trkpt lat="48.69284" lon="2.10358">
        <ele>109.73</ele>
        <time>2015-01-17T10:28:00Z</time>
      </trkpt>
      <trkpt lat="48.69288" lon="2.10362">
        <ele>109.25</ele>
        <time>2015-01-17T10:28:11Z</time>
      </trkpt>
      <trkpt lat="48.6929" lon="2.10362">
        <ele>109.25</ele>
        <time>2015-01-17T10:28:12Z</time>
      </trkpt>
      <trkpt lat="48.69297" lon="2.10367">
        <ele>109.73</ele>
        <time>2015-01-17T10:28:19Z</time>
      </trkpt>
      <trkpt lat="48.69299" lon="2.10369">
        <ele>109.25</ele>
        <time>2015-01-17T10:28:21Z</time>
      </trkpt>
      <trkpt lat="48.69313" lon="2.1037">
        <ele>108.29</ele>
        <time>2015-01-17T10:28:34Z</time>
      </trkpt>
      <trkpt lat="48.69315" lon="2.10371">
        <ele>108.29</ele>
        <time>2015-01-17T10:28:37Z</time>
      </trkpt>
      <trkpt lat="48.69323" lon="2.10371">
        <ele>107.81</ele>
        <time>2015-01-17T10:28:43Z</time>
      </trkpt>
      <trkpt lat="48.69329" lon="2.1037">
        <ele>107.81</ele>
        <time>2015-01-17T10:28:48Z</time>
      </trkpt>
      <trkpt lat="48.69351" lon="2.10372">
        <ele>107.32</ele>
        <time>2015-01-17T10:29:04Z</time>
      </trkpt>
      <trkpt lat="48.69362" lon="2.10373">
        <ele>107.32</ele>
        <time>2015-01-17T10:29:18Z</time>
      </trkpt>
      <trkpt lat="48.69364" lon="2.10373">
        <ele>107.32</ele>
        <time>2015-01-17T10:29:20Z</time>
      </trkpt>
      <trkpt lat="48.6937" lon="2.10374">
        <ele>106.84</ele>
        <time>2015-01-17T10:29:25Z</time>
      </trkpt>
      <trkpt lat="48.69382" lon="2.10376">
        <ele>106.84</ele>
        <time>2015-01-17T10:29:35Z</time>
      </trkpt>
      <trkpt lat="48.69397" lon="2.10384">
        <ele>105.88</ele>
        <time>2015-01-17T10:29:48Z</time>
      </trkpt>
      <trkpt lat="48.69398" lon="2.10385">
        <ele>105.88</ele>
        <time>2015-01-17T10:29:49Z</time>
      </trkpt>
      <trkpt lat="48.6941" lon="2.10392">
        <ele>105.88</ele>
        <time>2015-01-17T10:30:03Z</time>
      </trkpt>
      <trkpt lat="48.69413" lon="2.10393">
        <ele>105.88</ele>
        <time>2015-01-17T10:30:08Z</time>
      </trkpt>
      <trkpt lat="48.69426" lon="2.10401">
        <ele>105.4</ele>
        <time>2015-01-17T10:30:21Z</time>
      </trkpt>
      <trkpt lat="48.69435" lon="2.10405">
        <ele>105.4</ele>
        <time>2015-01-17T10:30:33Z</time>
      </trkpt>
      <trkpt lat="48.69441" lon="2.1042">
        <ele>105.88</ele>
        <time>2015-01-17T10:30:46Z</time>
      </trkpt>
      <trkpt lat="48.69445" lon="2.10429">
        <ele>107.32</ele>
        <time>2015-01-17T10:31:00Z</time>
      </trkpt>
      <trkpt lat="48.69445" lon="2.10434">
        <ele>105.4</ele>
        <time>2015-01-17T10:31:10Z</time>
      </trkpt>
      <trkpt lat="48.69451" lon="2.10449">
        <ele>105.4</ele>
        <time>2015-01-17T10:31:21Z</time>
      </trkpt>
      <trkpt lat="48.69452" lon="2.10453">
        <ele>104.92</ele>
        <time>2015-01-17T10:31:26Z</time>
      </trkpt>
      <trkpt lat="48.69457" lon="2.10468">
        <ele>103.96</ele>
        <time>2015-01-17T10:31:38Z</time>
      </trkpt>
      <trkpt lat="48.69462" lon="2.10481">
        <ele>103.96</ele>
        <time>2015-01-17T10:31:48Z</time>
      </trkpt>
      <trkpt lat="48.69463" lon="2.10497">
        <ele>104.44</ele>
        <time>2015-01-17T10:31:58Z</time>
      </trkpt>
      <trkpt lat="48.69465" lon="2.10524">
        <ele>104.44</ele>
        <time>2015-01-17T10:32:11Z</time>
      </trkpt>
      <trkpt lat="48.69462" lon="2.1054">
        <ele>104.44</ele>
        <time>2015-01-17T10:32:23Z</time>
      </trkpt>
      <trkpt lat="48.69463" lon="2.10552">
        <ele>103.96</ele>
        <time>2015-01-17T10:32:29Z</time>
      </trkpt>
      <trkpt lat="48.69461" lon="2.10572">
        <ele>103.96</ele>
        <time>2015-01-17T10:32:37Z</time>
      </trkpt>
      <trkpt lat="48.69462" lon="2.1058">
        <ele>103.48</ele>
        <time>2015-01-17T10:32:41Z</time>
      </trkpt>
      <trkpt lat="48.69461" lon="2.10593">
        <ele>103.48</ele>
        <time>2015-01-17T10:32:47Z</time>
      </trkpt>
      <trkpt lat="48.69462" lon="2.10598">
        <ele>103.48</ele>
        <time>2015-01-17T10:32:51Z</time>
      </trkpt>
      <trkpt lat="48.69464" lon="2.10603">
        <ele>103</ele>
        <time>2015-01-17T10:32:56Z</time>
      </trkpt>
      <trkpt lat="48.69474" lon="2.10627">
        <ele>102.52</ele>
        <time>2015-01-17T10:33:09Z</time>
      </trkpt>
      <trkpt lat="48.69476" lon="2.10632">
        <ele>102.52</ele>
        <time>2015-01-17T10:33:11Z</time>
      </trkpt>
      <trkpt lat="48.69484" lon="2.10648">
        <ele>102.52</ele>
        <time>2015-01-17T10:33:21Z</time>
      </trkpt>
      <trkpt lat="48.69486" lon="2.1065">
        <ele>102.52</ele>
        <time>2015-01-17T10:33:23Z</time>
      </trkpt>
      <trkpt lat="48.69493" lon="2.10663">
        <ele>102.52</ele>
        <time>2015-01-17T10:33:38Z</time>
      </trkpt>
      <trkpt lat="48.69496" lon="2.10664">
        <ele>102.52</ele>
        <time>2015-01-17T10:33:51Z</time>
      </trkpt>
      <trkpt lat="48.69496" lon="2.10665">
        <ele>102.04</ele>
        <time>2015-01-17T10:34:13Z</time>
      </trkpt>
      <trkpt lat="48.69497" lon="2.10665">
        <ele>102.52</ele>
        <time>2015-01-17T10:34:36Z</time>
      </trkpt>
      <trkpt lat="48.69498" lon="2.10664">
        <ele>102.04</ele>
        <time>2015-01-17T10:34:50Z</time>
      </trkpt>
      <trkpt lat="48.69497" lon="2.10664">
        <ele>102.04</ele>
        <time>2015-01-17T10:35:05Z</time>
      </trkpt>
      <trkpt lat="48.69497" lon="2.10663">
        <ele>102.04</ele>
        <time>2015-01-17T10:35:23Z</time>
      </trkpt>
      <trkpt lat="48.69498" lon="2.10664">
        <ele>102.04</ele>
        <time>2015-01-17T10:35:33Z</time>
      </trkpt>
      <trkpt lat="48.69497" lon="2.10665">
        <ele>102.04</ele>
        <time>2015-01-17T10:35:46Z</time>
      </trkpt>
      <trkpt lat="48.69497" lon="2.10665">
        <ele>102.04</ele>
        <time>2015-01-17T10:36:01Z</time>
      </trkpt>
      <trkpt lat="48.69497" lon="2.10666">
        <ele>101.56</ele>
        <time>2015-01-17T10:36:14Z</time>
      </trkpt>
      <trkpt lat="48.69498" lon="2.10666">
        <ele>101.56</ele>
        <time>2015-01-17T10:36:36Z</time>
      </trkpt>
      <trkpt lat="48.69497" lon="2.10666">
        <ele>101.56</ele>
        <time>2015-01-17T10:36:57Z</time>
      </trkpt>
      <trkpt lat="48.69497" lon="2.10667">
        <ele>101.08</ele>
        <time>2015-01-17T10:37:23Z</time>
      </trkpt>
      <trkpt lat="48.69498" lon="2.10667">
        <ele>101.56</ele>
        <time>2015-01-17T10:37:41Z</time>
      </trkpt>
      <trkpt lat="48.69498" lon="2.10666">
        <ele>101.08</ele>
        <time>2015-01-17T10:38:02Z</time>
      </trkpt>
      <trkpt lat="48.69498" lon="2.10666">
        <ele>101.08</ele>
        <time>2015-01-17T10:38:19Z</time>
      </trkpt>
      <trkpt lat="48.69498" lon="2.10666">
        <ele>101.08</ele>
        <time>2015-01-17T10:38:43Z</time>
      </trkpt>
      <trkpt lat="48.69498" lon="2.10666">
        <ele>101.08</ele>
        <time>2015-01-17T10:39:10Z</time>
      </trkpt>
      <trkpt lat="48.69498" lon="2.10666">
        <ele>100.6</ele>
        <time>2015-01-17T10:39:32Z</time>
      </trkpt>
      <trkpt lat="48.69498" lon="2.10666">
        <ele>100.6</ele>
        <time>2015-01-17T10:39:48Z</time>
      </trkpt>
      <trkpt lat="48.69498" lon="2.10665">
        <ele>100.6</ele>
        <time>2015-01-17T10:40:11Z</time>
      </trkpt>
      <trkpt lat="48.69497" lon="2.10665">
        <ele>100.11</ele>
        <time>2015-01-17T10:40:35Z</time>
      </trkpt>
      <trkpt lat="48.69497" lon="2.10665">
        <ele>100.11</ele>
        <time>2015-01-17T10:40:48Z</time>
      </trkpt>
      <trkpt lat="48.69498" lon="2.10667">
        <ele>100.11</ele>
        <time>2015-01-17T10:41:03Z</time>
      </trkpt>
      <trkpt lat="48.69504" lon="2.10676">
        <ele>100.11</ele>
        <time>2015-01-17T10:41:13Z</time>
      </trkpt>
      <trkpt lat="48.69508" lon="2.10684">
        <ele>100.11</ele>
        <time>2015-01-17T10:41:21Z</time>
      </trkpt>
      <trkpt lat="48.69517" lon="2.10697">
        <ele>100.6</ele>
        <time>2015-01-17T10:41:32Z</time>
      </trkpt>
      <trkpt lat="48.69521" lon="2.107">
        <ele>101.08</ele>
        <time>2015-01-17T10:41:36Z</time>
      </trkpt>
      <trkpt lat="48.69524" lon="2.10702">
        <ele>101.56</ele>
        <time>2015-01-17T10:41:39Z</time>
      </trkpt>
      <trkpt lat="48.69536" lon="2.10708">
        <ele>103.96</ele>
        <time>2015-01-17T10:41:53Z</time>
      </trkpt>
      <trkpt lat="48.69542" lon="2.10717">
        <ele>105.88</ele>
        <time>2015-01-17T10:42:03Z</time>
      </trkpt>
      <trkpt lat="48.69543" lon="2.10719">
        <ele>106.36</ele>
        <time>2015-01-17T10:42:05Z</time>
      </trkpt>
      <trkpt lat="48.69547" lon="2.10734">
        <ele>109.73</ele>
        <time>2015-01-17T10:42:19Z</time>
      </trkpt>
      <trkpt lat="48.69548" lon="2.10735">
        <ele>109.73</ele>
        <time>2015-01-17T10:42:20Z</time>
      </trkpt>
      <trkpt lat="48.6955" lon="2.10745">
        <ele>112.13</ele>
        <time>2015-01-17T10:42:30Z</time>
      </trkpt>
      <trkpt lat="48.69552" lon="2.10757">
        <ele>114.53</ele>
        <time>2015-01-17T10:42:41Z</time>
      </trkpt>
      <trkpt lat="48.69555" lon="2.10771">
        <ele>117.42</ele>
        <time>2015-01-17T10:42:53Z</time>
      </trkpt>
      <trkpt lat="48.69556" lon="2.1078">
        <ele>118.86</ele>
        <time>2015-01-17T10:43:00Z</time>
      </trkpt>
      <trkpt lat="48.6956" lon="2.10799">
        <ele>120.3</ele>
        <time>2015-01-17T10:43:13Z</time>
      </trkpt>
      <trkpt lat="48.69564" lon="2.10822">
        <ele>121.74</ele>
        <time>2015-01-17T10:43:26Z</time>
      </trkpt>
      <trkpt lat="48.69569" lon="2.10837">
        <ele>123.19</ele>
        <time>2015-01-17T10:43:36Z</time>
      </trkpt>
      <trkpt lat="48.6957" lon="2.10844">
        <ele>123.67</ele>
        <time>2015-01-17T10:43:41Z</time>
      </trkpt>
      <trkpt lat="48.69573" lon="2.10852">
        <ele>124.63</ele>
        <time>2015-01-17T10:43:47Z</time>
      </trkpt>
      <trkpt lat="48.69575" lon="2.10866">
        <ele>126.07</ele>
        <time>2015-01-17T10:43:56Z</time>
      </trkpt>
      <trkpt lat="48.69578" lon="2.10879">
        <ele>127.99</ele>
        <time>2015-01-17T10:44:07Z</time>
      </trkpt>
      <trkpt lat="48.6958" lon="2.10881">
        <ele>128.47</ele>
        <time>2015-01-17T10:44:09Z</time>
      </trkpt>
      <trkpt lat="48.69583" lon="2.10897">
        <ele>130.4</ele>
        <time>2015-01-17T10:44:21Z</time>
      </trkpt>
      <trkpt lat="48.69586" lon="2.10908">
        <ele>131.84</ele>
        <time>2015-01-17T10:44:30Z</time>
      </trkpt>
      <trkpt lat="48.69587" lon="2.10914">
        <ele>132.32</ele>
        <time>2015-01-17T10:44:35Z</time>
      </trkpt>
      <trkpt lat="48.69586" lon="2.10916">
        <ele>132.8</ele>
        <time>2015-01-17T10:44:37Z</time>
      </trkpt>
      <trkpt lat="48.69587" lon="2.10921">
        <ele>133.28</ele>
        <time>2015-01-17T10:44:44Z</time>
      </trkpt>
      <trkpt lat="48.69591" lon="2.10935">
        <ele>135.2</ele>
        <time>2015-01-17T10:44:55Z</time>
      </trkpt>
      <trkpt lat="48.69595" lon="2.10951">
        <ele>137.13</ele>
        <time>2015-01-17T10:45:08Z</time>
      </trkpt>
      <trkpt lat="48.69598" lon="2.10962">
        <ele>139.05</ele>
        <time>2015-01-17T10:45:19Z</time>
      </trkpt>
      <trkpt lat="48.69602" lon="2.1098">
        <ele>141.45</ele>
        <time>2015-01-17T10:45:32Z</time>
      </trkpt>
      <trkpt lat="48.69605" lon="2.10993">
        <ele>144.34</ele>
        <time>2015-01-17T10:45:44Z</time>
      </trkpt>
      <trkpt lat="48.69608" lon="2.11006">
        <ele>145.78</ele>
        <time>2015-01-17T10:45:54Z</time>
      </trkpt>
      <trkpt lat="48.69612" lon="2.11021">
        <ele>147.7</ele>
        <time>2015-01-17T10:46:06Z</time>
      </trkpt>
      <trkpt lat="48.69614" lon="2.11037">
        <ele>149.62</ele>
        <time>2015-01-17T10:46:19Z</time>
      </trkpt>
      <trkpt lat="48.69618" lon="2.11053">
        <ele>151.54</ele>
        <time>2015-01-17T10:46:31Z</time>
      </trkpt>
      <trkpt lat="48.69619" lon="2.11062">
        <ele>152.99</ele>
        <time>2015-01-17T10:46:42Z</time>
      </trkpt>
      <trkpt lat="48.6962" lon="2.11074">
        <ele>154.91</ele>
        <time>2015-01-17T10:46:54Z</time>
      </trkpt>
      <trkpt lat="48.69621" lon="2.11093">
        <ele>157.31</ele>
        <time>2015-01-17T10:47:06Z</time>
      </trkpt>
      <trkpt lat="48.6962" lon="2.11108">
        <ele>160.68</ele>
        <time>2015-01-17T10:47:19Z</time>
      </trkpt>
      <trkpt lat="48.69616" lon="2.11114">
        <ele>163.08</ele>
        <time>2015-01-17T10:47:30Z</time>
      </trkpt>
      <trkpt lat="48.69609" lon="2.11117">
        <ele>164.52</ele>
        <time>2015-01-17T10:47:43Z</time>
      </trkpt>
      <trkpt lat="48.69603" lon="2.11116">
        <ele>165</ele>
        <time>2015-01-17T10:47:50Z</time>
      </trkpt>
      <trkpt lat="48.69591" lon="2.11106">
        <ele>165.96</ele>
        <time>2015-01-17T10:48:05Z</time>
      </trkpt>
      <trkpt lat="48.69589" lon="2.11105">
        <ele>166.45</ele>
        <time>2015-01-17T10:48:07Z</time>
      </trkpt>
      <trkpt lat="48.69577" lon="2.11097">
        <ele>167.41</ele>
        <time>2015-01-17T10:48:21Z</time>
      </trkpt>
      <trkpt lat="48.69565" lon="2.11086">
        <ele>167.89</ele>
        <time>2015-01-17T10:48:35Z</time>
      </trkpt>
      <trkpt lat="48.6955" lon="2.11077">
        <ele>168.85</ele>
        <time>2015-01-17T10:48:48Z</time>
      </trkpt>
      <trkpt lat="48.69536" lon="2.11066">
        <ele>169.81</ele>
        <time>2015-01-17T10:49:02Z</time>
      </trkpt>
      <trkpt lat="48.69532" lon="2.11061">
        <ele>169.81</ele>
        <time>2015-01-17T10:49:06Z</time>
      </trkpt>
      <trkpt lat="48.69526" lon="2.11057">
        <ele>169.81</ele>
        <time>2015-01-17T10:49:11Z</time>
      </trkpt>
      <trkpt lat="48.69513" lon="2.11051">
        <ele>170.29</ele>
        <time>2015-01-17T10:49:23Z</time>
      </trkpt>
      <trkpt lat="48.69508" lon="2.11054">
        <ele>170.77</ele>
        <time>2015-01-17T10:49:29Z</time>
      </trkpt>
      <trkpt lat="48.69507" lon="2.11057">
        <ele>170.77</ele>
        <time>2015-01-17T10:49:31Z</time>
      </trkpt>
      <trkpt lat="48.69501" lon="2.11082">
        <ele>171.25</ele>
        <time>2015-01-17T10:49:47Z</time>
      </trkpt>
      <trkpt lat="48.69501" lon="2.11084">
        <ele>171.25</ele>
        <time>2015-01-17T10:49:48Z</time>
      </trkpt>
      <trkpt lat="48.695" lon="2.11098">
        <ele>171.25</ele>
        <time>2015-01-17T10:49:56Z</time>
      </trkpt>
      <trkpt lat="48.69499" lon="2.11107">
        <ele>171.73</ele>
        <time>2015-01-17T10:50:01Z</time>
      </trkpt>
      <trkpt lat="48.69497" lon="2.11121">
        <ele>171.73</ele>
        <time>2015-01-17T10:50:10Z</time>
      </trkpt>
      <trkpt lat="48.69493" lon="2.11146">
        <ele>171.25</ele>
        <time>2015-01-17T10:50:25Z</time>
      </trkpt>
      <trkpt lat="48.69491" lon="2.11172">
        <ele>171.25</ele>
        <time>2015-01-17T10:50:39Z</time>
      </trkpt>
      <trkpt lat="48.6949" lon="2.11199">
        <ele>170.77</ele>
        <time>2015-01-17T10:50:54Z</time>
      </trkpt>
      <trkpt lat="48.69489" lon="2.11228">
        <ele>170.77</ele>
        <time>2015-01-17T10:51:10Z</time>
      </trkpt>
      <trkpt lat="48.69488" lon="2.11243">
        <ele>170.29</ele>
        <time>2015-01-17T10:51:20Z</time>
      </trkpt>
      <trkpt lat="48.69487" lon="2.11253">
        <ele>170.29</ele>
        <time>2015-01-17T10:51:26Z</time>
      </trkpt>
      <trkpt lat="48.69487" lon="2.11258">
        <ele>170.29</ele>
        <time>2015-01-17T10:51:29Z</time>
      </trkpt>
      <trkpt lat="48.69485" lon="2.11268">
        <ele>170.29</ele>
        <time>2015-01-17T10:51:35Z</time>
      </trkpt>
      <trkpt lat="48.69484" lon="2.11292">
        <ele>170.29</ele>
        <time>2015-01-17T10:51:48Z</time>
      </trkpt>
      <trkpt lat="48.69483" lon="2.11294">
        <ele>170.29</ele>
        <time>2015-01-17T10:51:49Z</time>
      </trkpt>
      <trkpt lat="48.69483" lon="2.11297">
        <ele>169.81</ele>
        <time>2015-01-17T10:51:51Z</time>
      </trkpt>
      <trkpt lat="48.69483" lon="2.11303">
        <ele>170.29</ele>
        <time>2015-01-17T10:51:54Z</time>
      </trkpt>
      <trkpt lat="48.69478" lon="2.11318">
        <ele>169.81</ele>
        <time>2015-01-17T10:52:05Z</time>
      </trkpt>
      <trkpt lat="48.69478" lon="2.11323">
        <ele>169.81</ele>
        <time>2015-01-17T10:52:08Z</time>
      </trkpt>
      <trkpt lat="48.69478" lon="2.11342">
        <ele>169.81</ele>
        <time>2015-01-17T10:52:18Z</time>
      </trkpt>
      <trkpt lat="48.69477" lon="2.1135">
        <ele>169.81</ele>
        <time>2015-01-17T10:52:22Z</time>
      </trkpt>
      <trkpt lat="48.69476" lon="2.11357">
        <ele>169.81</ele>
        <time>2015-01-17T10:52:25Z</time>
      </trkpt>
      <trkpt lat="48.69475" lon="2.11391">
        <ele>169.81</ele>
        <time>2015-01-17T10:52:41Z</time>
      </trkpt>
      <trkpt lat="48.69473" lon="2.11421">
        <ele>169.81</ele>
        <time>2015-01-17T10:52:55Z</time>
      </trkpt>
      <trkpt lat="48.69472" lon="2.11428">
        <ele>169.81</ele>
        <time>2015-01-17T10:52:59Z</time>
      </trkpt>
      <trkpt lat="48.6947" lon="2.11455">
        <ele>169.81</ele>
        <time>2015-01-17T10:53:14Z</time>
      </trkpt>
      <trkpt lat="48.69465" lon="2.11482">
        <ele>170.29</ele>
        <time>2015-01-17T10:53:29Z</time>
      </trkpt>
      <trkpt lat="48.69463" lon="2.11509">
        <ele>170.29</ele>
        <time>2015-01-17T10:53:43Z</time>
      </trkpt>
      <trkpt lat="48.69463" lon="2.11537">
        <ele>170.29</ele>
        <time>2015-01-17T10:53:57Z</time>
      </trkpt>
      <trkpt lat="48.69461" lon="2.11549">
        <ele>170.29</ele>
        <time>2015-01-17T10:54:04Z</time>
      </trkpt>
      <trkpt lat="48.6946" lon="2.11572">
        <ele>169.81</ele>
        <time>2015-01-17T10:54:17Z</time>
      </trkpt>
      <trkpt lat="48.69458" lon="2.11602">
        <ele>169.81</ele>
        <time>2015-01-17T10:54:32Z</time>
      </trkpt>
      <trkpt lat="48.69459" lon="2.11622">
        <ele>169.81</ele>
        <time>2015-01-17T10:54:43Z</time>
      </trkpt>
      <trkpt lat="48.69459" lon="2.1163">
        <ele>169.33</ele>
        <time>2015-01-17T10:54:47Z</time>
      </trkpt>
      <trkpt lat="48.69458" lon="2.11637">
        <ele>169.33</ele>
        <time>2015-01-17T10:54:52Z</time>
      </trkpt>
      <trkpt lat="48.69457" lon="2.11649">
        <ele>169.33</ele>
        <time>2015-01-17T10:54:59Z</time>
      </trkpt>
      <trkpt lat="48.69453" lon="2.11669">
        <ele>168.85</ele>
        <time>2015-01-17T10:55:12Z</time>
      </trkpt>
      <trkpt lat="48.69452" lon="2.11672">
        <ele>168.85</ele>
        <time>2015-01-17T10:55:14Z</time>
      </trkpt>
      <trkpt lat="48.69452" lon="2.11683">
        <ele>168.85</ele>
        <time>2015-01-17T10:55:19Z</time>
      </trkpt>
      <trkpt lat="48.69453" lon="2.11696">
        <ele>168.85</ele>
        <time>2015-01-17T10:55:25Z</time>
      </trkpt>
      <trkpt lat="48.6945" lon="2.11718">
        <ele>168.37</ele>
        <time>2015-01-17T10:55:38Z</time>
      </trkpt>
      <trkpt lat="48.6945" lon="2.11721">
        <ele>168.37</ele>
        <time>2015-01-17T10:55:40Z</time>
      </trkpt>
      <trkpt lat="48.69449" lon="2.1173">
        <ele>168.37</ele>
        <time>2015-01-17T10:55:45Z</time>
      </trkpt>
      <trkpt lat="48.69448" lon="2.11739">
        <ele>168.37</ele>
        <time>2015-01-17T10:55:51Z</time>
      </trkpt>
      <trkpt lat="48.69446" lon="2.11763">
        <ele>167.89</ele>
        <time>2015-01-17T10:56:03Z</time>
      </trkpt>
      <trkpt lat="48.69444" lon="2.11788">
        <ele>167.89</ele>
        <time>2015-01-17T10:56:17Z</time>
      </trkpt>
      <trkpt lat="48.69442" lon="2.11807">
        <ele>167.41</ele>
        <time>2015-01-17T10:56:29Z</time>
      </trkpt>
      <trkpt lat="48.69438" lon="2.11822">
        <ele>166.93</ele>
        <time>2015-01-17T10:56:37Z</time>
      </trkpt>
      <trkpt lat="48.69435" lon="2.1183">
        <ele>166.93</ele>
        <time>2015-01-17T10:56:41Z</time>
      </trkpt>
      <trkpt lat="48.69434" lon="2.11833">
        <ele>166.45</ele>
        <time>2015-01-17T10:56:43Z</time>
      </trkpt>
      <trkpt lat="48.69425" lon="2.11859">
        <ele>167.41</ele>
        <time>2015-01-17T10:56:58Z</time>
      </trkpt>
      <trkpt lat="48.69414" lon="2.11879">
        <ele>168.37</ele>
        <time>2015-01-17T10:57:11Z</time>
      </trkpt>
      <trkpt lat="48.6941" lon="2.11887">
        <ele>168.37</ele>
        <time>2015-01-17T10:57:16Z</time>
      </trkpt>
      <trkpt lat="48.69404" lon="2.11899">
        <ele>168.85</ele>
        <time>2015-01-17T10:57:25Z</time>
      </trkpt>
      <trkpt lat="48.69398" lon="2.11906">
        <ele>169.33</ele>
        <time>2015-01-17T10:57:31Z</time>
      </trkpt>
      <trkpt lat="48.69388" lon="2.11923">
        <ele>169.33</ele>
        <time>2015-01-17T10:57:43Z</time>
      </trkpt>
      <trkpt lat="48.69377" lon="2.11942">
        <ele>169.81</ele>
        <time>2015-01-17T10:57:57Z</time>
      </trkpt>
      <trkpt lat="48.69367" lon="2.11957">
        <ele>170.29</ele>
        <time>2015-01-17T10:58:08Z</time>
      </trkpt>
      <trkpt lat="48.69357" lon="2.11977">
        <ele>170.77</ele>
        <time>2015-01-17T10:58:22Z</time>
      </trkpt>
      <trkpt lat="48.69353" lon="2.11986">
        <ele>170.77</ele>
        <time>2015-01-17T10:58:28Z</time>
      </trkpt>
      <trkpt lat="48.6934" lon="2.12006">
        <ele>171.25</ele>
        <time>2015-01-17T10:58:42Z</time>
      </trkpt>
      <trkpt lat="48.69332" lon="2.12018">
        <ele>171.25</ele>
        <time>2015-01-17T10:58:50Z</time>
      </trkpt>
      <trkpt lat="48.69318" lon="2.12038">
        <ele>171.25</ele>
        <time>2015-01-17T10:59:06Z</time>
      </trkpt>
      <trkpt lat="48.69315" lon="2.12045">
        <ele>172.21</ele>
        <time>2015-01-17T10:59:10Z</time>
      </trkpt>
      <trkpt lat="48.69307" lon="2.12059">
        <ele>171.73</ele>
        <time>2015-01-17T10:59:20Z</time>
      </trkpt>
      <trkpt lat="48.69295" lon="2.12059">
        <ele>171.73</ele>
        <time>2015-01-17T10:59:33Z</time>
      </trkpt>
      <trkpt lat="48.69293" lon="2.12059">
        <ele>171.73</ele>
        <time>2015-01-17T10:59:35Z</time>
      </trkpt>
      <trkpt lat="48.69281" lon="2.12064">
        <ele>172.21</ele>
        <time>2015-01-17T10:59:47Z</time>
      </trkpt>
      <trkpt lat="48.69276" lon="2.12069">
        <ele>172.21</ele>
        <time>2015-01-17T10:59:54Z</time>
      </trkpt>
      <trkpt lat="48.69274" lon="2.12072">
        <ele>172.21</ele>
        <time>2015-01-17T10:59:57Z</time>
      </trkpt>
      <trkpt lat="48.6927" lon="2.12087">
        <ele>172.21</ele>
        <time>2015-01-17T11:00:06Z</time>
      </trkpt>
      <trkpt lat="48.69266" lon="2.12117">
        <ele>172.21</ele>
        <time>2015-01-17T11:00:20Z</time>
      </trkpt>
      <trkpt lat="48.69263" lon="2.12142">
        <ele>171.73</ele>
        <time>2015-01-17T11:00:33Z</time>
      </trkpt>
      <trkpt lat="48.69269" lon="2.12164">
        <ele>172.21</ele>
        <time>2015-01-17T11:00:46Z</time>
      </trkpt>
      <trkpt lat="48.6927" lon="2.12165">
        <ele>171.73</ele>
        <time>2015-01-17T11:00:47Z</time>
      </trkpt>
      <trkpt lat="48.69274" lon="2.12171">
        <ele>171.25</ele>
        <time>2015-01-17T11:00:53Z</time>
      </trkpt>
      <trkpt lat="48.69276" lon="2.12172">
        <ele>171.25</ele>
        <time>2015-01-17T11:00:55Z</time>
      </trkpt>
      <trkpt lat="48.69278" lon="2.12173">
        <ele>171.25</ele>
        <time>2015-01-17T11:00:58Z</time>
      </trkpt>
      <trkpt lat="48.69291" lon="2.12172">
        <ele>170.77</ele>
        <time>2015-01-17T11:01:14Z</time>
      </trkpt>
      <trkpt lat="48.69295" lon="2.12173">
        <ele>170.29</ele>
        <time>2015-01-17T11:01:19Z</time>
      </trkpt>
      <trkpt lat="48.69302" lon="2.12175">
        <ele>170.77</ele>
        <time>2015-01-17T11:01:26Z</time>
      </trkpt>
      <trkpt lat="48.69308" lon="2.1219">
        <ele>170.29</ele>
        <time>2015-01-17T11:01:40Z</time>
      </trkpt>
      <trkpt lat="48.6931" lon="2.12195">
        <ele>169.81</ele>
        <time>2015-01-17T11:01:44Z</time>
      </trkpt>
      <trkpt lat="48.69314" lon="2.12199">
        <ele>169.81</ele>
        <time>2015-01-17T11:01:48Z</time>
      </trkpt>
      <trkpt lat="48.6932" lon="2.12214">
        <ele>169.33</ele>
        <time>2015-01-17T11:02:00Z</time>
      </trkpt>
      <trkpt lat="48.69317" lon="2.12228">
        <ele>169.33</ele>
        <time>2015-01-17T11:02:11Z</time>
      </trkpt>
      <trkpt lat="48.69312" lon="2.12244">
        <ele>169.33</ele>
        <time>2015-01-17T11:02:23Z</time>
      </trkpt>
      <trkpt lat="48.69306" lon="2.12255">
        <ele>169.81</ele>
        <time>2015-01-17T11:02:33Z</time>
      </trkpt>
      <trkpt lat="48.69297" lon="2.12265">
        <ele>169.81</ele>
        <time>2015-01-17T11:02:43Z</time>
      </trkpt>
      <trkpt lat="48.69291" lon="2.12273">
        <ele>170.29</ele>
        <time>2015-01-17T11:02:52Z</time>
      </trkpt>
      <trkpt lat="48.69287" lon="2.1228">
        <ele>170.29</ele>
        <time>2015-01-17T11:03:00Z</time>
      </trkpt>
      <trkpt lat="48.69283" lon="2.12285">
        <ele>170.29</ele>
        <time>2015-01-17T11:03:05Z</time>
      </trkpt>
      <trkpt lat="48.69277" lon="2.12291">
        <ele>170.77</ele>
        <time>2015-01-17T11:03:10Z</time>
      </trkpt>
      <trkpt lat="48.69275" lon="2.12294">
        <ele>170.77</ele>
        <time>2015-01-17T11:03:13Z</time>
      </trkpt>
      <trkpt lat="48.69265" lon="2.12305">
        <ele>170.77</ele>
        <time>2015-01-17T11:03:20Z</time>
      </trkpt>
      <trkpt lat="48.69257" lon="2.12314">
        <ele>170.77</ele>
        <time>2015-01-17T11:03:27Z</time>
      </trkpt>
      <trkpt lat="48.69252" lon="2.12319">
        <ele>171.25</ele>
        <time>2015-01-17T11:03:31Z</time>
      </trkpt>
      <trkpt lat="48.69239" lon="2.12331">
        <ele>171.25</ele>
        <time>2015-01-17T11:03:43Z</time>
      </trkpt>
      <trkpt lat="48.69234" lon="2.12336">
        <ele>171.73</ele>
        <time>2015-01-17T11:03:48Z</time>
      </trkpt>
      <trkpt lat="48.69221" lon="2.1235">
        <ele>171.73</ele>
        <time>2015-01-17T11:04:01Z</time>
      </trkpt>
      <trkpt lat="48.69218" lon="2.12354">
        <ele>171.73</ele>
        <time>2015-01-17T11:04:05Z</time>
      </trkpt>
      <trkpt lat="48.69207" lon="2.1236">
        <ele>172.21</ele>
        <time>2015-01-17T11:04:14Z</time>
      </trkpt>
      <trkpt lat="48.69201" lon="2.12367">
        <ele>172.21</ele>
        <time>2015-01-17T11:04:19Z</time>
      </trkpt>
      <trkpt lat="48.69198" lon="2.12374">
        <ele>172.21</ele>
        <time>2015-01-17T11:04:25Z</time>
      </trkpt>
      <trkpt lat="48.69193" lon="2.12384">
        <ele>172.21</ele>
        <time>2015-01-17T11:04:33Z</time>
      </trkpt>
      <trkpt lat="48.69192" lon="2.12394">
        <ele>172.21</ele>
        <time>2015-01-17T11:04:40Z</time>
      </trkpt>
      <trkpt lat="48.69189" lon="2.12411">
        <ele>172.21</ele>
        <time>2015-01-17T11:04:53Z</time>
      </trkpt>
      <trkpt lat="48.69188" lon="2.12429">
        <ele>171.73</ele>
        <time>2015-01-17T11:05:01Z</time>
      </trkpt>
      <trkpt lat="48.69187" lon="2.12449">
        <ele>172.21</ele>
        <time>2015-01-17T11:05:13Z</time>
      </trkpt>
      <trkpt lat="48.69186" lon="2.12454">
        <ele>171.73</ele>
        <time>2015-01-17T11:05:17Z</time>
      </trkpt>
      <trkpt lat="48.69181" lon="2.12474">
        <ele>171.73</ele>
        <time>2015-01-17T11:05:30Z</time>
      </trkpt>
      <trkpt lat="48.69178" lon="2.12494">
        <ele>171.73</ele>
        <time>2015-01-17T11:05:41Z</time>
      </trkpt>
      <trkpt lat="48.69177" lon="2.12513">
        <ele>171.73</ele>
        <time>2015-01-17T11:05:52Z</time>
      </trkpt>
      <trkpt lat="48.69178" lon="2.1254">
        <ele>171.73</ele>
        <time>2015-01-17T11:06:05Z</time>
      </trkpt>
      <trkpt lat="48.69179" lon="2.12555">
        <ele>171.25</ele>
        <time>2015-01-17T11:06:17Z</time>
      </trkpt>
      <trkpt lat="48.69178" lon="2.12567">
        <ele>171.73</ele>
        <time>2015-01-17T11:06:28Z</time>
      </trkpt>
      <trkpt lat="48.69181" lon="2.12579">
        <ele>172.21</ele>
        <time>2015-01-17T11:06:40Z</time>
      </trkpt>
      <trkpt lat="48.69185" lon="2.12595">
        <ele>172.21</ele>
        <time>2015-01-17T11:06:52Z</time>
      </trkpt>
      <trkpt lat="48.69188" lon="2.12611">
        <ele>171.73</ele>
        <time>2015-01-17T11:07:03Z</time>
      </trkpt>
      <trkpt lat="48.69195" lon="2.12629">
        <ele>171.25</ele>
        <time>2015-01-17T11:07:15Z</time>
      </trkpt>
      <trkpt lat="48.69199" lon="2.12642">
        <ele>170.77</ele>
        <time>2015-01-17T11:07:26Z</time>
      </trkpt>
      <trkpt lat="48.69201" lon="2.12651">
        <ele>170.77</ele>
        <time>2015-01-17T11:07:36Z</time>
      </trkpt>
      <trkpt lat="48.69204" lon="2.12665">
        <ele>170.77</ele>
        <time>2015-01-17T11:07:49Z</time>
      </trkpt>
      <trkpt lat="48.69206" lon="2.12677">
        <ele>170.77</ele>
        <time>2015-01-17T11:08:02Z</time>
      </trkpt>
      <trkpt lat="48.69207" lon="2.1268">
        <ele>171.25</ele>
        <time>2015-01-17T11:08:22Z</time>
      </trkpt>
      <trkpt lat="48.6921" lon="2.12685">
        <ele>171.25</ele>
        <time>2015-01-17T11:08:49Z</time>
      </trkpt>
      <trkpt lat="48.69211" lon="2.12686">
        <ele>171.25</ele>
        <time>2015-01-17T11:09:09Z</time>
      </trkpt>
      <trkpt lat="48.69212" lon="2.12686">
        <ele>171.25</ele>
        <time>2015-01-17T11:09:28Z</time>
      </trkpt>
      <trkpt lat="48.69212" lon="2.12688">
        <ele>171.25</ele>
        <time>2015-01-17T11:09:49Z</time>
      </trkpt>
      <trkpt lat="48.69211" lon="2.12691">
        <ele>171.25</ele>
        <time>2015-01-17T11:10:02Z</time>
      </trkpt>
      <trkpt lat="48.69211" lon="2.12702">
        <ele>170.77</ele>
        <time>2015-01-17T11:10:15Z</time>
      </trkpt>
      <trkpt lat="48.69211" lon="2.12704">
        <ele>170.77</ele>
        <time>2015-01-17T11:10:16Z</time>
      </trkpt>
      <trkpt lat="48.69213" lon="2.12716">
        <ele>170.29</ele>
        <time>2015-01-17T11:10:25Z</time>
      </trkpt>
      <trkpt lat="48.69214" lon="2.12731">
        <ele>169.81</ele>
        <time>2015-01-17T11:10:37Z</time>
      </trkpt>
      <trkpt lat="48.69215" lon="2.12741">
        <ele>169.81</ele>
        <time>2015-01-17T11:10:49Z</time>
      </trkpt>
      <trkpt lat="48.69216" lon="2.12744">
        <ele>169.81</ele>
        <time>2015-01-17T11:10:52Z</time>
      </trkpt>
      <trkpt lat="48.69219" lon="2.12753">
        <ele>169.81</ele>
        <time>2015-01-17T11:10:57Z</time>
      </trkpt>
      <trkpt lat="48.69219" lon="2.12773">
        <ele>169.81</ele>
        <time>2015-01-17T11:11:08Z</time>
      </trkpt>
      <trkpt lat="48.69222" lon="2.12791">
        <ele>169.81</ele>
        <time>2015-01-17T11:11:18Z</time>
      </trkpt>
      <trkpt lat="48.69222" lon="2.12793">
        <ele>169.81</ele>
        <time>2015-01-17T11:11:19Z</time>
      </trkpt>
      <trkpt lat="48.69224" lon="2.12805">
        <ele>169.81</ele>
        <time>2015-01-17T11:11:25Z</time>
      </trkpt>
      <trkpt lat="48.69225" lon="2.12816">
        <ele>169.33</ele>
        <time>2015-01-17T11:11:32Z</time>
      </trkpt>
      <trkpt lat="48.69226" lon="2.12822">
        <ele>169.81</ele>
        <time>2015-01-17T11:11:35Z</time>
      </trkpt>
      <trkpt lat="48.6923" lon="2.12843">
        <ele>169.81</ele>
        <time>2015-01-17T11:11:45Z</time>
      </trkpt>
      <trkpt lat="48.69232" lon="2.12862">
        <ele>170.29</ele>
        <time>2015-01-17T11:11:55Z</time>
      </trkpt>
      <trkpt lat="48.69236" lon="2.12881">
        <ele>171.25</ele>
        <time>2015-01-17T11:12:05Z</time>
      </trkpt>
      <trkpt lat="48.69237" lon="2.12898">
        <ele>170.77</ele>
        <time>2015-01-17T11:12:16Z</time>
      </trkpt>
      <trkpt lat="48.69237" lon="2.12901">
        <ele>170.77</ele>
        <time>2015-01-17T11:12:17Z</time>
      </trkpt>
      <trkpt lat="48.69238" lon="2.12909">
        <ele>171.25</ele>
        <time>2015-01-17T11:12:21Z</time>
      </trkpt>
      <trkpt lat="48.69241" lon="2.1292">
        <ele>171.25</ele>
        <time>2015-01-17T11:12:26Z</time>
      </trkpt>
      <trkpt lat="48.69241" lon="2.12925">
        <ele>171.25</ele>
        <time>2015-01-17T11:12:28Z</time>
      </trkpt>
      <trkpt lat="48.69242" lon="2.12937">
        <ele>170.77</ele>
        <time>2015-01-17T11:12:34Z</time>
      </trkpt>
      <trkpt lat="48.69243" lon="2.12953">
        <ele>171.25</ele>
        <time>2015-01-17T11:12:40Z</time>
      </trkpt>
      <trkpt lat="48.69245" lon="2.12962">
        <ele>170.77</ele>
        <time>2015-01-17T11:12:45Z</time>
      </trkpt>
      <trkpt lat="48.69246" lon="2.12971">
        <ele>170.77</ele>
        <time>2015-01-17T11:12:50Z</time>
      </trkpt>
      <trkpt lat="48.69248" lon="2.12988">
        <ele>171.25</ele>
        <time>2015-01-17T11:13:01Z</time>
      </trkpt>
      <trkpt lat="48.69248" lon="2.12992">
        <ele>171.25</ele>
        <time>2015-01-17T11:13:03Z</time>
      </trkpt>
      <trkpt lat="48.69249" lon="2.13002">
        <ele>171.25</ele>
        <time>2015-01-17T11:13:09Z</time>
      </trkpt>
      <trkpt lat="48.6925" lon="2.13011">
        <ele>171.25</ele>
        <time>2015-01-17T11:13:14Z</time>
      </trkpt>
      <trkpt lat="48.69252" lon="2.1303">
        <ele>170.29</ele>
        <time>2015-01-17T11:13:26Z</time>
      </trkpt>
      <trkpt lat="48.69251" lon="2.13035">
        <ele>170.29</ele>
        <time>2015-01-17T11:13:29Z</time>
      </trkpt>
      <trkpt lat="48.69253" lon="2.13047">
        <ele>170.77</ele>
        <time>2015-01-17T11:13:34Z</time>
      </trkpt>
      <trkpt lat="48.69256" lon="2.13065">
        <ele>171.25</ele>
        <time>2015-01-17T11:13:44Z</time>
      </trkpt>
      <trkpt lat="48.6926" lon="2.13084">
        <ele>171.25</ele>
        <time>2015-01-17T11:13:55Z</time>
      </trkpt>
      <trkpt lat="48.6926" lon="2.13085">
        <ele>171.25</ele>
        <time>2015-01-17T11:13:56Z</time>
      </trkpt>
      <trkpt lat="48.69261" lon="2.13095">
        <ele>171.25</ele>
        <time>2015-01-17T11:14:00Z</time>
      </trkpt>
      <trkpt lat="48.69262" lon="2.13104">
        <ele>171.25</ele>
        <time>2015-01-17T11:14:05Z</time>
      </trkpt>
      <trkpt lat="48.69264" lon="2.1311">
        <ele>171.25</ele>
        <time>2015-01-17T11:14:08Z</time>
      </trkpt>
      <trkpt lat="48.69277" lon="2.13132">
        <ele>169.81</ele>
        <time>2015-01-17T11:14:21Z</time>
      </trkpt>
      <trkpt lat="48.6928" lon="2.13138">
        <ele>169.81</ele>
        <time>2015-01-17T11:14:37Z</time>
      </trkpt>
      <trkpt lat="48.69281" lon="2.13138">
        <ele>170.29</ele>
        <time>2015-01-17T11:15:03Z</time>
      </trkpt>
      <trkpt lat="48.69281" lon="2.13138">
        <ele>170.29</ele>
        <time>2015-01-17T11:15:06Z</time>
      </trkpt>
      <trkpt lat="48.6928" lon="2.13139">
        <ele>170.29</ele>
        <time>2015-01-17T11:15:10Z</time>
      </trkpt>
      <trkpt lat="48.69275" lon="2.13142">
        <ele>171.73</ele>
        <time>2015-01-17T11:15:22Z</time>
      </trkpt>
      <trkpt lat="48.69274" lon="2.13142">
        <ele>171.73</ele>
        <time>2015-01-17T11:15:23Z</time>
      </trkpt>
      <trkpt lat="48.69273" lon="2.13153">
        <ele>172.69</ele>
        <time>2015-01-17T11:15:35Z</time>
      </trkpt>
      <trkpt lat="48.69273" lon="2.13154">
        <ele>172.69</ele>
        <time>2015-01-17T11:15:36Z</time>
      </trkpt>
      <trkpt lat="48.69273" lon="2.13157">
        <ele>172.69</ele>
        <time>2015-01-17T11:15:38Z</time>
      </trkpt>
      <trkpt lat="48.69274" lon="2.13163">
        <ele>172.69</ele>
        <time>2015-01-17T11:15:42Z</time>
      </trkpt>
      <trkpt lat="48.69273" lon="2.13169">
        <ele>172.69</ele>
        <time>2015-01-17T11:15:46Z</time>
      </trkpt>
      <trkpt lat="48.69273" lon="2.1318">
        <ele>173.17</ele>
        <time>2015-01-17T11:15:53Z</time>
      </trkpt>
      <trkpt lat="48.69274" lon="2.13184">
        <ele>173.17</ele>
        <time>2015-01-17T11:15:56Z</time>
      </trkpt>
      <trkpt lat="48.69273" lon="2.13198">
        <ele>173.17</ele>
        <time>2015-01-17T11:16:04Z</time>
      </trkpt>
      <trkpt lat="48.69273" lon="2.13207">
        <ele>173.17</ele>
        <time>2015-01-17T11:16:09Z</time>
      </trkpt>
      <trkpt lat="48.69273" lon="2.13211">
        <ele>173.17</ele>
        <time>2015-01-17T11:16:11Z</time>
      </trkpt>
      <trkpt lat="48.69273" lon="2.13221">
        <ele>173.17</ele>
        <time>2015-01-17T11:16:16Z</time>
      </trkpt>
      <trkpt lat="48.69273" lon="2.13243">
        <ele>173.66</ele>
        <time>2015-01-17T11:16:28Z</time>
      </trkpt>
      <trkpt lat="48.69269" lon="2.13263">
        <ele>173.66</ele>
        <time>2015-01-17T11:16:41Z</time>
      </trkpt>
      <trkpt lat="48.69267" lon="2.13281">
        <ele>173.66</ele>
        <time>2015-01-17T11:16:53Z</time>
      </trkpt>
      <trkpt lat="48.69264" lon="2.133">
        <ele>173.66</ele>
        <time>2015-01-17T11:17:06Z</time>
      </trkpt>
      <trkpt lat="48.69264" lon="2.13303">
        <ele>174.14</ele>
        <time>2015-01-17T11:17:08Z</time>
      </trkpt>
      <trkpt lat="48.69263" lon="2.13323">
        <ele>174.14</ele>
        <time>2015-01-17T11:17:20Z</time>
      </trkpt>
      <trkpt lat="48.69261" lon="2.1334">
        <ele>174.14</ele>
        <time>2015-01-17T11:17:30Z</time>
      </trkpt>
      <trkpt lat="48.69258" lon="2.13353">
        <ele>174.14</ele>
        <time>2015-01-17T11:17:40Z</time>
      </trkpt>
      <trkpt lat="48.69253" lon="2.13374">
        <ele>174.62</ele>
        <time>2015-01-17T11:17:53Z</time>
      </trkpt>
      <trkpt lat="48.69252" lon="2.13379">
        <ele>174.62</ele>
        <time>2015-01-17T11:17:56Z</time>
      </trkpt>
      <trkpt lat="48.69249" lon="2.13392">
        <ele>174.62</ele>
        <time>2015-01-17T11:18:06Z</time>
      </trkpt>
      <trkpt lat="48.69248" lon="2.1341">
        <ele>175.1</ele>
        <time>2015-01-17T11:18:16Z</time>
      </trkpt>
      <trkpt lat="48.69251" lon="2.1342">
        <ele>175.1</ele>
        <time>2015-01-17T11:18:26Z</time>
      </trkpt>
      <trkpt lat="48.69256" lon="2.13432">
        <ele>174.62</ele>
        <time>2015-01-17T11:18:35Z</time>
      </trkpt>
      <trkpt lat="48.6926" lon="2.13437">
        <ele>174.62</ele>
        <time>2015-01-17T11:18:40Z</time>
      </trkpt>
      <trkpt lat="48.69268" lon="2.13451">
        <ele>174.14</ele>
        <time>2015-01-17T11:18:52Z</time>
      </trkpt>
      <trkpt lat="48.69273" lon="2.13462">
        <ele>173.17</ele>
        <time>2015-01-17T11:19:02Z</time>
      </trkpt>
      <trkpt lat="48.69276" lon="2.13468">
        <ele>173.17</ele>
        <time>2015-01-17T11:19:05Z</time>
      </trkpt>
      <trkpt lat="48.69279" lon="2.13473">
        <ele>172.69</ele>
        <time>2015-01-17T11:19:10Z</time>
      </trkpt>
      <trkpt lat="48.69282" lon="2.13475">
        <ele>172.21</ele>
        <time>2015-01-17T11:19:14Z</time>
      </trkpt>
      <trkpt lat="48.69292" lon="2.13492">
        <ele>170.77</ele>
        <time>2015-01-17T11:19:27Z</time>
      </trkpt>
      <trkpt lat="48.69301" lon="2.13505">
        <ele>169.33</ele>
        <time>2015-01-17T11:19:38Z</time>
      </trkpt>
      <trkpt lat="48.6931" lon="2.13514">
        <ele>166.93</ele>
        <time>2015-01-17T11:19:50Z</time>
      </trkpt>
      <trkpt lat="48.69314" lon="2.1352">
        <ele>165</ele>
        <time>2015-01-17T11:19:59Z</time>
      </trkpt>
      <trkpt lat="48.6932" lon="2.1353">
        <ele>162.6</ele>
        <time>2015-01-17T11:20:10Z</time>
      </trkpt>
      <trkpt lat="48.69327" lon="2.13542">
        <ele>160.68</ele>
        <time>2015-01-17T11:20:23Z</time>
      </trkpt>
      <trkpt lat="48.69333" lon="2.13553">
        <ele>158.75</ele>
        <time>2015-01-17T11:20:34Z</time>
      </trkpt>
      <trkpt lat="48.6934" lon="2.13564">
        <ele>156.35</ele>
        <time>2015-01-17T11:20:47Z</time>
      </trkpt>
      <trkpt lat="48.69342" lon="2.13568">
        <ele>155.39</ele>
        <time>2015-01-17T11:20:55Z</time>
      </trkpt>
      <trkpt lat="48.69346" lon="2.13574">
        <ele>153.95</ele>
        <time>2015-01-17T11:21:04Z</time>
      </trkpt>
      <trkpt lat="48.69349" lon="2.13583">
        <ele>151.54</ele>
        <time>2015-01-17T11:21:14Z</time>
      </trkpt>
      <trkpt lat="48.69354" lon="2.13592">
        <ele>150.1</ele>
        <time>2015-01-17T11:21:21Z</time>
      </trkpt>
      <trkpt lat="48.69358" lon="2.13599">
        <ele>149.62</ele>
        <time>2015-01-17T11:21:24Z</time>
      </trkpt>
      <trkpt lat="48.69364" lon="2.13612">
        <ele>148.18</ele>
        <time>2015-01-17T11:21:35Z</time>
      </trkpt>
      <trkpt lat="48.6937" lon="2.13619">
        <ele>146.26</ele>
        <time>2015-01-17T11:21:45Z</time>
      </trkpt>
      <trkpt lat="48.69371" lon="2.13614">
        <ele>144.34</ele>
        <time>2015-01-17T11:21:55Z</time>
      </trkpt>
      <trkpt lat="48.69375" lon="2.13609">
        <ele>142.41</ele>
        <time>2015-01-17T11:22:06Z</time>
      </trkpt>
      <trkpt lat="48.6938" lon="2.13597">
        <ele>140.49</ele>
        <time>2015-01-17T11:22:18Z</time>
      </trkpt>
      <trkpt lat="48.69386" lon="2.13589">
        <ele>139.05</ele>
        <time>2015-01-17T11:22:27Z</time>
      </trkpt>
      <trkpt lat="48.69388" lon="2.13581">
        <ele>137.61</ele>
        <time>2015-01-17T11:22:36Z</time>
      </trkpt>
      <trkpt lat="48.69399" lon="2.13568">
        <ele>135.2</ele>
        <time>2015-01-17T11:22:47Z</time>
      </trkpt>
      <trkpt lat="48.69399" lon="2.13566">
        <ele>135.2</ele>
        <time>2015-01-17T11:22:48Z</time>
      </trkpt>
      <trkpt lat="48.69409" lon="2.13556">
        <ele>132.32</ele>
        <time>2015-01-17T11:23:00Z</time>
      </trkpt>
      <trkpt lat="48.69415" lon="2.13546">
        <ele>130.88</ele>
        <time>2015-01-17T11:23:10Z</time>
      </trkpt>
      <trkpt lat="48.69423" lon="2.13535">
        <ele>128.95</ele>
        <time>2015-01-17T11:23:21Z</time>
      </trkpt>
      <trkpt lat="48.69433" lon="2.1353">
        <ele>127.03</ele>
        <time>2015-01-17T11:23:32Z</time>
      </trkpt>
      <trkpt lat="48.69436" lon="2.13514">
        <ele>127.03</ele>
        <time>2015-01-17T11:23:47Z</time>
      </trkpt>
      <trkpt lat="48.6944" lon="2.13516">
        <ele>126.55</ele>
        <time>2015-01-17T11:23:58Z</time>
      </trkpt>
      <trkpt lat="48.69441" lon="2.13517">
        <ele>126.07</ele>
        <time>2015-01-17T11:24:13Z</time>
      </trkpt>
      <trkpt lat="48.69442" lon="2.13518">
        <ele>126.07</ele>
        <time>2015-01-17T11:24:32Z</time>
      </trkpt>
      <trkpt lat="48.69442" lon="2.13519">
        <ele>126.07</ele>
        <time>2015-01-17T11:24:40Z</time>
      </trkpt>
      <trkpt lat="48.69442" lon="2.13519">
        <ele>125.59</ele>
        <time>2015-01-17T11:24:59Z</time>
      </trkpt>
      <trkpt lat="48.69441" lon="2.13519">
        <ele>126.55</ele>
        <time>2015-01-17T11:25:13Z</time>
      </trkpt>
      <trkpt lat="48.69441" lon="2.13519">
        <ele>125.59</ele>
        <time>2015-01-17T11:25:31Z</time>
      </trkpt>
      <trkpt lat="48.6944" lon="2.13519">
        <ele>125.59</ele>
        <time>2015-01-17T11:25:50Z</time>
      </trkpt>
      <trkpt lat="48.6944" lon="2.1352">
        <ele>125.11</ele>
        <time>2015-01-17T11:26:12Z</time>
      </trkpt>
      <trkpt lat="48.6944" lon="2.13521">
        <ele>124.63</ele>
        <time>2015-01-17T11:26:37Z</time>
      </trkpt>
      <trkpt lat="48.6944" lon="2.13521">
        <ele>124.63</ele>
        <time>2015-01-17T11:26:58Z</time>
      </trkpt>
      <trkpt lat="48.6944" lon="2.13522">
        <ele>124.63</ele>
        <time>2015-01-17T11:27:16Z</time>
      </trkpt>
      <trkpt lat="48.6944" lon="2.13521">
        <ele>124.63</ele>
        <time>2015-01-17T11:27:32Z</time>
      </trkpt>
      <trkpt lat="48.69437" lon="2.1352">
        <ele>124.15</ele>
        <time>2015-01-17T11:27:55Z</time>
      </trkpt>
      <trkpt lat="48.69437" lon="2.13521">
        <ele>123.67</ele>
        <time>2015-01-17T11:28:18Z</time>
      </trkpt>
      <trkpt lat="48.69437" lon="2.1352">
        <ele>123.67</ele>
        <time>2015-01-17T11:28:44Z</time>
      </trkpt>
      <trkpt lat="48.69438" lon="2.1352">
        <ele>123.19</ele>
        <time>2015-01-17T11:29:01Z</time>
      </trkpt>
      <trkpt lat="48.69439" lon="2.13521">
        <ele>123.19</ele>
        <time>2015-01-17T11:29:23Z</time>
      </trkpt>
      <trkpt lat="48.6944" lon="2.13515">
        <ele>123.19</ele>
        <time>2015-01-17T11:29:33Z</time>
      </trkpt>
      <trkpt lat="48.69444" lon="2.13503">
        <ele>123.19</ele>
        <time>2015-01-17T11:29:44Z</time>
      </trkpt>
      <trkpt lat="48.69444" lon="2.13502">
        <ele>123.19</ele>
        <time>2015-01-17T11:29:57Z</time>
      </trkpt>
      <trkpt lat="48.69447" lon="2.135">
        <ele>122.71</ele>
        <time>2015-01-17T11:30:08Z</time>
      </trkpt>
      <trkpt lat="48.69449" lon="2.13493">
        <ele>123.19</ele>
        <time>2015-01-17T11:30:16Z</time>
      </trkpt>
      <trkpt lat="48.69447" lon="2.13492">
        <ele>123.19</ele>
        <time>2015-01-17T11:30:25Z</time>
      </trkpt>
      <trkpt lat="48.69449" lon="2.13482">
        <ele>123.19</ele>
        <time>2015-01-17T11:30:37Z</time>
      </trkpt>
      <trkpt lat="48.69449" lon="2.13472">
        <ele>123.19</ele>
        <time>2015-01-17T11:30:44Z</time>
      </trkpt>
      <trkpt lat="48.69448" lon="2.13455">
        <ele>121.26</ele>
        <time>2015-01-17T11:30:57Z</time>
      </trkpt>
      <trkpt lat="48.69451" lon="2.1344">
        <ele>121.26</ele>
        <time>2015-01-17T11:31:08Z</time>
      </trkpt>
      <trkpt lat="48.69451" lon="2.13437">
        <ele>121.26</ele>
        <time>2015-01-17T11:31:10Z</time>
      </trkpt>
      <trkpt lat="48.69455" lon="2.13427">
        <ele>122.22</ele>
        <time>2015-01-17T11:31:19Z</time>
      </trkpt>
      <trkpt lat="48.69456" lon="2.13423">
        <ele>122.22</ele>
        <time>2015-01-17T11:31:21Z</time>
      </trkpt>
      <trkpt lat="48.6946" lon="2.13411">
        <ele>123.19</ele>
        <time>2015-01-17T11:31:28Z</time>
      </trkpt>
      <trkpt lat="48.69463" lon="2.13396">
        <ele>121.74</ele>
        <time>2015-01-17T11:31:37Z</time>
      </trkpt>
      <trkpt lat="48.69468" lon="2.13375">
        <ele>120.3</ele>
        <time>2015-01-17T11:31:50Z</time>
      </trkpt>
      <trkpt lat="48.69471" lon="2.13358">
        <ele>119.34</ele>
        <time>2015-01-17T11:32:00Z</time>
      </trkpt>
      <trkpt lat="48.69471" lon="2.13355">
        <ele>119.34</ele>
        <time>2015-01-17T11:32:01Z</time>
      </trkpt>
      <trkpt lat="48.69473" lon="2.13333">
        <ele>118.86</ele>
        <time>2015-01-17T11:32:13Z</time>
      </trkpt>
      <trkpt lat="48.69473" lon="2.13332">
        <ele>118.86</ele>
        <time>2015-01-17T11:32:14Z</time>
      </trkpt>
      <trkpt lat="48.69473" lon="2.13311">
        <ele>118.38</ele>
        <time>2015-01-17T11:32:24Z</time>
      </trkpt>
      <trkpt lat="48.69473" lon="2.13289">
        <ele>117.9</ele>
        <time>2015-01-17T11:32:35Z</time>
      </trkpt>
      <trkpt lat="48.69474" lon="2.13286">
        <ele>117.9</ele>
        <time>2015-01-17T11:32:36Z</time>
      </trkpt>
      <trkpt lat="48.69482" lon="2.13273">
        <ele>115.98</ele>
        <time>2015-01-17T11:32:47Z</time>
      </trkpt>
      <trkpt lat="48.69486" lon="2.1327">
        <ele>115.5</ele>
        <time>2015-01-17T11:32:51Z</time>
      </trkpt>
      <trkpt lat="48.69486" lon="2.13266">
        <ele>115.01</ele>
        <time>2015-01-17T11:32:54Z</time>
      </trkpt>
      <trkpt lat="48.69491" lon="2.1326">
        <ele>114.05</ele>
        <time>2015-01-17T11:33:00Z</time>
      </trkpt>
      <trkpt lat="48.69493" lon="2.13258">
        <ele>114.05</ele>
        <time>2015-01-17T11:33:02Z</time>
      </trkpt>
      <trkpt lat="48.69497" lon="2.13244">
        <ele>112.61</ele>
        <time>2015-01-17T11:33:13Z</time>
      </trkpt>
      <trkpt lat="48.69499" lon="2.13234">
        <ele>113.09</ele>
        <time>2015-01-17T11:33:17Z</time>
      </trkpt>
      <trkpt lat="48.69503" lon="2.13218">
        <ele>113.09</ele>
        <time>2015-01-17T11:33:25Z</time>
      </trkpt>
      <trkpt lat="48.69512" lon="2.13203">
        <ele>113.09</ele>
        <time>2015-01-17T11:33:39Z</time>
      </trkpt>
      <trkpt lat="48.69518" lon="2.13185">
        <ele>113.09</ele>
        <time>2015-01-17T11:33:47Z</time>
      </trkpt>
      <trkpt lat="48.69517" lon="2.13178">
        <ele>113.09</ele>
        <time>2015-01-17T11:33:50Z</time>
      </trkpt>
      <trkpt lat="48.69514" lon="2.13161">
        <ele>114.05</ele>
        <time>2015-01-17T11:34:02Z</time>
      </trkpt>
      <trkpt lat="48.69513" lon="2.13155">
        <ele>114.53</ele>
        <time>2015-01-17T11:34:13Z</time>
      </trkpt>
      <trkpt lat="48.69512" lon="2.13141">
        <ele>115.98</ele>
        <time>2015-01-17T11:34:23Z</time>
      </trkpt>
      <trkpt lat="48.69511" lon="2.13127">
        <ele>116.46</ele>
        <time>2015-01-17T11:34:32Z</time>
      </trkpt>
      <trkpt lat="48.69513" lon="2.13118">
        <ele>116.46</ele>
        <time>2015-01-17T11:34:43Z</time>
      </trkpt>
      <trkpt lat="48.69512" lon="2.13112">
        <ele>115.98</ele>
        <time>2015-01-17T11:34:58Z</time>
      </trkpt>
      <trkpt lat="48.69502" lon="2.13104">
        <ele>115.98</ele>
        <time>2015-01-17T11:35:12Z</time>
      </trkpt>
      <trkpt lat="48.69502" lon="2.13101">
        <ele>115.5</ele>
        <time>2015-01-17T11:35:27Z</time>
      </trkpt>
      <trkpt lat="48.69502" lon="2.13101">
        <ele>115.5</ele>
        <time>2015-01-17T11:35:40Z</time>
      </trkpt>
      <trkpt lat="48.69505" lon="2.13101">
        <ele>113.57</ele>
        <time>2015-01-17T11:35:54Z</time>
      </trkpt>
      <trkpt lat="48.69508" lon="2.1309">
        <ele>113.09</ele>
        <time>2015-01-17T11:36:01Z</time>
      </trkpt>
      <trkpt lat="48.69508" lon="2.13088">
        <ele>112.61</ele>
        <time>2015-01-17T11:36:04Z</time>
      </trkpt>
      <trkpt lat="48.69509" lon="2.1308">
        <ele>111.65</ele>
        <time>2015-01-17T11:36:11Z</time>
      </trkpt>
      <trkpt lat="48.69511" lon="2.1307">
        <ele>109.73</ele>
        <time>2015-01-17T11:36:23Z</time>
      </trkpt>
      <trkpt lat="48.69526" lon="2.13068">
        <ele>108.29</ele>
        <time>2015-01-17T11:36:34Z</time>
      </trkpt>
      <trkpt lat="48.69533" lon="2.13069">
        <ele>106.84</ele>
        <time>2015-01-17T11:36:41Z</time>
      </trkpt>
      <trkpt lat="48.69534" lon="2.1307">
        <ele>106.84</ele>
        <time>2015-01-17T11:36:42Z</time>
      </trkpt>
      <trkpt lat="48.69542" lon="2.13069">
        <ele>106.36</ele>
        <time>2015-01-17T11:36:47Z</time>
      </trkpt>
      <trkpt lat="48.69559" lon="2.13064">
        <ele>104.44</ele>
        <time>2015-01-17T11:36:56Z</time>
      </trkpt>
      <trkpt lat="48.69564" lon="2.13063">
        <ele>104.44</ele>
        <time>2015-01-17T11:36:58Z</time>
      </trkpt>
      <trkpt lat="48.69571" lon="2.1306">
        <ele>103</ele>
        <time>2015-01-17T11:37:03Z</time>
      </trkpt>
      <trkpt lat="48.69578" lon="2.1306">
        <ele>102.04</ele>
        <time>2015-01-17T11:37:07Z</time>
      </trkpt>
      <trkpt lat="48.69587" lon="2.13059">
        <ele>101.08</ele>
        <time>2015-01-17T11:37:13Z</time>
      </trkpt>
      <trkpt lat="48.69593" lon="2.13056">
        <ele>99.63</ele>
        <time>2015-01-17T11:37:20Z</time>
      </trkpt>
      <trkpt lat="48.69596" lon="2.13056">
        <ele>99.15</ele>
        <time>2015-01-17T11:37:22Z</time>
      </trkpt>
      <trkpt lat="48.69611" lon="2.13056">
        <ele>96.27</ele>
        <time>2015-01-17T11:37:35Z</time>
      </trkpt>
      <trkpt lat="48.69615" lon="2.13056">
        <ele>95.31</ele>
        <time>2015-01-17T11:37:39Z</time>
      </trkpt>
      <trkpt lat="48.69621" lon="2.13055">
        <ele>93.87</ele>
        <time>2015-01-17T11:37:46Z</time>
      </trkpt>
      <trkpt lat="48.6963" lon="2.13052">
        <ele>92.42</ele>
        <time>2015-01-17T11:37:54Z</time>
      </trkpt>
      <trkpt lat="48.69632" lon="2.1305">
        <ele>91.94</ele>
        <time>2015-01-17T11:37:56Z</time>
      </trkpt>
      <trkpt lat="48.69636" lon="2.13024">
        <ele>92.9</ele>
        <time>2015-01-17T11:38:09Z</time>
      </trkpt>
      <trkpt lat="48.69635" lon="2.13007">
        <ele>93.39</ele>
        <time>2015-01-17T11:38:22Z</time>
      </trkpt>
      <trkpt lat="48.69634" lon="2.13003">
        <ele>93.87</ele>
        <time>2015-01-17T11:38:26Z</time>
      </trkpt>
      <trkpt lat="48.69631" lon="2.12997">
        <ele>93.87</ele>
        <time>2015-01-17T11:38:29Z</time>
      </trkpt>
      <trkpt lat="48.69625" lon="2.12986">
        <ele>94.35</ele>
        <time>2015-01-17T11:38:38Z</time>
      </trkpt>
      <trkpt lat="48.69619" lon="2.12968">
        <ele>95.31</ele>
        <time>2015-01-17T11:38:52Z</time>
      </trkpt>
      <trkpt lat="48.69609" lon="2.12955">
        <ele>95.79</ele>
        <time>2015-01-17T11:39:05Z</time>
      </trkpt>
      <trkpt lat="48.69598" lon="2.12957">
        <ele>96.27</ele>
        <time>2015-01-17T11:39:11Z</time>
      </trkpt>
      <trkpt lat="48.69593" lon="2.12958">
        <ele>96.27</ele>
        <time>2015-01-17T11:39:15Z</time>
      </trkpt>
      <trkpt lat="48.69587" lon="2.12962">
        <ele>96.75</ele>
        <time>2015-01-17T11:39:20Z</time>
      </trkpt>
      <trkpt lat="48.6958" lon="2.12966">
        <ele>98.19</ele>
        <time>2015-01-17T11:39:27Z</time>
      </trkpt>
      <trkpt lat="48.69575" lon="2.12977">
        <ele>100.11</ele>
        <time>2015-01-17T11:39:40Z</time>
      </trkpt>
      <trkpt lat="48.69581" lon="2.12983">
        <ele>100.11</ele>
        <time>2015-01-17T11:39:51Z</time>
      </trkpt>
      <trkpt lat="48.69583" lon="2.12978">
        <ele>100.11</ele>
        <time>2015-01-17T11:40:05Z</time>
      </trkpt>
      <trkpt lat="48.69585" lon="2.1297">
        <ele>100.11</ele>
        <time>2015-01-17T11:40:16Z</time>
      </trkpt>
      <trkpt lat="48.69589" lon="2.12969">
        <ele>98.67</ele>
        <time>2015-01-17T11:40:27Z</time>
      </trkpt>
      <trkpt lat="48.69591" lon="2.12966">
        <ele>99.15</ele>
        <time>2015-01-17T11:40:44Z</time>
      </trkpt>
      <trkpt lat="48.69591" lon="2.12965">
        <ele>98.67</ele>
        <time>2015-01-17T11:41:06Z</time>
      </trkpt>
      <trkpt lat="48.69592" lon="2.12964">
        <ele>98.67</ele>
        <time>2015-01-17T11:41:25Z</time>
      </trkpt>
      <trkpt lat="48.69593" lon="2.12965">
        <ele>98.67</ele>
        <time>2015-01-17T11:41:43Z</time>
      </trkpt>
      <trkpt lat="48.69593" lon="2.12965">
        <ele>98.67</ele>
        <time>2015-01-17T11:41:48Z</time>
      </trkpt>
      <trkpt lat="48.69593" lon="2.12966">
        <ele>98.67</ele>
        <time>2015-01-17T11:42:00Z</time>
      </trkpt>
      <trkpt lat="48.69593" lon="2.12966">
        <ele>99.15</ele>
        <time>2015-01-17T11:42:05Z</time>
      </trkpt>
      <trkpt lat="48.69593" lon="2.12966">
        <ele>99.15</ele>
        <time>2015-01-17T11:42:16Z</time>
      </trkpt>
      <trkpt lat="48.69592" lon="2.12966">
        <ele>99.15</ele>
        <time>2015-01-17T11:42:34Z</time>
      </trkpt>
      <trkpt lat="48.69589" lon="2.12966">
        <ele>99.15</ele>
        <time>2015-01-17T11:42:50Z</time>
      </trkpt>
      <trkpt lat="48.6959" lon="2.12969">
        <ele>99.15</ele>
        <time>2015-01-17T11:43:05Z</time>
      </trkpt>
      <trkpt lat="48.69589" lon="2.12975">
        <ele>98.19</ele>
        <time>2015-01-17T11:43:25Z</time>
      </trkpt>
      <trkpt lat="48.6959" lon="2.12977">
        <ele>98.19</ele>
        <time>2015-01-17T11:43:48Z</time>
      </trkpt>
      <trkpt lat="48.6959" lon="2.12977">
        <ele>97.71</ele>
        <time>2015-01-17T11:44:16Z</time>
      </trkpt>
      <trkpt lat="48.6959" lon="2.12978">
        <ele>97.71</ele>
        <time>2015-01-17T11:44:40Z</time>
      </trkpt>
      <trkpt lat="48.6959" lon="2.12978">
        <ele>97.71</ele>
        <time>2015-01-17T11:45:08Z</time>
      </trkpt>
      <trkpt lat="48.69595" lon="2.12972">
        <ele>97.71</ele>
        <time>2015-01-17T11:45:33Z</time>
      </trkpt>
      <trkpt lat="48.6959" lon="2.12963">
        <ele>97.23</ele>
        <time>2015-01-17T11:45:55Z</time>
      </trkpt>
      <trkpt lat="48.69594" lon="2.12961">
        <ele>97.23</ele>
        <time>2015-01-17T11:46:17Z</time>
      </trkpt>
      <trkpt lat="48.69595" lon="2.12959">
        <ele>97.23</ele>
        <time>2015-01-17T11:46:44Z</time>
      </trkpt>
      <trkpt lat="48.69595" lon="2.1296">
        <ele>96.75</ele>
        <time>2015-01-17T11:47:13Z</time>
      </trkpt>
      <trkpt lat="48.69594" lon="2.1296">
        <ele>96.75</ele>
        <time>2015-01-17T11:47:41Z</time>
      </trkpt>
      <trkpt lat="48.69594" lon="2.12959">
        <ele>96.75</ele>
        <time>2015-01-17T11:48:07Z</time>
      </trkpt>
      <trkpt lat="48.69593" lon="2.12959">
        <ele>96.75</ele>
        <time>2015-01-17T11:48:33Z</time>
      </trkpt>
      <trkpt lat="48.69595" lon="2.12957">
        <ele>96.27</ele>
        <time>2015-01-17T11:48:58Z</time>
      </trkpt>
      <trkpt lat="48.69597" lon="2.12958">
        <ele>96.75</ele>
        <time>2015-01-17T11:49:23Z</time>
      </trkpt>
      <trkpt lat="48.69599" lon="2.12958">
        <ele>96.75</ele>
        <time>2015-01-17T11:49:45Z</time>
      </trkpt>
      <trkpt lat="48.696" lon="2.12957">
        <ele>96.75</ele>
        <time>2015-01-17T11:50:09Z</time>
      </trkpt>
      <trkpt lat="48.69597" lon="2.12948">
        <ele>96.27</ele>
        <time>2015-01-17T11:50:35Z</time>
      </trkpt>
      <trkpt lat="48.69598" lon="2.12949">
        <ele>96.75</ele>
        <time>2015-01-17T11:50:43Z</time>
      </trkpt>
      <trkpt lat="48.69613" lon="2.12945">
        <ele>96.75</ele>
        <time>2015-01-17T11:51:05Z</time>
      </trkpt>
      <trkpt lat="48.69617" lon="2.12948">
        <ele>96.75</ele>
        <time>2015-01-17T11:51:29Z</time>
      </trkpt>
      <trkpt lat="48.69608" lon="2.12945">
        <ele>96.75</ele>
        <time>2015-01-17T11:51:53Z</time>
      </trkpt>
      <trkpt lat="48.69598" lon="2.12947">
        <ele>96.75</ele>
        <time>2015-01-17T11:52:21Z</time>
      </trkpt>
      <trkpt lat="48.69598" lon="2.12947">
        <ele>97.23</ele>
        <time>2015-01-17T11:52:50Z</time>
      </trkpt>
      <trkpt lat="48.69597" lon="2.1295">
        <ele>97.23</ele>
        <time>2015-01-17T11:53:23Z</time>
      </trkpt>
      <trkpt lat="48.69597" lon="2.1295">
        <ele>97.23</ele>
        <time>2015-01-17T11:53:50Z</time>
      </trkpt>
      <trkpt lat="48.69597" lon="2.12954">
        <ele>97.23</ele>
        <time>2015-01-17T11:54:20Z</time>
      </trkpt>
      <trkpt lat="48.69598" lon="2.12956">
        <ele>97.23</ele>
        <time>2015-01-17T11:54:47Z</time>
      </trkpt>
      <trkpt lat="48.69598" lon="2.12956">
        <ele>98.19</ele>
        <time>2015-01-17T11:55:16Z</time>
      </trkpt>
      <trkpt lat="48.69598" lon="2.12957">
        <ele>97.23</ele>
        <time>2015-01-17T11:55:42Z</time>
      </trkpt>
      <trkpt lat="48.69598" lon="2.12959">
        <ele>97.23</ele>
        <time>2015-01-17T11:56:11Z</time>
      </trkpt>
      <trkpt lat="48.69598" lon="2.1296">
        <ele>97.23</ele>
        <time>2015-01-17T11:56:38Z</time>
      </trkpt>
      <trkpt lat="48.69597" lon="2.12961">
        <ele>97.23</ele>
        <time>2015-01-17T11:57:04Z</time>
      </trkpt>
      <trkpt lat="48.69596" lon="2.1296">
        <ele>97.23</ele>
        <time>2015-01-17T11:57:29Z</time>
      </trkpt>
      <trkpt lat="48.69596" lon="2.12959">
        <ele>97.71</ele>
        <time>2015-01-17T11:58:00Z</time>
      </trkpt>
      <trkpt lat="48.69596" lon="2.12961">
        <ele>97.23</ele>
        <time>2015-01-17T11:58:29Z</time>
      </trkpt>
      <trkpt lat="48.69596" lon="2.1296">
        <ele>97.23</ele>
        <time>2015-01-17T11:59:01Z</time>
      </trkpt>
      <trkpt lat="48.69592" lon="2.1296">
        <ele>97.23</ele>
        <time>2015-01-17T11:59:27Z</time>
      </trkpt>
      <trkpt lat="48.69591" lon="2.12956">
        <ele>97.71</ele>
        <time>2015-01-17T11:59:50Z</time>
      </trkpt>
      <trkpt lat="48.69588" lon="2.1296">
        <ele>97.71</ele>
        <time>2015-01-17T12:00:15Z</time>
      </trkpt>
      <trkpt lat="48.69597" lon="2.12963">
        <ele>97.71</ele>
        <time>2015-01-17T12:00:40Z</time>
      </trkpt>
      <trkpt lat="48.69597" lon="2.12962">
        <ele>97.71</ele>
        <time>2015-01-17T12:01:04Z</time>
      </trkpt>
      <trkpt lat="48.69588" lon="2.12957">
        <ele>97.23</ele>
        <time>2015-01-17T12:01:28Z</time>
      </trkpt>
      <trkpt lat="48.6959" lon="2.12962">
        <ele>97.23</ele>
        <time>2015-01-17T12:01:49Z</time>
      </trkpt>
      <trkpt lat="48.69592" lon="2.12966">
        <ele>97.23</ele>
        <time>2015-01-17T12:02:09Z</time>
      </trkpt>
      <trkpt lat="48.69597" lon="2.12976">
        <ele>97.23</ele>
        <time>2015-01-17T12:02:30Z</time>
      </trkpt>
      <trkpt lat="48.69594" lon="2.12982">
        <ele>97.71</ele>
        <time>2015-01-17T12:02:52Z</time>
      </trkpt>
      <trkpt lat="48.69591" lon="2.12958">
        <ele>97.23</ele>
        <time>2015-01-17T12:03:20Z</time>
      </trkpt>
      <trkpt lat="48.6959" lon="2.12953">
        <ele>97.23</ele>
        <time>2015-01-17T12:03:44Z</time>
      </trkpt>
      <trkpt lat="48.69593" lon="2.12955">
        <ele>97.23</ele>
        <time>2015-01-17T12:04:12Z</time>
      </trkpt>
      <trkpt lat="48.69596" lon="2.12959">
        <ele>96.75</ele>
        <time>2015-01-17T12:04:38Z</time>
      </trkpt>
      <trkpt lat="48.69595" lon="2.12957">
        <ele>96.75</ele>
        <time>2015-01-17T12:05:07Z</time>
      </trkpt>
      <trkpt lat="48.69595" lon="2.12957">
        <ele>97.23</ele>
        <time>2015-01-17T12:05:39Z</time>
      </trkpt>
      <trkpt lat="48.69595" lon="2.12958">
        <ele>96.75</ele>
        <time>2015-01-17T12:06:07Z</time>
      </trkpt>
      <trkpt lat="48.69595" lon="2.12957">
        <ele>96.75</ele>
        <time>2015-01-17T12:06:34Z</time>
      </trkpt>
      <trkpt lat="48.69597" lon="2.12972">
        <ele>96.75</ele>
        <time>2015-01-17T12:07:00Z</time>
      </trkpt>
      <trkpt lat="48.69596" lon="2.12965">
        <ele>96.75</ele>
        <time>2015-01-17T12:07:27Z</time>
      </trkpt>
      <trkpt lat="48.69597" lon="2.12965">
        <ele>96.75</ele>
        <time>2015-01-17T12:07:52Z</time>
      </trkpt>
      <trkpt lat="48.69594" lon="2.12964">
        <ele>96.75</ele>
        <time>2015-01-17T12:08:18Z</time>
      </trkpt>
      <trkpt lat="48.69597" lon="2.12958">
        <ele>96.75</ele>
        <time>2015-01-17T12:08:46Z</time>
      </trkpt>
      <trkpt lat="48.69601" lon="2.12959">
        <ele>97.23</ele>
        <time>2015-01-17T12:09:12Z</time>
      </trkpt>
      <trkpt lat="48.69603" lon="2.12952">
        <ele>96.75</ele>
        <time>2015-01-17T12:09:37Z</time>
      </trkpt>
      <trkpt lat="48.69604" lon="2.12948">
        <ele>97.23</ele>
        <time>2015-01-17T12:10:02Z</time>
      </trkpt>
      <trkpt lat="48.69603" lon="2.12948">
        <ele>97.23</ele>
        <time>2015-01-17T12:10:24Z</time>
      </trkpt>
      <trkpt lat="48.69604" lon="2.12948">
        <ele>97.23</ele>
        <time>2015-01-17T12:10:48Z</time>
      </trkpt>
      <trkpt lat="48.69605" lon="2.12948">
        <ele>97.23</ele>
        <time>2015-01-17T12:11:16Z</time>
      </trkpt>
      <trkpt lat="48.69606" lon="2.12952">
        <ele>97.23</ele>
        <time>2015-01-17T12:11:47Z</time>
      </trkpt>
      <trkpt lat="48.69607" lon="2.12952">
        <ele>97.23</ele>
        <time>2015-01-17T12:12:15Z</time>
      </trkpt>
      <trkpt lat="48.69605" lon="2.12951">
        <ele>97.23</ele>
        <time>2015-01-17T12:12:48Z</time>
      </trkpt>
      <trkpt lat="48.69611" lon="2.12956">
        <ele>97.23</ele>
        <time>2015-01-17T12:13:25Z</time>
      </trkpt>
      <trkpt lat="48.69612" lon="2.12958">
        <ele>96.75</ele>
        <time>2015-01-17T12:13:54Z</time>
      </trkpt>
      <trkpt lat="48.69605" lon="2.12959">
        <ele>96.75</ele>
        <time>2015-01-17T12:14:20Z</time>
      </trkpt>
      <trkpt lat="48.69606" lon="2.1296">
        <ele>96.75</ele>
        <time>2015-01-17T12:14:56Z</time>
      </trkpt>
      <trkpt lat="48.69608" lon="2.12964">
        <ele>97.23</ele>
        <time>2015-01-17T12:15:19Z</time>
      </trkpt>
      <trkpt lat="48.6961" lon="2.12967">
        <ele>97.23</ele>
        <time>2015-01-17T12:15:47Z</time>
      </trkpt>
      <trkpt lat="48.69609" lon="2.12965">
        <ele>97.23</ele>
        <time>2015-01-17T12:16:24Z</time>
      </trkpt>
      <trkpt lat="48.69608" lon="2.12964">
        <ele>97.23</ele>
        <time>2015-01-17T12:17:01Z</time>
      </trkpt>
      <trkpt lat="48.69608" lon="2.12963">
        <ele>97.71</ele>
        <time>2015-01-17T12:17:30Z</time>
      </trkpt>
      <trkpt lat="48.69608" lon="2.1297">
        <ele>97.71</ele>
        <time>2015-01-17T12:17:54Z</time>
      </trkpt>
      <trkpt lat="48.69604" lon="2.12964">
        <ele>97.71</ele>
        <time>2015-01-17T12:18:24Z</time>
      </trkpt>
      <trkpt lat="48.69603" lon="2.1296">
        <ele>97.71</ele>
        <time>2015-01-17T12:18:55Z</time>
      </trkpt>
      <trkpt lat="48.69605" lon="2.12961">
        <ele>97.71</ele>
        <time>2015-01-17T12:19:31Z</time>
      </trkpt>
      <trkpt lat="48.69605" lon="2.12962">
        <ele>97.71</ele>
        <time>2015-01-17T12:20:07Z</time>
      </trkpt>
      <trkpt lat="48.69605" lon="2.1296">
        <ele>97.71</ele>
        <time>2015-01-17T12:20:42Z</time>
      </trkpt>
      <trkpt lat="48.69605" lon="2.1296">
        <ele>97.71</ele>
        <time>2015-01-17T12:21:13Z</time>
      </trkpt>
      <trkpt lat="48.69616" lon="2.12965">
        <ele>97.71</ele>
        <time>2015-01-17T12:21:46Z</time>
      </trkpt>
      <trkpt lat="48.69616" lon="2.12972">
        <ele>97.71</ele>
        <time>2015-01-17T12:22:13Z</time>
      </trkpt>
      <trkpt lat="48.69603" lon="2.12959">
        <ele>97.71</ele>
        <time>2015-01-17T12:22:44Z</time>
      </trkpt>
      <trkpt lat="48.69598" lon="2.12965">
        <ele>97.71</ele>
        <time>2015-01-17T12:23:15Z</time>
      </trkpt>
      <trkpt lat="48.69598" lon="2.12965">
        <ele>97.71</ele>
        <time>2015-01-17T12:23:41Z</time>
      </trkpt>
      <trkpt lat="48.69599" lon="2.12968">
        <ele>97.71</ele>
        <time>2015-01-17T12:24:11Z</time>
      </trkpt>
      <trkpt lat="48.69597" lon="2.12975">
        <ele>97.71</ele>
        <time>2015-01-17T12:24:29Z</time>
      </trkpt>
      <trkpt lat="48.69594" lon="2.12964">
        <ele>98.19</ele>
        <time>2015-01-17T12:24:56Z</time>
      </trkpt>
      <trkpt lat="48.69595" lon="2.12953">
        <ele>98.19</ele>
        <time>2015-01-17T12:25:23Z</time>
      </trkpt>
      <trkpt lat="48.69604" lon="2.12955">
        <ele>97.71</ele>
        <time>2015-01-17T12:25:50Z</time>
      </trkpt>
      <trkpt lat="48.69605" lon="2.12957">
        <ele>97.71</ele>
        <time>2015-01-17T12:26:12Z</time>
      </trkpt>
      <trkpt lat="48.69605" lon="2.12955">
        <ele>97.23</ele>
        <time>2015-01-17T12:26:38Z</time>
      </trkpt>
      <trkpt lat="48.69607" lon="2.12955">
        <ele>97.23</ele>
        <time>2015-01-17T12:27:00Z</time>
      </trkpt>
      <trkpt lat="48.69606" lon="2.12956">
        <ele>97.23</ele>
        <time>2015-01-17T12:27:23Z</time>
      </trkpt>
      <trkpt lat="48.69606" lon="2.12957">
        <ele>96.75</ele>
        <time>2015-01-17T12:27:49Z</time>
      </trkpt>
      <trkpt lat="48.69607" lon="2.12965">
        <ele>97.23</ele>
        <time>2015-01-17T12:28:12Z</time>
      </trkpt>
      <trkpt lat="48.69607" lon="2.12967">
        <ele>97.23</ele>
        <time>2015-01-17T12:28:40Z</time>
      </trkpt>
      <trkpt lat="48.69608" lon="2.12966">
        <ele>97.23</ele>
        <time>2015-01-17T12:29:14Z</time>
      </trkpt>
      <trkpt lat="48.69608" lon="2.12964">
        <ele>97.23</ele>
        <time>2015-01-17T12:29:39Z</time>
      </trkpt>
      <trkpt lat="48.6961" lon="2.12965">
        <ele>97.23</ele>
        <time>2015-01-17T12:30:04Z</time>
      </trkpt>
      <trkpt lat="48.69612" lon="2.12971">
        <ele>97.23</ele>
        <time>2015-01-17T12:30:28Z</time>
      </trkpt>
      <trkpt lat="48.6961" lon="2.12975">
        <ele>97.23</ele>
        <time>2015-01-17T12:30:50Z</time>
      </trkpt>
      <trkpt lat="48.69608" lon="2.12965">
        <ele>97.23</ele>
        <time>2015-01-17T12:31:19Z</time>
      </trkpt>
      <trkpt lat="48.69609" lon="2.12965">
        <ele>97.23</ele>
        <time>2015-01-17T12:31:44Z</time>
      </trkpt>
      <trkpt lat="48.69607" lon="2.12964">
        <ele>97.71</ele>
        <time>2015-01-17T12:32:18Z</time>
      </trkpt>
      <trkpt lat="48.69606" lon="2.12962">
        <ele>97.71</ele>
        <time>2015-01-17T12:32:48Z</time>
      </trkpt>
      <trkpt lat="48.69606" lon="2.12961">
        <ele>97.71</ele>
        <time>2015-01-17T12:33:13Z</time>
      </trkpt>
      <trkpt lat="48.69606" lon="2.12961">
        <ele>98.19</ele>
        <time>2015-01-17T12:33:36Z</time>
      </trkpt>
      <trkpt lat="48.69606" lon="2.12961">
        <ele>98.19</ele>
        <time>2015-01-17T12:34:00Z</time>
      </trkpt>
      <trkpt lat="48.69606" lon="2.12961">
        <ele>98.19</ele>
        <time>2015-01-17T12:34:21Z</time>
      </trkpt>
      <trkpt lat="48.69605" lon="2.1296">
        <ele>97.71</ele>
        <time>2015-01-17T12:34:39Z</time>
      </trkpt>
      <trkpt lat="48.69594" lon="2.12949">
        <ele>98.19</ele>
        <time>2015-01-17T12:35:01Z</time>
      </trkpt>
      <trkpt lat="48.69594" lon="2.1295">
        <ele>98.19</ele>
        <time>2015-01-17T12:35:26Z</time>
      </trkpt>
      <trkpt lat="48.69593" lon="2.1295">
        <ele>97.71</ele>
        <time>2015-01-17T12:35:53Z</time>
      </trkpt>
      <trkpt lat="48.69593" lon="2.12951">
        <ele>98.19</ele>
        <time>2015-01-17T12:36:19Z</time>
      </trkpt>
      <trkpt lat="48.69593" lon="2.12951">
        <ele>98.19</ele>
        <time>2015-01-17T12:36:45Z</time>
      </trkpt>
      <trkpt lat="48.69593" lon="2.12949">
        <ele>98.19</ele>
        <time>2015-01-17T12:37:13Z</time>
      </trkpt>
      <trkpt lat="48.69593" lon="2.12946">
        <ele>98.67</ele>
        <time>2015-01-17T12:37:39Z</time>
      </trkpt>
      <trkpt lat="48.69592" lon="2.12945">
        <ele>98.19</ele>
        <time>2015-01-17T12:38:07Z</time>
      </trkpt>
      <trkpt lat="48.69593" lon="2.12947">
        <ele>98.67</ele>
        <time>2015-01-17T12:38:33Z</time>
      </trkpt>
      <trkpt lat="48.69594" lon="2.12949">
        <ele>98.67</ele>
        <time>2015-01-17T12:38:55Z</time>
      </trkpt>
      <trkpt lat="48.69596" lon="2.12953">
        <ele>98.19</ele>
        <time>2015-01-17T12:39:20Z</time>
      </trkpt>
      <trkpt lat="48.69597" lon="2.12953">
        <ele>98.67</ele>
        <time>2015-01-17T12:39:49Z</time>
      </trkpt>
      <trkpt lat="48.69597" lon="2.12953">
        <ele>98.67</ele>
        <time>2015-01-17T12:40:20Z</time>
      </trkpt>
      <trkpt lat="48.69598" lon="2.12954">
        <ele>98.19</ele>
        <time>2015-01-17T12:40:47Z</time>
      </trkpt>
      <trkpt lat="48.69605" lon="2.12956">
        <ele>98.19</ele>
        <time>2015-01-17T12:41:08Z</time>
      </trkpt>
      <trkpt lat="48.69608" lon="2.12958">
        <ele>98.67</ele>
        <time>2015-01-17T12:41:33Z</time>
      </trkpt>
      <trkpt lat="48.69605" lon="2.12953">
        <ele>98.67</ele>
        <time>2015-01-17T12:42:00Z</time>
      </trkpt>
      <trkpt lat="48.69601" lon="2.12957">
        <ele>98.67</ele>
        <time>2015-01-17T12:42:26Z</time>
      </trkpt>
      <trkpt lat="48.69599" lon="2.12959">
        <ele>98.67</ele>
        <time>2015-01-17T12:42:54Z</time>
      </trkpt>
      <trkpt lat="48.69599" lon="2.12957">
        <ele>98.19</ele>
        <time>2015-01-17T12:43:23Z</time>
      </trkpt>
      <trkpt lat="48.69602" lon="2.12955">
        <ele>98.67</ele>
        <time>2015-01-17T12:43:50Z</time>
      </trkpt>
      <trkpt lat="48.69602" lon="2.12955">
        <ele>98.19</ele>
        <time>2015-01-17T12:44:16Z</time>
      </trkpt>
      <trkpt lat="48.69601" lon="2.12955">
        <ele>98.67</ele>
        <time>2015-01-17T12:44:48Z</time>
      </trkpt>
      <trkpt lat="48.69601" lon="2.12955">
        <ele>98.67</ele>
        <time>2015-01-17T12:45:15Z</time>
      </trkpt>
      <trkpt lat="48.69601" lon="2.12956">
        <ele>98.67</ele>
        <time>2015-01-17T12:45:45Z</time>
      </trkpt>
      <trkpt lat="48.69601" lon="2.12955">
        <ele>98.19</ele>
        <time>2015-01-17T12:46:10Z</time>
      </trkpt>
      <trkpt lat="48.69602" lon="2.12955">
        <ele>98.19</ele>
        <time>2015-01-17T12:46:35Z</time>
      </trkpt>
      <trkpt lat="48.69604" lon="2.12958">
        <ele>98.67</ele>
        <time>2015-01-17T12:46:59Z</time>
      </trkpt>
      <trkpt lat="48.69604" lon="2.12955">
        <ele>98.67</ele>
        <time>2015-01-17T12:47:23Z</time>
      </trkpt>
      <trkpt lat="48.69603" lon="2.12954">
        <ele>98.19</ele>
        <time>2015-01-17T12:47:51Z</time>
      </trkpt>
      <trkpt lat="48.69602" lon="2.12953">
        <ele>98.19</ele>
        <time>2015-01-17T12:48:15Z</time>
      </trkpt>
      <trkpt lat="48.69597" lon="2.12952">
        <ele>98.19</ele>
        <time>2015-01-17T12:48:36Z</time>
      </trkpt>
      <trkpt lat="48.696" lon="2.12957">
        <ele>98.19</ele>
        <time>2015-01-17T12:49:00Z</time>
      </trkpt>
      <trkpt lat="48.696" lon="2.12955">
        <ele>97.71</ele>
        <time>2015-01-17T12:49:24Z</time>
      </trkpt>
      <trkpt lat="48.696" lon="2.12953">
        <ele>97.71</ele>
        <time>2015-01-17T12:49:40Z</time>
      </trkpt>
      <trkpt lat="48.69577" lon="2.12941">
        <ele>97.71</ele>
        <time>2015-01-17T12:50:06Z</time>
      </trkpt>
      <trkpt lat="48.6959" lon="2.1295">
        <ele>97.23</ele>
        <time>2015-01-17T12:50:35Z</time>
      </trkpt>
      <trkpt lat="48.69591" lon="2.12952">
        <ele>97.71</ele>
        <time>2015-01-17T12:51:02Z</time>
      </trkpt>
      <trkpt lat="48.69594" lon="2.12952">
        <ele>97.23</ele>
        <time>2015-01-17T12:51:28Z</time>
      </trkpt>
      <trkpt lat="48.69596" lon="2.12954">
        <ele>96.75</ele>
        <time>2015-01-17T12:51:58Z</time>
      </trkpt>
      <trkpt lat="48.69596" lon="2.12954">
        <ele>96.75</ele>
        <time>2015-01-17T12:52:26Z</time>
      </trkpt>
      <trkpt lat="48.69594" lon="2.12952">
        <ele>96.75</ele>
        <time>2015-01-17T12:52:46Z</time>
      </trkpt>
      <trkpt lat="48.69594" lon="2.12951">
        <ele>97.23</ele>
        <time>2015-01-17T12:53:16Z</time>
      </trkpt>
      <trkpt lat="48.6959" lon="2.12949">
        <ele>97.23</ele>
        <time>2015-01-17T12:53:43Z</time>
      </trkpt>
      <trkpt lat="48.6959" lon="2.12949">
        <ele>97.23</ele>
        <time>2015-01-17T12:54:17Z</time>
      </trkpt>
      <trkpt lat="48.6959" lon="2.12949">
        <ele>97.23</ele>
        <time>2015-01-17T12:54:45Z</time>
      </trkpt>
      <trkpt lat="48.6959" lon="2.12952">
        <ele>97.23</ele>
        <time>2015-01-17T12:55:17Z</time>
      </trkpt>
      <trkpt lat="48.6959" lon="2.12955">
        <ele>97.23</ele>
        <time>2015-01-17T12:55:50Z</time>
      </trkpt>
      <trkpt lat="48.6959" lon="2.12954">
        <ele>97.23</ele>
        <time>2015-01-17T12:56:20Z</time>
      </trkpt>
      <trkpt lat="48.6959" lon="2.12952">
        <ele>97.23</ele>
        <time>2015-01-17T12:57:01Z</time>
      </trkpt>
      <trkpt lat="48.6959" lon="2.12952">
        <ele>97.23</ele>
        <time>2015-01-17T12:57:31Z</time>
      </trkpt>
      <trkpt lat="48.6959" lon="2.12952">
        <ele>97.23</ele>
        <time>2015-01-17T12:58:00Z</time>
      </trkpt>
      <trkpt lat="48.6959" lon="2.12952">
        <ele>97.23</ele>
        <time>2015-01-17T12:58:29Z</time>
      </trkpt>
      <trkpt lat="48.69591" lon="2.12952">
        <ele>97.23</ele>
        <time>2015-01-17T12:58:55Z</time>
      </trkpt>
      <trkpt lat="48.69591" lon="2.12951">
        <ele>97.23</ele>
        <time>2015-01-17T12:59:27Z</time>
      </trkpt>
      <trkpt lat="48.69591" lon="2.12952">
        <ele>97.23</ele>
        <time>2015-01-17T12:59:58Z</time>
      </trkpt>
      <trkpt lat="48.69591" lon="2.12952">
        <ele>96.75</ele>
        <time>2015-01-17T13:00:31Z</time>
      </trkpt>
      <trkpt lat="48.6959" lon="2.12951">
        <ele>96.75</ele>
        <time>2015-01-17T13:00:56Z</time>
      </trkpt>
      <trkpt lat="48.6959" lon="2.12952">
        <ele>96.75</ele>
        <time>2015-01-17T13:01:20Z</time>
      </trkpt>
      <trkpt lat="48.69591" lon="2.12953">
        <ele>96.75</ele>
        <time>2015-01-17T13:01:46Z</time>
      </trkpt>
      <trkpt lat="48.69592" lon="2.12954">
        <ele>96.75</ele>
        <time>2015-01-17T13:02:16Z</time>
      </trkpt>
      <trkpt lat="48.69594" lon="2.12953">
        <ele>96.75</ele>
        <time>2015-01-17T13:02:52Z</time>
      </trkpt>
      <trkpt lat="48.69594" lon="2.12954">
        <ele>96.27</ele>
        <time>2015-01-17T13:03:30Z</time>
      </trkpt>
      <trkpt lat="48.69595" lon="2.12954">
        <ele>96.27</ele>
        <time>2015-01-17T13:04:01Z</time>
      </trkpt>
      <trkpt lat="48.69595" lon="2.12955">
        <ele>96.27</ele>
        <time>2015-01-17T13:04:31Z</time>
      </trkpt>
      <trkpt lat="48.69596" lon="2.12956">
        <ele>96.27</ele>
        <time>2015-01-17T13:05:01Z</time>
      </trkpt>
      <trkpt lat="48.69597" lon="2.12955">
        <ele>96.27</ele>
        <time>2015-01-17T13:05:24Z</time>
      </trkpt>
      <trkpt lat="48.69596" lon="2.12959">
        <ele>96.27</ele>
        <time>2015-01-17T13:05:59Z</time>
      </trkpt>
      <trkpt lat="48.69597" lon="2.1296">
        <ele>96.27</ele>
        <time>2015-01-17T13:06:29Z</time>
      </trkpt>
      <trkpt lat="48.69597" lon="2.12961">
        <ele>96.27</ele>
        <time>2015-01-17T13:07:00Z</time>
      </trkpt>
      <trkpt lat="48.69598" lon="2.12963">
        <ele>96.27</ele>
        <time>2015-01-17T13:07:25Z</time>
      </trkpt>
      <trkpt lat="48.69598" lon="2.12964">
        <ele>96.27</ele>
        <time>2015-01-17T13:07:55Z</time>
      </trkpt>
      <trkpt lat="48.69598" lon="2.12966">
        <ele>95.79</ele>
        <time>2015-01-17T13:08:18Z</time>
      </trkpt>
      <trkpt lat="48.69599" lon="2.12967">
        <ele>95.79</ele>
        <time>2015-01-17T13:08:46Z</time>
      </trkpt>
      <trkpt lat="48.696" lon="2.12968">
        <ele>95.79</ele>
        <time>2015-01-17T13:09:13Z</time>
      </trkpt>
      <trkpt lat="48.69601" lon="2.12968">
        <ele>95.79</ele>
        <time>2015-01-17T13:09:42Z</time>
      </trkpt>
      <trkpt lat="48.69602" lon="2.12967">
        <ele>95.79</ele>
        <time>2015-01-17T13:10:12Z</time>
      </trkpt>
      <trkpt lat="48.69603" lon="2.12967">
        <ele>95.79</ele>
        <time>2015-01-17T13:10:43Z</time>
      </trkpt>
      <trkpt lat="48.69603" lon="2.12966">
        <ele>95.31</ele>
        <time>2015-01-17T13:11:19Z</time>
      </trkpt>
      <trkpt lat="48.69604" lon="2.12966">
        <ele>95.31</ele>
        <time>2015-01-17T13:11:52Z</time>
      </trkpt>
      <trkpt lat="48.69603" lon="2.12965">
        <ele>95.31</ele>
        <time>2015-01-17T13:12:30Z</time>
      </trkpt>
      <trkpt lat="48.69603" lon="2.12965">
        <ele>95.31</ele>
        <time>2015-01-17T13:13:04Z</time>
      </trkpt>
      <trkpt lat="48.69602" lon="2.12965">
        <ele>95.31</ele>
        <time>2015-01-17T13:13:44Z</time>
      </trkpt>
      <trkpt lat="48.69602" lon="2.12965">
        <ele>94.83</ele>
        <time>2015-01-17T13:14:26Z</time>
      </trkpt>
      <trkpt lat="48.69602" lon="2.12965">
        <ele>94.83</ele>
        <time>2015-01-17T13:15:02Z</time>
      </trkpt>
      <trkpt lat="48.69601" lon="2.12964">
        <ele>94.83</ele>
        <time>2015-01-17T13:15:34Z</time>
      </trkpt>
      <trkpt lat="48.69601" lon="2.12964">
        <ele>94.83</ele>
        <time>2015-01-17T13:16:04Z</time>
      </trkpt>
      <trkpt lat="48.69601" lon="2.12964">
        <ele>94.83</ele>
        <time>2015-01-17T13:16:30Z</time>
      </trkpt>
      <trkpt lat="48.69602" lon="2.12964">
        <ele>94.83</ele>
        <time>2015-01-17T13:16:56Z</time>
      </trkpt>
      <trkpt lat="48.69602" lon="2.12964">
        <ele>94.83</ele>
        <time>2015-01-17T13:17:23Z</time>
      </trkpt>
      <trkpt lat="48.69602" lon="2.12963">
        <ele>94.35</ele>
        <time>2015-01-17T13:17:52Z</time>
      </trkpt>
      <trkpt lat="48.69602" lon="2.12963">
        <ele>94.35</ele>
        <time>2015-01-17T13:18:25Z</time>
      </trkpt>
      <trkpt lat="48.69602" lon="2.12963">
        <ele>94.35</ele>
        <time>2015-01-17T13:18:49Z</time>
      </trkpt>
      <trkpt lat="48.69602" lon="2.12961">
        <ele>94.35</ele>
        <time>2015-01-17T13:19:19Z</time>
      </trkpt>
      <trkpt lat="48.69601" lon="2.12961">
        <ele>94.35</ele>
        <time>2015-01-17T13:19:46Z</time>
      </trkpt>
      <trkpt lat="48.696" lon="2.1296">
        <ele>94.35</ele>
        <time>2015-01-17T13:20:09Z</time>
      </trkpt>
      <trkpt lat="48.696" lon="2.12961">
        <ele>94.35</ele>
        <time>2015-01-17T13:20:32Z</time>
      </trkpt>
      <trkpt lat="48.696" lon="2.12963">
        <ele>94.35</ele>
        <time>2015-01-17T13:20:56Z</time>
      </trkpt>
      <trkpt lat="48.69599" lon="2.12962">
        <ele>93.87</ele>
        <time>2015-01-17T13:21:18Z</time>
      </trkpt>
      <trkpt lat="48.69599" lon="2.12962">
        <ele>93.39</ele>
        <time>2015-01-17T13:21:44Z</time>
      </trkpt>
      <trkpt lat="48.69601" lon="2.12961">
        <ele>93.39</ele>
        <time>2015-01-17T13:22:16Z</time>
      </trkpt>
      <trkpt lat="48.696" lon="2.12963">
        <ele>93.39</ele>
        <time>2015-01-17T13:22:39Z</time>
      </trkpt>
      <trkpt lat="48.69598" lon="2.12964">
        <ele>93.39</ele>
        <time>2015-01-17T13:23:02Z</time>
      </trkpt>
      <trkpt lat="48.69599" lon="2.12961">
        <ele>92.9</ele>
        <time>2015-01-17T13:23:28Z</time>
      </trkpt>
      <trkpt lat="48.69598" lon="2.12963">
        <ele>92.9</ele>
        <time>2015-01-17T13:23:51Z</time>
      </trkpt>
      <trkpt lat="48.69598" lon="2.12964">
        <ele>92.9</ele>
        <time>2015-01-17T13:24:20Z</time>
      </trkpt>
      <trkpt lat="48.69598" lon="2.12963">
        <ele>92.42</ele>
        <time>2015-01-17T13:24:45Z</time>
      </trkpt>
      <trkpt lat="48.69598" lon="2.12963">
        <ele>92.42</ele>
        <time>2015-01-17T13:25:11Z</time>
      </trkpt>
      <trkpt lat="48.69597" lon="2.12962">
        <ele>92.42</ele>
        <time>2015-01-17T13:25:41Z</time>
      </trkpt>
      <trkpt lat="48.69596" lon="2.12961">
        <ele>91.94</ele>
        <time>2015-01-17T13:26:05Z</time>
      </trkpt>
      <trkpt lat="48.69596" lon="2.12961">
        <ele>91.94</ele>
        <time>2015-01-17T13:26:32Z</time>
      </trkpt>
      <trkpt lat="48.69595" lon="2.12959">
        <ele>91.94</ele>
        <time>2015-01-17T13:27:02Z</time>
      </trkpt>
      <trkpt lat="48.69594" lon="2.12957">
        <ele>91.94</ele>
        <time>2015-01-17T13:27:31Z</time>
      </trkpt>
      <trkpt lat="48.69594" lon="2.12958">
        <ele>91.94</ele>
        <time>2015-01-17T13:27:54Z</time>
      </trkpt>
      <trkpt lat="48.69593" lon="2.12958">
        <ele>91.46</ele>
        <time>2015-01-17T13:28:18Z</time>
      </trkpt>
      <trkpt lat="48.69593" lon="2.12958">
        <ele>91.46</ele>
        <time>2015-01-17T13:28:45Z</time>
      </trkpt>
      <trkpt lat="48.69593" lon="2.12958">
        <ele>90.98</ele>
        <time>2015-01-17T13:29:11Z</time>
      </trkpt>
      <trkpt lat="48.69593" lon="2.12958">
        <ele>91.94</ele>
        <time>2015-01-17T13:29:37Z</time>
      </trkpt>
      <trkpt lat="48.69593" lon="2.12959">
        <ele>90.98</ele>
        <time>2015-01-17T13:30:04Z</time>
      </trkpt>
      <trkpt lat="48.69594" lon="2.12959">
        <ele>90.5</ele>
        <time>2015-01-17T13:30:31Z</time>
      </trkpt>
      <trkpt lat="48.69593" lon="2.1296">
        <ele>90.98</ele>
        <time>2015-01-17T13:31:03Z</time>
      </trkpt>
      <trkpt lat="48.69587" lon="2.12959">
        <ele>90.5</ele>
        <time>2015-01-17T13:31:21Z</time>
      </trkpt>
      <trkpt lat="48.69586" lon="2.1296">
        <ele>90.98</ele>
        <time>2015-01-17T13:31:24Z</time>
      </trkpt>
      <trkpt lat="48.69588" lon="2.12964">
        <ele>90.5</ele>
        <time>2015-01-17T13:31:34Z</time>
      </trkpt>
      <trkpt lat="48.6959" lon="2.12967">
        <ele>90.02</ele>
        <time>2015-01-17T13:32:02Z</time>
      </trkpt>
      <trkpt lat="48.6959" lon="2.12967">
        <ele>90.02</ele>
        <time>2015-01-17T13:32:26Z</time>
      </trkpt>
      <trkpt lat="48.6959" lon="2.12968">
        <ele>89.54</ele>
        <time>2015-01-17T13:32:43Z</time>
      </trkpt>
      <trkpt lat="48.6959" lon="2.12969">
        <ele>89.54</ele>
        <time>2015-01-17T13:33:10Z</time>
      </trkpt>
      <trkpt lat="48.69588" lon="2.12968">
        <ele>89.54</ele>
        <time>2015-01-17T13:33:42Z</time>
      </trkpt>
      <trkpt lat="48.69589" lon="2.12966">
        <ele>89.54</ele>
        <time>2015-01-17T13:34:11Z</time>
      </trkpt>
      <trkpt lat="48.6959" lon="2.12967">
        <ele>90.02</ele>
        <time>2015-01-17T13:34:38Z</time>
      </trkpt>
      <trkpt lat="48.69589" lon="2.12966">
        <ele>90.5</ele>
        <time>2015-01-17T13:34:47Z</time>
      </trkpt>
      <trkpt lat="48.69588" lon="2.12966">
        <ele>90.5</ele>
        <time>2015-01-17T13:35:06Z</time>
      </trkpt>
      <trkpt lat="48.69588" lon="2.12965">
        <ele>90.5</ele>
        <time>2015-01-17T13:35:16Z</time>
      </trkpt>
      <trkpt lat="48.69587" lon="2.12964">
        <ele>90.5</ele>
        <time>2015-01-17T13:35:34Z</time>
      </trkpt>
      <trkpt lat="48.69587" lon="2.12965">
        <ele>90.5</ele>
        <time>2015-01-17T13:35:44Z</time>
      </trkpt>
      <trkpt lat="48.69588" lon="2.12965">
        <ele>90.02</ele>
        <time>2015-01-17T13:35:59Z</time>
      </trkpt>
      <trkpt lat="48.69588" lon="2.12965">
        <ele>90.02</ele>
        <time>2015-01-17T13:36:13Z</time>
      </trkpt>
      <trkpt lat="48.69587" lon="2.12965">
        <ele>90.02</ele>
        <time>2015-01-17T13:36:22Z</time>
      </trkpt>
      <trkpt lat="48.69587" lon="2.12965">
        <ele>90.02</ele>
        <time>2015-01-17T13:36:35Z</time>
      </trkpt>
      <trkpt lat="48.69587" lon="2.12965">
        <ele>90.02</ele>
        <time>2015-01-17T13:36:51Z</time>
      </trkpt>
      <trkpt lat="48.69586" lon="2.12965">
        <ele>90.02</ele>
        <time>2015-01-17T13:37:04Z</time>
      </trkpt>
      <trkpt lat="48.69586" lon="2.12965">
        <ele>90.02</ele>
        <time>2015-01-17T13:37:22Z</time>
      </trkpt>
      <trkpt lat="48.69586" lon="2.12966">
        <ele>90.02</ele>
        <time>2015-01-17T13:37:35Z</time>
      </trkpt>
      <trkpt lat="48.69586" lon="2.12966">
        <ele>89.54</ele>
        <time>2015-01-17T13:37:54Z</time>
      </trkpt>
      <trkpt lat="48.69585" lon="2.12966">
        <ele>89.54</ele>
        <time>2015-01-17T13:38:11Z</time>
      </trkpt>
      <trkpt lat="48.69585" lon="2.12965">
        <ele>89.54</ele>
        <time>2015-01-17T13:38:28Z</time>
      </trkpt>
      <trkpt lat="48.69585" lon="2.12966">
        <ele>89.54</ele>
        <time>2015-01-17T13:38:46Z</time>
      </trkpt>
      <trkpt lat="48.69585" lon="2.12966">
        <ele>89.54</ele>
        <time>2015-01-17T13:39:01Z</time>
      </trkpt>
      <trkpt lat="48.69585" lon="2.12966">
        <ele>89.54</ele>
        <time>2015-01-17T13:39:23Z</time>
      </trkpt>
      <trkpt lat="48.69586" lon="2.12966">
        <ele>89.54</ele>
        <time>2015-01-17T13:39:42Z</time>
      </trkpt>
      <trkpt lat="48.69586" lon="2.12966">
        <ele>89.06</ele>
        <time>2015-01-17T13:39:58Z</time>
      </trkpt>
      <trkpt lat="48.69586" lon="2.12966">
        <ele>89.06</ele>
        <time>2015-01-17T13:40:15Z</time>
      </trkpt>
      <trkpt lat="48.69586" lon="2.12967">
        <ele>89.06</ele>
        <time>2015-01-17T13:40:35Z</time>
      </trkpt>
      <trkpt lat="48.69586" lon="2.12966">
        <ele>89.54</ele>
        <time>2015-01-17T13:40:44Z</time>
      </trkpt>
      <trkpt lat="48.69586" lon="2.12966">
        <ele>89.06</ele>
        <time>2015-01-17T13:41:03Z</time>
      </trkpt>
      <trkpt lat="48.69585" lon="2.12966">
        <ele>89.06</ele>
        <time>2015-01-17T13:41:17Z</time>
      </trkpt>
      <trkpt lat="48.69585" lon="2.12966">
        <ele>89.06</ele>
        <time>2015-01-17T13:41:33Z</time>
      </trkpt>
      <trkpt lat="48.69584" lon="2.12967">
        <ele>88.58</ele>
        <time>2015-01-17T13:41:45Z</time>
      </trkpt>
      <trkpt lat="48.69583" lon="2.12966">
        <ele>88.58</ele>
        <time>2015-01-17T13:41:58Z</time>
      </trkpt>
      <trkpt lat="48.69582" lon="2.12966">
        <ele>88.58</ele>
        <time>2015-01-17T13:42:14Z</time>
      </trkpt>
      <trkpt lat="48.69582" lon="2.12967">
        <ele>88.58</ele>
        <time>2015-01-17T13:42:31Z</time>
      </trkpt>
      <trkpt lat="48.69581" lon="2.12969">
        <ele>88.58</ele>
        <time>2015-01-17T13:42:45Z</time>
      </trkpt>
      <trkpt lat="48.69582" lon="2.12971">
        <ele>88.58</ele>
        <time>2015-01-17T13:43:00Z</time>
      </trkpt>
      <trkpt lat="48.6958" lon="2.12975">
        <ele>88.58</ele>
        <time>2015-01-17T13:43:12Z</time>
      </trkpt>
      <trkpt lat="48.69574" lon="2.1298">
        <ele>88.1</ele>
        <time>2015-01-17T13:43:24Z</time>
      </trkpt>
      <trkpt lat="48.69573" lon="2.12976">
        <ele>87.14</ele>
        <time>2015-01-17T13:43:34Z</time>
      </trkpt>
      <trkpt lat="48.6958" lon="2.12965">
        <ele>85.21</ele>
        <time>2015-01-17T13:43:45Z</time>
      </trkpt>
      <trkpt lat="48.69588" lon="2.12953">
        <ele>84.25</ele>
        <time>2015-01-17T13:43:59Z</time>
      </trkpt>
      <trkpt lat="48.6959" lon="2.12951">
        <ele>84.25</ele>
        <time>2015-01-17T13:44:01Z</time>
      </trkpt>
      <trkpt lat="48.69595" lon="2.1294">
        <ele>84.25</ele>
        <time>2015-01-17T13:44:13Z</time>
      </trkpt>
      <trkpt lat="48.69597" lon="2.1294">
        <ele>84.25</ele>
        <time>2015-01-17T13:44:25Z</time>
      </trkpt>
      <trkpt lat="48.69596" lon="2.12941">
        <ele>83.77</ele>
        <time>2015-01-17T13:44:40Z</time>
      </trkpt>
      <trkpt lat="48.69602" lon="2.1295">
        <ele>83.29</ele>
        <time>2015-01-17T13:44:47Z</time>
      </trkpt>
      <trkpt lat="48.69603" lon="2.12953">
        <ele>83.29</ele>
        <time>2015-01-17T13:44:49Z</time>
      </trkpt>
      <trkpt lat="48.69607" lon="2.12957">
        <ele>83.29</ele>
        <time>2015-01-17T13:45:02Z</time>
      </trkpt>
      <trkpt lat="48.69608" lon="2.12959">
        <ele>83.29</ele>
        <time>2015-01-17T13:45:05Z</time>
      </trkpt>
      <trkpt lat="48.69616" lon="2.12975">
        <ele>82.33</ele>
        <time>2015-01-17T13:45:19Z</time>
      </trkpt>
      <trkpt lat="48.69617" lon="2.12978">
        <ele>82.33</ele>
        <time>2015-01-17T13:45:21Z</time>
      </trkpt>
      <trkpt lat="48.69619" lon="2.12982">
        <ele>82.33</ele>
        <time>2015-01-17T13:45:24Z</time>
      </trkpt>
      <trkpt lat="48.69625" lon="2.12993">
        <ele>81.85</ele>
        <time>2015-01-17T13:45:33Z</time>
      </trkpt>
      <trkpt lat="48.6963" lon="2.12999">
        <ele>80.89</ele>
        <time>2015-01-17T13:45:41Z</time>
      </trkpt>
      <trkpt lat="48.69631" lon="2.12994">
        <ele>80.89</ele>
        <time>2015-01-17T13:45:46Z</time>
      </trkpt>
      <trkpt lat="48.69635" lon="2.12976">
        <ele>80.41</ele>
        <time>2015-01-17T13:45:59Z</time>
      </trkpt>
      <trkpt lat="48.69637" lon="2.12966">
        <ele>79.45</ele>
        <time>2015-01-17T13:46:10Z</time>
      </trkpt>
      <trkpt lat="48.69637" lon="2.12964">
        <ele>78.97</ele>
        <time>2015-01-17T13:46:11Z</time>
      </trkpt>
      <trkpt lat="48.69642" lon="2.12961">
        <ele>78</ele>
        <time>2015-01-17T13:46:20Z</time>
      </trkpt>
      <trkpt lat="48.69647" lon="2.12968">
        <ele>77.04</ele>
        <time>2015-01-17T13:46:28Z</time>
      </trkpt>
      <trkpt lat="48.69655" lon="2.12967">
        <ele>76.08</ele>
        <time>2015-01-17T13:46:36Z</time>
      </trkpt>
      <trkpt lat="48.69657" lon="2.12969">
        <ele>75.6</ele>
        <time>2015-01-17T13:46:38Z</time>
      </trkpt>
      <trkpt lat="48.69664" lon="2.12969">
        <ele>75.12</ele>
        <time>2015-01-17T13:46:43Z</time>
      </trkpt>
      <trkpt lat="48.6967" lon="2.1297">
        <ele>74.16</ele>
        <time>2015-01-17T13:46:49Z</time>
      </trkpt>
      <trkpt lat="48.69676" lon="2.1297">
        <ele>73.68</ele>
        <time>2015-01-17T13:46:53Z</time>
      </trkpt>
      <trkpt lat="48.6969" lon="2.12979">
        <ele>73.68</ele>
        <time>2015-01-17T13:47:07Z</time>
      </trkpt>
      <trkpt lat="48.697" lon="2.12984">
        <ele>73.2</ele>
        <time>2015-01-17T13:47:17Z</time>
      </trkpt>
      <trkpt lat="48.69704" lon="2.12991">
        <ele>72.24</ele>
        <time>2015-01-17T13:47:23Z</time>
      </trkpt>
      <trkpt lat="48.69712" lon="2.12994">
        <ele>69.83</ele>
        <time>2015-01-17T13:47:34Z</time>
      </trkpt>
      <trkpt lat="48.69725" lon="2.12987">
        <ele>69.35</ele>
        <time>2015-01-17T13:47:44Z</time>
      </trkpt>
      <trkpt lat="48.69731" lon="2.12989">
        <ele>69.35</ele>
        <time>2015-01-17T13:47:59Z</time>
      </trkpt>
      <trkpt lat="48.69744" lon="2.12991">
        <ele>68.39</ele>
        <time>2015-01-17T13:48:12Z</time>
      </trkpt>
      <trkpt lat="48.69765" lon="2.12993">
        <ele>66.95</ele>
        <time>2015-01-17T13:48:29Z</time>
      </trkpt>
      <trkpt lat="48.69781" lon="2.13002">
        <ele>66.95</ele>
        <time>2015-01-17T13:48:42Z</time>
      </trkpt>
      <trkpt lat="48.69796" lon="2.13015">
        <ele>67.43</ele>
        <time>2015-01-17T13:48:57Z</time>
      </trkpt>
      <trkpt lat="48.6981" lon="2.13027">
        <ele>67.43</ele>
        <time>2015-01-17T13:49:13Z</time>
      </trkpt>
      <trkpt lat="48.69811" lon="2.13028">
        <ele>67.43</ele>
        <time>2015-01-17T13:49:28Z</time>
      </trkpt>
      <trkpt lat="48.69811" lon="2.13024">
        <ele>66.95</ele>
        <time>2015-01-17T13:49:41Z</time>
      </trkpt>
      <trkpt lat="48.6981" lon="2.13022">
        <ele>66.95</ele>
        <time>2015-01-17T13:49:59Z</time>
      </trkpt>
      <trkpt lat="48.6981" lon="2.13024">
        <ele>66.95</ele>
        <time>2015-01-17T13:50:14Z</time>
      </trkpt>
      <trkpt lat="48.6981" lon="2.13027">
        <ele>67.43</ele>
        <time>2015-01-17T13:50:24Z</time>
      </trkpt>
      <trkpt lat="48.69818" lon="2.13039">
        <ele>67.43</ele>
        <time>2015-01-17T13:50:38Z</time>
      </trkpt>
      <trkpt lat="48.69828" lon="2.13037">
        <ele>66.95</ele>
        <time>2015-01-17T13:50:50Z</time>
      </trkpt>
      <trkpt lat="48.69835" lon="2.13026">
        <ele>66.47</ele>
        <time>2015-01-17T13:51:03Z</time>
      </trkpt>
      <trkpt lat="48.69841" lon="2.13017">
        <ele>66.95</ele>
        <time>2015-01-17T13:51:14Z</time>
      </trkpt>
      <trkpt lat="48.69845" lon="2.13002">
        <ele>66.95</ele>
        <time>2015-01-17T13:51:26Z</time>
      </trkpt>
      <trkpt lat="48.69845" lon="2.13001">
        <ele>66.95</ele>
        <time>2015-01-17T13:51:27Z</time>
      </trkpt>
      <trkpt lat="48.69851" lon="2.12981">
        <ele>67.43</ele>
        <time>2015-01-17T13:51:41Z</time>
      </trkpt>
      <trkpt lat="48.69859" lon="2.12968">
        <ele>67.91</ele>
        <time>2015-01-17T13:51:54Z</time>
      </trkpt>
      <trkpt lat="48.6986" lon="2.12968">
        <ele>67.91</ele>
        <time>2015-01-17T13:51:55Z</time>
      </trkpt>
      <trkpt lat="48.69863" lon="2.12973">
        <ele>67.43</ele>
        <time>2015-01-17T13:51:59Z</time>
      </trkpt>
      <trkpt lat="48.69874" lon="2.1298">
        <ele>67.43</ele>
        <time>2015-01-17T13:52:12Z</time>
      </trkpt>
      <trkpt lat="48.6989" lon="2.12993">
        <ele>67.43</ele>
        <time>2015-01-17T13:52:29Z</time>
      </trkpt>
      <trkpt lat="48.69894" lon="2.12996">
        <ele>66.95</ele>
        <time>2015-01-17T13:52:33Z</time>
      </trkpt>
      <trkpt lat="48.69899" lon="2.12997">
        <ele>66.95</ele>
        <time>2015-01-17T13:52:37Z</time>
      </trkpt>
      <trkpt lat="48.69913" lon="2.13007">
        <ele>66.95</ele>
        <time>2015-01-17T13:52:51Z</time>
      </trkpt>
      <trkpt lat="48.69927" lon="2.13008">
        <ele>67.91</ele>
        <time>2015-01-17T13:53:02Z</time>
      </trkpt>
      <trkpt lat="48.69928" lon="2.13009">
        <ele>67.91</ele>
        <time>2015-01-17T13:53:04Z</time>
      </trkpt>
      <trkpt lat="48.69942" lon="2.13001">
        <ele>67.43</ele>
        <time>2015-01-17T13:53:18Z</time>
      </trkpt>
      <trkpt lat="48.69944" lon="2.12996">
        <ele>67.43</ele>
        <time>2015-01-17T13:53:22Z</time>
      </trkpt>
      <trkpt lat="48.69947" lon="2.12979">
        <ele>67.43</ele>
        <time>2015-01-17T13:53:32Z</time>
      </trkpt>
      <trkpt lat="48.69945" lon="2.12959">
        <ele>67.91</ele>
        <time>2015-01-17T13:53:44Z</time>
      </trkpt>
      <trkpt lat="48.69943" lon="2.12956">
        <ele>67.91</ele>
        <time>2015-01-17T13:53:46Z</time>
      </trkpt>
      <trkpt lat="48.69943" lon="2.12953">
        <ele>67.91</ele>
        <time>2015-01-17T13:53:48Z</time>
      </trkpt>
      <trkpt lat="48.69938" lon="2.12944">
        <ele>67.91</ele>
        <time>2015-01-17T13:53:55Z</time>
      </trkpt>
      <trkpt lat="48.69936" lon="2.12924">
        <ele>67.43</ele>
        <time>2015-01-17T13:54:07Z</time>
      </trkpt>
      <trkpt lat="48.69939" lon="2.12902">
        <ele>66.95</ele>
        <time>2015-01-17T13:54:21Z</time>
      </trkpt>
      <trkpt lat="48.69945" lon="2.12882">
        <ele>66.95</ele>
        <time>2015-01-17T13:54:34Z</time>
      </trkpt>
      <trkpt lat="48.69948" lon="2.12868">
        <ele>66.47</ele>
        <time>2015-01-17T13:54:42Z</time>
      </trkpt>
      <trkpt lat="48.69955" lon="2.12843">
        <ele>66.95</ele>
        <time>2015-01-17T13:54:57Z</time>
      </trkpt>
      <trkpt lat="48.69957" lon="2.12826">
        <ele>66.47</ele>
        <time>2015-01-17T13:55:08Z</time>
      </trkpt>
      <trkpt lat="48.69964" lon="2.12801">
        <ele>65.99</ele>
        <time>2015-01-17T13:55:22Z</time>
      </trkpt>
      <trkpt lat="48.69968" lon="2.1279">
        <ele>65.99</ele>
        <time>2015-01-17T13:55:29Z</time>
      </trkpt>
      <trkpt lat="48.69971" lon="2.12783">
        <ele>66.47</ele>
        <time>2015-01-17T13:55:34Z</time>
      </trkpt>
      <trkpt lat="48.69973" lon="2.12779">
        <ele>66.47</ele>
        <time>2015-01-17T13:55:37Z</time>
      </trkpt>
      <trkpt lat="48.69976" lon="2.12772">
        <ele>66.47</ele>
        <time>2015-01-17T13:55:41Z</time>
      </trkpt>
      <trkpt lat="48.69985" lon="2.12752">
        <ele>66.47</ele>
        <time>2015-01-17T13:55:53Z</time>
      </trkpt>
      <trkpt lat="48.69987" lon="2.12746">
        <ele>66.47</ele>
        <time>2015-01-17T13:55:57Z</time>
      </trkpt>
      <trkpt lat="48.69992" lon="2.12738">
        <ele>66.47</ele>
        <time>2015-01-17T13:56:03Z</time>
      </trkpt>
      <trkpt lat="48.69995" lon="2.12729">
        <ele>65.99</ele>
        <time>2015-01-17T13:56:08Z</time>
      </trkpt>
      <trkpt lat="48.70004" lon="2.12711">
        <ele>66.47</ele>
        <time>2015-01-17T13:56:21Z</time>
      </trkpt>
      <trkpt lat="48.70015" lon="2.12691">
        <ele>66.47</ele>
        <time>2015-01-17T13:56:36Z</time>
      </trkpt>
      <trkpt lat="48.70024" lon="2.12677">
        <ele>66.47</ele>
        <time>2015-01-17T13:56:46Z</time>
      </trkpt>
      <trkpt lat="48.70035" lon="2.12664">
        <ele>66.95</ele>
        <time>2015-01-17T13:56:59Z</time>
      </trkpt>
      <trkpt lat="48.70044" lon="2.12651">
        <ele>66.95</ele>
        <time>2015-01-17T13:57:11Z</time>
      </trkpt>
      <trkpt lat="48.7005" lon="2.12647">
        <ele>66.95</ele>
        <time>2015-01-17T13:57:17Z</time>
      </trkpt>
      <trkpt lat="48.70055" lon="2.12643">
        <ele>66.95</ele>
        <time>2015-01-17T13:57:21Z</time>
      </trkpt>
      <trkpt lat="48.70062" lon="2.12632">
        <ele>66.95</ele>
        <time>2015-01-17T13:57:28Z</time>
      </trkpt>
      <trkpt lat="48.70064" lon="2.1263">
        <ele>66.95</ele>
        <time>2015-01-17T13:57:30Z</time>
      </trkpt>
      <trkpt lat="48.7007" lon="2.12623">
        <ele>66.95</ele>
        <time>2015-01-17T13:57:36Z</time>
      </trkpt>
      <trkpt lat="48.70077" lon="2.12613">
        <ele>66.95</ele>
        <time>2015-01-17T13:57:43Z</time>
      </trkpt>
      <trkpt lat="48.70082" lon="2.12607">
        <ele>66.47</ele>
        <time>2015-01-17T13:57:48Z</time>
      </trkpt>
      <trkpt lat="48.70092" lon="2.12592">
        <ele>66.95</ele>
        <time>2015-01-17T13:57:59Z</time>
      </trkpt>
      <trkpt lat="48.70095" lon="2.12586">
        <ele>66.95</ele>
        <time>2015-01-17T13:58:03Z</time>
      </trkpt>
      <trkpt lat="48.7011" lon="2.12568">
        <ele>67.43</ele>
        <time>2015-01-17T13:58:19Z</time>
      </trkpt>
      <trkpt lat="48.70114" lon="2.12559">
        <ele>67.43</ele>
        <time>2015-01-17T13:58:30Z</time>
      </trkpt>
      <trkpt lat="48.70118" lon="2.12555">
        <ele>68.39</ele>
        <time>2015-01-17T13:58:36Z</time>
      </trkpt>
      <trkpt lat="48.70121" lon="2.12549">
        <ele>68.39</ele>
        <time>2015-01-17T13:58:41Z</time>
      </trkpt>
      <trkpt lat="48.70125" lon="2.12541">
        <ele>68.39</ele>
        <time>2015-01-17T13:58:47Z</time>
      </trkpt>
      <trkpt lat="48.70126" lon="2.12537">
        <ele>68.39</ele>
        <time>2015-01-17T13:58:50Z</time>
      </trkpt>
      <trkpt lat="48.70128" lon="2.12511">
        <ele>65.99</ele>
        <time>2015-01-17T13:59:05Z</time>
      </trkpt>
      <trkpt lat="48.70129" lon="2.12501">
        <ele>65.99</ele>
        <time>2015-01-17T13:59:15Z</time>
      </trkpt>
      <trkpt lat="48.70132" lon="2.12482">
        <ele>66.47</ele>
        <time>2015-01-17T13:59:26Z</time>
      </trkpt>
      <trkpt lat="48.70138" lon="2.12483">
        <ele>68.39</ele>
        <time>2015-01-17T13:59:40Z</time>
      </trkpt>
      <trkpt lat="48.70143" lon="2.12481">
        <ele>67.91</ele>
        <time>2015-01-17T13:59:52Z</time>
      </trkpt>
      <trkpt lat="48.70143" lon="2.1248">
        <ele>67.91</ele>
        <time>2015-01-17T14:00:10Z</time>
      </trkpt>
      <trkpt lat="48.70143" lon="2.1248">
        <ele>67.91</ele>
        <time>2015-01-17T14:00:33Z</time>
      </trkpt>
      <trkpt lat="48.70142" lon="2.12481">
        <ele>67.91</ele>
        <time>2015-01-17T14:00:57Z</time>
      </trkpt>
      <trkpt lat="48.70145" lon="2.12483">
        <ele>67.43</ele>
        <time>2015-01-17T14:01:10Z</time>
      </trkpt>
      <trkpt lat="48.70144" lon="2.12483">
        <ele>67.43</ele>
        <time>2015-01-17T14:01:24Z</time>
      </trkpt>
      <trkpt lat="48.70146" lon="2.12483">
        <ele>67.43</ele>
        <time>2015-01-17T14:01:42Z</time>
      </trkpt>
      <trkpt lat="48.70146" lon="2.12483">
        <ele>67.43</ele>
        <time>2015-01-17T14:01:58Z</time>
      </trkpt>
      <trkpt lat="48.70147" lon="2.12482">
        <ele>67.43</ele>
        <time>2015-01-17T14:02:19Z</time>
      </trkpt>
      <trkpt lat="48.70147" lon="2.12483">
        <ele>66.95</ele>
        <time>2015-01-17T14:02:34Z</time>
      </trkpt>
      <trkpt lat="48.70146" lon="2.12482">
        <ele>66.95</ele>
        <time>2015-01-17T14:02:54Z</time>
      </trkpt>
      <trkpt lat="48.70146" lon="2.12483">
        <ele>66.95</ele>
        <time>2015-01-17T14:03:15Z</time>
      </trkpt>
      <trkpt lat="48.70147" lon="2.12483">
        <ele>66.95</ele>
        <time>2015-01-17T14:03:36Z</time>
      </trkpt>
      <trkpt lat="48.70146" lon="2.12482">
        <ele>66.95</ele>
        <time>2015-01-17T14:03:49Z</time>
      </trkpt>
      <trkpt lat="48.70146" lon="2.12482">
        <ele>66.95</ele>
        <time>2015-01-17T14:03:50Z</time>
      </trkpt>
      <trkpt lat="48.70144" lon="2.12477">
        <ele>66.95</ele>
        <time>2015-01-17T14:04:04Z</time>
      </trkpt>
      <trkpt lat="48.70144" lon="2.1248">
        <ele>66.95</ele>
        <time>2015-01-17T14:04:26Z</time>
      </trkpt>
      <trkpt lat="48.70145" lon="2.1248">
        <ele>66.95</ele>
        <time>2015-01-17T14:04:27Z</time>
      </trkpt>
      <trkpt lat="48.70147" lon="2.12484">
        <ele>66.95</ele>
        <time>2015-01-17T14:04:38Z</time>
      </trkpt>
      <trkpt lat="48.70148" lon="2.12484">
        <ele>66.95</ele>
        <time>2015-01-17T14:04:39Z</time>
      </trkpt>
      <trkpt lat="48.70153" lon="2.12488">
        <ele>66.95</ele>
        <time>2015-01-17T14:04:48Z</time>
      </trkpt>
      <trkpt lat="48.70154" lon="2.12488">
        <ele>66.95</ele>
        <time>2015-01-17T14:04:59Z</time>
      </trkpt>
      <trkpt lat="48.70164" lon="2.12489">
        <ele>66.47</ele>
        <time>2015-01-17T14:05:08Z</time>
      </trkpt>
      <trkpt lat="48.70168" lon="2.12491">
        <ele>66.47</ele>
        <time>2015-01-17T14:05:12Z</time>
      </trkpt>
      <trkpt lat="48.70186" lon="2.12495">
        <ele>66.47</ele>
        <time>2015-01-17T14:05:26Z</time>
      </trkpt>
      <trkpt lat="48.70193" lon="2.12496">
        <ele>66.47</ele>
        <time>2015-01-17T14:05:33Z</time>
      </trkpt>
      <trkpt lat="48.70209" lon="2.12486">
        <ele>66.47</ele>
        <time>2015-01-17T14:05:48Z</time>
      </trkpt>
      <trkpt lat="48.70215" lon="2.12478">
        <ele>66.47</ele>
        <time>2015-01-17T14:05:59Z</time>
      </trkpt>
      <trkpt lat="48.70218" lon="2.12474">
        <ele>66.47</ele>
        <time>2015-01-17T14:06:03Z</time>
      </trkpt>
      <trkpt lat="48.70232" lon="2.12453">
        <ele>66.95</ele>
        <time>2015-01-17T14:06:20Z</time>
      </trkpt>
      <trkpt lat="48.70235" lon="2.12446">
        <ele>66.47</ele>
        <time>2015-01-17T14:06:25Z</time>
      </trkpt>
      <trkpt lat="48.70248" lon="2.12427">
        <ele>66.47</ele>
        <time>2015-01-17T14:06:41Z</time>
      </trkpt>
      <trkpt lat="48.7025" lon="2.12423">
        <ele>66.47</ele>
        <time>2015-01-17T14:06:44Z</time>
      </trkpt>
      <trkpt lat="48.70253" lon="2.12415">
        <ele>66.47</ele>
        <time>2015-01-17T14:06:49Z</time>
      </trkpt>
      <trkpt lat="48.70255" lon="2.12412">
        <ele>66.47</ele>
        <time>2015-01-17T14:06:52Z</time>
      </trkpt>
      <trkpt lat="48.70262" lon="2.12388">
        <ele>66.47</ele>
        <time>2015-01-17T14:07:07Z</time>
      </trkpt>
      <trkpt lat="48.70268" lon="2.12365">
        <ele>66.47</ele>
        <time>2015-01-17T14:07:20Z</time>
      </trkpt>
      <trkpt lat="48.70271" lon="2.12353">
        <ele>66.47</ele>
        <time>2015-01-17T14:07:28Z</time>
      </trkpt>
      <trkpt lat="48.70278" lon="2.12324">
        <ele>66.47</ele>
        <time>2015-01-17T14:07:44Z</time>
      </trkpt>
      <trkpt lat="48.70283" lon="2.12304">
        <ele>65.99</ele>
        <time>2015-01-17T14:07:57Z</time>
      </trkpt>
      <trkpt lat="48.70289" lon="2.12295">
        <ele>65.99</ele>
        <time>2015-01-17T14:08:04Z</time>
      </trkpt>
      <trkpt lat="48.70301" lon="2.12278">
        <ele>65.99</ele>
        <time>2015-01-17T14:08:19Z</time>
      </trkpt>
      <trkpt lat="48.70313" lon="2.12254">
        <ele>66.47</ele>
        <time>2015-01-17T14:08:35Z</time>
      </trkpt>
      <trkpt lat="48.70316" lon="2.12238">
        <ele>65.99</ele>
        <time>2015-01-17T14:08:48Z</time>
      </trkpt>
      <trkpt lat="48.70321" lon="2.12227">
        <ele>65.03</ele>
        <time>2015-01-17T14:09:02Z</time>
      </trkpt>
      <trkpt lat="48.70325" lon="2.12226">
        <ele>65.03</ele>
        <time>2015-01-17T14:09:08Z</time>
      </trkpt>
      <trkpt lat="48.7033" lon="2.12226">
        <ele>65.51</ele>
        <time>2015-01-17T14:09:13Z</time>
      </trkpt>
      <trkpt lat="48.70346" lon="2.12222">
        <ele>65.99</ele>
        <time>2015-01-17T14:09:28Z</time>
      </trkpt>
      <trkpt lat="48.7035" lon="2.12221">
        <ele>65.51</ele>
        <time>2015-01-17T14:09:31Z</time>
      </trkpt>
      <trkpt lat="48.70352" lon="2.12217">
        <ele>65.51</ele>
        <time>2015-01-17T14:09:34Z</time>
      </trkpt>
      <trkpt lat="48.70348" lon="2.12188">
        <ele>65.03</ele>
        <time>2015-01-17T14:09:51Z</time>
      </trkpt>
      <trkpt lat="48.70346" lon="2.12176">
        <ele>65.03</ele>
        <time>2015-01-17T14:09:59Z</time>
      </trkpt>
      <trkpt lat="48.70345" lon="2.12166">
        <ele>65.03</ele>
        <time>2015-01-17T14:10:12Z</time>
      </trkpt>
      <trkpt lat="48.70351" lon="2.12162">
        <ele>65.51</ele>
        <time>2015-01-17T14:10:24Z</time>
      </trkpt>
      <trkpt lat="48.70359" lon="2.12162">
        <ele>66.47</ele>
        <time>2015-01-17T14:10:36Z</time>
      </trkpt>
      <trkpt lat="48.7037" lon="2.12159">
        <ele>68.87</ele>
        <time>2015-01-17T14:10:50Z</time>
      </trkpt>
      <trkpt lat="48.70383" lon="2.12156">
        <ele>71.27</ele>
        <time>2015-01-17T14:11:06Z</time>
      </trkpt>
      <trkpt lat="48.7039" lon="2.12156">
        <ele>73.68</ele>
        <time>2015-01-17T14:11:18Z</time>
      </trkpt>
      <trkpt lat="48.70397" lon="2.12155">
        <ele>75.12</ele>
        <time>2015-01-17T14:11:29Z</time>
      </trkpt>
      <trkpt lat="48.70401" lon="2.12154">
        <ele>78.48</ele>
        <time>2015-01-17T14:11:41Z</time>
      </trkpt>
      <trkpt lat="48.70405" lon="2.12143">
        <ele>78</ele>
        <time>2015-01-17T14:11:53Z</time>
      </trkpt>
      <trkpt lat="48.70413" lon="2.12131">
        <ele>78.97</ele>
        <time>2015-01-17T14:12:05Z</time>
      </trkpt>
      <trkpt lat="48.70425" lon="2.1211">
        <ele>80.41</ele>
        <time>2015-01-17T14:12:19Z</time>
      </trkpt>
      <trkpt lat="48.70435" lon="2.12097">
        <ele>82.81</ele>
        <time>2015-01-17T14:12:34Z</time>
      </trkpt>
      <trkpt lat="48.70436" lon="2.12095">
        <ele>82.81</ele>
        <time>2015-01-17T14:12:36Z</time>
      </trkpt>
      <trkpt lat="48.70445" lon="2.12084">
        <ele>83.77</ele>
        <time>2015-01-17T14:12:49Z</time>
      </trkpt>
      <trkpt lat="48.70451" lon="2.12076">
        <ele>84.73</ele>
        <time>2015-01-17T14:13:02Z</time>
      </trkpt>
      <trkpt lat="48.70451" lon="2.12075">
        <ele>85.21</ele>
        <time>2015-01-17T14:13:03Z</time>
      </trkpt>
      <trkpt lat="48.70455" lon="2.12059">
        <ele>85.21</ele>
        <time>2015-01-17T14:13:15Z</time>
      </trkpt>
      <trkpt lat="48.70456" lon="2.12039">
        <ele>85.69</ele>
        <time>2015-01-17T14:13:27Z</time>
      </trkpt>
      <trkpt lat="48.70457" lon="2.1202">
        <ele>85.69</ele>
        <time>2015-01-17T14:13:39Z</time>
      </trkpt>
      <trkpt lat="48.70459" lon="2.1201">
        <ele>85.69</ele>
        <time>2015-01-17T14:13:44Z</time>
      </trkpt>
      <trkpt lat="48.7046" lon="2.12003">
        <ele>85.69</ele>
        <time>2015-01-17T14:13:47Z</time>
      </trkpt>
      <trkpt lat="48.70461" lon="2.11989">
        <ele>85.69</ele>
        <time>2015-01-17T14:13:57Z</time>
      </trkpt>
      <trkpt lat="48.70469" lon="2.1195">
        <ele>86.66</ele>
        <time>2015-01-17T14:14:14Z</time>
      </trkpt>
      <trkpt lat="48.70471" lon="2.11938">
        <ele>86.66</ele>
        <time>2015-01-17T14:14:20Z</time>
      </trkpt>
      <trkpt lat="48.70474" lon="2.11918">
        <ele>87.62</ele>
        <time>2015-01-17T14:14:33Z</time>
      </trkpt>
      <trkpt lat="48.70474" lon="2.11908">
        <ele>87.62</ele>
        <time>2015-01-17T14:14:43Z</time>
      </trkpt>
      <trkpt lat="48.70474" lon="2.11906">
        <ele>87.62</ele>
        <time>2015-01-17T14:14:44Z</time>
      </trkpt>
      <trkpt lat="48.70475" lon="2.119">
        <ele>88.58</ele>
        <time>2015-01-17T14:14:56Z</time>
      </trkpt>
      <trkpt lat="48.70477" lon="2.11896">
        <ele>88.58</ele>
        <time>2015-01-17T14:15:17Z</time>
      </trkpt>
      <trkpt lat="48.70478" lon="2.11893">
        <ele>89.06</ele>
        <time>2015-01-17T14:15:22Z</time>
      </trkpt>
      <trkpt lat="48.70488" lon="2.11883">
        <ele>89.54</ele>
        <time>2015-01-17T14:15:36Z</time>
      </trkpt>
      <trkpt lat="48.705" lon="2.11894">
        <ele>90.5</ele>
        <time>2015-01-17T14:15:50Z</time>
      </trkpt>
      <trkpt lat="48.70507" lon="2.11907">
        <ele>90.98</ele>
        <time>2015-01-17T14:16:01Z</time>
      </trkpt>
      <trkpt lat="48.70516" lon="2.1192">
        <ele>91.46</ele>
        <time>2015-01-17T14:16:15Z</time>
      </trkpt>
      <trkpt lat="48.70517" lon="2.11921">
        <ele>91.46</ele>
        <time>2015-01-17T14:16:16Z</time>
      </trkpt>
      <trkpt lat="48.70522" lon="2.1193">
        <ele>91.94</ele>
        <time>2015-01-17T14:16:23Z</time>
      </trkpt>
      <trkpt lat="48.70529" lon="2.11942">
        <ele>92.42</ele>
        <time>2015-01-17T14:16:34Z</time>
      </trkpt>
      <trkpt lat="48.70538" lon="2.11951">
        <ele>93.39</ele>
        <time>2015-01-17T14:16:48Z</time>
      </trkpt>
      <trkpt lat="48.70542" lon="2.11949">
        <ele>93.39</ele>
        <time>2015-01-17T14:16:53Z</time>
      </trkpt>
      <trkpt lat="48.70552" lon="2.11939">
        <ele>94.35</ele>
        <time>2015-01-17T14:17:05Z</time>
      </trkpt>
      <trkpt lat="48.70561" lon="2.11929">
        <ele>95.79</ele>
        <time>2015-01-17T14:17:19Z</time>
      </trkpt>
      <trkpt lat="48.70565" lon="2.11926">
        <ele>95.79</ele>
        <time>2015-01-17T14:17:22Z</time>
      </trkpt>
      <trkpt lat="48.70578" lon="2.11921">
        <ele>97.71</ele>
        <time>2015-01-17T14:17:35Z</time>
      </trkpt>
      <trkpt lat="48.70588" lon="2.11921">
        <ele>99.15</ele>
        <time>2015-01-17T14:17:47Z</time>
      </trkpt>
      <trkpt lat="48.70597" lon="2.11928">
        <ele>99.63</ele>
        <time>2015-01-17T14:18:00Z</time>
      </trkpt>
      <trkpt lat="48.706" lon="2.11936">
        <ele>99.15</ele>
        <time>2015-01-17T14:18:09Z</time>
      </trkpt>
      <trkpt lat="48.70607" lon="2.11946">
        <ele>98.67</ele>
        <time>2015-01-17T14:18:21Z</time>
      </trkpt>
      <trkpt lat="48.70607" lon="2.11949">
        <ele>98.67</ele>
        <time>2015-01-17T14:18:30Z</time>
      </trkpt>
      <trkpt lat="48.70605" lon="2.11954">
        <ele>97.71</ele>
        <time>2015-01-17T14:18:35Z</time>
      </trkpt>
      <trkpt lat="48.70608" lon="2.11965">
        <ele>97.71</ele>
        <time>2015-01-17T14:18:43Z</time>
      </trkpt>
      <trkpt lat="48.70614" lon="2.1197">
        <ele>100.11</ele>
        <time>2015-01-17T14:18:54Z</time>
      </trkpt>
      <trkpt lat="48.70618" lon="2.11974">
        <ele>103.48</ele>
        <time>2015-01-17T14:19:06Z</time>
      </trkpt>
      <trkpt lat="48.70623" lon="2.11977">
        <ele>105.4</ele>
        <time>2015-01-17T14:19:18Z</time>
      </trkpt>
      <trkpt lat="48.70632" lon="2.11973">
        <ele>106.84</ele>
        <time>2015-01-17T14:19:29Z</time>
      </trkpt>
      <trkpt lat="48.7064" lon="2.11968">
        <ele>107.81</ele>
        <time>2015-01-17T14:19:41Z</time>
      </trkpt>
      <trkpt lat="48.70649" lon="2.11958">
        <ele>109.25</ele>
        <time>2015-01-17T14:19:53Z</time>
      </trkpt>
      <trkpt lat="48.70657" lon="2.11947">
        <ele>110.21</ele>
        <time>2015-01-17T14:20:07Z</time>
      </trkpt>
      <trkpt lat="48.70661" lon="2.11942">
        <ele>110.69</ele>
        <time>2015-01-17T14:20:11Z</time>
      </trkpt>
      <trkpt lat="48.70667" lon="2.11933">
        <ele>112.13</ele>
        <time>2015-01-17T14:20:22Z</time>
      </trkpt>
      <trkpt lat="48.70671" lon="2.11928">
        <ele>114.05</ele>
        <time>2015-01-17T14:20:34Z</time>
      </trkpt>
      <trkpt lat="48.70674" lon="2.11925">
        <ele>115.5</ele>
        <time>2015-01-17T14:20:43Z</time>
      </trkpt>
      <trkpt lat="48.70684" lon="2.11918">
        <ele>117.9</ele>
        <time>2015-01-17T14:20:55Z</time>
      </trkpt>
      <trkpt lat="48.70691" lon="2.11912">
        <ele>118.86</ele>
        <time>2015-01-17T14:21:06Z</time>
      </trkpt>
      <trkpt lat="48.70701" lon="2.11907">
        <ele>121.26</ele>
        <time>2015-01-17T14:21:18Z</time>
      </trkpt>
      <trkpt lat="48.70705" lon="2.11909">
        <ele>121.74</ele>
        <time>2015-01-17T14:21:25Z</time>
      </trkpt>
      <trkpt lat="48.70713" lon="2.11912">
        <ele>121.74</ele>
        <time>2015-01-17T14:21:31Z</time>
      </trkpt>
      <trkpt lat="48.70719" lon="2.11909">
        <ele>121.74</ele>
        <time>2015-01-17T14:21:40Z</time>
      </trkpt>
      <trkpt lat="48.70735" lon="2.11901">
        <ele>121.74</ele>
        <time>2015-01-17T14:21:51Z</time>
      </trkpt>
      <trkpt lat="48.70736" lon="2.11898">
        <ele>122.22</ele>
        <time>2015-01-17T14:21:54Z</time>
      </trkpt>
      <trkpt lat="48.70742" lon="2.11882">
        <ele>122.71</ele>
        <time>2015-01-17T14:22:08Z</time>
      </trkpt>
      <trkpt lat="48.70747" lon="2.11871">
        <ele>124.15</ele>
        <time>2015-01-17T14:22:20Z</time>
      </trkpt>
      <trkpt lat="48.70748" lon="2.11863">
        <ele>124.15</ele>
        <time>2015-01-17T14:22:30Z</time>
      </trkpt>
      <trkpt lat="48.7075" lon="2.11856">
        <ele>124.63</ele>
        <time>2015-01-17T14:22:38Z</time>
      </trkpt>
      <trkpt lat="48.70752" lon="2.11851">
        <ele>124.15</ele>
        <time>2015-01-17T14:22:44Z</time>
      </trkpt>
      <trkpt lat="48.70759" lon="2.11841">
        <ele>123.67</ele>
        <time>2015-01-17T14:22:55Z</time>
      </trkpt>
      <trkpt lat="48.70762" lon="2.11834">
        <ele>124.15</ele>
        <time>2015-01-17T14:23:06Z</time>
      </trkpt>
      <trkpt lat="48.70764" lon="2.11825">
        <ele>125.11</ele>
        <time>2015-01-17T14:23:14Z</time>
      </trkpt>
      <trkpt lat="48.70768" lon="2.11811">
        <ele>126.07</ele>
        <time>2015-01-17T14:23:23Z</time>
      </trkpt>
      <trkpt lat="48.70772" lon="2.11801">
        <ele>127.03</ele>
        <time>2015-01-17T14:23:34Z</time>
      </trkpt>
      <trkpt lat="48.70777" lon="2.11789">
        <ele>128.47</ele>
        <time>2015-01-17T14:23:46Z</time>
      </trkpt>
      <trkpt lat="48.70782" lon="2.11777">
        <ele>128.47</ele>
        <time>2015-01-17T14:23:51Z</time>
      </trkpt>
      <trkpt lat="48.70799" lon="2.11737">
        <ele>130.4</ele>
        <time>2015-01-17T14:24:05Z</time>
      </trkpt>
      <trkpt lat="48.70809" lon="2.11715">
        <ele>131.84</ele>
        <time>2015-01-17T14:24:18Z</time>
      </trkpt>
      <trkpt lat="48.70813" lon="2.11704">
        <ele>133.28</ele>
        <time>2015-01-17T14:24:29Z</time>
      </trkpt>
      <trkpt lat="48.70811" lon="2.11699">
        <ele>134.72</ele>
        <time>2015-01-17T14:24:36Z</time>
      </trkpt>
      <trkpt lat="48.70811" lon="2.11687">
        <ele>135.2</ele>
        <time>2015-01-17T14:24:47Z</time>
      </trkpt>
      <trkpt lat="48.70813" lon="2.11677">
        <ele>136.16</ele>
        <time>2015-01-17T14:24:55Z</time>
      </trkpt>
      <trkpt lat="48.70815" lon="2.11664">
        <ele>137.13</ele>
        <time>2015-01-17T14:25:02Z</time>
      </trkpt>
      <trkpt lat="48.70816" lon="2.11659">
        <ele>137.13</ele>
        <time>2015-01-17T14:25:05Z</time>
      </trkpt>
      <trkpt lat="48.70818" lon="2.11649">
        <ele>138.09</ele>
        <time>2015-01-17T14:25:09Z</time>
      </trkpt>
      <trkpt lat="48.70822" lon="2.11629">
        <ele>139.53</ele>
        <time>2015-01-17T14:25:18Z</time>
      </trkpt>
      <trkpt lat="48.70823" lon="2.11616">
        <ele>140.49</ele>
        <time>2015-01-17T14:25:23Z</time>
      </trkpt>
      <trkpt lat="48.70829" lon="2.11596">
        <ele>141.45</ele>
        <time>2015-01-17T14:25:29Z</time>
      </trkpt>
      <trkpt lat="48.70825" lon="2.11579">
        <ele>143.37</ele>
        <time>2015-01-17T14:25:41Z</time>
      </trkpt>
      <trkpt lat="48.70824" lon="2.11567">
        <ele>145.3</ele>
        <time>2015-01-17T14:25:53Z</time>
      </trkpt>
      <trkpt lat="48.70823" lon="2.11566">
        <ele>144.82</ele>
        <time>2015-01-17T14:26:12Z</time>
      </trkpt>
      <trkpt lat="48.70823" lon="2.11565">
        <ele>144.82</ele>
        <time>2015-01-17T14:26:13Z</time>
      </trkpt>
      <trkpt lat="48.70825" lon="2.11559">
        <ele>144.82</ele>
        <time>2015-01-17T14:26:20Z</time>
      </trkpt>
      <trkpt lat="48.70829" lon="2.11547">
        <ele>144.34</ele>
        <time>2015-01-17T14:26:31Z</time>
      </trkpt>
      <trkpt lat="48.7083" lon="2.11546">
        <ele>144.34</ele>
        <time>2015-01-17T14:26:32Z</time>
      </trkpt>
      <trkpt lat="48.70837" lon="2.11536">
        <ele>144.34</ele>
        <time>2015-01-17T14:26:39Z</time>
      </trkpt>
      <trkpt lat="48.7084" lon="2.11531">
        <ele>144.82</ele>
        <time>2015-01-17T14:26:43Z</time>
      </trkpt>
      <trkpt lat="48.70845" lon="2.11519">
        <ele>145.3</ele>
        <time>2015-01-17T14:26:55Z</time>
      </trkpt>
      <trkpt lat="48.70849" lon="2.1151">
        <ele>146.26</ele>
        <time>2015-01-17T14:27:05Z</time>
      </trkpt>
      <trkpt lat="48.70857" lon="2.11505">
        <ele>146.26</ele>
        <time>2015-01-17T14:27:11Z</time>
      </trkpt>
      <trkpt lat="48.70862" lon="2.11502">
        <ele>145.78</ele>
        <time>2015-01-17T14:27:14Z</time>
      </trkpt>
      <trkpt lat="48.70867" lon="2.11499">
        <ele>145.78</ele>
        <time>2015-01-17T14:27:17Z</time>
      </trkpt>
      <trkpt lat="48.70879" lon="2.11504">
        <ele>145.78</ele>
        <time>2015-01-17T14:27:29Z</time>
      </trkpt>
      <trkpt lat="48.70891" lon="2.11508">
        <ele>145.78</ele>
        <time>2015-01-17T14:27:38Z</time>
      </trkpt>
      <trkpt lat="48.70902" lon="2.11516">
        <ele>146.26</ele>
        <time>2015-01-17T14:27:49Z</time>
      </trkpt>
      <trkpt lat="48.70905" lon="2.1152">
        <ele>146.26</ele>
        <time>2015-01-17T14:27:52Z</time>
      </trkpt>
      <trkpt lat="48.70909" lon="2.11524">
        <ele>146.26</ele>
        <time>2015-01-17T14:27:57Z</time>
      </trkpt>
      <trkpt lat="48.7092" lon="2.11534">
        <ele>147.22</ele>
        <time>2015-01-17T14:28:09Z</time>
      </trkpt>
      <trkpt lat="48.70927" lon="2.11543">
        <ele>147.7</ele>
        <time>2015-01-17T14:28:19Z</time>
      </trkpt>
      <trkpt lat="48.70938" lon="2.11555">
        <ele>148.18</ele>
        <time>2015-01-17T14:28:30Z</time>
      </trkpt>
      <trkpt lat="48.70949" lon="2.11563">
        <ele>147.7</ele>
        <time>2015-01-17T14:28:41Z</time>
      </trkpt>
      <trkpt lat="48.70952" lon="2.11572">
        <ele>147.7</ele>
        <time>2015-01-17T14:28:47Z</time>
      </trkpt>
      <trkpt lat="48.7096" lon="2.11586">
        <ele>147.7</ele>
        <time>2015-01-17T14:28:57Z</time>
      </trkpt>
      <trkpt lat="48.70972" lon="2.11601">
        <ele>148.18</ele>
        <time>2015-01-17T14:29:09Z</time>
      </trkpt>
      <trkpt lat="48.7098" lon="2.11612">
        <ele>147.7</ele>
        <time>2015-01-17T14:29:19Z</time>
      </trkpt>
      <trkpt lat="48.70985" lon="2.11621">
        <ele>147.22</ele>
        <time>2015-01-17T14:29:25Z</time>
      </trkpt>
      <trkpt lat="48.70988" lon="2.11628">
        <ele>146.74</ele>
        <time>2015-01-17T14:29:29Z</time>
      </trkpt>
      <trkpt lat="48.70998" lon="2.11643">
        <ele>146.26</ele>
        <time>2015-01-17T14:29:41Z</time>
      </trkpt>
      <trkpt lat="48.71006" lon="2.11653">
        <ele>145.78</ele>
        <time>2015-01-17T14:29:49Z</time>
      </trkpt>
      <trkpt lat="48.71015" lon="2.11668">
        <ele>144.82</ele>
        <time>2015-01-17T14:30:00Z</time>
      </trkpt>
      <trkpt lat="48.71021" lon="2.11673">
        <ele>144.34</ele>
        <time>2015-01-17T14:30:07Z</time>
      </trkpt>
      <trkpt lat="48.71029" lon="2.11688">
        <ele>143.37</ele>
        <time>2015-01-17T14:30:17Z</time>
      </trkpt>
      <trkpt lat="48.71038" lon="2.11696">
        <ele>142.89</ele>
        <time>2015-01-17T14:30:28Z</time>
      </trkpt>
      <trkpt lat="48.71041" lon="2.11697">
        <ele>142.89</ele>
        <time>2015-01-17T14:30:30Z</time>
      </trkpt>
      <trkpt lat="48.71045" lon="2.11704">
        <ele>142.89</ele>
        <time>2015-01-17T14:30:36Z</time>
      </trkpt>
      <trkpt lat="48.71058" lon="2.11715">
        <ele>141.93</ele>
        <time>2015-01-17T14:30:49Z</time>
      </trkpt>
      <trkpt lat="48.71075" lon="2.11725">
        <ele>141.45</ele>
        <time>2015-01-17T14:31:03Z</time>
      </trkpt>
      <trkpt lat="48.71082" lon="2.1173">
        <ele>140.01</ele>
        <time>2015-01-17T14:31:15Z</time>
      </trkpt>
      <trkpt lat="48.71086" lon="2.11733">
        <ele>139.05</ele>
        <time>2015-01-17T14:31:28Z</time>
      </trkpt>
      <trkpt lat="48.71095" lon="2.11739">
        <ele>137.13</ele>
        <time>2015-01-17T14:31:40Z</time>
      </trkpt>
      <trkpt lat="48.71102" lon="2.11743">
        <ele>135.68</ele>
        <time>2015-01-17T14:31:52Z</time>
      </trkpt>
      <trkpt lat="48.71109" lon="2.11748">
        <ele>133.28</ele>
        <time>2015-01-17T14:32:05Z</time>
      </trkpt>
      <trkpt lat="48.71115" lon="2.11749">
        <ele>131.36</ele>
        <time>2015-01-17T14:32:16Z</time>
      </trkpt>
      <trkpt lat="48.71124" lon="2.11752">
        <ele>128.95</ele>
        <time>2015-01-17T14:32:28Z</time>
      </trkpt>
      <trkpt lat="48.71132" lon="2.11755">
        <ele>127.03</ele>
        <time>2015-01-17T14:32:40Z</time>
      </trkpt>
      <trkpt lat="48.71137" lon="2.11756">
        <ele>125.59</ele>
        <time>2015-01-17T14:32:51Z</time>
      </trkpt>
      <trkpt lat="48.71147" lon="2.11759">
        <ele>123.67</ele>
        <time>2015-01-17T14:33:03Z</time>
      </trkpt>
      <trkpt lat="48.71151" lon="2.1176">
        <ele>121.74</ele>
        <time>2015-01-17T14:33:15Z</time>
      </trkpt>
      <trkpt lat="48.71156" lon="2.11762">
        <ele>120.3</ele>
        <time>2015-01-17T14:33:28Z</time>
      </trkpt>
      <trkpt lat="48.71164" lon="2.11765">
        <ele>118.38</ele>
        <time>2015-01-17T14:33:38Z</time>
      </trkpt>
      <trkpt lat="48.71166" lon="2.11768">
        <ele>115.98</ele>
        <time>2015-01-17T14:33:50Z</time>
      </trkpt>
      <trkpt lat="48.71169" lon="2.11772">
        <ele>114.05</ele>
        <time>2015-01-17T14:33:59Z</time>
      </trkpt>
      <trkpt lat="48.71174" lon="2.11784">
        <ele>112.61</ele>
        <time>2015-01-17T14:34:12Z</time>
      </trkpt>
      <trkpt lat="48.71182" lon="2.11792">
        <ele>111.17</ele>
        <time>2015-01-17T14:34:24Z</time>
      </trkpt>
      <trkpt lat="48.7119" lon="2.11797">
        <ele>110.69</ele>
        <time>2015-01-17T14:34:40Z</time>
      </trkpt>
      <trkpt lat="48.71199" lon="2.11801">
        <ele>110.69</ele>
        <time>2015-01-17T14:34:52Z</time>
      </trkpt>
      <trkpt lat="48.71203" lon="2.11796">
        <ele>110.21</ele>
        <time>2015-01-17T14:35:03Z</time>
      </trkpt>
      <trkpt lat="48.71207" lon="2.1179">
        <ele>110.69</ele>
        <time>2015-01-17T14:35:13Z</time>
      </trkpt>
      <trkpt lat="48.71214" lon="2.1178">
        <ele>110.69</ele>
        <time>2015-01-17T14:35:24Z</time>
      </trkpt>
      <trkpt lat="48.71217" lon="2.11775">
        <ele>110.69</ele>
        <time>2015-01-17T14:35:28Z</time>
      </trkpt>
      <trkpt lat="48.71232" lon="2.11755">
        <ele>111.17</ele>
        <time>2015-01-17T14:35:39Z</time>
      </trkpt>
      <trkpt lat="48.71238" lon="2.11742">
        <ele>111.65</ele>
        <time>2015-01-17T14:35:49Z</time>
      </trkpt>
      <trkpt lat="48.71249" lon="2.1172">
        <ele>112.13</ele>
        <time>2015-01-17T14:36:03Z</time>
      </trkpt>
      <trkpt lat="48.71256" lon="2.11707">
        <ele>112.61</ele>
        <time>2015-01-17T14:36:16Z</time>
      </trkpt>
      <trkpt lat="48.7126" lon="2.11695">
        <ele>113.09</ele>
        <time>2015-01-17T14:36:27Z</time>
      </trkpt>
      <trkpt lat="48.71265" lon="2.11684">
        <ele>114.05</ele>
        <time>2015-01-17T14:36:40Z</time>
      </trkpt>
      <trkpt lat="48.71269" lon="2.11661">
        <ele>115.01</ele>
        <time>2015-01-17T14:36:54Z</time>
      </trkpt>
      <trkpt lat="48.7127" lon="2.11655">
        <ele>115.5</ele>
        <time>2015-01-17T14:37:05Z</time>
      </trkpt>
      <trkpt lat="48.71274" lon="2.11639">
        <ele>115.5</ele>
        <time>2015-01-17T14:37:17Z</time>
      </trkpt>
      <trkpt lat="48.7128" lon="2.11622">
        <ele>115.98</ele>
        <time>2015-01-17T14:37:30Z</time>
      </trkpt>
      <trkpt lat="48.71282" lon="2.11622">
        <ele>115.5</ele>
        <time>2015-01-17T14:37:33Z</time>
      </trkpt>
      <trkpt lat="48.71283" lon="2.11615">
        <ele>115.98</ele>
        <time>2015-01-17T14:37:43Z</time>
      </trkpt>
      <trkpt lat="48.71284" lon="2.11612">
        <ele>115.98</ele>
        <time>2015-01-17T14:37:56Z</time>
      </trkpt>
      <trkpt lat="48.71286" lon="2.11611">
        <ele>115.98</ele>
        <time>2015-01-17T14:38:08Z</time>
      </trkpt>
      <trkpt lat="48.71287" lon="2.11606">
        <ele>116.46</ele>
        <time>2015-01-17T14:38:19Z</time>
      </trkpt>
      <trkpt lat="48.7129" lon="2.11604">
        <ele>116.46</ele>
        <time>2015-01-17T14:38:28Z</time>
      </trkpt>
      <trkpt lat="48.71296" lon="2.11594">
        <ele>116.94</ele>
        <time>2015-01-17T14:38:39Z</time>
      </trkpt>
      <trkpt lat="48.71299" lon="2.11591">
        <ele>116.94</ele>
        <time>2015-01-17T14:38:43Z</time>
      </trkpt>
      <trkpt lat="48.7132" lon="2.11562">
        <ele>115.01</ele>
        <time>2015-01-17T14:38:56Z</time>
      </trkpt>
      <trkpt lat="48.71327" lon="2.11551">
        <ele>114.05</ele>
        <time>2015-01-17T14:39:07Z</time>
      </trkpt>
      <trkpt lat="48.71331" lon="2.11544">
        <ele>113.09</ele>
        <time>2015-01-17T14:39:18Z</time>
      </trkpt>
      <trkpt lat="48.71334" lon="2.11541">
        <ele>113.57</ele>
        <time>2015-01-17T14:39:32Z</time>
      </trkpt>
      <trkpt lat="48.71344" lon="2.11536">
        <ele>113.57</ele>
        <time>2015-01-17T14:39:43Z</time>
      </trkpt>
      <trkpt lat="48.71346" lon="2.11533">
        <ele>113.57</ele>
        <time>2015-01-17T14:39:48Z</time>
      </trkpt>
      <trkpt lat="48.7135" lon="2.11529">
        <ele>113.57</ele>
        <time>2015-01-17T14:39:51Z</time>
      </trkpt>
      <trkpt lat="48.71358" lon="2.11517">
        <ele>114.05</ele>
        <time>2015-01-17T14:40:03Z</time>
      </trkpt>
      <trkpt lat="48.7136" lon="2.11514">
        <ele>114.05</ele>
        <time>2015-01-17T14:40:08Z</time>
      </trkpt>
      <trkpt lat="48.71367" lon="2.11507">
        <ele>113.57</ele>
        <time>2015-01-17T14:40:16Z</time>
      </trkpt>
      <trkpt lat="48.71377" lon="2.11502">
        <ele>113.09</ele>
        <time>2015-01-17T14:40:28Z</time>
      </trkpt>
      <trkpt lat="48.71388" lon="2.11493">
        <ele>112.61</ele>
        <time>2015-01-17T14:40:38Z</time>
      </trkpt>
      <trkpt lat="48.71402" lon="2.11485">
        <ele>112.13</ele>
        <time>2015-01-17T14:40:51Z</time>
      </trkpt>
      <trkpt lat="48.71404" lon="2.11482">
        <ele>112.13</ele>
        <time>2015-01-17T14:40:56Z</time>
      </trkpt>
      <trkpt lat="48.7141" lon="2.11473">
        <ele>111.65</ele>
        <time>2015-01-17T14:41:09Z</time>
      </trkpt>
      <trkpt lat="48.71412" lon="2.11459">
        <ele>111.65</ele>
        <time>2015-01-17T14:41:20Z</time>
      </trkpt>
      <trkpt lat="48.71419" lon="2.11441">
        <ele>111.65</ele>
        <time>2015-01-17T14:41:35Z</time>
      </trkpt>
      <trkpt lat="48.71416" lon="2.11439">
        <ele>111.65</ele>
        <time>2015-01-17T14:41:53Z</time>
      </trkpt>
      <trkpt lat="48.71416" lon="2.11438">
        <ele>111.65</ele>
        <time>2015-01-17T14:42:08Z</time>
      </trkpt>
      <trkpt lat="48.71415" lon="2.11438">
        <ele>111.65</ele>
        <time>2015-01-17T14:42:11Z</time>
      </trkpt>
      <trkpt lat="48.71415" lon="2.11426">
        <ele>112.13</ele>
        <time>2015-01-17T14:42:21Z</time>
      </trkpt>
      <trkpt lat="48.71417" lon="2.11421">
        <ele>112.13</ele>
        <time>2015-01-17T14:42:32Z</time>
      </trkpt>
      <trkpt lat="48.71419" lon="2.1142">
        <ele>112.61</ele>
        <time>2015-01-17T14:42:49Z</time>
      </trkpt>
      <trkpt lat="48.71421" lon="2.11419">
        <ele>112.61</ele>
        <time>2015-01-17T14:43:01Z</time>
      </trkpt>
      <trkpt lat="48.71425" lon="2.1142">
        <ele>112.61</ele>
        <time>2015-01-17T14:43:17Z</time>
      </trkpt>
      <trkpt lat="48.71426" lon="2.11421">
        <ele>113.09</ele>
        <time>2015-01-17T14:43:29Z</time>
      </trkpt>
      <trkpt lat="48.71426" lon="2.11421">
        <ele>112.61</ele>
        <time>2015-01-17T14:43:48Z</time>
      </trkpt>
      <trkpt lat="48.71426" lon="2.1142">
        <ele>113.09</ele>
        <time>2015-01-17T14:44:02Z</time>
      </trkpt>
      <trkpt lat="48.71427" lon="2.1142">
        <ele>113.09</ele>
        <time>2015-01-17T14:44:18Z</time>
      </trkpt>
      <trkpt lat="48.71428" lon="2.1142">
        <ele>113.09</ele>
        <time>2015-01-17T14:44:31Z</time>
      </trkpt>
      <trkpt lat="48.71428" lon="2.11421">
        <ele>113.09</ele>
        <time>2015-01-17T14:44:43Z</time>
      </trkpt>
      <trkpt lat="48.7143" lon="2.11424">
        <ele>113.09</ele>
        <time>2015-01-17T14:44:59Z</time>
      </trkpt>
      <trkpt lat="48.71432" lon="2.11426">
        <ele>115.01</ele>
        <time>2015-01-17T14:45:09Z</time>
      </trkpt>
      <trkpt lat="48.71439" lon="2.11426">
        <ele>116.94</ele>
        <time>2015-01-17T14:45:23Z</time>
      </trkpt>
      <trkpt lat="48.71447" lon="2.11429">
        <ele>119.34</ele>
        <time>2015-01-17T14:45:36Z</time>
      </trkpt>
      <trkpt lat="48.71449" lon="2.1143">
        <ele>121.74</ele>
        <time>2015-01-17T14:45:50Z</time>
      </trkpt>
      <trkpt lat="48.7145" lon="2.1143">
        <ele>124.15</ele>
        <time>2015-01-17T14:46:04Z</time>
      </trkpt>
      <trkpt lat="48.71454" lon="2.11433">
        <ele>126.55</ele>
        <time>2015-01-17T14:46:18Z</time>
      </trkpt>
      <trkpt lat="48.71462" lon="2.11441">
        <ele>127.99</ele>
        <time>2015-01-17T14:46:28Z</time>
      </trkpt>
      <trkpt lat="48.71465" lon="2.11453">
        <ele>128.47</ele>
        <time>2015-01-17T14:46:40Z</time>
      </trkpt>
      <trkpt lat="48.71474" lon="2.11461">
        <ele>130.88</ele>
        <time>2015-01-17T14:46:53Z</time>
      </trkpt>
      <trkpt lat="48.71477" lon="2.11468">
        <ele>131.84</ele>
        <time>2015-01-17T14:47:05Z</time>
      </trkpt>
      <trkpt lat="48.71479" lon="2.11471">
        <ele>133.76</ele>
        <time>2015-01-17T14:47:22Z</time>
      </trkpt>
      <trkpt lat="48.7148" lon="2.11471">
        <ele>136.64</ele>
        <time>2015-01-17T14:47:37Z</time>
      </trkpt>
      <trkpt lat="48.71481" lon="2.1147">
        <ele>139.05</ele>
        <time>2015-01-17T14:47:50Z</time>
      </trkpt>
      <trkpt lat="48.71481" lon="2.11468">
        <ele>140.97</ele>
        <time>2015-01-17T14:48:03Z</time>
      </trkpt>
      <trkpt lat="48.71483" lon="2.11464">
        <ele>143.37</ele>
        <time>2015-01-17T14:48:17Z</time>
      </trkpt>
      <trkpt lat="48.71483" lon="2.11461">
        <ele>144.82</ele>
        <time>2015-01-17T14:48:29Z</time>
      </trkpt>
      <trkpt lat="48.71484" lon="2.11457">
        <ele>147.7</ele>
        <time>2015-01-17T14:48:41Z</time>
      </trkpt>
      <trkpt lat="48.71487" lon="2.11452">
        <ele>148.18</ele>
        <time>2015-01-17T14:48:54Z</time>
      </trkpt>
      <trkpt lat="48.71488" lon="2.11447">
        <ele>148.18</ele>
        <time>2015-01-17T14:49:08Z</time>
      </trkpt>
      <trkpt lat="48.71492" lon="2.1144">
        <ele>148.18</ele>
        <time>2015-01-17T14:49:28Z</time>
      </trkpt>
      <trkpt lat="48.715" lon="2.1143">
        <ele>148.18</ele>
        <time>2015-01-17T14:49:42Z</time>
      </trkpt>
      <trkpt lat="48.71503" lon="2.11427">
        <ele>148.18</ele>
        <time>2015-01-17T14:49:55Z</time>
      </trkpt>
      <trkpt lat="48.71504" lon="2.11423">
        <ele>148.18</ele>
        <time>2015-01-17T14:50:15Z</time>
      </trkpt>
      <trkpt lat="48.71507" lon="2.1142">
        <ele>148.18</ele>
        <time>2015-01-17T14:50:30Z</time>
      </trkpt>
      <trkpt lat="48.71508" lon="2.1142">
        <ele>148.18</ele>
        <time>2015-01-17T14:50:53Z</time>
      </trkpt>
      <trkpt lat="48.71509" lon="2.1142">
        <ele>147.7</ele>
        <time>2015-01-17T14:51:14Z</time>
      </trkpt>
      <trkpt lat="48.7151" lon="2.11419">
        <ele>147.7</ele>
        <time>2015-01-17T14:51:35Z</time>
      </trkpt>
      <trkpt lat="48.71511" lon="2.11419">
        <ele>147.7</ele>
        <time>2015-01-17T14:51:51Z</time>
      </trkpt>
      <trkpt lat="48.71512" lon="2.11418">
        <ele>147.7</ele>
        <time>2015-01-17T14:52:18Z</time>
      </trkpt>
      <trkpt lat="48.71512" lon="2.11419">
        <ele>147.22</ele>
        <time>2015-01-17T14:52:35Z</time>
      </trkpt>
      <trkpt lat="48.71513" lon="2.11413">
        <ele>146.74</ele>
        <time>2015-01-17T14:52:53Z</time>
      </trkpt>
      <trkpt lat="48.71511" lon="2.11396">
        <ele>147.7</ele>
        <time>2015-01-17T14:53:05Z</time>
      </trkpt>
      <trkpt lat="48.71511" lon="2.11384">
        <ele>148.66</ele>
        <time>2015-01-17T14:53:16Z</time>
      </trkpt>
      <trkpt lat="48.7151" lon="2.11365">
        <ele>149.14</ele>
        <time>2015-01-17T14:53:30Z</time>
      </trkpt>
      <trkpt lat="48.71511" lon="2.11364">
        <ele>149.14</ele>
        <time>2015-01-17T14:53:31Z</time>
      </trkpt>
      <trkpt lat="48.71513" lon="2.11344">
        <ele>150.58</ele>
        <time>2015-01-17T14:53:46Z</time>
      </trkpt>
      <trkpt lat="48.71515" lon="2.11325">
        <ele>150.1</ele>
        <time>2015-01-17T14:53:58Z</time>
      </trkpt>
      <trkpt lat="48.71518" lon="2.11307">
        <ele>151.06</ele>
        <time>2015-01-17T14:54:11Z</time>
      </trkpt>
      <trkpt lat="48.71516" lon="2.11293">
        <ele>151.54</ele>
        <time>2015-01-17T14:54:23Z</time>
      </trkpt>
      <trkpt lat="48.71517" lon="2.11278">
        <ele>152.99</ele>
        <time>2015-01-17T14:54:36Z</time>
      </trkpt>
      <trkpt lat="48.71517" lon="2.11259">
        <ele>153.95</ele>
        <time>2015-01-17T14:54:48Z</time>
      </trkpt>
      <trkpt lat="48.71517" lon="2.11247">
        <ele>155.39</ele>
        <time>2015-01-17T14:55:01Z</time>
      </trkpt>
      <trkpt lat="48.71516" lon="2.11236">
        <ele>155.87</ele>
        <time>2015-01-17T14:55:11Z</time>
      </trkpt>
      <trkpt lat="48.7152" lon="2.1122">
        <ele>157.31</ele>
        <time>2015-01-17T14:55:24Z</time>
      </trkpt>
      <trkpt lat="48.7153" lon="2.11196">
        <ele>159.24</ele>
        <time>2015-01-17T14:55:35Z</time>
      </trkpt>
      <trkpt lat="48.71531" lon="2.11189">
        <ele>161.64</ele>
        <time>2015-01-17T14:55:50Z</time>
      </trkpt>
      <trkpt lat="48.71531" lon="2.11178">
        <ele>161.64</ele>
        <time>2015-01-17T14:56:01Z</time>
      </trkpt>
      <trkpt lat="48.71533" lon="2.11169">
        <ele>162.12</ele>
        <time>2015-01-17T14:56:12Z</time>
      </trkpt>
      <trkpt lat="48.71534" lon="2.11161">
        <ele>161.16</ele>
        <time>2015-01-17T14:56:24Z</time>
      </trkpt>
      <trkpt lat="48.71536" lon="2.11151">
        <ele>161.16</ele>
        <time>2015-01-17T14:56:34Z</time>
      </trkpt>
      <trkpt lat="48.71539" lon="2.1114">
        <ele>160.68</ele>
        <time>2015-01-17T14:56:45Z</time>
      </trkpt>
      <trkpt lat="48.71542" lon="2.11132">
        <ele>159.72</ele>
        <time>2015-01-17T14:56:56Z</time>
      </trkpt>
      <trkpt lat="48.71547" lon="2.11112">
        <ele>160.2</ele>
        <time>2015-01-17T14:57:08Z</time>
      </trkpt>
      <trkpt lat="48.71551" lon="2.11092">
        <ele>160.2</ele>
        <time>2015-01-17T14:57:19Z</time>
      </trkpt>
      <trkpt lat="48.71552" lon="2.11089">
        <ele>160.2</ele>
        <time>2015-01-17T14:57:20Z</time>
      </trkpt>
      <trkpt lat="48.71557" lon="2.11067">
        <ele>160.2</ele>
        <time>2015-01-17T14:57:28Z</time>
      </trkpt>
      <trkpt lat="48.71565" lon="2.11044">
        <ele>160.2</ele>
        <time>2015-01-17T14:57:39Z</time>
      </trkpt>
      <trkpt lat="48.71568" lon="2.11033">
        <ele>160.2</ele>
        <time>2015-01-17T14:57:43Z</time>
      </trkpt>
      <trkpt lat="48.7157" lon="2.11019">
        <ele>160.2</ele>
        <time>2015-01-17T14:57:53Z</time>
      </trkpt>
      <trkpt lat="48.71569" lon="2.11013">
        <ele>160.2</ele>
        <time>2015-01-17T14:57:57Z</time>
      </trkpt>
      <trkpt lat="48.7157" lon="2.11008">
        <ele>159.72</ele>
        <time>2015-01-17T14:58:00Z</time>
      </trkpt>
      <trkpt lat="48.71575" lon="2.10977">
        <ele>159.24</ele>
        <time>2015-01-17T14:58:12Z</time>
      </trkpt>
      <trkpt lat="48.71574" lon="2.10967">
        <ele>158.27</ele>
        <time>2015-01-17T14:58:19Z</time>
      </trkpt>
      <trkpt lat="48.71564" lon="2.10953">
        <ele>156.83</ele>
        <time>2015-01-17T14:58:32Z</time>
      </trkpt>
      <trkpt lat="48.71565" lon="2.10947">
        <ele>156.83</ele>
        <time>2015-01-17T14:58:43Z</time>
      </trkpt>
      <trkpt lat="48.71565" lon="2.10936">
        <ele>157.79</ele>
        <time>2015-01-17T14:58:52Z</time>
      </trkpt>
      <trkpt lat="48.71567" lon="2.10924">
        <ele>158.75</ele>
        <time>2015-01-17T14:58:59Z</time>
      </trkpt>
      <trkpt lat="48.71569" lon="2.10916">
        <ele>159.24</ele>
        <time>2015-01-17T14:59:03Z</time>
      </trkpt>
      <trkpt lat="48.71571" lon="2.10911">
        <ele>159.72</ele>
        <time>2015-01-17T14:59:06Z</time>
      </trkpt>
      <trkpt lat="48.71572" lon="2.10894">
        <ele>159.72</ele>
        <time>2015-01-17T14:59:16Z</time>
      </trkpt>
      <trkpt lat="48.71571" lon="2.10891">
        <ele>160.2</ele>
        <time>2015-01-17T14:59:18Z</time>
      </trkpt>
      <trkpt lat="48.71572" lon="2.10887">
        <ele>160.2</ele>
        <time>2015-01-17T14:59:20Z</time>
      </trkpt>
      <trkpt lat="48.71571" lon="2.10871">
        <ele>160.2</ele>
        <time>2015-01-17T14:59:31Z</time>
      </trkpt>
      <trkpt lat="48.71571" lon="2.10851">
        <ele>160.2</ele>
        <time>2015-01-17T14:59:44Z</time>
      </trkpt>
      <trkpt lat="48.71567" lon="2.10833">
        <ele>159.72</ele>
        <time>2015-01-17T14:59:56Z</time>
      </trkpt>
      <trkpt lat="48.71564" lon="2.10817">
        <ele>159.24</ele>
        <time>2015-01-17T15:00:07Z</time>
      </trkpt>
      <trkpt lat="48.71563" lon="2.10813">
        <ele>159.24</ele>
        <time>2015-01-17T15:00:11Z</time>
      </trkpt>
      <trkpt lat="48.71563" lon="2.10804">
        <ele>158.75</ele>
        <time>2015-01-17T15:00:17Z</time>
      </trkpt>
      <trkpt lat="48.71557" lon="2.10781">
        <ele>159.24</ele>
        <time>2015-01-17T15:00:28Z</time>
      </trkpt>
      <trkpt lat="48.71555" lon="2.10768">
        <ele>159.24</ele>
        <time>2015-01-17T15:00:38Z</time>
      </trkpt>
      <trkpt lat="48.71548" lon="2.10741">
        <ele>159.24</ele>
        <time>2015-01-17T15:00:52Z</time>
      </trkpt>
      <trkpt lat="48.71542" lon="2.10719">
        <ele>159.24</ele>
        <time>2015-01-17T15:01:05Z</time>
      </trkpt>
      <trkpt lat="48.71539" lon="2.10704">
        <ele>159.24</ele>
        <time>2015-01-17T15:01:17Z</time>
      </trkpt>
      <trkpt lat="48.71538" lon="2.1069">
        <ele>159.72</ele>
        <time>2015-01-17T15:01:26Z</time>
      </trkpt>
      <trkpt lat="48.71537" lon="2.10668">
        <ele>159.24</ele>
        <time>2015-01-17T15:01:38Z</time>
      </trkpt>
      <trkpt lat="48.71537" lon="2.10653">
        <ele>159.72</ele>
        <time>2015-01-17T15:01:50Z</time>
      </trkpt>
      <trkpt lat="48.71537" lon="2.10638">
        <ele>159.72</ele>
        <time>2015-01-17T15:02:00Z</time>
      </trkpt>
      <trkpt lat="48.71542" lon="2.10612">
        <ele>160.2</ele>
        <time>2015-01-17T15:02:13Z</time>
      </trkpt>
      <trkpt lat="48.71543" lon="2.10595">
        <ele>160.2</ele>
        <time>2015-01-17T15:02:25Z</time>
      </trkpt>
      <trkpt lat="48.71544" lon="2.10593">
        <ele>160.2</ele>
        <time>2015-01-17T15:02:26Z</time>
      </trkpt>
      <trkpt lat="48.71546" lon="2.10578">
        <ele>160.2</ele>
        <time>2015-01-17T15:02:38Z</time>
      </trkpt>
      <trkpt lat="48.7155" lon="2.10563">
        <ele>159.72</ele>
        <time>2015-01-17T15:02:48Z</time>
      </trkpt>
      <trkpt lat="48.7155" lon="2.10558">
        <ele>160.2</ele>
        <time>2015-01-17T15:02:53Z</time>
      </trkpt>
      <trkpt lat="48.71552" lon="2.10539">
        <ele>159.24</ele>
        <time>2015-01-17T15:03:04Z</time>
      </trkpt>
      <trkpt lat="48.71553" lon="2.10525">
        <ele>158.75</ele>
        <time>2015-01-17T15:03:11Z</time>
      </trkpt>
      <trkpt lat="48.71556" lon="2.10502">
        <ele>159.24</ele>
        <time>2015-01-17T15:03:21Z</time>
      </trkpt>
      <trkpt lat="48.71555" lon="2.10482">
        <ele>159.24</ele>
        <time>2015-01-17T15:03:34Z</time>
      </trkpt>
      <trkpt lat="48.71553" lon="2.10476">
        <ele>158.75</ele>
        <time>2015-01-17T15:03:41Z</time>
      </trkpt>
      <trkpt lat="48.7155" lon="2.10461">
        <ele>159.24</ele>
        <time>2015-01-17T15:03:53Z</time>
      </trkpt>
      <trkpt lat="48.71551" lon="2.10459">
        <ele>158.75</ele>
        <time>2015-01-17T15:03:55Z</time>
      </trkpt>
      <trkpt lat="48.71548" lon="2.10431">
        <ele>158.27</ele>
        <time>2015-01-17T15:04:08Z</time>
      </trkpt>
      <trkpt lat="48.71546" lon="2.10417">
        <ele>158.27</ele>
        <time>2015-01-17T15:04:18Z</time>
      </trkpt>
      <trkpt lat="48.71546" lon="2.10397">
        <ele>160.2</ele>
        <time>2015-01-17T15:04:29Z</time>
      </trkpt>
      <trkpt lat="48.71541" lon="2.10383">
        <ele>160.2</ele>
        <time>2015-01-17T15:04:41Z</time>
      </trkpt>
      <trkpt lat="48.71539" lon="2.1038">
        <ele>160.2</ele>
        <time>2015-01-17T15:05:01Z</time>
      </trkpt>
      <trkpt lat="48.71533" lon="2.10379">
        <ele>160.2</ele>
        <time>2015-01-17T15:05:17Z</time>
      </trkpt>
      <trkpt lat="48.71527" lon="2.10379">
        <ele>159.72</ele>
        <time>2015-01-17T15:05:22Z</time>
      </trkpt>
      <trkpt lat="48.7152" lon="2.10381">
        <ele>159.72</ele>
        <time>2015-01-17T15:05:34Z</time>
      </trkpt>
      <trkpt lat="48.71514" lon="2.10383">
        <ele>159.72</ele>
        <time>2015-01-17T15:05:53Z</time>
      </trkpt>
      <trkpt lat="48.7151" lon="2.10383">
        <ele>159.72</ele>
        <time>2015-01-17T15:06:01Z</time>
      </trkpt>
      <trkpt lat="48.715" lon="2.10386">
        <ele>160.2</ele>
        <time>2015-01-17T15:06:12Z</time>
      </trkpt>
      <trkpt lat="48.71493" lon="2.10399">
        <ele>158.75</ele>
        <time>2015-01-17T15:06:22Z</time>
      </trkpt>
      <trkpt lat="48.7149" lon="2.10406">
        <ele>158.75</ele>
        <time>2015-01-17T15:06:27Z</time>
      </trkpt>
      <trkpt lat="48.71488" lon="2.1041">
        <ele>158.27</ele>
        <time>2015-01-17T15:06:30Z</time>
      </trkpt>
      <trkpt lat="48.71486" lon="2.10417">
        <ele>158.75</ele>
        <time>2015-01-17T15:06:34Z</time>
      </trkpt>
      <trkpt lat="48.71483" lon="2.10423">
        <ele>158.27</ele>
        <time>2015-01-17T15:06:38Z</time>
      </trkpt>
      <trkpt lat="48.71478" lon="2.10435">
        <ele>158.27</ele>
        <time>2015-01-17T15:06:46Z</time>
      </trkpt>
      <trkpt lat="48.71475" lon="2.10441">
        <ele>158.27</ele>
        <time>2015-01-17T15:06:51Z</time>
      </trkpt>
      <trkpt lat="48.71471" lon="2.10451">
        <ele>158.27</ele>
        <time>2015-01-17T15:06:58Z</time>
      </trkpt>
      <trkpt lat="48.71467" lon="2.10459">
        <ele>157.79</ele>
        <time>2015-01-17T15:07:04Z</time>
      </trkpt>
      <trkpt lat="48.7146" lon="2.10479">
        <ele>157.79</ele>
        <time>2015-01-17T15:07:17Z</time>
      </trkpt>
      <trkpt lat="48.71452" lon="2.10495">
        <ele>157.31</ele>
        <time>2015-01-17T15:07:29Z</time>
      </trkpt>
      <trkpt lat="48.71441" lon="2.10509">
        <ele>157.79</ele>
        <time>2015-01-17T15:07:41Z</time>
      </trkpt>
      <trkpt lat="48.71439" lon="2.1051">
        <ele>158.27</ele>
        <time>2015-01-17T15:07:43Z</time>
      </trkpt>
      <trkpt lat="48.71435" lon="2.1052">
        <ele>158.27</ele>
        <time>2015-01-17T15:07:50Z</time>
      </trkpt>
      <trkpt lat="48.71427" lon="2.10538">
        <ele>158.75</ele>
        <time>2015-01-17T15:08:02Z</time>
      </trkpt>
      <trkpt lat="48.7142" lon="2.10555">
        <ele>158.75</ele>
        <time>2015-01-17T15:08:14Z</time>
      </trkpt>
      <trkpt lat="48.71413" lon="2.10568">
        <ele>158.75</ele>
        <time>2015-01-17T15:08:23Z</time>
      </trkpt>
      <trkpt lat="48.71412" lon="2.10572">
        <ele>158.75</ele>
        <time>2015-01-17T15:08:26Z</time>
      </trkpt>
      <trkpt lat="48.71408" lon="2.1058">
        <ele>158.75</ele>
        <time>2015-01-17T15:08:34Z</time>
      </trkpt>
      <trkpt lat="48.71406" lon="2.10584">
        <ele>158.75</ele>
        <time>2015-01-17T15:08:37Z</time>
      </trkpt>
      <trkpt lat="48.71402" lon="2.10589">
        <ele>158.75</ele>
        <time>2015-01-17T15:08:41Z</time>
      </trkpt>
      <trkpt lat="48.71392" lon="2.10605">
        <ele>158.75</ele>
        <time>2015-01-17T15:08:55Z</time>
      </trkpt>
      <trkpt lat="48.7139" lon="2.10607">
        <ele>159.24</ele>
        <time>2015-01-17T15:08:57Z</time>
      </trkpt>
      <trkpt lat="48.71382" lon="2.10614">
        <ele>159.72</ele>
        <time>2015-01-17T15:09:05Z</time>
      </trkpt>
      <trkpt lat="48.71378" lon="2.10635">
        <ele>159.24</ele>
        <time>2015-01-17T15:09:19Z</time>
      </trkpt>
      <trkpt lat="48.71376" lon="2.10637">
        <ele>159.24</ele>
        <time>2015-01-17T15:09:31Z</time>
      </trkpt>
      <trkpt lat="48.71377" lon="2.10635">
        <ele>159.24</ele>
        <time>2015-01-17T15:09:46Z</time>
      </trkpt>
      <trkpt lat="48.71376" lon="2.10637">
        <ele>159.24</ele>
        <time>2015-01-17T15:10:02Z</time>
      </trkpt>
      <trkpt lat="48.71375" lon="2.10637">
        <ele>158.75</ele>
        <time>2015-01-17T15:10:24Z</time>
      </trkpt>
      <trkpt lat="48.71374" lon="2.10638">
        <ele>158.75</ele>
        <time>2015-01-17T15:10:48Z</time>
      </trkpt>
      <trkpt lat="48.71374" lon="2.10638">
        <ele>158.75</ele>
        <time>2015-01-17T15:11:09Z</time>
      </trkpt>
      <trkpt lat="48.71374" lon="2.10638">
        <ele>158.27</ele>
        <time>2015-01-17T15:11:29Z</time>
      </trkpt>
      <trkpt lat="48.71374" lon="2.10638">
        <ele>158.75</ele>
        <time>2015-01-17T15:11:35Z</time>
      </trkpt>
      <trkpt lat="48.71372" lon="2.10638">
        <ele>158.75</ele>
        <time>2015-01-17T15:11:38Z</time>
      </trkpt>
      <trkpt lat="48.71362" lon="2.10641">
        <ele>159.24</ele>
        <time>2015-01-17T15:11:49Z</time>
      </trkpt>
      <trkpt lat="48.71349" lon="2.1064">
        <ele>159.72</ele>
        <time>2015-01-17T15:12:01Z</time>
      </trkpt>
      <trkpt lat="48.71338" lon="2.10643">
        <ele>160.2</ele>
        <time>2015-01-17T15:12:12Z</time>
      </trkpt>
      <trkpt lat="48.71333" lon="2.10642">
        <ele>160.2</ele>
        <time>2015-01-17T15:12:16Z</time>
      </trkpt>
      <trkpt lat="48.71327" lon="2.10643">
        <ele>160.2</ele>
        <time>2015-01-17T15:12:21Z</time>
      </trkpt>
      <trkpt lat="48.71322" lon="2.10646">
        <ele>160.2</ele>
        <time>2015-01-17T15:12:26Z</time>
      </trkpt>
      <trkpt lat="48.71318" lon="2.10647">
        <ele>160.68</ele>
        <time>2015-01-17T15:12:30Z</time>
      </trkpt>
      <trkpt lat="48.71316" lon="2.10649">
        <ele>160.68</ele>
        <time>2015-01-17T15:12:32Z</time>
      </trkpt>
      <trkpt lat="48.71309" lon="2.10651">
        <ele>160.68</ele>
        <time>2015-01-17T15:12:39Z</time>
      </trkpt>
      <trkpt lat="48.71307" lon="2.10654">
        <ele>160.68</ele>
        <time>2015-01-17T15:12:41Z</time>
      </trkpt>
      <trkpt lat="48.71296" lon="2.10656">
        <ele>161.16</ele>
        <time>2015-01-17T15:12:50Z</time>
      </trkpt>
      <trkpt lat="48.71293" lon="2.10657">
        <ele>161.16</ele>
        <time>2015-01-17T15:12:53Z</time>
      </trkpt>
      <trkpt lat="48.7128" lon="2.10661">
        <ele>161.16</ele>
        <time>2015-01-17T15:13:05Z</time>
      </trkpt>
      <trkpt lat="48.71264" lon="2.10666">
        <ele>161.64</ele>
        <time>2015-01-17T15:13:18Z</time>
      </trkpt>
      <trkpt lat="48.71249" lon="2.1067">
        <ele>161.64</ele>
        <time>2015-01-17T15:13:29Z</time>
      </trkpt>
      <trkpt lat="48.71244" lon="2.10671">
        <ele>161.64</ele>
        <time>2015-01-17T15:13:33Z</time>
      </trkpt>
      <trkpt lat="48.7124" lon="2.1067">
        <ele>161.64</ele>
        <time>2015-01-17T15:13:37Z</time>
      </trkpt>
      <trkpt lat="48.7123" lon="2.10673">
        <ele>162.12</ele>
        <time>2015-01-17T15:13:45Z</time>
      </trkpt>
      <trkpt lat="48.71228" lon="2.10673">
        <ele>162.12</ele>
        <time>2015-01-17T15:13:47Z</time>
      </trkpt>
      <trkpt lat="48.71213" lon="2.10679">
        <ele>161.64</ele>
        <time>2015-01-17T15:14:00Z</time>
      </trkpt>
      <trkpt lat="48.71201" lon="2.10682">
        <ele>162.12</ele>
        <time>2015-01-17T15:14:11Z</time>
      </trkpt>
      <trkpt lat="48.71197" lon="2.10682">
        <ele>162.12</ele>
        <time>2015-01-17T15:14:14Z</time>
      </trkpt>
      <trkpt lat="48.71185" lon="2.10686">
        <ele>161.64</ele>
        <time>2015-01-17T15:14:25Z</time>
      </trkpt>
      <trkpt lat="48.71181" lon="2.10685">
        <ele>161.64</ele>
        <time>2015-01-17T15:14:31Z</time>
      </trkpt>
      <trkpt lat="48.71172" lon="2.10682">
        <ele>162.12</ele>
        <time>2015-01-17T15:14:42Z</time>
      </trkpt>
      <trkpt lat="48.7116" lon="2.10677">
        <ele>162.12</ele>
        <time>2015-01-17T15:14:55Z</time>
      </trkpt>
      <trkpt lat="48.71159" lon="2.10676">
        <ele>162.12</ele>
        <time>2015-01-17T15:14:56Z</time>
      </trkpt>
      <trkpt lat="48.71157" lon="2.10674">
        <ele>162.12</ele>
        <time>2015-01-17T15:14:59Z</time>
      </trkpt>
      <trkpt lat="48.71142" lon="2.10679">
        <ele>162.12</ele>
        <time>2015-01-17T15:15:10Z</time>
      </trkpt>
      <trkpt lat="48.71134" lon="2.10687">
        <ele>162.12</ele>
        <time>2015-01-17T15:15:19Z</time>
      </trkpt>
      <trkpt lat="48.71128" lon="2.10699">
        <ele>161.64</ele>
        <time>2015-01-17T15:15:30Z</time>
      </trkpt>
      <trkpt lat="48.71126" lon="2.10714">
        <ele>161.64</ele>
        <time>2015-01-17T15:15:41Z</time>
      </trkpt>
      <trkpt lat="48.71127" lon="2.10729">
        <ele>162.12</ele>
        <time>2015-01-17T15:15:52Z</time>
      </trkpt>
      <trkpt lat="48.71129" lon="2.10734">
        <ele>162.12</ele>
        <time>2015-01-17T15:16:03Z</time>
      </trkpt>
      <trkpt lat="48.71129" lon="2.10735">
        <ele>162.12</ele>
        <time>2015-01-17T15:16:15Z</time>
      </trkpt>
      <trkpt lat="48.7113" lon="2.10736">
        <ele>161.64</ele>
        <time>2015-01-17T15:16:33Z</time>
      </trkpt>
      <trkpt lat="48.71131" lon="2.10737">
        <ele>162.12</ele>
        <time>2015-01-17T15:16:54Z</time>
      </trkpt>
      <trkpt lat="48.71131" lon="2.10738">
        <ele>162.12</ele>
        <time>2015-01-17T15:17:14Z</time>
      </trkpt>
      <trkpt lat="48.71131" lon="2.10738">
        <ele>162.12</ele>
        <time>2015-01-17T15:17:30Z</time>
      </trkpt>
      <trkpt lat="48.71126" lon="2.10737">
        <ele>162.12</ele>
        <time>2015-01-17T15:17:47Z</time>
      </trkpt>
      <trkpt lat="48.71118" lon="2.10731">
        <ele>162.6</ele>
        <time>2015-01-17T15:17:57Z</time>
      </trkpt>
      <trkpt lat="48.7111" lon="2.10722">
        <ele>162.6</ele>
        <time>2015-01-17T15:18:09Z</time>
      </trkpt>
      <trkpt lat="48.71097" lon="2.10713">
        <ele>163.08</ele>
        <time>2015-01-17T15:18:21Z</time>
      </trkpt>
      <trkpt lat="48.71086" lon="2.10704">
        <ele>163.56</ele>
        <time>2015-01-17T15:18:33Z</time>
      </trkpt>
      <trkpt lat="48.71084" lon="2.10703">
        <ele>163.56</ele>
        <time>2015-01-17T15:18:35Z</time>
      </trkpt>
      <trkpt lat="48.71077" lon="2.10696">
        <ele>164.04</ele>
        <time>2015-01-17T15:18:41Z</time>
      </trkpt>
      <trkpt lat="48.7107" lon="2.10689">
        <ele>164.04</ele>
        <time>2015-01-17T15:18:51Z</time>
      </trkpt>
      <trkpt lat="48.71063" lon="2.10681">
        <ele>163.56</ele>
        <time>2015-01-17T15:19:00Z</time>
      </trkpt>
      <trkpt lat="48.71059" lon="2.10677">
        <ele>164.04</ele>
        <time>2015-01-17T15:19:03Z</time>
      </trkpt>
      <trkpt lat="48.71047" lon="2.10669">
        <ele>164.04</ele>
        <time>2015-01-17T15:19:13Z</time>
      </trkpt>
      <trkpt lat="48.71041" lon="2.10666">
        <ele>164.04</ele>
        <time>2015-01-17T15:19:24Z</time>
      </trkpt>
      <trkpt lat="48.71035" lon="2.10658">
        <ele>163.56</ele>
        <time>2015-01-17T15:19:34Z</time>
      </trkpt>
      <trkpt lat="48.71025" lon="2.10645">
        <ele>163.56</ele>
        <time>2015-01-17T15:19:46Z</time>
      </trkpt>
      <trkpt lat="48.71018" lon="2.10636">
        <ele>164.04</ele>
        <time>2015-01-17T15:19:52Z</time>
      </trkpt>
      <trkpt lat="48.71" lon="2.10627">
        <ele>163.56</ele>
        <time>2015-01-17T15:20:03Z</time>
      </trkpt>
      <trkpt lat="48.70991" lon="2.10616">
        <ele>163.56</ele>
        <time>2015-01-17T15:20:14Z</time>
      </trkpt>
      <trkpt lat="48.70982" lon="2.1061">
        <ele>163.08</ele>
        <time>2015-01-17T15:20:25Z</time>
      </trkpt>
      <trkpt lat="48.7098" lon="2.10603">
        <ele>163.56</ele>
        <time>2015-01-17T15:20:34Z</time>
      </trkpt>
      <trkpt lat="48.70974" lon="2.10597">
        <ele>163.56</ele>
        <time>2015-01-17T15:20:40Z</time>
      </trkpt>
      <trkpt lat="48.70975" lon="2.10593">
        <ele>163.56</ele>
        <time>2015-01-17T15:20:42Z</time>
      </trkpt>
      <trkpt lat="48.70963" lon="2.1058">
        <ele>163.56</ele>
        <time>2015-01-17T15:20:52Z</time>
      </trkpt>
      <trkpt lat="48.70954" lon="2.1057">
        <ele>163.08</ele>
        <time>2015-01-17T15:21:01Z</time>
      </trkpt>
      <trkpt lat="48.7094" lon="2.1056">
        <ele>163.56</ele>
        <time>2015-01-17T15:21:12Z</time>
      </trkpt>
      <trkpt lat="48.70927" lon="2.10554">
        <ele>163.08</ele>
        <time>2015-01-17T15:21:22Z</time>
      </trkpt>
      <trkpt lat="48.70915" lon="2.10544">
        <ele>163.08</ele>
        <time>2015-01-17T15:21:31Z</time>
      </trkpt>
      <trkpt lat="48.70909" lon="2.10538">
        <ele>163.08</ele>
        <time>2015-01-17T15:21:37Z</time>
      </trkpt>
      <trkpt lat="48.70904" lon="2.10535">
        <ele>163.08</ele>
        <time>2015-01-17T15:21:40Z</time>
      </trkpt>
      <trkpt lat="48.70888" lon="2.10527">
        <ele>163.08</ele>
        <time>2015-01-17T15:21:48Z</time>
      </trkpt>
      <trkpt lat="48.70874" lon="2.10517">
        <ele>163.08</ele>
        <time>2015-01-17T15:21:59Z</time>
      </trkpt>
      <trkpt lat="48.70868" lon="2.10511">
        <ele>163.08</ele>
        <time>2015-01-17T15:22:04Z</time>
      </trkpt>
      <trkpt lat="48.70853" lon="2.10505">
        <ele>163.08</ele>
        <time>2015-01-17T15:22:17Z</time>
      </trkpt>
      <trkpt lat="48.70849" lon="2.10503">
        <ele>163.08</ele>
        <time>2015-01-17T15:22:21Z</time>
      </trkpt>
      <trkpt lat="48.70836" lon="2.10492">
        <ele>162.6</ele>
        <time>2015-01-17T15:22:34Z</time>
      </trkpt>
      <trkpt lat="48.70832" lon="2.1049">
        <ele>162.6</ele>
        <time>2015-01-17T15:22:37Z</time>
      </trkpt>
      <trkpt lat="48.70826" lon="2.10478">
        <ele>162.6</ele>
        <time>2015-01-17T15:22:50Z</time>
      </trkpt>
      <trkpt lat="48.70826" lon="2.10477">
        <ele>162.6</ele>
        <time>2015-01-17T15:22:51Z</time>
      </trkpt>
      <trkpt lat="48.70825" lon="2.10475">
        <ele>162.6</ele>
        <time>2015-01-17T15:22:53Z</time>
      </trkpt>
      <trkpt lat="48.70823" lon="2.10471">
        <ele>162.6</ele>
        <time>2015-01-17T15:22:58Z</time>
      </trkpt>
      <trkpt lat="48.70813" lon="2.1046">
        <ele>162.6</ele>
        <time>2015-01-17T15:23:11Z</time>
      </trkpt>
      <trkpt lat="48.70811" lon="2.10458">
        <ele>162.6</ele>
        <time>2015-01-17T15:23:12Z</time>
      </trkpt>
      <trkpt lat="48.708" lon="2.10443">
        <ele>162.6</ele>
        <time>2015-01-17T15:23:22Z</time>
      </trkpt>
      <trkpt lat="48.70797" lon="2.10432">
        <ele>162.6</ele>
        <time>2015-01-17T15:23:33Z</time>
      </trkpt>
      <trkpt lat="48.70785" lon="2.10426">
        <ele>162.6</ele>
        <time>2015-01-17T15:23:42Z</time>
      </trkpt>
      <trkpt lat="48.70781" lon="2.10414">
        <ele>163.08</ele>
        <time>2015-01-17T15:23:52Z</time>
      </trkpt>
      <trkpt lat="48.70771" lon="2.10405">
        <ele>163.08</ele>
        <time>2015-01-17T15:24:01Z</time>
      </trkpt>
      <trkpt lat="48.70756" lon="2.104">
        <ele>163.08</ele>
        <time>2015-01-17T15:24:10Z</time>
      </trkpt>
      <trkpt lat="48.7074" lon="2.10389">
        <ele>163.56</ele>
        <time>2015-01-17T15:24:22Z</time>
      </trkpt>
      <trkpt lat="48.70729" lon="2.10379">
        <ele>163.56</ele>
        <time>2015-01-17T15:24:33Z</time>
      </trkpt>
      <trkpt lat="48.70727" lon="2.10378">
        <ele>163.56</ele>
        <time>2015-01-17T15:24:34Z</time>
      </trkpt>
      <trkpt lat="48.70716" lon="2.1037">
        <ele>163.08</ele>
        <time>2015-01-17T15:24:41Z</time>
      </trkpt>
      <trkpt lat="48.70703" lon="2.10364">
        <ele>161.64</ele>
        <time>2015-01-17T15:24:53Z</time>
      </trkpt>
      <trkpt lat="48.70702" lon="2.10363">
        <ele>161.16</ele>
        <time>2015-01-17T15:24:55Z</time>
      </trkpt>
      <trkpt lat="48.70697" lon="2.10363">
        <ele>160.2</ele>
        <time>2015-01-17T15:24:59Z</time>
      </trkpt>
      <trkpt lat="48.70683" lon="2.10364">
        <ele>157.31</ele>
        <time>2015-01-17T15:25:10Z</time>
      </trkpt>
      <trkpt lat="48.70675" lon="2.10362">
        <ele>155.87</ele>
        <time>2015-01-17T15:25:22Z</time>
      </trkpt>
      <trkpt lat="48.70668" lon="2.10362">
        <ele>154.43</ele>
        <time>2015-01-17T15:25:28Z</time>
      </trkpt>
      <trkpt lat="48.70662" lon="2.10355">
        <ele>151.54</ele>
        <time>2015-01-17T15:25:39Z</time>
      </trkpt>
      <trkpt lat="48.70658" lon="2.10353">
        <ele>149.62</ele>
        <time>2015-01-17T15:25:48Z</time>
      </trkpt>
      <trkpt lat="48.70647" lon="2.10348">
        <ele>146.74</ele>
        <time>2015-01-17T15:25:59Z</time>
      </trkpt>
      <trkpt lat="48.70646" lon="2.10347">
        <ele>146.74</ele>
        <time>2015-01-17T15:26:00Z</time>
      </trkpt>
      <trkpt lat="48.7064" lon="2.1034">
        <ele>144.34</ele>
        <time>2015-01-17T15:26:10Z</time>
      </trkpt>
      <trkpt lat="48.7064" lon="2.10335">
        <ele>142.89</ele>
        <time>2015-01-17T15:26:20Z</time>
      </trkpt>
      <trkpt lat="48.70638" lon="2.10325">
        <ele>140.01</ele>
        <time>2015-01-17T15:26:31Z</time>
      </trkpt>
      <trkpt lat="48.70633" lon="2.10316">
        <ele>137.61</ele>
        <time>2015-01-17T15:26:42Z</time>
      </trkpt>
      <trkpt lat="48.70633" lon="2.10309">
        <ele>135.2</ele>
        <time>2015-01-17T15:26:49Z</time>
      </trkpt>
      <trkpt lat="48.70633" lon="2.10295">
        <ele>133.76</ele>
        <time>2015-01-17T15:27:00Z</time>
      </trkpt>
      <trkpt lat="48.70633" lon="2.10288">
        <ele>132.8</ele>
        <time>2015-01-17T15:27:03Z</time>
      </trkpt>
      <trkpt lat="48.70631" lon="2.10274">
        <ele>129.43</ele>
        <time>2015-01-17T15:27:12Z</time>
      </trkpt>
      <trkpt lat="48.70631" lon="2.10273">
        <ele>129.43</ele>
        <time>2015-01-17T15:27:13Z</time>
      </trkpt>
      <trkpt lat="48.70626" lon="2.10262">
        <ele>126.07</ele>
        <time>2015-01-17T15:27:22Z</time>
      </trkpt>
      <trkpt lat="48.70623" lon="2.10248">
        <ele>122.71</ele>
        <time>2015-01-17T15:27:33Z</time>
      </trkpt>
      <trkpt lat="48.70616" lon="2.10241">
        <ele>119.82</ele>
        <time>2015-01-17T15:27:44Z</time>
      </trkpt>
      <trkpt lat="48.70611" lon="2.10244">
        <ele>118.38</ele>
        <time>2015-01-17T15:27:55Z</time>
      </trkpt>
      <trkpt lat="48.7061" lon="2.10247">
        <ele>117.9</ele>
        <time>2015-01-17T15:28:02Z</time>
      </trkpt>
      <trkpt lat="48.70604" lon="2.1025">
        <ele>117.42</ele>
        <time>2015-01-17T15:28:06Z</time>
      </trkpt>
      <trkpt lat="48.70586" lon="2.10255">
        <ele>116.46</ele>
        <time>2015-01-17T15:28:18Z</time>
      </trkpt>
      <trkpt lat="48.70581" lon="2.10257">
        <ele>114.53</ele>
        <time>2015-01-17T15:28:31Z</time>
      </trkpt>
      <trkpt lat="48.70576" lon="2.10261">
        <ele>111.65</ele>
        <time>2015-01-17T15:28:42Z</time>
      </trkpt>
      <trkpt lat="48.70567" lon="2.10264">
        <ele>108.77</ele>
        <time>2015-01-17T15:28:52Z</time>
      </trkpt>
      <trkpt lat="48.70564" lon="2.10261">
        <ele>107.32</ele>
        <time>2015-01-17T15:28:56Z</time>
      </trkpt>
      <trkpt lat="48.70553" lon="2.1027">
        <ele>105.88</ele>
        <time>2015-01-17T15:29:07Z</time>
      </trkpt>
      <trkpt lat="48.70552" lon="2.10272">
        <ele>105.88</ele>
        <time>2015-01-17T15:29:18Z</time>
      </trkpt>
      <trkpt lat="48.7055" lon="2.10273">
        <ele>105.88</ele>
        <time>2015-01-17T15:29:32Z</time>
      </trkpt>
      <trkpt lat="48.70545" lon="2.10272">
        <ele>105.88</ele>
        <time>2015-01-17T15:29:50Z</time>
      </trkpt>
      <trkpt lat="48.70547" lon="2.10273">
        <ele>105.88</ele>
        <time>2015-01-17T15:30:14Z</time>
      </trkpt>
      <trkpt lat="48.70547" lon="2.10273">
        <ele>105.88</ele>
        <time>2015-01-17T15:30:37Z</time>
      </trkpt>
      <trkpt lat="48.70547" lon="2.10273">
        <ele>105.88</ele>
        <time>2015-01-17T15:30:54Z</time>
      </trkpt>
      <trkpt lat="48.70549" lon="2.10267">
        <ele>102.52</ele>
        <time>2015-01-17T15:31:05Z</time>
      </trkpt>
      <trkpt lat="48.7055" lon="2.10248">
        <ele>101.08</ele>
        <time>2015-01-17T15:31:16Z</time>
      </trkpt>
      <trkpt lat="48.70552" lon="2.10245">
        <ele>101.08</ele>
        <time>2015-01-17T15:31:18Z</time>
      </trkpt>
      <trkpt lat="48.70555" lon="2.10237">
        <ele>102.04</ele>
        <time>2015-01-17T15:31:37Z</time>
      </trkpt>
      <trkpt lat="48.70554" lon="2.10238">
        <ele>100.11</ele>
        <time>2015-01-17T15:32:01Z</time>
      </trkpt>
      <trkpt lat="48.70553" lon="2.10238">
        <ele>99.63</ele>
        <time>2015-01-17T15:32:02Z</time>
      </trkpt>
      <trkpt lat="48.70547" lon="2.1024">
        <ele>97.71</ele>
        <time>2015-01-17T15:32:13Z</time>
      </trkpt>
      <trkpt lat="48.70543" lon="2.10237">
        <ele>96.75</ele>
        <time>2015-01-17T15:32:21Z</time>
      </trkpt>
      <trkpt lat="48.70545" lon="2.10237">
        <ele>96.27</ele>
        <time>2015-01-17T15:32:38Z</time>
      </trkpt>
      <trkpt lat="48.70542" lon="2.10238">
        <ele>96.27</ele>
        <time>2015-01-17T15:33:01Z</time>
      </trkpt>
      <trkpt lat="48.7054" lon="2.10239">
        <ele>96.75</ele>
        <time>2015-01-17T15:33:16Z</time>
      </trkpt>
      <trkpt lat="48.70532" lon="2.10235">
        <ele>96.27</ele>
        <time>2015-01-17T15:33:29Z</time>
      </trkpt>
      <trkpt lat="48.70533" lon="2.10221">
        <ele>97.23</ele>
        <time>2015-01-17T15:33:42Z</time>
      </trkpt>
      <trkpt lat="48.70533" lon="2.10216">
        <ele>97.23</ele>
        <time>2015-01-17T15:33:45Z</time>
      </trkpt>
      <trkpt lat="48.70534" lon="2.10192">
        <ele>99.63</ele>
        <time>2015-01-17T15:34:01Z</time>
      </trkpt>
      <trkpt lat="48.70535" lon="2.10168">
        <ele>99.15</ele>
        <time>2015-01-17T15:34:15Z</time>
      </trkpt>
      <trkpt lat="48.70541" lon="2.10145">
        <ele>98.67</ele>
        <time>2015-01-17T15:34:29Z</time>
      </trkpt>
      <trkpt lat="48.70541" lon="2.10142">
        <ele>98.19</ele>
        <time>2015-01-17T15:34:31Z</time>
      </trkpt>
      <trkpt lat="48.70543" lon="2.10134">
        <ele>98.19</ele>
        <time>2015-01-17T15:34:36Z</time>
      </trkpt>
      <trkpt lat="48.70544" lon="2.10129">
        <ele>97.71</ele>
        <time>2015-01-17T15:34:39Z</time>
      </trkpt>
      <trkpt lat="48.7055" lon="2.10106">
        <ele>97.23</ele>
        <time>2015-01-17T15:34:54Z</time>
      </trkpt>
      <trkpt lat="48.70552" lon="2.10098">
        <ele>97.23</ele>
        <time>2015-01-17T15:34:59Z</time>
      </trkpt>
      <trkpt lat="48.70557" lon="2.10078">
        <ele>97.23</ele>
        <time>2015-01-17T15:35:12Z</time>
      </trkpt>
      <trkpt lat="48.70557" lon="2.10066">
        <ele>97.23</ele>
        <time>2015-01-17T15:35:19Z</time>
      </trkpt>
      <trkpt lat="48.70556" lon="2.10061">
        <ele>96.75</ele>
        <time>2015-01-17T15:35:23Z</time>
      </trkpt>
      <trkpt lat="48.70555" lon="2.10044">
        <ele>96.75</ele>
        <time>2015-01-17T15:35:36Z</time>
      </trkpt>
      <trkpt lat="48.70556" lon="2.1003">
        <ele>97.23</ele>
        <time>2015-01-17T15:35:43Z</time>
      </trkpt>
      <trkpt lat="48.70556" lon="2.10006">
        <ele>97.23</ele>
        <time>2015-01-17T15:35:57Z</time>
      </trkpt>
      <trkpt lat="48.70558" lon="2.09987">
        <ele>97.71</ele>
        <time>2015-01-17T15:36:10Z</time>
      </trkpt>
      <trkpt lat="48.70561" lon="2.09962">
        <ele>99.15</ele>
        <time>2015-01-17T15:36:24Z</time>
      </trkpt>
      <trkpt lat="48.70563" lon="2.0995">
        <ele>99.63</ele>
        <time>2015-01-17T15:36:31Z</time>
      </trkpt>
      <trkpt lat="48.70564" lon="2.09938">
        <ele>99.63</ele>
        <time>2015-01-17T15:36:36Z</time>
      </trkpt>
      <trkpt lat="48.70565" lon="2.09926">
        <ele>100.11</ele>
        <time>2015-01-17T15:36:46Z</time>
      </trkpt>
      <trkpt lat="48.7057" lon="2.09905">
        <ele>100.6</ele>
        <time>2015-01-17T15:36:59Z</time>
      </trkpt>
      <trkpt lat="48.70573" lon="2.09895">
        <ele>101.08</ele>
        <time>2015-01-17T15:37:08Z</time>
      </trkpt>
      <trkpt lat="48.70576" lon="2.09876">
        <ele>101.08</ele>
        <time>2015-01-17T15:37:17Z</time>
      </trkpt>
      <trkpt lat="48.70577" lon="2.0987">
        <ele>101.08</ele>
        <time>2015-01-17T15:37:20Z</time>
      </trkpt>
      <trkpt lat="48.70576" lon="2.09861">
        <ele>101.08</ele>
        <time>2015-01-17T15:37:24Z</time>
      </trkpt>
      <trkpt lat="48.70584" lon="2.09838">
        <ele>101.08</ele>
        <time>2015-01-17T15:37:40Z</time>
      </trkpt>
      <trkpt lat="48.70588" lon="2.0982">
        <ele>102.04</ele>
        <time>2015-01-17T15:37:51Z</time>
      </trkpt>
      <trkpt lat="48.70591" lon="2.09805">
        <ele>102.52</ele>
        <time>2015-01-17T15:38:03Z</time>
      </trkpt>
      <trkpt lat="48.70596" lon="2.0978">
        <ele>103</ele>
        <time>2015-01-17T15:38:18Z</time>
      </trkpt>
      <trkpt lat="48.70599" lon="2.09759">
        <ele>103.96</ele>
        <time>2015-01-17T15:38:29Z</time>
      </trkpt>
      <trkpt lat="48.70602" lon="2.09737">
        <ele>104.44</ele>
        <time>2015-01-17T15:38:43Z</time>
      </trkpt>
      <trkpt lat="48.70602" lon="2.09736">
        <ele>104.44</ele>
        <time>2015-01-17T15:38:44Z</time>
      </trkpt>
      <trkpt lat="48.70602" lon="2.09729">
        <ele>104.44</ele>
        <time>2015-01-17T15:38:48Z</time>
      </trkpt>
      <trkpt lat="48.70603" lon="2.09717">
        <ele>104.44</ele>
        <time>2015-01-17T15:38:54Z</time>
      </trkpt>
      <trkpt lat="48.70604" lon="2.09695">
        <ele>105.4</ele>
        <time>2015-01-17T15:39:08Z</time>
      </trkpt>
      <trkpt lat="48.70608" lon="2.09668">
        <ele>105.88</ele>
        <time>2015-01-17T15:39:23Z</time>
      </trkpt>
      <trkpt lat="48.70611" lon="2.09642">
        <ele>106.36</ele>
        <time>2015-01-17T15:39:39Z</time>
      </trkpt>
      <trkpt lat="48.70617" lon="2.09617">
        <ele>104.92</ele>
        <time>2015-01-17T15:39:53Z</time>
      </trkpt>
      <trkpt lat="48.70621" lon="2.09604">
        <ele>104.44</ele>
        <time>2015-01-17T15:40:03Z</time>
      </trkpt>
      <trkpt lat="48.7063" lon="2.09583">
        <ele>103.48</ele>
        <time>2015-01-17T15:40:17Z</time>
      </trkpt>
      <trkpt lat="48.70631" lon="2.09578">
        <ele>103</ele>
        <time>2015-01-17T15:40:21Z</time>
      </trkpt>
      <trkpt lat="48.70637" lon="2.09558">
        <ele>103</ele>
        <time>2015-01-17T15:40:35Z</time>
      </trkpt>
      <trkpt lat="48.70641" lon="2.09541">
        <ele>103.48</ele>
        <time>2015-01-17T15:40:46Z</time>
      </trkpt>
      <trkpt lat="48.70646" lon="2.09525">
        <ele>103.48</ele>
        <time>2015-01-17T15:40:57Z</time>
      </trkpt>
      <trkpt lat="48.70648" lon="2.09514">
        <ele>103.96</ele>
        <time>2015-01-17T15:41:07Z</time>
      </trkpt>
      <trkpt lat="48.70648" lon="2.0951">
        <ele>103.96</ele>
        <time>2015-01-17T15:41:09Z</time>
      </trkpt>
      <trkpt lat="48.70653" lon="2.09487">
        <ele>103.48</ele>
        <time>2015-01-17T15:41:22Z</time>
      </trkpt>
      <trkpt lat="48.70655" lon="2.09469">
        <ele>103.48</ele>
        <time>2015-01-17T15:41:33Z</time>
      </trkpt>
      <trkpt lat="48.70657" lon="2.09461">
        <ele>103.48</ele>
        <time>2015-01-17T15:41:38Z</time>
      </trkpt>
      <trkpt lat="48.70656" lon="2.09452">
        <ele>103.48</ele>
        <time>2015-01-17T15:41:42Z</time>
      </trkpt>
      <trkpt lat="48.70656" lon="2.09445">
        <ele>103.48</ele>
        <time>2015-01-17T15:41:46Z</time>
      </trkpt>
      <trkpt lat="48.70652" lon="2.09427">
        <ele>103.48</ele>
        <time>2015-01-17T15:41:57Z</time>
      </trkpt>
      <trkpt lat="48.70644" lon="2.0941">
        <ele>103.48</ele>
        <time>2015-01-17T15:42:09Z</time>
      </trkpt>
      <trkpt lat="48.70641" lon="2.0938">
        <ele>103.96</ele>
        <time>2015-01-17T15:42:24Z</time>
      </trkpt>
      <trkpt lat="48.70644" lon="2.09371">
        <ele>103.48</ele>
        <time>2015-01-17T15:42:29Z</time>
      </trkpt>
      <trkpt lat="48.70648" lon="2.09351">
        <ele>103</ele>
        <time>2015-01-17T15:42:41Z</time>
      </trkpt>
      <trkpt lat="48.70651" lon="2.09346">
        <ele>103</ele>
        <time>2015-01-17T15:42:46Z</time>
      </trkpt>
      <trkpt lat="48.70654" lon="2.09326">
        <ele>102.52</ele>
        <time>2015-01-17T15:42:57Z</time>
      </trkpt>
      <trkpt lat="48.70658" lon="2.09309">
        <ele>103</ele>
        <time>2015-01-17T15:43:08Z</time>
      </trkpt>
      <trkpt lat="48.70658" lon="2.09294">
        <ele>103</ele>
        <time>2015-01-17T15:43:15Z</time>
      </trkpt>
      <trkpt lat="48.70661" lon="2.09273">
        <ele>103</ele>
        <time>2015-01-17T15:43:28Z</time>
      </trkpt>
      <trkpt lat="48.70662" lon="2.09269">
        <ele>103</ele>
        <time>2015-01-17T15:43:31Z</time>
      </trkpt>
      <trkpt lat="48.70664" lon="2.09253">
        <ele>103.48</ele>
        <time>2015-01-17T15:43:39Z</time>
      </trkpt>
      <trkpt lat="48.70667" lon="2.09235">
        <ele>104.44</ele>
        <time>2015-01-17T15:43:53Z</time>
      </trkpt>
      <trkpt lat="48.70667" lon="2.09232">
        <ele>104.92</ele>
        <time>2015-01-17T15:43:56Z</time>
      </trkpt>
      <trkpt lat="48.70672" lon="2.09206">
        <ele>105.88</ele>
        <time>2015-01-17T15:44:09Z</time>
      </trkpt>
      <trkpt lat="48.70679" lon="2.09183">
        <ele>106.36</ele>
        <time>2015-01-17T15:44:23Z</time>
      </trkpt>
      <trkpt lat="48.70681" lon="2.09178">
        <ele>106.84</ele>
        <time>2015-01-17T15:44:26Z</time>
      </trkpt>
      <trkpt lat="48.70682" lon="2.09175">
        <ele>107.32</ele>
        <time>2015-01-17T15:44:28Z</time>
      </trkpt>
      <trkpt lat="48.70683" lon="2.09155">
        <ele>107.81</ele>
        <time>2015-01-17T15:44:40Z</time>
      </trkpt>
      <trkpt lat="48.70683" lon="2.09153">
        <ele>107.81</ele>
        <time>2015-01-17T15:44:41Z</time>
      </trkpt>
      <trkpt lat="48.70684" lon="2.09139">
        <ele>107.81</ele>
        <time>2015-01-17T15:44:51Z</time>
      </trkpt>
      <trkpt lat="48.70686" lon="2.09117">
        <ele>107.32</ele>
        <time>2015-01-17T15:45:05Z</time>
      </trkpt>
      <trkpt lat="48.70686" lon="2.0911">
        <ele>106.84</ele>
        <time>2015-01-17T15:45:11Z</time>
      </trkpt>
      <trkpt lat="48.70687" lon="2.09103">
        <ele>106.36</ele>
        <time>2015-01-17T15:45:15Z</time>
      </trkpt>
      <trkpt lat="48.70687" lon="2.0908">
        <ele>105.4</ele>
        <time>2015-01-17T15:45:26Z</time>
      </trkpt>
      <trkpt lat="48.70689" lon="2.09076">
        <ele>104.92</ele>
        <time>2015-01-17T15:45:29Z</time>
      </trkpt>
      <trkpt lat="48.70697" lon="2.09062">
        <ele>103.96</ele>
        <time>2015-01-17T15:45:37Z</time>
      </trkpt>
      <trkpt lat="48.70703" lon="2.0904">
        <ele>103</ele>
        <time>2015-01-17T15:45:49Z</time>
      </trkpt>
      <trkpt lat="48.70703" lon="2.09036">
        <ele>103.96</ele>
        <time>2015-01-17T15:45:51Z</time>
      </trkpt>
      <trkpt lat="48.70711" lon="2.09011">
        <ele>102.52</ele>
        <time>2015-01-17T15:46:03Z</time>
      </trkpt>
      <trkpt lat="48.70712" lon="2.09004">
        <ele>102.04</ele>
        <time>2015-01-17T15:46:06Z</time>
      </trkpt>
      <trkpt lat="48.70714" lon="2.08998">
        <ele>102.04</ele>
        <time>2015-01-17T15:46:09Z</time>
      </trkpt>
      <trkpt lat="48.70715" lon="2.08979">
        <ele>101.08</ele>
        <time>2015-01-17T15:46:21Z</time>
      </trkpt>
      <trkpt lat="48.70714" lon="2.08975">
        <ele>100.6</ele>
        <time>2015-01-17T15:46:23Z</time>
      </trkpt>
      <trkpt lat="48.70707" lon="2.08968">
        <ele>99.15</ele>
        <time>2015-01-17T15:46:33Z</time>
      </trkpt>
      <trkpt lat="48.70699" lon="2.08966">
        <ele>97.71</ele>
        <time>2015-01-17T15:46:44Z</time>
      </trkpt>
      <trkpt lat="48.70696" lon="2.08964">
        <ele>97.71</ele>
        <time>2015-01-17T15:46:47Z</time>
      </trkpt>
      <trkpt lat="48.70684" lon="2.08957">
        <ele>96.75</ele>
        <time>2015-01-17T15:46:56Z</time>
      </trkpt>
      <trkpt lat="48.70684" lon="2.08956">
        <ele>96.27</ele>
        <time>2015-01-17T15:46:57Z</time>
      </trkpt>
      <trkpt lat="48.70674" lon="2.08956">
        <ele>95.79</ele>
        <time>2015-01-17T15:47:09Z</time>
      </trkpt>
      <trkpt lat="48.7067" lon="2.08951">
        <ele>94.35</ele>
        <time>2015-01-17T15:47:20Z</time>
      </trkpt>
      <trkpt lat="48.70662" lon="2.08943">
        <ele>93.39</ele>
        <time>2015-01-17T15:47:30Z</time>
      </trkpt>
      <trkpt lat="48.70646" lon="2.08936">
        <ele>91.94</ele>
        <time>2015-01-17T15:47:42Z</time>
      </trkpt>
      <trkpt lat="48.70629" lon="2.08939">
        <ele>91.46</ele>
        <time>2015-01-17T15:47:48Z</time>
      </trkpt>
      <trkpt lat="48.70624" lon="2.08938">
        <ele>91.46</ele>
        <time>2015-01-17T15:47:52Z</time>
      </trkpt>
      <trkpt lat="48.70607" lon="2.08939">
        <ele>90.5</ele>
        <time>2015-01-17T15:48:01Z</time>
      </trkpt>
      <trkpt lat="48.70603" lon="2.08927">
        <ele>90.02</ele>
        <time>2015-01-17T15:48:13Z</time>
      </trkpt>
      <trkpt lat="48.70598" lon="2.08921">
        <ele>90.02</ele>
        <time>2015-01-17T15:48:26Z</time>
      </trkpt>
      <trkpt lat="48.70594" lon="2.08921">
        <ele>89.54</ele>
        <time>2015-01-17T15:48:35Z</time>
      </trkpt>
      <trkpt lat="48.70594" lon="2.08922">
        <ele>89.54</ele>
        <time>2015-01-17T15:48:36Z</time>
      </trkpt>
      <trkpt lat="48.70591" lon="2.08922">
        <ele>89.06</ele>
        <time>2015-01-17T15:48:46Z</time>
      </trkpt>
      <trkpt lat="48.70586" lon="2.08917">
        <ele>88.1</ele>
        <time>2015-01-17T15:48:57Z</time>
      </trkpt>
      <trkpt lat="48.70578" lon="2.08913">
        <ele>87.62</ele>
        <time>2015-01-17T15:49:08Z</time>
      </trkpt>
      <trkpt lat="48.70576" lon="2.08912">
        <ele>87.62</ele>
        <time>2015-01-17T15:49:20Z</time>
      </trkpt>
      <trkpt lat="48.70572" lon="2.08909">
        <ele>86.66</ele>
        <time>2015-01-17T15:49:28Z</time>
      </trkpt>
      <trkpt lat="48.70556" lon="2.08907">
        <ele>86.18</ele>
        <time>2015-01-17T15:49:41Z</time>
      </trkpt>
      <trkpt lat="48.70549" lon="2.08903">
        <ele>86.18</ele>
        <time>2015-01-17T15:49:51Z</time>
      </trkpt>
      <trkpt lat="48.70548" lon="2.08902">
        <ele>85.69</ele>
        <time>2015-01-17T15:49:52Z</time>
      </trkpt>
      <trkpt lat="48.70539" lon="2.08898">
        <ele>85.21</ele>
        <time>2015-01-17T15:50:03Z</time>
      </trkpt>
      <trkpt lat="48.70536" lon="2.08898">
        <ele>84.73</ele>
        <time>2015-01-17T15:50:06Z</time>
      </trkpt>
      <trkpt lat="48.70529" lon="2.08898">
        <ele>84.73</ele>
        <time>2015-01-17T15:50:12Z</time>
      </trkpt>
      <trkpt lat="48.70521" lon="2.08897">
        <ele>85.21</ele>
        <time>2015-01-17T15:50:19Z</time>
      </trkpt>
      <trkpt lat="48.70516" lon="2.08897">
        <ele>85.21</ele>
        <time>2015-01-17T15:50:22Z</time>
      </trkpt>
      <trkpt lat="48.70498" lon="2.08894">
        <ele>85.21</ele>
        <time>2015-01-17T15:50:36Z</time>
      </trkpt>
      <trkpt lat="48.70496" lon="2.08892">
        <ele>85.21</ele>
        <time>2015-01-17T15:50:39Z</time>
      </trkpt>
      <trkpt lat="48.70491" lon="2.08889">
        <ele>85.69</ele>
        <time>2015-01-17T15:50:43Z</time>
      </trkpt>
      <trkpt lat="48.70481" lon="2.08887">
        <ele>85.69</ele>
        <time>2015-01-17T15:50:51Z</time>
      </trkpt>
      <trkpt lat="48.70474" lon="2.08885">
        <ele>85.69</ele>
        <time>2015-01-17T15:50:56Z</time>
      </trkpt>
      <trkpt lat="48.70459" lon="2.08881">
        <ele>85.69</ele>
        <time>2015-01-17T15:51:08Z</time>
      </trkpt>
      <trkpt lat="48.70443" lon="2.08877">
        <ele>86.18</ele>
        <time>2015-01-17T15:51:19Z</time>
      </trkpt>
      <trkpt lat="48.70442" lon="2.08872">
        <ele>86.18</ele>
        <time>2015-01-17T15:51:22Z</time>
      </trkpt>
      <trkpt lat="48.70441" lon="2.0887">
        <ele>86.18</ele>
        <time>2015-01-17T15:51:24Z</time>
      </trkpt>
      <trkpt lat="48.70438" lon="2.08866">
        <ele>86.18</ele>
        <time>2015-01-17T15:51:29Z</time>
      </trkpt>
      <trkpt lat="48.70433" lon="2.08862">
        <ele>85.69</ele>
        <time>2015-01-17T15:51:36Z</time>
      </trkpt>
      <trkpt lat="48.70427" lon="2.08855">
        <ele>85.69</ele>
        <time>2015-01-17T15:51:41Z</time>
      </trkpt>
      <trkpt lat="48.7042" lon="2.08845">
        <ele>85.69</ele>
        <time>2015-01-17T15:51:47Z</time>
      </trkpt>
      <trkpt lat="48.70419" lon="2.08838">
        <ele>85.21</ele>
        <time>2015-01-17T15:51:51Z</time>
      </trkpt>
      <trkpt lat="48.70418" lon="2.08822">
        <ele>85.21</ele>
        <time>2015-01-17T15:52:00Z</time>
      </trkpt>
      <trkpt lat="48.70418" lon="2.0882">
        <ele>85.21</ele>
        <time>2015-01-17T15:52:01Z</time>
      </trkpt>
      <trkpt lat="48.70415" lon="2.08807">
        <ele>85.21</ele>
        <time>2015-01-17T15:52:08Z</time>
      </trkpt>
      <trkpt lat="48.70416" lon="2.08784">
        <ele>85.21</ele>
        <time>2015-01-17T15:52:18Z</time>
      </trkpt>
      <trkpt lat="48.70417" lon="2.08762">
        <ele>85.21</ele>
        <time>2015-01-17T15:52:32Z</time>
      </trkpt>
      <trkpt lat="48.70418" lon="2.08751">
        <ele>85.21</ele>
        <time>2015-01-17T15:52:40Z</time>
      </trkpt>
      <trkpt lat="48.70418" lon="2.0874">
        <ele>85.69</ele>
        <time>2015-01-17T15:52:46Z</time>
      </trkpt>
      <trkpt lat="48.70418" lon="2.08727">
        <ele>85.21</ele>
        <time>2015-01-17T15:52:53Z</time>
      </trkpt>
      <trkpt lat="48.7042" lon="2.08705">
        <ele>85.69</ele>
        <time>2015-01-17T15:53:05Z</time>
      </trkpt>
      <trkpt lat="48.70422" lon="2.08685">
        <ele>85.21</ele>
        <time>2015-01-17T15:53:15Z</time>
      </trkpt>
      <trkpt lat="48.70422" lon="2.08678">
        <ele>85.69</ele>
        <time>2015-01-17T15:53:19Z</time>
      </trkpt>
      <trkpt lat="48.70424" lon="2.0866">
        <ele>85.69</ele>
        <time>2015-01-17T15:53:30Z</time>
      </trkpt>
      <trkpt lat="48.70424" lon="2.08654">
        <ele>85.69</ele>
        <time>2015-01-17T15:53:33Z</time>
      </trkpt>
      <trkpt lat="48.70424" lon="2.08646">
        <ele>85.69</ele>
        <time>2015-01-17T15:53:37Z</time>
      </trkpt>
      <trkpt lat="48.70423" lon="2.08638">
        <ele>85.69</ele>
        <time>2015-01-17T15:53:41Z</time>
      </trkpt>
      <trkpt lat="48.70424" lon="2.08612">
        <ele>85.69</ele>
        <time>2015-01-17T15:53:53Z</time>
      </trkpt>
      <trkpt lat="48.70424" lon="2.08608">
        <ele>85.69</ele>
        <time>2015-01-17T15:53:55Z</time>
      </trkpt>
      <trkpt lat="48.70425" lon="2.0858">
        <ele>85.69</ele>
        <time>2015-01-17T15:54:09Z</time>
      </trkpt>
      <trkpt lat="48.70425" lon="2.0857">
        <ele>85.69</ele>
        <time>2015-01-17T15:54:14Z</time>
      </trkpt>
      <trkpt lat="48.70424" lon="2.08564">
        <ele>85.69</ele>
        <time>2015-01-17T15:54:18Z</time>
      </trkpt>
      <trkpt lat="48.70425" lon="2.08541">
        <ele>85.69</ele>
        <time>2015-01-17T15:54:30Z</time>
      </trkpt>
      <trkpt lat="48.70422" lon="2.08523">
        <ele>85.69</ele>
        <time>2015-01-17T15:54:41Z</time>
      </trkpt>
      <trkpt lat="48.70422" lon="2.08512">
        <ele>86.18</ele>
        <time>2015-01-17T15:54:46Z</time>
      </trkpt>
      <trkpt lat="48.70424" lon="2.08501">
        <ele>86.66</ele>
        <time>2015-01-17T15:54:52Z</time>
      </trkpt>
      <trkpt lat="48.70424" lon="2.08498">
        <ele>86.66</ele>
        <time>2015-01-17T15:54:54Z</time>
      </trkpt>
      <trkpt lat="48.70427" lon="2.08489">
        <ele>86.66</ele>
        <time>2015-01-17T15:54:59Z</time>
      </trkpt>
      <trkpt lat="48.70431" lon="2.08482">
        <ele>86.66</ele>
        <time>2015-01-17T15:55:03Z</time>
      </trkpt>
      <trkpt lat="48.70433" lon="2.08469">
        <ele>86.66</ele>
        <time>2015-01-17T15:55:11Z</time>
      </trkpt>
      <trkpt lat="48.7043" lon="2.08446">
        <ele>86.66</ele>
        <time>2015-01-17T15:55:24Z</time>
      </trkpt>
      <trkpt lat="48.70427" lon="2.08439">
        <ele>86.66</ele>
        <time>2015-01-17T15:55:28Z</time>
      </trkpt>
      <trkpt lat="48.70421" lon="2.08418">
        <ele>86.66</ele>
        <time>2015-01-17T15:55:40Z</time>
      </trkpt>
      <trkpt lat="48.70419" lon="2.08406">
        <ele>86.66</ele>
        <time>2015-01-17T15:55:46Z</time>
      </trkpt>
      <trkpt lat="48.70419" lon="2.08396">
        <ele>86.66</ele>
        <time>2015-01-17T15:55:51Z</time>
      </trkpt>
      <trkpt lat="48.70415" lon="2.08377">
        <ele>87.14</ele>
        <time>2015-01-17T15:56:03Z</time>
      </trkpt>
      <trkpt lat="48.70415" lon="2.08371">
        <ele>87.14</ele>
        <time>2015-01-17T15:56:07Z</time>
      </trkpt>
      <trkpt lat="48.70414" lon="2.08364">
        <ele>87.14</ele>
        <time>2015-01-17T15:56:10Z</time>
      </trkpt>
      <trkpt lat="48.70413" lon="2.08356">
        <ele>87.14</ele>
        <time>2015-01-17T15:56:14Z</time>
      </trkpt>
      <trkpt lat="48.70412" lon="2.08354">
        <ele>87.62</ele>
        <time>2015-01-17T15:56:16Z</time>
      </trkpt>
      <trkpt lat="48.70412" lon="2.08336">
        <ele>87.62</ele>
        <time>2015-01-17T15:56:27Z</time>
      </trkpt>
      <trkpt lat="48.70411" lon="2.0833">
        <ele>87.62</ele>
        <time>2015-01-17T15:56:30Z</time>
      </trkpt>
      <trkpt lat="48.7041" lon="2.08318">
        <ele>88.1</ele>
        <time>2015-01-17T15:56:36Z</time>
      </trkpt>
      <trkpt lat="48.70408" lon="2.08303">
        <ele>88.1</ele>
        <time>2015-01-17T15:56:44Z</time>
      </trkpt>
      <trkpt lat="48.70406" lon="2.08289">
        <ele>88.58</ele>
        <time>2015-01-17T15:56:53Z</time>
      </trkpt>
      <trkpt lat="48.70405" lon="2.08274">
        <ele>88.58</ele>
        <time>2015-01-17T15:57:02Z</time>
      </trkpt>
      <trkpt lat="48.70403" lon="2.08259">
        <ele>89.06</ele>
        <time>2015-01-17T15:57:11Z</time>
      </trkpt>
      <trkpt lat="48.70402" lon="2.08247">
        <ele>89.54</ele>
        <time>2015-01-17T15:57:17Z</time>
      </trkpt>
      <trkpt lat="48.704" lon="2.08241">
        <ele>89.54</ele>
        <time>2015-01-17T15:57:21Z</time>
      </trkpt>
      <trkpt lat="48.70398" lon="2.08229">
        <ele>90.02</ele>
        <time>2015-01-17T15:57:28Z</time>
      </trkpt>
      <trkpt lat="48.70397" lon="2.08213">
        <ele>90.98</ele>
        <time>2015-01-17T15:57:37Z</time>
      </trkpt>
      <trkpt lat="48.70395" lon="2.08184">
        <ele>91.94</ele>
        <time>2015-01-17T15:57:54Z</time>
      </trkpt>
      <trkpt lat="48.70394" lon="2.08181">
        <ele>92.42</ele>
        <time>2015-01-17T15:57:57Z</time>
      </trkpt>
      <trkpt lat="48.70392" lon="2.08157">
        <ele>93.39</ele>
        <time>2015-01-17T15:58:09Z</time>
      </trkpt>
      <trkpt lat="48.70391" lon="2.08151">
        <ele>93.39</ele>
        <time>2015-01-17T15:58:13Z</time>
      </trkpt>
      <trkpt lat="48.70388" lon="2.08128">
        <ele>93.87</ele>
        <time>2015-01-17T15:58:25Z</time>
      </trkpt>
      <trkpt lat="48.70387" lon="2.08104">
        <ele>94.83</ele>
        <time>2015-01-17T15:58:38Z</time>
      </trkpt>
      <trkpt lat="48.70387" lon="2.08099">
        <ele>94.83</ele>
        <time>2015-01-17T15:58:40Z</time>
      </trkpt>
      <trkpt lat="48.70385" lon="2.08085">
        <ele>94.83</ele>
        <time>2015-01-17T15:58:49Z</time>
      </trkpt>
      <trkpt lat="48.70385" lon="2.08082">
        <ele>95.31</ele>
        <time>2015-01-17T15:58:51Z</time>
      </trkpt>
      <trkpt lat="48.70384" lon="2.08075">
        <ele>95.31</ele>
        <time>2015-01-17T15:58:55Z</time>
      </trkpt>
      <trkpt lat="48.70381" lon="2.08051">
        <ele>95.79</ele>
        <time>2015-01-17T15:59:08Z</time>
      </trkpt>
      <trkpt lat="48.70381" lon="2.08049">
        <ele>95.79</ele>
        <time>2015-01-17T15:59:09Z</time>
      </trkpt>
      <trkpt lat="48.70377" lon="2.08019">
        <ele>95.79</ele>
        <time>2015-01-17T15:59:23Z</time>
      </trkpt>
      <trkpt lat="48.70377" lon="2.08015">
        <ele>95.79</ele>
        <time>2015-01-17T15:59:25Z</time>
      </trkpt>
      <trkpt lat="48.70377" lon="2.08011">
        <ele>95.79</ele>
        <time>2015-01-17T15:59:28Z</time>
      </trkpt>
      <trkpt lat="48.70375" lon="2.08">
        <ele>96.27</ele>
        <time>2015-01-17T15:59:33Z</time>
      </trkpt>
      <trkpt lat="48.70374" lon="2.0798">
        <ele>96.27</ele>
        <time>2015-01-17T15:59:44Z</time>
      </trkpt>
      <trkpt lat="48.70373" lon="2.0797">
        <ele>96.27</ele>
        <time>2015-01-17T15:59:49Z</time>
      </trkpt>
      <trkpt lat="48.70373" lon="2.07947">
        <ele>95.79</ele>
        <time>2015-01-17T16:00:02Z</time>
      </trkpt>
      <trkpt lat="48.7037" lon="2.07926">
        <ele>95.31</ele>
        <time>2015-01-17T16:00:14Z</time>
      </trkpt>
      <trkpt lat="48.70366" lon="2.07898">
        <ele>95.31</ele>
        <time>2015-01-17T16:00:30Z</time>
      </trkpt>
      <trkpt lat="48.70363" lon="2.0788">
        <ele>94.83</ele>
        <time>2015-01-17T16:00:40Z</time>
      </trkpt>
      <trkpt lat="48.7036" lon="2.07852">
        <ele>95.31</ele>
        <time>2015-01-17T16:00:55Z</time>
      </trkpt>
      <trkpt lat="48.70361" lon="2.07849">
        <ele>94.83</ele>
        <time>2015-01-17T16:00:56Z</time>
      </trkpt>
      <trkpt lat="48.7036" lon="2.07841">
        <ele>95.31</ele>
        <time>2015-01-17T16:01:00Z</time>
      </trkpt>
      <trkpt lat="48.70358" lon="2.07812">
        <ele>95.31</ele>
        <time>2015-01-17T16:01:15Z</time>
      </trkpt>
      <trkpt lat="48.70358" lon="2.07785">
        <ele>95.79</ele>
        <time>2015-01-17T16:01:29Z</time>
      </trkpt>
      <trkpt lat="48.70357" lon="2.07765">
        <ele>95.79</ele>
        <time>2015-01-17T16:01:40Z</time>
      </trkpt>
      <trkpt lat="48.70357" lon="2.07758">
        <ele>95.79</ele>
        <time>2015-01-17T16:01:44Z</time>
      </trkpt>
      <trkpt lat="48.70357" lon="2.07752">
        <ele>96.27</ele>
        <time>2015-01-17T16:01:48Z</time>
      </trkpt>
      <trkpt lat="48.70358" lon="2.07728">
        <ele>96.27</ele>
        <time>2015-01-17T16:02:01Z</time>
      </trkpt>
      <trkpt lat="48.70357" lon="2.07718">
        <ele>96.27</ele>
        <time>2015-01-17T16:02:07Z</time>
      </trkpt>
      <trkpt lat="48.70356" lon="2.07697">
        <ele>96.27</ele>
        <time>2015-01-17T16:02:19Z</time>
      </trkpt>
      <trkpt lat="48.70356" lon="2.07695">
        <ele>96.27</ele>
        <time>2015-01-17T16:02:20Z</time>
      </trkpt>
      <trkpt lat="48.70359" lon="2.07672">
        <ele>95.79</ele>
        <time>2015-01-17T16:02:32Z</time>
      </trkpt>
      <trkpt lat="48.70357" lon="2.07664">
        <ele>95.79</ele>
        <time>2015-01-17T16:02:37Z</time>
      </trkpt>
      <trkpt lat="48.70356" lon="2.07659">
        <ele>95.79</ele>
        <time>2015-01-17T16:02:40Z</time>
      </trkpt>
      <trkpt lat="48.70356" lon="2.07643">
        <ele>95.31</ele>
        <time>2015-01-17T16:02:48Z</time>
      </trkpt>
      <trkpt lat="48.70356" lon="2.07636">
        <ele>95.31</ele>
        <time>2015-01-17T16:02:52Z</time>
      </trkpt>
      <trkpt lat="48.70355" lon="2.07618">
        <ele>94.83</ele>
        <time>2015-01-17T16:03:01Z</time>
      </trkpt>
      <trkpt lat="48.70356" lon="2.07605">
        <ele>94.35</ele>
        <time>2015-01-17T16:03:08Z</time>
      </trkpt>
      <trkpt lat="48.70354" lon="2.0758">
        <ele>93.87</ele>
        <time>2015-01-17T16:03:22Z</time>
      </trkpt>
      <trkpt lat="48.70353" lon="2.07561">
        <ele>92.9</ele>
        <time>2015-01-17T16:03:32Z</time>
      </trkpt>
      <trkpt lat="48.70353" lon="2.07538">
        <ele>91.94</ele>
        <time>2015-01-17T16:03:43Z</time>
      </trkpt>
      <trkpt lat="48.70353" lon="2.0753">
        <ele>91.46</ele>
        <time>2015-01-17T16:03:47Z</time>
      </trkpt>
      <trkpt lat="48.70352" lon="2.07514">
        <ele>90.5</ele>
        <time>2015-01-17T16:03:56Z</time>
      </trkpt>
      <trkpt lat="48.70353" lon="2.07496">
        <ele>90.5</ele>
        <time>2015-01-17T16:04:04Z</time>
      </trkpt>
      <trkpt lat="48.70352" lon="2.07487">
        <ele>90.02</ele>
        <time>2015-01-17T16:04:09Z</time>
      </trkpt>
      <trkpt lat="48.70352" lon="2.07482">
        <ele>90.02</ele>
        <time>2015-01-17T16:04:13Z</time>
      </trkpt>
      <trkpt lat="48.70351" lon="2.07475">
        <ele>89.54</ele>
        <time>2015-01-17T16:04:17Z</time>
      </trkpt>
      <trkpt lat="48.7035" lon="2.07459">
        <ele>89.06</ele>
        <time>2015-01-17T16:04:25Z</time>
      </trkpt>
      <trkpt lat="48.7035" lon="2.07446">
        <ele>88.58</ele>
        <time>2015-01-17T16:04:32Z</time>
      </trkpt>
      <trkpt lat="48.70348" lon="2.07432">
        <ele>88.1</ele>
        <time>2015-01-17T16:04:40Z</time>
      </trkpt>
      <trkpt lat="48.70347" lon="2.074">
        <ele>88.1</ele>
        <time>2015-01-17T16:04:56Z</time>
      </trkpt>
      <trkpt lat="48.70347" lon="2.07399">
        <ele>88.1</ele>
        <time>2015-01-17T16:04:57Z</time>
      </trkpt>
      <trkpt lat="48.70351" lon="2.07377">
        <ele>88.1</ele>
        <time>2015-01-17T16:05:09Z</time>
      </trkpt>
      <trkpt lat="48.70351" lon="2.07362">
        <ele>87.62</ele>
        <time>2015-01-17T16:05:18Z</time>
      </trkpt>
      <trkpt lat="48.70352" lon="2.0735">
        <ele>87.62</ele>
        <time>2015-01-17T16:05:32Z</time>
      </trkpt>
      <trkpt lat="48.70353" lon="2.07344">
        <ele>87.62</ele>
        <time>2015-01-17T16:05:42Z</time>
      </trkpt>
      <trkpt lat="48.70352" lon="2.07336">
        <ele>88.58</ele>
        <time>2015-01-17T16:05:53Z</time>
      </trkpt>
      <trkpt lat="48.70352" lon="2.07334">
        <ele>87.62</ele>
        <time>2015-01-17T16:05:56Z</time>
      </trkpt>
      <trkpt lat="48.70354" lon="2.07329">
        <ele>87.14</ele>
        <time>2015-01-17T16:06:07Z</time>
      </trkpt>
      <trkpt lat="48.70353" lon="2.07318">
        <ele>87.14</ele>
        <time>2015-01-17T16:06:21Z</time>
      </trkpt>
      <trkpt lat="48.70352" lon="2.07316">
        <ele>87.14</ele>
        <time>2015-01-17T16:06:29Z</time>
      </trkpt>
      <trkpt lat="48.70352" lon="2.07314">
        <ele>87.14</ele>
        <time>2015-01-17T16:06:31Z</time>
      </trkpt>
      <trkpt lat="48.70352" lon="2.0731">
        <ele>86.66</ele>
        <time>2015-01-17T16:06:33Z</time>
      </trkpt>
      <trkpt lat="48.70352" lon="2.07306">
        <ele>87.14</ele>
        <time>2015-01-17T16:06:36Z</time>
      </trkpt>
      <trkpt lat="48.70353" lon="2.07303">
        <ele>86.66</ele>
        <time>2015-01-17T16:06:38Z</time>
      </trkpt>
      <trkpt lat="48.70352" lon="2.07293">
        <ele>86.66</ele>
        <time>2015-01-17T16:06:49Z</time>
      </trkpt>
      <trkpt lat="48.70351" lon="2.07294">
        <ele>86.66</ele>
        <time>2015-01-17T16:07:08Z</time>
      </trkpt>
      <trkpt lat="48.70352" lon="2.07293">
        <ele>86.66</ele>
        <time>2015-01-17T16:07:23Z</time>
      </trkpt>
      <trkpt lat="48.70351" lon="2.07292">
        <ele>86.66</ele>
        <time>2015-01-17T16:07:24Z</time>
      </trkpt>
      <trkpt lat="48.70351" lon="2.07288">
        <ele>86.66</ele>
        <time>2015-01-17T16:07:26Z</time>
      </trkpt>
      <trkpt lat="48.70351" lon="2.07265">
        <ele>87.14</ele>
        <time>2015-01-17T16:07:39Z</time>
      </trkpt>
      <trkpt lat="48.7035" lon="2.07254">
        <ele>87.14</ele>
        <time>2015-01-17T16:07:46Z</time>
      </trkpt>
      <trkpt lat="48.70347" lon="2.07241">
        <ele>87.14</ele>
        <time>2015-01-17T16:07:52Z</time>
      </trkpt>
      <trkpt lat="48.70346" lon="2.07231">
        <ele>87.62</ele>
        <time>2015-01-17T16:07:57Z</time>
      </trkpt>
      <trkpt lat="48.70345" lon="2.07222">
        <ele>87.62</ele>
        <time>2015-01-17T16:08:02Z</time>
      </trkpt>
      <trkpt lat="48.70338" lon="2.07203">
        <ele>89.06</ele>
        <time>2015-01-17T16:08:14Z</time>
      </trkpt>
      <trkpt lat="48.70331" lon="2.07187">
        <ele>89.54</ele>
        <time>2015-01-17T16:08:23Z</time>
      </trkpt>
      <trkpt lat="48.70326" lon="2.07153">
        <ele>90.98</ele>
        <time>2015-01-17T16:08:41Z</time>
      </trkpt>
      <trkpt lat="48.70326" lon="2.07151">
        <ele>90.98</ele>
        <time>2015-01-17T16:08:42Z</time>
      </trkpt>
      <trkpt lat="48.70322" lon="2.07158">
        <ele>91.94</ele>
        <time>2015-01-17T16:08:53Z</time>
      </trkpt>
    </trkseg>
  </trk>
</gpx>